Wetterdaten: Montag, 30.10.2017
Datum Zeit Temp. A. Temp. A. max Feuchte A. Luftdruck Regen Wind Richtung Richtung Sonnenschein ET UV Solar Taupunkt Windchill Windböen
30.10.2017 00:00 3,6 °C 3,6 °C 85 % 1018,5 hPa 0,0 mm 9,6 km/h (2 Bft) W 259 ° 0 min 0,000 mm 0,0 UV-I 0 W/m² 1,3 °C 1,1 °C 16,1 km/h (3 Bft)
30.10.2017 00:01 3,6 °C 3,6 °C 86 % 1018,5 hPa 0,0 mm 9,3 km/h (2 Bft) W-NW 285 ° 0 min 0,000 mm 0,0 UV-I 0 W/m² 1,5 °C 1,2 °C 12,9 km/h (3 Bft)
30.10.2017 00:03 3,6 °C 3,6 °C 85 % 1018,6 hPa 0,0 mm 10,6 km/h (2 Bft) W-NW 300 ° 0 min 0,000 mm 0,0 UV-I 0 W/m² 1,3 °C 0,9 °C 14,5 km/h (3 Bft)
30.10.2017 00:04 3,5 °C 3,6 °C 85 % 1018,6 hPa 0,0 mm 5,0 km/h (1 Bft) W 259 ° 0 min 0,000 mm 0,0 UV-I 0 W/m² 1,2 °C 2,4 °C 9,7 km/h (2 Bft)
30.10.2017 00:05 3,5 °C 3,6 °C 85 % 1018,6 hPa 0,0 mm 10,7 km/h (2 Bft) W-NW 291 ° 0 min 0,000 mm 0,0 UV-I 0 W/m² 1,2 °C 0,7 °C 14,5 km/h (3 Bft)
30.10.2017 00:06 3,5 °C 3,5 °C 85 % 1018,6 hPa 0,0 mm 8,1 km/h (2 Bft) W 273 ° 0 min 0,000 mm 0,0 UV-I 0 W/m² 1,2 °C 1,3 °C 12,9 km/h (3 Bft)
30.10.2017 00:07 3,5 °C 3,5 °C 85 % 1018,6 hPa 0,0 mm 7,6 km/h (2 Bft) W-NW 287 ° 0 min 0,000 mm 0,0 UV-I 0 W/m² 1,2 °C 1,5 °C 12,9 km/h (3 Bft)
30.10.2017 00:08 3,5 °C 3,5 °C 85 % 1018,6 hPa 0,0 mm 4,6 km/h (1 Bft) NW 313 ° 0 min 0,000 mm 0,0 UV-I 0 W/m² 1,2 °C 2,6 °C 9,7 km/h (2 Bft)
30.10.2017 00:09 3,5 °C 3,5 °C 85 % 1018,6 hPa 0,0 mm 10,0 km/h (2 Bft) NW 305 ° 0 min 0,000 mm 0,0 UV-I 0 W/m² 1,2 °C 0,9 °C 17,7 km/h (3 Bft)
30.10.2017 00:10 3,5 °C 3,5 °C 85 % 1018,6 hPa 0,0 mm 4,6 km/h (1 Bft) NW 309 ° 0 min 0,000 mm 0,0 UV-I 0 W/m² 1,2 °C 2,6 °C 11,3 km/h (2 Bft)
30.10.2017 00:11 3,4 °C 3,5 °C 85 % 1018,7 hPa 0,0 mm 6,3 km/h (2 Bft) W-NW 290 ° 0 min 0,000 mm 0,0 UV-I 0 W/m² 1,1 °C 1,8 °C 12,9 km/h (3 Bft)
30.10.2017 00:12 3,4 °C 3,5 °C 85 % 1018,7 hPa 0,0 mm 3,4 km/h (1 Bft) W-NW 286 ° 0 min 0,000 mm 0,0 UV-I 0 W/m² 1,1 °C 3,4 °C 4,8 km/h (1 Bft)
30.10.2017 00:13 3,4 °C 3,5 °C 85 % 1018,7 hPa 0,0 mm 5,8 km/h (2 Bft) W 277 ° 0 min 0,000 mm 0,0 UV-I 0 W/m² 1,1 °C 2,0 °C 11,3 km/h (2 Bft)
30.10.2017 00:14 3,4 °C 3,4 °C 85 % 1018,7 hPa 0,0 mm 7,8 km/h (2 Bft) W-NW 284 ° 0 min 0,000 mm 0,0 UV-I 0 W/m² 1,1 °C 1,3 °C 14,5 km/h (3 Bft)
30.10.2017 00:15 3,4 °C 3,4 °C 85 % 1018,8 hPa 0,0 mm 8,8 km/h (2 Bft) W-NW 286 ° 0 min 0,000 mm 0,0 UV-I 0 W/m² 1,1 °C 1,0 °C 14,5 km/h (3 Bft)
30.10.2017 00:16 3,4 °C 3,4 °C 85 % 1018,7 hPa 0,0 mm 7,3 km/h (2 Bft) W-NW 294 ° 0 min 0,000 mm 0,0 UV-I 0 W/m² 1,1 °C 1,5 °C 11,3 km/h (2 Bft)
30.10.2017 00:17 3,4 °C 3,4 °C 85 % 1018,7 hPa 0,0 mm 4,9 km/h (1 Bft) W 262 ° 0 min 0,000 mm 0,0 UV-I 0 W/m² 1,1 °C 2,3 °C 6,4 km/h (2 Bft)
30.10.2017 00:18 3,4 °C 3,4 °C 86 % 1018,7 hPa 0,0 mm 4,3 km/h (1 Bft) W 263 ° 0 min 0,000 mm 0,0 UV-I 0 W/m² 1,3 °C 3,4 °C 6,4 km/h (2 Bft)
30.10.2017 00:19 3,4 °C 3,4 °C 86 % 1018,7 hPa 0,0 mm 7,2 km/h (2 Bft) W-NW 293 ° 0 min 0,000 mm 0,0 UV-I 0 W/m² 1,3 °C 1,5 °C 11,3 km/h (2 Bft)
30.10.2017 00:20 3,3 °C 3,4 °C 86 % 1018,7 hPa 0,0 mm 5,7 km/h (1 Bft) W-NW 292 ° 0 min 0,000 mm 0,0 UV-I 0 W/m² 1,2 °C 1,9 °C 14,5 km/h (3 Bft)
30.10.2017 00:21 3,3 °C 3,3 °C 86 % 1018,7 hPa 0,0 mm 8,9 km/h (2 Bft) W-SW 245 ° 0 min 0,000 mm 0,0 UV-I 0 W/m² 1,2 °C 0,9 °C 16,1 km/h (3 Bft)
30.10.2017 00:22 3,3 °C 3,3 °C 86 % 1018,7 hPa 0,0 mm 10,0 km/h (2 Bft) W-SW 244 ° 0 min 0,000 mm 0,0 UV-I 0 W/m² 1,2 °C 0,6 °C 14,5 km/h (3 Bft)
30.10.2017 00:23 3,3 °C 3,3 °C 86 % 1018,8 hPa 0,0 mm 9,2 km/h (2 Bft) W-SW 258 ° 0 min 0,000 mm 0,0 UV-I 0 W/m² 1,2 °C 0,8 °C 14,5 km/h (3 Bft)
30.10.2017 00:24 3,3 °C 3,3 °C 86 % 1018,8 hPa 0,0 mm 10,3 km/h (2 Bft) W-NW 294 ° 0 min 0,000 mm 0,0 UV-I 0 W/m² 1,2 °C 0,6 °C 14,5 km/h (3 Bft)
30.10.2017 00:25 3,3 °C 3,3 °C 86 % 1018,7 hPa 0,0 mm 8,1 km/h (2 Bft) W-NW 289 ° 0 min 0,000 mm 0,0 UV-I 0 W/m² 1,2 °C 1,1 °C 12,9 km/h (3 Bft)
30.10.2017 00:26 3,3 °C 3,3 °C 86 % 1018,8 hPa 0,0 mm 5,9 km/h (2 Bft) W 269 ° 0 min 0,000 mm 0,0 UV-I 0 W/m² 1,2 °C 1,8 °C 8,0 km/h (2 Bft)
30.10.2017 00:27 3,3 °C 3,3 °C 86 % 1018,8 hPa 0,0 mm 5,7 km/h (1 Bft) W 261 ° 0 min 0,000 mm 0,0 UV-I 0 W/m² 1,2 °C 1,9 °C 9,7 km/h (2 Bft)
30.10.2017 00:28 3,3 °C 3,3 °C 86 % 1018,8 hPa 0,0 mm 9,5 km/h (2 Bft) NW 305 ° 0 min 0,000 mm 0,0 UV-I 0 W/m² 1,2 °C 0,7 °C 12,9 km/h (3 Bft)
30.10.2017 00:29 3,3 °C 3,3 °C 86 % 1018,8 hPa 0,0 mm 7,3 km/h (2 Bft) W 279 ° 0 min 0,000 mm 0,0 UV-I 0 W/m² 1,2 °C 1,3 °C 11,3 km/h (2 Bft)
30.10.2017 00:30 3,3 °C 3,3 °C 86 % 1018,8 hPa 0,0 mm 7,1 km/h (2 Bft) W-NW 288 ° 0 min 0,000 mm 0,0 UV-I 0 W/m² 1,2 °C 1,4 °C 12,9 km/h (3 Bft)
30.10.2017 00:31 3,2 °C 3,3 °C 86 % 1018,8 hPa 0,0 mm 6,4 km/h (2 Bft) W 265 ° 0 min 0,000 mm 0,0 UV-I 0 W/m² 1,1 °C 1,5 °C 9,7 km/h (2 Bft)
30.10.2017 00:32 3,2 °C 3,3 °C 86 % 1018,8 hPa 0,0 mm 7,9 km/h (2 Bft) W-SW 244 ° 0 min 0,000 mm 0,0 UV-I 0 W/m² 1,1 °C 1,0 °C 12,9 km/h (3 Bft)
30.10.2017 00:33 3,3 °C 3,3 °C 86 % 1018,8 hPa 0,0 mm 9,5 km/h (2 Bft) W 261 ° 0 min 0,000 mm 0,0 UV-I 0 W/m² 1,2 °C 0,7 °C 14,5 km/h (3 Bft)
30.10.2017 00:34 3,2 °C 3,3 °C 86 % 1018,7 hPa 0,0 mm 8,2 km/h (2 Bft) W 275 ° 0 min 0,000 mm 0,0 UV-I 0 W/m² 1,1 °C 1,0 °C 12,9 km/h (3 Bft)
30.10.2017 00:35 3,2 °C 3,2 °C 86 % 1018,8 hPa 0,0 mm 5,7 km/h (1 Bft) W 261 ° 0 min 0,000 mm 0,0 UV-I 0 W/m² 1,1 °C 1,8 °C 11,3 km/h (2 Bft)
30.10.2017 00:36 3,2 °C 3,2 °C 86 % 1018,8 hPa 0,0 mm 8,3 km/h (2 Bft) W 273 ° 0 min 0,000 mm 0,0 UV-I 0 W/m² 1,1 °C 0,9 °C 11,3 km/h (2 Bft)
30.10.2017 00:37 3,2 °C 3,2 °C 87 % 1018,7 hPa 0,0 mm 5,4 km/h (1 Bft) W 265 ° 0 min 0,000 mm 0,0 UV-I 0 W/m² 1,2 °C 1,9 °C 9,7 km/h (2 Bft)
30.10.2017 00:38 3,2 °C 3,2 °C 87 % 1018,7 hPa 0,0 mm 5,6 km/h (1 Bft) W-SW 252 ° 0 min 0,000 mm 0,0 UV-I 0 W/m² 1,2 °C 1,8 °C 9,7 km/h (2 Bft)
30.10.2017 00:39 3,1 °C 3,2 °C 87 % 1018,7 hPa 0,0 mm 6,4 km/h (2 Bft) W 265 ° 0 min 0,000 mm 0,0 UV-I 0 W/m² 1,2 °C 1,4 °C 9,7 km/h (2 Bft)
30.10.2017 00:40 3,1 °C 3,2 °C 87 % 1018,7 hPa 0,0 mm 8,0 km/h (2 Bft) W-SW 254 ° 0 min 0,000 mm 0,0 UV-I 0 W/m² 1,2 °C 0,9 °C 14,5 km/h (3 Bft)
30.10.2017 00:41 3,1 °C 3,1 °C 87 % 1018,8 hPa 0,0 mm 5,9 km/h (2 Bft) W-NW 286 ° 0 min 0,000 mm 0,0 UV-I 0 W/m² 1,2 °C 1,6 °C 8,0 km/h (2 Bft)
30.10.2017 00:42 3,1 °C 3,1 °C 87 % 1018,8 hPa 0,0 mm 6,8 km/h (2 Bft) SW 216 ° 0 min 0,000 mm 0,0 UV-I 0 W/m² 1,2 °C 1,3 °C 11,3 km/h (2 Bft)
30.10.2017 00:43 3,1 °C 3,1 °C 87 % 1018,7 hPa 0,0 mm 4,8 km/h (1 Bft) W 265 ° 0 min 0,000 mm 0,0 UV-I 0 W/m² 1,2 °C 2,0 °C 8,0 km/h (2 Bft)
30.10.2017 00:44 3,1 °C 3,1 °C 87 % 1018,8 hPa 0,0 mm 10,9 km/h (2 Bft) W-NW 302 ° 0 min 0,000 mm 0,0 UV-I 0 W/m² 1,2 °C 0,2 °C 16,1 km/h (3 Bft)
30.10.2017 00:45 3,1 °C 3,1 °C 87 % 1018,8 hPa 0,0 mm 7,2 km/h (2 Bft) W-NW 282 ° 0 min 0,000 mm 0,0 UV-I 0 W/m² 1,2 °C 1,1 °C 11,3 km/h (2 Bft)
30.10.2017 00:46 3,1 °C 3,1 °C 87 % 1018,8 hPa 0,0 mm 8,9 km/h (2 Bft) W-SW 255 ° 0 min 0,000 mm 0,0 UV-I 0 W/m² 1,2 °C 0,7 °C 12,9 km/h (3 Bft)
30.10.2017 00:47 3,1 °C 3,1 °C 87 % 1018,8 hPa 0,0 mm 12,6 km/h (3 Bft) W-SW 254 ° 0 min 0,000 mm 0,0 UV-I 0 W/m² 1,2 °C -0,2 °C 17,7 km/h (3 Bft)
30.10.2017 00:48 3,0 °C 3,1 °C 87 % 1018,7 hPa 0,0 mm 12,6 km/h (3 Bft) W-NW 298 ° 0 min 0,000 mm 0,0 UV-I 0 W/m² 1,1 °C -0,3 °C 17,7 km/h (3 Bft)
30.10.2017 00:49 3,0 °C 3,0 °C 87 % 1018,7 hPa 0,0 mm 9,3 km/h (2 Bft) W-SW 248 ° 0 min 0,000 mm 0,0 UV-I 0 W/m² 1,1 °C 0,4 °C 14,5 km/h (3 Bft)
30.10.2017 00:50 3,0 °C 3,1 °C 87 % 1018,7 hPa 0,0 mm 10,6 km/h (2 Bft) W 277 ° 0 min 0,000 mm 0,0 UV-I 0 W/m² 1,1 °C 0,1 °C 16,1 km/h (3 Bft)
30.10.2017 00:51 3,0 °C 3,0 °C 87 % 1018,7 hPa 0,0 mm 8,9 km/h (2 Bft) SW 233 ° 0 min 0,000 mm 0,0 UV-I 0 W/m² 1,1 °C 0,5 °C 17,7 km/h (3 Bft)
30.10.2017 00:52 3,0 °C 3,0 °C 87 % 1018,7 hPa 0,0 mm 4,4 km/h (1 Bft) W 267 ° 0 min 0,000 mm 0,0 UV-I 0 W/m² 1,1 °C 3,0 °C 6,4 km/h (2 Bft)
30.10.2017 00:53 3,0 °C 3,0 °C 87 % 1018,7 hPa 0,0 mm 7,6 km/h (2 Bft) W 274 ° 0 min 0,000 mm 0,0 UV-I 0 W/m² 1,1 °C 0,9 °C 14,5 km/h (3 Bft)
30.10.2017 00:54 3,0 °C 3,0 °C 87 % 1018,7 hPa 0,0 mm 6,0 km/h (2 Bft) W-NW 290 ° 0 min 0,000 mm 0,0 UV-I 0 W/m² 1,1 °C 1,4 °C 11,3 km/h (2 Bft)
30.10.2017 00:55 3,0 °C 3,0 °C 87 % 1018,7 hPa 0,0 mm 8,2 km/h (2 Bft) W-SW 248 ° 0 min 0,000 mm 0,0 UV-I 0 W/m² 1,1 °C 0,7 °C 12,9 km/h (3 Bft)
30.10.2017 00:56 3,0 °C 3,0 °C 87 % 1018,7 hPa 0,0 mm 4,0 km/h (1 Bft) W 259 ° 0 min 0,000 mm 0,0 UV-I 0 W/m² 1,1 °C 3,0 °C 6,4 km/h (2 Bft)
30.10.2017 00:57 2,9 °C 3,0 °C 87 % 1018,7 hPa 0,0 mm 3,1 km/h (1 Bft) W-SW 254 ° 0 min 0,000 mm 0,0 UV-I 0 W/m² 1,0 °C 2,9 °C 4,8 km/h (1 Bft)
30.10.2017 00:58 2,9 °C 3,0 °C 87 % 1018,8 hPa 0,0 mm 7,0 km/h (2 Bft) W 260 ° 0 min 0,000 mm 0,0 UV-I 0 W/m² 1,0 °C 1,0 °C 11,3 km/h (2 Bft)
30.10.2017 00:59 2,9 °C 2,9 °C 87 % 1018,7 hPa 0,0 mm 5,8 km/h (2 Bft) W 262 ° 0 min 0,000 mm 0,0 UV-I 0 W/m² 1,0 °C 1,4 °C 11,3 km/h (2 Bft)
30.10.2017 01:00 2,9 °C 2,9 °C 87 % 1018,8 hPa 0,0 mm 5,6 km/h (1 Bft) W 259 ° 0 min 0,025 mm 0,0 UV-I 0 W/m² 1,0 °C 1,5 °C 11,3 km/h (2 Bft)
30.10.2017 01:01 2,9 °C 2,9 °C 87 % 1018,8 hPa 0,0 mm 7,6 km/h (2 Bft) W-SW 240 ° 0 min 0,000 mm 0,0 UV-I 0 W/m² 1,0 °C 0,8 °C 12,9 km/h (3 Bft)
30.10.2017 01:02 2,9 °C 2,9 °C 87 % 1018,8 hPa 0,0 mm 7,9 km/h (2 Bft) W-SW 244 ° 0 min 0,000 mm 0,0 UV-I 0 W/m² 1,0 °C 0,7 °C 14,5 km/h (3 Bft)
30.10.2017 01:03 2,9 °C 2,9 °C 87 % 1018,9 hPa 0,0 mm 7,1 km/h (2 Bft) W-SW 256 ° 0 min 0,000 mm 0,0 UV-I 0 W/m² 1,0 °C 0,9 °C 12,9 km/h (3 Bft)
30.10.2017 01:04 2,9 °C 2,9 °C 87 % 1018,9 hPa 0,0 mm 7,2 km/h (2 Bft) W 261 ° 0 min 0,000 mm 0,0 UV-I 0 W/m² 1,0 °C 0,9 °C 11,3 km/h (2 Bft)
30.10.2017 01:05 2,8 °C 2,9 °C 87 % 1018,9 hPa 0,0 mm 5,9 km/h (2 Bft) W-SW 252 ° 0 min 0,000 mm 0,0 UV-I 0 W/m² 0,9 °C 1,2 °C 11,3 km/h (2 Bft)
30.10.2017 01:06 2,8 °C 2,9 °C 87 % 1018,9 hPa 0,0 mm 5,1 km/h (1 Bft) SW 230 ° 0 min 0,000 mm 0,0 UV-I 0 W/m² 0,9 °C 1,5 °C 12,9 km/h (3 Bft)
30.10.2017 01:07 2,8 °C 2,8 °C 87 % 1018,9 hPa 0,0 mm 6,3 km/h (2 Bft) W 264 ° 0 min 0,000 mm 0,0 UV-I 0 W/m² 0,9 °C 1,1 °C 9,7 km/h (2 Bft)
30.10.2017 01:08 2,8 °C 2,8 °C 87 % 1019,0 hPa 0,0 mm 7,8 km/h (2 Bft) W 259 ° 0 min 0,000 mm 0,0 UV-I 0 W/m² 0,9 °C 0,6 °C 12,9 km/h (3 Bft)
30.10.2017 01:09 2,8 °C 2,8 °C 87 % 1019,0 hPa 0,0 mm 5,7 km/h (1 Bft) W 275 ° 0 min 0,000 mm 0,0 UV-I 0 W/m² 0,9 °C 1,3 °C 11,3 km/h (2 Bft)
30.10.2017 01:10 2,8 °C 2,8 °C 87 % 1018,9 hPa 0,0 mm 7,6 km/h (2 Bft) W 259 ° 0 min 0,000 mm 0,0 UV-I 0 W/m² 0,9 °C 0,7 °C 12,9 km/h (3 Bft)
30.10.2017 01:11 2,8 °C 2,8 °C 87 % 1019,0 hPa 0,0 mm 2,3 km/h (1 Bft) W 269 ° 0 min 0,000 mm 0,0 UV-I 0 W/m² 0,9 °C 2,8 °C 4,8 km/h (1 Bft)
30.10.2017 01:12 2,8 °C 2,8 °C 87 % 1019,0 hPa 0,0 mm 6,6 km/h (2 Bft) W 261 ° 0 min 0,000 mm 0,0 UV-I 0 W/m² 0,9 °C 1,0 °C 9,7 km/h (2 Bft)
30.10.2017 01:13 2,8 °C 2,8 °C 87 % 1019,0 hPa 0,0 mm 8,4 km/h (2 Bft) W-SW 253 ° 0 min 0,000 mm 0,0 UV-I 0 W/m² 0,9 °C 0,4 °C 11,3 km/h (2 Bft)
30.10.2017 01:14 2,8 °C 2,8 °C 88 % 1019,0 hPa 0,0 mm 3,4 km/h (1 Bft) W 259 ° 0 min 0,000 mm 0,0 UV-I 0 W/m² 1,0 °C 2,8 °C 4,8 km/h (1 Bft)
30.10.2017 01:15 2,8 °C 2,8 °C 88 % 1019,0 hPa 0,0 mm 5,4 km/h (1 Bft) W 259 ° 0 min 0,000 mm 0,0 UV-I 0 W/m² 1,0 °C 1,4 °C 11,3 km/h (2 Bft)
30.10.2017 01:16 2,7 °C 2,8 °C 88 % 1019,0 hPa 0,0 mm 6,1 km/h (2 Bft) W-SW 240 ° 0 min 0,000 mm 0,0 UV-I 0 W/m² 0,9 °C 1,0 °C 9,7 km/h (2 Bft)
30.10.2017 01:17 2,8 °C 2,8 °C 88 % 1019,0 hPa 0,0 mm 8,9 km/h (2 Bft) W 261 ° 0 min 0,000 mm 0,0 UV-I 0 W/m² 1,0 °C 0,3 °C 12,9 km/h (3 Bft)
30.10.2017 01:18 2,8 °C 2,8 °C 88 % 1019,1 hPa 0,0 mm 7,0 km/h (2 Bft) W 263 ° 0 min 0,000 mm 0,0 UV-I 0 W/m² 1,0 °C 0,9 °C 9,7 km/h (2 Bft)
30.10.2017 01:19 2,8 °C 2,8 °C 88 % 1019,1 hPa 0,0 mm 3,9 km/h (1 Bft) W 280 ° 0 min 0,000 mm 0,0 UV-I 0 W/m² 1,0 °C 2,8 °C 9,7 km/h (2 Bft)
30.10.2017 01:20 2,8 °C 2,8 °C 88 % 1019,1 hPa 0,0 mm 6,5 km/h (2 Bft) W 263 ° 0 min 0,000 mm 0,0 UV-I 0 W/m² 1,0 °C 1,0 °C 11,3 km/h (2 Bft)
30.10.2017 01:21 2,8 °C 2,8 °C 88 % 1019,1 hPa 0,0 mm 8,4 km/h (2 Bft) W-SW 248 ° 0 min 0,000 mm 0,0 UV-I 0 W/m² 1,0 °C 0,4 °C 12,9 km/h (3 Bft)
30.10.2017 01:22 2,7 °C 2,8 °C 88 % 1019,2 hPa 0,0 mm 6,2 km/h (2 Bft) SW 219 ° 0 min 0,000 mm 0,0 UV-I 0 W/m² 0,9 °C 1,0 °C 9,7 km/h (2 Bft)
30.10.2017 01:23 2,8 °C 2,8 °C 88 % 1019,2 hPa 0,0 mm 6,0 km/h (2 Bft) W-SW 251 ° 0 min 0,000 mm 0,0 UV-I 0 W/m² 1,0 °C 1,2 °C 9,7 km/h (2 Bft)
30.10.2017 01:24 2,7 °C 2,8 °C 88 % 1019,2 hPa 0,0 mm 5,6 km/h (1 Bft) W 264 ° 0 min 0,000 mm 0,0 UV-I 0 W/m² 0,9 °C 1,2 °C 9,7 km/h (2 Bft)
30.10.2017 01:25 2,7 °C 2,8 °C 88 % 1019,2 hPa 0,0 mm 6,9 km/h (2 Bft) W 262 ° 0 min 0,000 mm 0,0 UV-I 0 W/m² 0,9 °C 0,8 °C 9,7 km/h (2 Bft)
30.10.2017 01:26 2,7 °C 2,8 °C 88 % 1019,2 hPa 0,0 mm 5,0 km/h (1 Bft) W 269 ° 0 min 0,000 mm 0,0 UV-I 0 W/m² 0,9 °C 1,5 °C 6,4 km/h (2 Bft)
30.10.2017 01:27 2,7 °C 2,8 °C 88 % 1019,2 hPa 0,0 mm 4,6 km/h (1 Bft) W-SW 257 ° 0 min 0,000 mm 0,0 UV-I 0 W/m² 0,9 °C 1,7 °C 6,4 km/h (2 Bft)
30.10.2017 01:28 2,7 °C 2,7 °C 88 % 1019,2 hPa 0,0 mm 8,1 km/h (2 Bft) W-SW 251 ° 0 min 0,000 mm 0,0 UV-I 0 W/m² 0,9 °C 0,4 °C 14,5 km/h (3 Bft)
30.10.2017 01:29 2,7 °C 2,7 °C 89 % 1019,1 hPa 0,0 mm 8,2 km/h (2 Bft) W 265 ° 0 min 0,000 mm 0,0 UV-I 0 W/m² 1,1 °C 0,4 °C 14,5 km/h (3 Bft)
30.10.2017 01:30 2,7 °C 2,7 °C 88 % 1019,1 hPa 0,0 mm 3,9 km/h (1 Bft) W-SW 254 ° 0 min 0,000 mm 0,0 UV-I 0 W/m² 0,9 °C 2,7 °C 6,4 km/h (2 Bft)
30.10.2017 01:31 2,7 °C 2,7 °C 88 % 1019,1 hPa 0,0 mm 4,4 km/h (1 Bft) SW 229 ° 0 min 0,000 mm 0,0 UV-I 0 W/m² 0,9 °C 2,7 °C 8,0 km/h (2 Bft)
30.10.2017 01:32 2,7 °C 2,7 °C 88 % 1019,2 hPa 0,0 mm 6,3 km/h (2 Bft) W 276 ° 0 min 0,000 mm 0,0 UV-I 0 W/m² 0,9 °C 1,0 °C 11,3 km/h (2 Bft)
30.10.2017 01:33 2,7 °C 2,7 °C 88 % 1019,2 hPa 0,0 mm 6,8 km/h (2 Bft) SW 224 ° 0 min 0,000 mm 0,0 UV-I 0 W/m² 0,9 °C 0,8 °C 11,3 km/h (2 Bft)
30.10.2017 01:34 2,7 °C 2,7 °C 88 % 1019,2 hPa 0,0 mm 4,4 km/h (1 Bft) SW 223 ° 0 min 0,000 mm 0,0 UV-I 0 W/m² 0,9 °C 2,7 °C 11,3 km/h (2 Bft)
30.10.2017 01:35 2,7 °C 2,7 °C 88 % 1019,2 hPa 0,0 mm 5,2 km/h (1 Bft) W-SW 257 ° 0 min 0,000 mm 0,0 UV-I 0 W/m² 0,9 °C 1,4 °C 8,0 km/h (2 Bft)
30.10.2017 01:36 2,7 °C 2,7 °C 88 % 1019,2 hPa 0,0 mm 9,3 km/h (2 Bft) W-SW 255 ° 0 min 0,000 mm 0,0 UV-I 0 W/m² 0,9 °C 0,1 °C 14,5 km/h (3 Bft)
30.10.2017 01:37 2,7 °C 2,7 °C 88 % 1019,2 hPa 0,0 mm 5,6 km/h (1 Bft) W-SW 247 ° 0 min 0,000 mm 0,0 UV-I 0 W/m² 0,9 °C 1,2 °C 9,7 km/h (2 Bft)
30.10.2017 01:38 2,7 °C 2,7 °C 88 % 1019,2 hPa 0,0 mm 5,7 km/h (1 Bft) W-SW 252 ° 0 min 0,000 mm 0,0 UV-I 0 W/m² 0,9 °C 1,2 °C 11,3 km/h (2 Bft)
30.10.2017 01:39 2,7 °C 2,7 °C 88 % 1019,2 hPa 0,0 mm 5,2 km/h (1 Bft) W-SW 250 ° 0 min 0,000 mm 0,0 UV-I 0 W/m² 0,9 °C 1,4 °C 11,3 km/h (2 Bft)
30.10.2017 01:40 2,7 °C 2,7 °C 88 % 1019,2 hPa 0,0 mm 3,2 km/h (1 Bft) W-SW 243 ° 0 min 0,000 mm 0,0 UV-I 0 W/m² 0,9 °C 2,7 °C 4,8 km/h (1 Bft)
30.10.2017 01:41 2,6 °C 2,7 °C 88 % 1019,2 hPa 0,0 mm 3,0 km/h (1 Bft) SW 223 ° 0 min 0,000 mm 0,0 UV-I 0 W/m² 0,8 °C 2,6 °C 4,8 km/h (1 Bft)
30.10.2017 01:42 2,6 °C 2,6 °C 88 % 1019,2 hPa 0,0 mm 5,3 km/h (1 Bft) W-SW 246 ° 0 min 0,000 mm 0,0 UV-I 0 W/m² 0,8 °C 1,2 °C 6,4 km/h (2 Bft)
30.10.2017 01:43 2,6 °C 2,6 °C 88 % 1019,2 hPa 0,0 mm 5,3 km/h (1 Bft) W-SW 251 ° 0 min 0,000 mm 0,0 UV-I 0 W/m² 0,8 °C 1,2 °C 9,7 km/h (2 Bft)
30.10.2017 01:44 2,6 °C 2,6 °C 88 % 1019,3 hPa 0,0 mm 7,2 km/h (2 Bft) SW 233 ° 0 min 0,000 mm 0,0 UV-I 0 W/m² 0,8 °C 0,6 °C 11,3 km/h (2 Bft)
30.10.2017 01:45 2,6 °C 2,6 °C 89 % 1019,3 hPa 0,0 mm 5,6 km/h (1 Bft) SW 221 ° 0 min 0,000 mm 0,0 UV-I 0 W/m² 1,0 °C 1,1 °C 8,0 km/h (2 Bft)
30.10.2017 01:46 2,5 °C 2,6 °C 89 % 1019,3 hPa 0,0 mm 6,2 km/h (2 Bft) SW 232 ° 0 min 0,000 mm 0,0 UV-I 0 W/m² 0,9 °C 0,8 °C 8,0 km/h (2 Bft)
30.10.2017 01:47 2,5 °C 2,5 °C 89 % 1019,3 hPa 0,0 mm 4,4 km/h (1 Bft) W-SW 251 ° 0 min 0,000 mm 0,0 UV-I 0 W/m² 0,9 °C 2,5 °C 8,0 km/h (2 Bft)
30.10.2017 01:48 2,4 °C 2,5 °C 89 % 1019,3 hPa 0,0 mm 6,0 km/h (2 Bft) W 259 ° 0 min 0,000 mm 0,0 UV-I 0 W/m² 0,8 °C 0,7 °C 9,7 km/h (2 Bft)
30.10.2017 01:49 2,5 °C 2,5 °C 89 % 1019,3 hPa 0,0 mm 4,6 km/h (1 Bft) SW 228 ° 0 min 0,000 mm 0,0 UV-I 0 W/m² 0,9 °C 1,4 °C 6,4 km/h (2 Bft)
30.10.2017 01:50 2,4 °C 2,5 °C 88 % 1019,3 hPa 0,0 mm 4,0 km/h (1 Bft) W-SW 242 ° 0 min 0,000 mm 0,0 UV-I 0 W/m² 0,6 °C 2,4 °C 6,4 km/h (2 Bft)
30.10.2017 01:51 2,4 °C 2,4 °C 89 % 1019,4 hPa 0,0 mm 11,3 km/h (2 Bft) W-SW 243 ° 0 min 0,000 mm 0,0 UV-I 0 W/m² 0,8 °C -0,7 °C 16,1 km/h (3 Bft)
30.10.2017 01:52 2,4 °C 2,4 °C 88 % 1019,4 hPa 0,0 mm 6,0 km/h (2 Bft) W 268 ° 0 min 0,000 mm 0,0 UV-I 0 W/m² 0,6 °C 0,7 °C 9,7 km/h (2 Bft)
30.10.2017 01:53 2,4 °C 2,4 °C 89 % 1019,4 hPa 0,0 mm 5,1 km/h (1 Bft) W-SW 240 ° 0 min 0,000 mm 0,0 UV-I 0 W/m² 0,8 °C 1,1 °C 8,0 km/h (2 Bft)
30.10.2017 01:54 2,3 °C 2,4 °C 89 % 1019,4 hPa 0,0 mm 5,9 km/h (2 Bft) W 264 ° 0 min 0,000 mm 0,0 UV-I 0 W/m² 0,7 °C 0,7 °C 9,7 km/h (2 Bft)
30.10.2017 01:55 2,3 °C 2,3 °C 88 % 1019,4 hPa 0,0 mm 6,7 km/h (2 Bft) SW 228 ° 0 min 0,000 mm 0,0 UV-I 0 W/m² 0,5 °C 0,4 °C 12,9 km/h (3 Bft)
30.10.2017 01:56 2,3 °C 2,3 °C 88 % 1019,4 hPa 0,0 mm 3,2 km/h (1 Bft) SW 221 ° 0 min 0,000 mm 0,0 UV-I 0 W/m² 0,5 °C 2,3 °C 4,8 km/h (1 Bft)
30.10.2017 01:57 2,3 °C 2,3 °C 89 % 1019,4 hPa 0,0 mm 4,1 km/h (1 Bft) SW 227 ° 0 min 0,000 mm 0,0 UV-I 0 W/m² 0,7 °C 2,3 °C 6,4 km/h (2 Bft)
30.10.2017 01:58 2,3 °C 2,3 °C 89 % 1019,3 hPa 0,0 mm 4,1 km/h (1 Bft) W-SW 243 ° 0 min 0,000 mm 0,0 UV-I 0 W/m² 0,7 °C 2,3 °C 6,4 km/h (2 Bft)
30.10.2017 01:59 2,2 °C 2,3 °C 89 % 1019,3 hPa 0,0 mm 3,6 km/h (1 Bft) W-SW 242 ° 0 min 0,000 mm 0,0 UV-I 0 W/m² 0,6 °C 2,2 °C 4,8 km/h (1 Bft)
30.10.2017 02:00 2,2 °C 2,2 °C 89 % 1019,4 hPa 0,0 mm 3,4 km/h (1 Bft) W-SW 242 ° 0 min 0,000 mm 0,0 UV-I 0 W/m² 0,6 °C 2,2 °C 4,8 km/h (1 Bft)
30.10.2017 02:01 2,2 °C 2,2 °C 89 % 1019,3 hPa 0,0 mm 5,4 km/h (1 Bft) W-SW 237 ° 0 min 0,000 mm 0,0 UV-I 0 W/m² 0,6 °C 0,7 °C 6,4 km/h (2 Bft)
30.10.2017 02:02 2,2 °C 2,2 °C 89 % 1019,3 hPa 0,0 mm 3,8 km/h (1 Bft) W 261 ° 0 min 0,000 mm 0,0 UV-I 0 W/m² 0,6 °C 2,2 °C 6,4 km/h (2 Bft)
30.10.2017 02:04 2,2 °C 2,2 °C 89 % 1019,4 hPa 0,0 mm 4,4 km/h (1 Bft) SW 232 ° 0 min 0,000 mm 0,0 UV-I 0 W/m² 0,6 °C 2,2 °C 9,7 km/h (2 Bft)
30.10.2017 02:05 2,2 °C 2,2 °C 89 % 1019,4 hPa 0,0 mm 4,2 km/h (1 Bft) SW 233 ° 0 min 0,000 mm 0,0 UV-I 0 W/m² 0,6 °C 2,2 °C 8,0 km/h (2 Bft)
30.10.2017 02:06 2,2 °C 2,2 °C 89 % 1019,4 hPa 0,0 mm 2,1 km/h (1 Bft) W 265 ° 0 min 0,000 mm 0,0 UV-I 0 W/m² 0,6 °C 2,2 °C 4,8 km/h (1 Bft)
30.10.2017 02:07 2,2 °C 2,2 °C 89 % 1019,4 hPa 0,0 mm 2,9 km/h (1 Bft) W 261 ° 0 min 0,000 mm 0,0 UV-I 0 W/m² 0,6 °C 2,2 °C 4,8 km/h (1 Bft)
30.10.2017 02:08 2,2 °C 2,2 °C 89 % 1019,5 hPa 0,0 mm 2,1 km/h (1 Bft) W-SW 240 ° 0 min 0,000 mm 0,0 UV-I 0 W/m² 0,6 °C 2,2 °C 3,2 km/h (1 Bft)
30.10.2017 02:09 2,1 °C 2,2 °C 89 % 1019,5 hPa 0,0 mm 2,2 km/h (1 Bft) SW 234 ° 0 min 0,000 mm 0,0 UV-I 0 W/m² 0,5 °C 2,1 °C 4,8 km/h (1 Bft)
30.10.2017 02:10 2,1 °C 2,1 °C 89 % 1019,5 hPa 0,0 mm 4,7 km/h (1 Bft) SW 232 ° 0 min 0,000 mm 0,0 UV-I 0 W/m² 0,5 °C 0,9 °C 9,7 km/h (2 Bft)
30.10.2017 02:11 2,1 °C 2,1 °C 89 % 1019,5 hPa 0,0 mm 2,1 km/h (1 Bft) SW 232 ° 0 min 0,000 mm 0,0 UV-I 0 W/m² 0,5 °C 2,1 °C 3,2 km/h (1 Bft)
30.10.2017 02:12 2,1 °C 2,1 °C 89 % 1019,5 hPa 0,0 mm 2,5 km/h (1 Bft) SW 232 ° 0 min 0,000 mm 0,0 UV-I 0 W/m² 0,5 °C 2,1 °C 4,8 km/h (1 Bft)
30.10.2017 02:13 2,1 °C 2,1 °C 89 % 1019,5 hPa 0,0 mm 2,8 km/h (1 Bft) W 264 ° 0 min 0,000 mm 0,0 UV-I 0 W/m² 0,5 °C 2,1 °C 4,8 km/h (1 Bft)
30.10.2017 02:14 2,1 °C 2,1 °C 89 % 1019,6 hPa 0,0 mm 2,0 km/h (1 Bft) W 263 ° 0 min 0,000 mm 0,0 UV-I 0 W/m² 0,5 °C 2,1 °C 3,2 km/h (1 Bft)
30.10.2017 02:15 2,1 °C 2,1 °C 89 % 1019,6 hPa 0,0 mm 2,7 km/h (1 Bft) W 259 ° 0 min 0,000 mm 0,0 UV-I 0 W/m² 0,5 °C 2,1 °C 3,2 km/h (1 Bft)
30.10.2017 02:16 2,1 °C 2,1 °C 89 % 1019,6 hPa 0,0 mm 3,0 km/h (1 Bft) W-SW 254 ° 0 min 0,000 mm 0,0 UV-I 0 W/m² 0,5 °C 2,1 °C 9,7 km/h (2 Bft)
30.10.2017 02:17 2,1 °C 2,1 °C 89 % 1019,6 hPa 0,0 mm 1,2 km/h (1 Bft) W-SW 254 ° 0 min 0,000 mm 0,0 UV-I 0 W/m² 0,5 °C 2,1 °C 3,2 km/h (1 Bft)
30.10.2017 02:18 2,1 °C 2,1 °C 89 % 1019,6 hPa 0,0 mm 4,0 km/h (1 Bft) W 267 ° 0 min 0,000 mm 0,0 UV-I 0 W/m² 0,5 °C 2,1 °C 9,7 km/h (2 Bft)
30.10.2017 02:19 2,1 °C 2,1 °C 89 % 1019,6 hPa 0,0 mm 7,0 km/h (2 Bft) W-SW 258 ° 0 min 0,000 mm 0,0 UV-I 0 W/m² 0,5 °C 0,0 °C 9,7 km/h (2 Bft)
30.10.2017 02:20 2,1 °C 2,1 °C 89 % 1019,6 hPa 0,0 mm 3,4 km/h (1 Bft) W-SW 245 ° 0 min 0,000 mm 0,0 UV-I 0 W/m² 0,5 °C 2,1 °C 4,8 km/h (1 Bft)
30.10.2017 02:21 2,1 °C 2,1 °C 89 % 1019,6 hPa 0,0 mm 4,4 km/h (1 Bft) SW 234 ° 0 min 0,000 mm 0,0 UV-I 0 W/m² 0,5 °C 2,1 °C 6,4 km/h (2 Bft)
30.10.2017 02:22 2,1 °C 2,1 °C 89 % 1019,7 hPa 0,0 mm 3,8 km/h (1 Bft) W 261 ° 0 min 0,000 mm 0,0 UV-I 0 W/m² 0,5 °C 2,1 °C 6,4 km/h (2 Bft)
30.10.2017 02:23 2,1 °C 2,1 °C 89 % 1019,7 hPa 0,0 mm 5,4 km/h (1 Bft) W-SW 242 ° 0 min 0,000 mm 0,0 UV-I 0 W/m² 0,5 °C 0,6 °C 11,3 km/h (2 Bft)
30.10.2017 02:24 2,1 °C 2,1 °C 89 % 1019,6 hPa 0,0 mm 2,1 km/h (1 Bft) W-SW 251 ° 0 min 0,000 mm 0,0 UV-I 0 W/m² 0,5 °C 2,1 °C 3,2 km/h (1 Bft)
30.10.2017 02:25 2,1 °C 2,1 °C 89 % 1019,6 hPa 0,0 mm 3,5 km/h (1 Bft) W 263 ° 0 min 0,000 mm 0,0 UV-I 0 W/m² 0,5 °C 2,1 °C 4,8 km/h (1 Bft)
30.10.2017 02:26 2,0 °C 2,1 °C 89 % 1019,6 hPa 0,0 mm 2,3 km/h (1 Bft) W-SW 248 ° 0 min 0,000 mm 0,0 UV-I 0 W/m² 0,4 °C 2,0 °C 4,8 km/h (1 Bft)
30.10.2017 02:27 2,0 °C 2,1 °C 89 % 1019,6 hPa 0,0 mm 2,2 km/h (1 Bft) W-SW 250 ° 0 min 0,000 mm 0,0 UV-I 0 W/m² 0,4 °C 2,0 °C 4,8 km/h (1 Bft)
30.10.2017 02:28 2,0 °C 2,1 °C 89 % 1019,6 hPa 0,0 mm 2,3 km/h (1 Bft) W-SW 250 ° 0 min 0,000 mm 0,0 UV-I 0 W/m² 0,4 °C 2,0 °C 4,8 km/h (1 Bft)
30.10.2017 02:29 2,0 °C 2,0 °C 90 % 1019,6 hPa 0,0 mm 2,7 km/h (1 Bft) W-SW 249 ° 0 min 0,000 mm 0,0 UV-I 0 W/m² 0,5 °C 2,0 °C 4,8 km/h (1 Bft)
30.10.2017 02:30 2,1 °C 2,1 °C 90 % 1019,7 hPa 0,0 mm 4,2 km/h (1 Bft) W-SW 257 ° 0 min 0,000 mm 0,0 UV-I 0 W/m² 0,6 °C 2,1 °C 4,8 km/h (1 Bft)
30.10.2017 02:31 2,1 °C 2,1 °C 90 % 1019,6 hPa 0,0 mm 2,8 km/h (1 Bft) W-SW 257 ° 0 min 0,000 mm 0,0 UV-I 0 W/m² 0,6 °C 2,1 °C 4,8 km/h (1 Bft)
30.10.2017 02:32 2,1 °C 2,1 °C 90 % 1019,6 hPa 0,0 mm 7,4 km/h (2 Bft) W 271 ° 0 min 0,000 mm 0,0 UV-I 0 W/m² 0,6 °C -0,1 °C 11,3 km/h (2 Bft)
30.10.2017 02:33 2,1 °C 2,1 °C 90 % 1019,6 hPa 0,0 mm 5,2 km/h (1 Bft) W-SW 245 ° 0 min 0,000 mm 0,0 UV-I 0 W/m² 0,6 °C 0,7 °C 8,0 km/h (2 Bft)
30.10.2017 02:34 2,1 °C 2,1 °C 90 % 1019,6 hPa 0,0 mm 2,6 km/h (1 Bft) W 267 ° 0 min 0,000 mm 0,0 UV-I 0 W/m² 0,6 °C 2,1 °C 4,8 km/h (1 Bft)
30.10.2017 02:35 2,1 °C 2,1 °C 90 % 1019,6 hPa 0,0 mm 4,5 km/h (1 Bft) W 264 ° 0 min 0,000 mm 0,0 UV-I 0 W/m² 0,6 °C 2,1 °C 6,4 km/h (2 Bft)
30.10.2017 02:36 2,1 °C 2,1 °C 89 % 1019,7 hPa 0,0 mm 1,1 km/h (1 Bft) W 265 ° 0 min 0,000 mm 0,0 UV-I 0 W/m² 0,5 °C 2,1 °C 3,2 km/h (1 Bft)
30.10.2017 02:37 2,2 °C 2,2 °C 89 % 1019,7 hPa 0,0 mm 4,4 km/h (1 Bft) W 262 ° 0 min 0,000 mm 0,0 UV-I 0 W/m² 0,6 °C 2,2 °C 6,4 km/h (2 Bft)
30.10.2017 02:38 2,1 °C 2,2 °C 89 % 1019,7 hPa 0,0 mm 4,7 km/h (1 Bft) W-SW 251 ° 0 min 0,000 mm 0,0 UV-I 0 W/m² 0,5 °C 0,9 °C 6,4 km/h (2 Bft)
30.10.2017 02:39 2,1 °C 2,2 °C 89 % 1019,7 hPa 0,0 mm 5,6 km/h (1 Bft) W-SW 240 ° 0 min 0,000 mm 0,0 UV-I 0 W/m² 0,5 °C 0,5 °C 9,7 km/h (2 Bft)
30.10.2017 02:40 2,2 °C 2,2 °C 89 % 1019,7 hPa 0,0 mm 1,9 km/h (1 Bft) W-SW 240 ° 0 min 0,000 mm 0,0 UV-I 0 W/m² 0,6 °C 2,2 °C 3,2 km/h (1 Bft)
30.10.2017 02:41 2,1 °C 2,2 °C 89 % 1019,6 hPa 0,0 mm 6,0 km/h (2 Bft) W-SW 242 ° 0 min 0,000 mm 0,0 UV-I 0 W/m² 0,5 °C 0,4 °C 12,9 km/h (3 Bft)
30.10.2017 02:42 2,1 °C 2,2 °C 89 % 1019,6 hPa 0,0 mm 3,7 km/h (1 Bft) W-SW 248 ° 0 min 0,000 mm 0,0 UV-I 0 W/m² 0,5 °C 2,1 °C 6,4 km/h (2 Bft)
30.10.2017 02:43 2,1 °C 2,1 °C 89 % 1019,6 hPa 0,0 mm 4,8 km/h (1 Bft) W 269 ° 0 min 0,000 mm 0,0 UV-I 0 W/m² 0,5 °C 0,9 °C 9,7 km/h (2 Bft)
30.10.2017 02:44 2,1 °C 2,1 °C 89 % 1019,6 hPa 0,0 mm 5,9 km/h (2 Bft) W 261 ° 0 min 0,000 mm 0,0 UV-I 0 W/m² 0,5 °C 0,4 °C 11,3 km/h (2 Bft)
30.10.2017 02:45 2,1 °C 2,1 °C 89 % 1019,6 hPa 0,0 mm 7,0 km/h (2 Bft) W-SW 253 ° 0 min 0,000 mm 0,0 UV-I 0 W/m² 0,5 °C 0,0 °C 12,9 km/h (3 Bft)
30.10.2017 02:46 2,1 °C 2,1 °C 89 % 1019,6 hPa 0,0 mm 6,4 km/h (2 Bft) W-SW 258 ° 0 min 0,000 mm 0,0 UV-I 0 W/m² 0,5 °C 0,2 °C 9,7 km/h (2 Bft)
30.10.2017 02:47 2,1 °C 2,1 °C 89 % 1019,6 hPa 0,0 mm 6,2 km/h (2 Bft) W 259 ° 0 min 0,000 mm 0,0 UV-I 0 W/m² 0,5 °C 0,3 °C 6,4 km/h (2 Bft)
30.10.2017 02:48 2,0 °C 2,1 °C 89 % 1019,6 hPa 0,0 mm 7,4 km/h (2 Bft) W 267 ° 0 min 0,000 mm 0,0 UV-I 0 W/m² 0,4 °C -0,2 °C 11,3 km/h (2 Bft)
30.10.2017 02:49 2,0 °C 2,0 °C 89 % 1019,6 hPa 0,0 mm 5,7 km/h (1 Bft) W 263 ° 0 min 0,000 mm 0,0 UV-I 0 W/m² 0,4 °C 0,4 °C 11,3 km/h (2 Bft)
30.10.2017 02:50 2,0 °C 2,0 °C 89 % 1019,6 hPa 0,0 mm 3,4 km/h (1 Bft) W-SW 254 ° 0 min 0,000 mm 0,0 UV-I 0 W/m² 0,4 °C 2,0 °C 4,8 km/h (1 Bft)
30.10.2017 02:51 1,9 °C 2,0 °C 89 % 1019,6 hPa 0,0 mm 3,3 km/h (1 Bft) W-SW 254 ° 0 min 0,000 mm 0,0 UV-I 0 W/m² 0,3 °C 1,9 °C 9,7 km/h (2 Bft)
30.10.2017 02:52 1,9 °C 2,0 °C 89 % 1019,5 hPa 0,0 mm 7,0 km/h (2 Bft) W 273 ° 0 min 0,000 mm 0,0 UV-I 0 W/m² 0,3 °C -0,2 °C 11,3 km/h (2 Bft)
30.10.2017 02:53 1,9 °C 1,9 °C 89 % 1019,6 hPa 0,0 mm 4,1 km/h (1 Bft) W 267 ° 0 min 0,000 mm 0,0 UV-I 0 W/m² 0,3 °C 1,9 °C 6,4 km/h (2 Bft)
30.10.2017 02:54 1,9 °C 1,9 °C 89 % 1019,6 hPa 0,0 mm 6,8 km/h (2 Bft) W 265 ° 0 min 0,000 mm 0,0 UV-I 0 W/m² 0,3 °C -0,1 °C 9,7 km/h (2 Bft)
30.10.2017 02:55 1,9 °C 1,9 °C 90 % 1019,5 hPa 0,0 mm 7,2 km/h (2 Bft) W-SW 247 ° 0 min 0,000 mm 0,0 UV-I 0 W/m² 0,4 °C -0,3 °C 11,3 km/h (2 Bft)
30.10.2017 02:56 1,9 °C 1,9 °C 90 % 1019,5 hPa 0,0 mm 6,7 km/h (2 Bft) W 267 ° 0 min 0,000 mm 0,0 UV-I 0 W/m² 0,4 °C -0,1 °C 11,3 km/h (2 Bft)
30.10.2017 02:57 1,9 °C 1,9 °C 90 % 1019,5 hPa 0,0 mm 4,2 km/h (1 Bft) W-SW 243 ° 0 min 0,000 mm 0,0 UV-I 0 W/m² 0,4 °C 1,9 °C 11,3 km/h (2 Bft)
30.10.2017 02:58 1,9 °C 1,9 °C 90 % 1019,5 hPa 0,0 mm 6,9 km/h (2 Bft) W 271 ° 0 min 0,000 mm 0,0 UV-I 0 W/m² 0,4 °C -0,2 °C 11,3 km/h (2 Bft)
30.10.2017 02:59 1,9 °C 1,9 °C 90 % 1019,5 hPa 0,0 mm 6,5 km/h (2 Bft) W 267 ° 0 min 0,000 mm 0,0 UV-I 0 W/m² 0,4 °C -0,0 °C 9,7 km/h (2 Bft)
30.10.2017 03:00 1,9 °C 1,9 °C 90 % 1019,5 hPa 0,0 mm 5,5 km/h (1 Bft) W 259 ° 0 min 0,000 mm 0,0 UV-I 0 W/m² 0,4 °C 0,4 °C 11,3 km/h (2 Bft)
30.10.2017 03:01 1,9 °C 1,9 °C 90 % 1019,5 hPa 0,0 mm 4,7 km/h (1 Bft) W 261 ° 0 min 0,000 mm 0,0 UV-I 0 W/m² 0,4 °C 0,7 °C 9,7 km/h (2 Bft)
30.10.2017 03:02 1,9 °C 1,9 °C 90 % 1019,6 hPa 0,0 mm 4,9 km/h (1 Bft) W 268 ° 0 min 0,000 mm 0,0 UV-I 0 W/m² 0,4 °C 0,6 °C 9,7 km/h (2 Bft)
30.10.2017 03:03 1,9 °C 1,9 °C 90 % 1019,6 hPa 0,0 mm 5,7 km/h (1 Bft) W-SW 244 ° 0 min 0,000 mm 0,0 UV-I 0 W/m² 0,4 °C 0,3 °C 9,7 km/h (2 Bft)
30.10.2017 03:04 1,9 °C 1,9 °C 90 % 1019,6 hPa 0,0 mm 3,8 km/h (1 Bft) W 262 ° 0 min 0,000 mm 0,0 UV-I 0 W/m² 0,4 °C 1,9 °C 6,4 km/h (2 Bft)
30.10.2017 03:05 1,9 °C 1,9 °C 90 % 1019,6 hPa 0,0 mm 4,4 km/h (1 Bft) SW 235 ° 0 min 0,000 mm 0,0 UV-I 0 W/m² 0,4 °C 1,9 °C 6,4 km/h (2 Bft)
30.10.2017 03:06 1,9 °C 1,9 °C 90 % 1019,6 hPa 0,0 mm 5,6 km/h (1 Bft) W-SW 238 ° 0 min 0,000 mm 0,0 UV-I 0 W/m² 0,4 °C 0,3 °C 9,7 km/h (2 Bft)
30.10.2017 03:07 1,9 °C 1,9 °C 90 % 1019,6 hPa 0,0 mm 5,3 km/h (1 Bft) W 265 ° 0 min 0,000 mm 0,0 UV-I 0 W/m² 0,4 °C 0,4 °C 6,4 km/h (2 Bft)
30.10.2017 03:08 1,9 °C 1,9 °C 90 % 1019,6 hPa 0,0 mm 5,2 km/h (1 Bft) W-SW 242 ° 0 min 0,000 mm 0,0 UV-I 0 W/m² 0,4 °C 0,5 °C 6,4 km/h (2 Bft)
30.10.2017 03:09 1,9 °C 1,9 °C 90 % 1019,6 hPa 0,0 mm 3,5 km/h (1 Bft) SW 227 ° 0 min 0,000 mm 0,0 UV-I 0 W/m² 0,4 °C 1,9 °C 4,8 km/h (1 Bft)
30.10.2017 03:10 1,9 °C 1,9 °C 89 % 1019,7 hPa 0,0 mm 4,0 km/h (1 Bft) W 264 ° 0 min 0,000 mm 0,0 UV-I 0 W/m² 0,3 °C 1,9 °C 6,4 km/h (2 Bft)
30.10.2017 03:11 1,9 °C 1,9 °C 89 % 1019,7 hPa 0,0 mm 4,7 km/h (1 Bft) W-SW 256 ° 0 min 0,000 mm 0,0 UV-I 0 W/m² 0,3 °C 0,7 °C 11,3 km/h (2 Bft)
30.10.2017 03:12 1,9 °C 1,9 °C 89 % 1019,6 hPa 0,0 mm 3,8 km/h (1 Bft) SW 236 ° 0 min 0,000 mm 0,0 UV-I 0 W/m² 0,3 °C 1,9 °C 8,0 km/h (2 Bft)
30.10.2017 03:13 1,9 °C 1,9 °C 89 % 1019,6 hPa 0,0 mm 3,8 km/h (1 Bft) W-SW 253 ° 0 min 0,000 mm 0,0 UV-I 0 W/m² 0,3 °C 1,9 °C 6,4 km/h (2 Bft)
30.10.2017 03:14 1,9 °C 1,9 °C 89 % 1019,7 hPa 0,0 mm 4,6 km/h (1 Bft) W 267 ° 0 min 0,000 mm 0,0 UV-I 0 W/m² 0,3 °C 0,7 °C 9,7 km/h (2 Bft)
30.10.2017 03:15 1,9 °C 1,9 °C 89 % 1019,7 hPa 0,0 mm 5,4 km/h (1 Bft) W 265 ° 0 min 0,000 mm 0,0 UV-I 0 W/m² 0,3 °C 0,4 °C 8,0 km/h (2 Bft)
30.10.2017 03:16 1,9 °C 1,9 °C 89 % 1019,8 hPa 0,0 mm 3,0 km/h (1 Bft) W-SW 241 ° 0 min 0,000 mm 0,0 UV-I 0 W/m² 0,3 °C 1,9 °C 4,8 km/h (1 Bft)
30.10.2017 03:17 1,9 °C 1,9 °C 89 % 1019,8 hPa 0,0 mm 3,6 km/h (1 Bft) W-SW 245 ° 0 min 0,000 mm 0,0 UV-I 0 W/m² 0,3 °C 1,9 °C 6,4 km/h (2 Bft)
30.10.2017 03:18 1,9 °C 1,9 °C 89 % 1019,8 hPa 0,0 mm 3,0 km/h (1 Bft) W-SW 247 ° 0 min 0,000 mm 0,0 UV-I 0 W/m² 0,3 °C 1,9 °C 4,8 km/h (1 Bft)
30.10.2017 03:19 1,9 °C 1,9 °C 89 % 1019,8 hPa 0,0 mm 3,7 km/h (1 Bft) W-SW 257 ° 0 min 0,000 mm 0,0 UV-I 0 W/m² 0,3 °C 1,9 °C 8,0 km/h (2 Bft)
30.10.2017 03:20 1,9 °C 1,9 °C 89 % 1019,8 hPa 0,0 mm 3,0 km/h (1 Bft) W-SW 253 ° 0 min 0,000 mm 0,0 UV-I 0 W/m² 0,3 °C 1,9 °C 4,8 km/h (1 Bft)
30.10.2017 03:21 1,9 °C 1,9 °C 89 % 1019,7 hPa 0,0 mm 2,3 km/h (1 Bft) W-SW 253 ° 0 min 0,000 mm 0,0 UV-I 0 W/m² 0,3 °C 1,9 °C 3,2 km/h (1 Bft)
30.10.2017 03:22 1,9 °C 1,9 °C 89 % 1019,7 hPa 0,0 mm 4,8 km/h (1 Bft) SW 232 ° 0 min 0,000 mm 0,0 UV-I 0 W/m² 0,3 °C 0,7 °C 8,0 km/h (2 Bft)
30.10.2017 03:23 1,9 °C 1,9 °C 89 % 1019,7 hPa 0,0 mm 6,2 km/h (2 Bft) W-SW 258 ° 0 min 0,000 mm 0,0 UV-I 0 W/m² 0,3 °C 0,1 °C 9,7 km/h (2 Bft)
30.10.2017 03:24 1,9 °C 1,9 °C 89 % 1019,7 hPa 0,0 mm 6,0 km/h (2 Bft) W-SW 258 ° 0 min 0,000 mm 0,0 UV-I 0 W/m² 0,3 °C 0,2 °C 11,3 km/h (2 Bft)
30.10.2017 03:25 1,9 °C 1,9 °C 89 % 1019,7 hPa 0,0 mm 2,8 km/h (1 Bft) W-SW 257 ° 0 min 0,000 mm 0,0 UV-I 0 W/m² 0,3 °C 1,9 °C 4,8 km/h (1 Bft)
30.10.2017 03:26 1,9 °C 1,9 °C 89 % 1019,7 hPa 0,0 mm 3,4 km/h (1 Bft) W-SW 252 ° 0 min 0,000 mm 0,0 UV-I 0 W/m² 0,3 °C 1,9 °C 4,8 km/h (1 Bft)
30.10.2017 03:27 1,8 °C 1,9 °C 89 % 1019,7 hPa 0,0 mm 2,7 km/h (1 Bft) W-SW 252 ° 0 min 0,000 mm 0,0 UV-I 0 W/m² 0,2 °C 1,8 °C 3,2 km/h (1 Bft)
30.10.2017 03:28 1,8 °C 1,8 °C 89 % 1019,8 hPa 0,0 mm 3,6 km/h (1 Bft) W 267 ° 0 min 0,000 mm 0,0 UV-I 0 W/m² 0,2 °C 1,8 °C 4,8 km/h (1 Bft)
30.10.2017 03:29 1,7 °C 1,8 °C 89 % 1019,9 hPa 0,0 mm 3,4 km/h (1 Bft) W-SW 243 ° 0 min 0,000 mm 0,0 UV-I 0 W/m² 0,1 °C 1,7 °C 6,4 km/h (2 Bft)
30.10.2017 03:30 1,7 °C 1,7 °C 90 % 1019,8 hPa 0,0 mm 3,6 km/h (1 Bft) W 268 ° 0 min 0,000 mm 0,0 UV-I 0 W/m² 0,2 °C 1,7 °C 9,7 km/h (2 Bft)
30.10.2017 03:31 1,7 °C 1,7 °C 90 % 1019,8 hPa 0,0 mm 4,2 km/h (1 Bft) W-SW 258 ° 0 min 0,000 mm 0,0 UV-I 0 W/m² 0,2 °C 1,7 °C 6,4 km/h (2 Bft)
30.10.2017 03:32 1,7 °C 1,7 °C 90 % 1019,8 hPa 0,0 mm 3,7 km/h (1 Bft) W-SW 249 ° 0 min 0,000 mm 0,0 UV-I 0 W/m² 0,2 °C 1,7 °C 4,8 km/h (1 Bft)
30.10.2017 03:33 1,7 °C 1,7 °C 90 % 1019,8 hPa 0,0 mm 4,8 km/h (1 Bft) SW 235 ° 0 min 0,000 mm 0,0 UV-I 0 W/m² 0,2 °C 0,4 °C 6,4 km/h (2 Bft)
30.10.2017 03:34 1,7 °C 1,7 °C 90 % 1019,9 hPa 0,0 mm 4,0 km/h (1 Bft) SW 228 ° 0 min 0,000 mm 0,0 UV-I 0 W/m² 0,2 °C 1,7 °C 4,8 km/h (1 Bft)
30.10.2017 03:35 1,7 °C 1,7 °C 90 % 1019,8 hPa 0,0 mm 2,6 km/h (1 Bft) SW 227 ° 0 min 0,000 mm 0,0 UV-I 0 W/m² 0,2 °C 1,7 °C 4,8 km/h (1 Bft)
30.10.2017 03:36 1,7 °C 1,7 °C 90 % 1019,8 hPa 0,0 mm 4,4 km/h (1 Bft) W-SW 250 ° 0 min 0,000 mm 0,0 UV-I 0 W/m² 0,2 °C 1,7 °C 6,4 km/h (2 Bft)
30.10.2017 03:37 1,7 °C 1,7 °C 90 % 1019,9 hPa 0,0 mm 3,5 km/h (1 Bft) SW 221 ° 0 min 0,000 mm 0,0 UV-I 0 W/m² 0,2 °C 1,7 °C 6,4 km/h (2 Bft)
30.10.2017 03:38 1,7 °C 1,8 °C 90 % 1019,9 hPa 0,0 mm 3,8 km/h (1 Bft) SW 221 ° 0 min 0,000 mm 0,0 UV-I 0 W/m² 0,2 °C 1,7 °C 4,8 km/h (1 Bft)
30.10.2017 03:39 1,7 °C 1,8 °C 90 % 1019,9 hPa 0,0 mm 2,3 km/h (1 Bft) SW 223 ° 0 min 0,000 mm 0,0 UV-I 0 W/m² 0,2 °C 1,7 °C 4,8 km/h (1 Bft)
30.10.2017 03:40 1,8 °C 1,8 °C 90 % 1020,0 hPa 0,0 mm 4,1 km/h (1 Bft) SW 216 ° 0 min 0,000 mm 0,0 UV-I 0 W/m² 0,3 °C 1,8 °C 6,4 km/h (2 Bft)
30.10.2017 03:41 1,8 °C 1,8 °C 90 % 1020,0 hPa 0,0 mm 3,9 km/h (1 Bft) SW 217 ° 0 min 0,000 mm 0,0 UV-I 0 W/m² 0,3 °C 1,8 °C 4,8 km/h (1 Bft)
30.10.2017 03:42 1,8 °C 1,8 °C 89 % 1020,0 hPa 0,0 mm 3,2 km/h (1 Bft) W-SW 254 ° 0 min 0,000 mm 0,0 UV-I 0 W/m² 0,2 °C 1,8 °C 4,8 km/h (1 Bft)
30.10.2017 03:43 1,8 °C 1,8 °C 89 % 1020,0 hPa 0,0 mm 4,1 km/h (1 Bft) SW 215 ° 0 min 0,000 mm 0,0 UV-I 0 W/m² 0,2 °C 1,8 °C 6,4 km/h (2 Bft)
30.10.2017 03:44 1,8 °C 1,8 °C 89 % 1020,0 hPa 0,0 mm 4,2 km/h (1 Bft) SW 214 ° 0 min 0,000 mm 0,0 UV-I 0 W/m² 0,2 °C 1,8 °C 4,8 km/h (1 Bft)
30.10.2017 03:45 1,8 °C 1,8 °C 89 % 1020,0 hPa 0,0 mm 4,8 km/h (1 Bft) S-SW 209 ° 0 min 0,000 mm 0,0 UV-I 0 W/m² 0,2 °C 0,5 °C 8,0 km/h (2 Bft)
30.10.2017 03:46 1,8 °C 1,8 °C 89 % 1020,0 hPa 0,0 mm 3,4 km/h (1 Bft) W-SW 248 ° 0 min 0,000 mm 0,0 UV-I 0 W/m² 0,2 °C 1,8 °C 4,8 km/h (1 Bft)
30.10.2017 03:47 1,8 °C 1,8 °C 89 % 1020,0 hPa 0,0 mm 2,7 km/h (1 Bft) SW 232 ° 0 min 0,000 mm 0,0 UV-I 0 W/m² 0,2 °C 1,8 °C 4,8 km/h (1 Bft)
30.10.2017 03:48 1,7 °C 1,8 °C 89 % 1020,0 hPa 0,0 mm 2,7 km/h (1 Bft) SW 221 ° 0 min 0,000 mm 0,0 UV-I 0 W/m² 0,1 °C 1,7 °C 4,8 km/h (1 Bft)
30.10.2017 03:49 1,7 °C 1,7 °C 89 % 1020,0 hPa 0,0 mm 3,8 km/h (1 Bft) W 259 ° 0 min 0,000 mm 0,0 UV-I 0 W/m² 0,1 °C 1,7 °C 6,4 km/h (2 Bft)
30.10.2017 03:50 1,7 °C 1,7 °C 89 % 1020,1 hPa 0,0 mm 4,7 km/h (1 Bft) SW 216 ° 0 min 0,000 mm 0,0 UV-I 0 W/m² 0,1 °C 0,5 °C 6,4 km/h (2 Bft)
30.10.2017 03:51 1,7 °C 1,8 °C 89 % 1020,1 hPa 0,0 mm 3,6 km/h (1 Bft) SW 223 ° 0 min 0,000 mm 0,0 UV-I 0 W/m² 0,1 °C 1,7 °C 6,4 km/h (2 Bft)
30.10.2017 03:52 1,7 °C 1,8 °C 89 % 1020,1 hPa 0,0 mm 3,5 km/h (1 Bft) SW 229 ° 0 min 0,000 mm 0,0 UV-I 0 W/m² 0,1 °C 1,7 °C 4,8 km/h (1 Bft)
30.10.2017 03:53 1,7 °C 1,8 °C 89 % 1020,1 hPa 0,0 mm 4,7 km/h (1 Bft) SW 230 ° 0 min 0,000 mm 0,0 UV-I 0 W/m² 0,1 °C 0,5 °C 6,4 km/h (2 Bft)
30.10.2017 03:54 1,7 °C 1,8 °C 89 % 1020,0 hPa 0,0 mm 3,6 km/h (1 Bft) SW 225 ° 0 min 0,000 mm 0,0 UV-I 0 W/m² 0,1 °C 1,7 °C 4,8 km/h (1 Bft)
30.10.2017 03:55 1,7 °C 1,8 °C 89 % 1020,1 hPa 0,0 mm 4,2 km/h (1 Bft) S-SW 209 ° 0 min 0,000 mm 0,0 UV-I 0 W/m² 0,1 °C 1,7 °C 8,0 km/h (2 Bft)
30.10.2017 03:56 1,7 °C 1,8 °C 89 % 1020,1 hPa 0,0 mm 3,9 km/h (1 Bft) SW 223 ° 0 min 0,000 mm 0,0 UV-I 0 W/m² 0,1 °C 1,7 °C 4,8 km/h (1 Bft)
30.10.2017 03:57 1,8 °C 1,8 °C 89 % 1020,1 hPa 0,0 mm 4,2 km/h (1 Bft) S-SW 207 ° 0 min 0,000 mm 0,0 UV-I 0 W/m² 0,2 °C 1,8 °C 6,4 km/h (2 Bft)
30.10.2017 03:58 1,8 °C 1,8 °C 89 % 1020,1 hPa 0,0 mm 6,4 km/h (2 Bft) S-SW 211 ° 0 min 0,000 mm 0,0 UV-I 0 W/m² 0,2 °C -0,1 °C 9,7 km/h (2 Bft)
30.10.2017 03:59 1,8 °C 1,8 °C 89 % 1020,1 hPa 0,0 mm 4,9 km/h (1 Bft) S-SW 200 ° 0 min 0,000 mm 0,0 UV-I 0 W/m² 0,2 °C 0,5 °C 8,0 km/h (2 Bft)
30.10.2017 04:00 1,8 °C 1,8 °C 89 % 1020,1 hPa 0,0 mm 5,4 km/h (1 Bft) SW 217 ° 0 min 0,000 mm 0,0 UV-I 0 W/m² 0,2 °C 0,3 °C 8,0 km/h (2 Bft)
30.10.2017 04:01 1,8 °C 1,8 °C 89 % 1020,1 hPa 0,0 mm 5,4 km/h (1 Bft) S-SW 205 ° 0 min 0,000 mm 0,0 UV-I 0 W/m² 0,2 °C 0,3 °C 6,4 km/h (2 Bft)
30.10.2017 04:02 1,8 °C 1,8 °C 89 % 1020,1 hPa 0,0 mm 5,4 km/h (1 Bft) S-SW 205 ° 0 min 0,000 mm 0,0 UV-I 0 W/m² 0,2 °C 0,3 °C 8,0 km/h (2 Bft)
30.10.2017 04:04 1,8 °C 1,8 °C 89 % 1020,1 hPa 0,0 mm 5,9 km/h (2 Bft) S-SW 206 ° 0 min 0,000 mm 0,0 UV-I 0 W/m² 0,2 °C 0,1 °C 12,9 km/h (3 Bft)
30.10.2017 04:05 1,8 °C 1,8 °C 89 % 1020,1 hPa 0,0 mm 5,7 km/h (1 Bft) S-SW 200 ° 0 min 0,000 mm 0,0 UV-I 0 W/m² 0,2 °C 0,2 °C 8,0 km/h (2 Bft)
30.10.2017 04:06 1,8 °C 1,8 °C 89 % 1020,1 hPa 0,0 mm 5,5 km/h (1 Bft) S-SW 204 ° 0 min 0,000 mm 0,0 UV-I 0 W/m² 0,2 °C 0,2 °C 8,0 km/h (2 Bft)
30.10.2017 04:07 1,8 °C 1,8 °C 89 % 1020,2 hPa 0,0 mm 6,4 km/h (2 Bft) S-SW 197 ° 0 min 0,000 mm 0,0 UV-I 0 W/m² 0,2 °C -0,1 °C 9,7 km/h (2 Bft)
30.10.2017 04:08 1,8 °C 1,8 °C 89 % 1020,2 hPa 0,0 mm 6,0 km/h (2 Bft) S-SW 212 ° 0 min 0,000 mm 0,0 UV-I 0 W/m² 0,2 °C 0,0 °C 8,0 km/h (2 Bft)
30.10.2017 04:09 1,8 °C 1,8 °C 89 % 1020,2 hPa 0,0 mm 4,0 km/h (1 Bft) S-SW 200 ° 0 min 0,000 mm 0,0 UV-I 0 W/m² 0,2 °C 1,8 °C 6,4 km/h (2 Bft)
30.10.2017 04:10 1,8 °C 1,8 °C 89 % 1020,2 hPa 0,0 mm 5,6 km/h (1 Bft) SW 217 ° 0 min 0,000 mm 0,0 UV-I 0 W/m² 0,2 °C 0,2 °C 8,0 km/h (2 Bft)
30.10.2017 04:11 1,8 °C 1,9 °C 88 % 1020,2 hPa 0,0 mm 5,9 km/h (2 Bft) S-SW 198 ° 0 min 0,000 mm 0,0 UV-I 0 W/m² 0,0 °C 0,1 °C 8,0 km/h (2 Bft)
30.10.2017 04:12 1,9 °C 1,9 °C 88 % 1020,2 hPa 0,0 mm 7,7 km/h (2 Bft) S-SW 207 ° 0 min 0,000 mm 0,0 UV-I 0 W/m² 0,1 °C -0,4 °C 9,7 km/h (2 Bft)
30.10.2017 04:13 1,9 °C 1,9 °C 88 % 1020,2 hPa 0,0 mm 5,5 km/h (1 Bft) SW 235 ° 0 min 0,000 mm 0,0 UV-I 0 W/m² 0,1 °C 0,4 °C 8,0 km/h (2 Bft)
30.10.2017 04:14 1,9 °C 1,9 °C 88 % 1020,2 hPa 0,0 mm 4,4 km/h (1 Bft) S-SW 211 ° 0 min 0,000 mm 0,0 UV-I 0 W/m² 0,1 °C 1,9 °C 6,4 km/h (2 Bft)
30.10.2017 04:15 1,9 °C 1,9 °C 88 % 1020,2 hPa 0,0 mm 5,1 km/h (1 Bft) S-SW 205 ° 0 min 0,000 mm 0,0 UV-I 0 W/m² 0,1 °C 0,5 °C 8,0 km/h (2 Bft)
30.10.2017 04:16 1,9 °C 1,9 °C 88 % 1020,2 hPa 0,0 mm 7,9 km/h (2 Bft) S-SW 213 ° 0 min 0,000 mm 0,0 UV-I 0 W/m² 0,1 °C -0,5 °C 12,9 km/h (3 Bft)
30.10.2017 04:17 1,9 °C 1,9 °C 88 % 1020,1 hPa 0,0 mm 4,6 km/h (1 Bft) S-SW 211 ° 0 min 0,000 mm 0,0 UV-I 0 W/m² 0,1 °C 0,7 °C 8,0 km/h (2 Bft)
30.10.2017 04:18 1,9 °C 1,9 °C 88 % 1020,1 hPa 0,0 mm 5,7 km/h (1 Bft) S-SW 208 ° 0 min 0,000 mm 0,0 UV-I 0 W/m² 0,1 °C 0,3 °C 11,3 km/h (2 Bft)
30.10.2017 04:19 1,9 °C 1,9 °C 88 % 1020,2 hPa 0,0 mm 6,9 km/h (2 Bft) S-SW 200 ° 0 min 0,000 mm 0,0 UV-I 0 W/m² 0,1 °C -0,2 °C 9,7 km/h (2 Bft)
30.10.2017 04:20 1,9 °C 1,9 °C 88 % 1020,1 hPa 0,0 mm 5,9 km/h (2 Bft) S-SW 197 ° 0 min 0,000 mm 0,0 UV-I 0 W/m² 0,1 °C 0,2 °C 8,0 km/h (2 Bft)
30.10.2017 04:21 1,9 °C 1,9 °C 88 % 1020,2 hPa 0,0 mm 5,8 km/h (2 Bft) SW 215 ° 0 min 0,000 mm 0,0 UV-I 0 W/m² 0,1 °C 0,2 °C 9,7 km/h (2 Bft)
30.10.2017 04:22 1,9 °C 1,9 °C 88 % 1020,2 hPa 0,0 mm 6,2 km/h (2 Bft) S-SW 202 ° 0 min 0,000 mm 0,0 UV-I 0 W/m² 0,1 °C 0,1 °C 9,7 km/h (2 Bft)
30.10.2017 04:23 1,9 °C 1,9 °C 88 % 1020,2 hPa 0,0 mm 5,5 km/h (1 Bft) SW 228 ° 0 min 0,000 mm 0,0 UV-I 0 W/m² 0,1 °C 0,4 °C 6,4 km/h (2 Bft)
30.10.2017 04:24 1,8 °C 1,9 °C 88 % 1020,2 hPa 0,0 mm 5,0 km/h (1 Bft) S-SW 209 ° 0 min 0,000 mm 0,0 UV-I 0 W/m² 0,0 °C 0,5 °C 8,0 km/h (2 Bft)
30.10.2017 04:25 1,8 °C 1,8 °C 88 % 1020,2 hPa 0,0 mm 3,2 km/h (1 Bft) S-SW 198 ° 0 min 0,000 mm 0,0 UV-I 0 W/m² 0,0 °C 1,8 °C 6,4 km/h (2 Bft)
30.10.2017 04:26 1,8 °C 1,8 °C 88 % 1020,2 hPa 0,0 mm 7,3 km/h (2 Bft) W-SW 238 ° 0 min 0,000 mm 0,0 UV-I 0 W/m² 0,0 °C -0,4 °C 14,5 km/h (3 Bft)
30.10.2017 04:27 1,8 °C 1,9 °C 88 % 1020,2 hPa 0,0 mm 5,8 km/h (2 Bft) S-SW 210 ° 0 min 0,000 mm 0,0 UV-I 0 W/m² 0,0 °C 0,1 °C 9,7 km/h (2 Bft)
30.10.2017 04:28 1,8 °C 1,8 °C 88 % 1020,2 hPa 0,0 mm 3,9 km/h (1 Bft) S-SW 205 ° 0 min 0,000 mm 0,0 UV-I 0 W/m² 0,0 °C 1,8 °C 6,4 km/h (2 Bft)
30.10.2017 04:29 1,8 °C 1,8 °C 88 % 1020,2 hPa 0,0 mm 5,1 km/h (1 Bft) SW 222 ° 0 min 0,000 mm 0,0 UV-I 0 W/m² 0,0 °C 0,4 °C 6,4 km/h (2 Bft)
30.10.2017 04:30 1,8 °C 1,8 °C 88 % 1020,2 hPa 0,0 mm 4,3 km/h (1 Bft) S-SW 200 ° 0 min 0,000 mm 0,0 UV-I 0 W/m² 0,0 °C 1,8 °C 6,4 km/h (2 Bft)
30.10.2017 04:31 1,8 °C 1,8 °C 88 % 1020,2 hPa 0,0 mm 4,3 km/h (1 Bft) S 191 ° 0 min 0,000 mm 0,0 UV-I 0 W/m² 0,0 °C 1,8 °C 6,4 km/h (2 Bft)
30.10.2017 04:32 1,8 °C 1,8 °C 88 % 1020,2 hPa 0,0 mm 4,2 km/h (1 Bft) S-SW 197 ° 0 min 0,000 mm 0,0 UV-I 0 W/m² 0,0 °C 1,8 °C 8,0 km/h (2 Bft)
30.10.2017 04:33 1,8 °C 1,8 °C 88 % 1020,3 hPa 0,0 mm 5,0 km/h (1 Bft) W-SW 244 ° 0 min 0,000 mm 0,0 UV-I 0 W/m² 0,0 °C 0,5 °C 6,4 km/h (2 Bft)
30.10.2017 04:34 1,8 °C 1,8 °C 88 % 1020,3 hPa 0,0 mm 4,2 km/h (1 Bft) SW 215 ° 0 min 0,000 mm 0,0 UV-I 0 W/m² 0,0 °C 1,8 °C 6,4 km/h (2 Bft)
30.10.2017 04:35 1,8 °C 1,8 °C 88 % 1020,3 hPa 0,0 mm 2,7 km/h (1 Bft) SW 215 ° 0 min 0,000 mm 0,0 UV-I 0 W/m² 0,0 °C 1,8 °C 3,2 km/h (1 Bft)
30.10.2017 04:36 1,8 °C 1,8 °C 88 % 1020,3 hPa 0,0 mm 2,6 km/h (1 Bft) S-SW 213 ° 0 min 0,000 mm 0,0 UV-I 0 W/m² 0,0 °C 1,8 °C 4,8 km/h (1 Bft)
30.10.2017 04:37 1,8 °C 1,8 °C 88 % 1020,3 hPa 0,0 mm 1,9 km/h (1 Bft) SW 214 ° 0 min 0,000 mm 0,0 UV-I 0 W/m² 0,0 °C 1,8 °C 4,8 km/h (1 Bft)
30.10.2017 04:38 1,8 °C 1,8 °C 88 % 1020,3 hPa 0,0 mm 1,7 km/h (1 Bft) SW 214 ° 0 min 0,000 mm 0,0 UV-I 0 W/m² 0,0 °C 1,8 °C 3,2 km/h (1 Bft)
30.10.2017 04:39 1,8 °C 1,8 °C 88 % 1020,3 hPa 0,0 mm 3,0 km/h (1 Bft) W-SW 252 ° 0 min 0,000 mm 0,0 UV-I 0 W/m² 0,0 °C 1,8 °C 4,8 km/h (1 Bft)
30.10.2017 04:40 1,8 °C 1,8 °C 88 % 1020,3 hPa 0,0 mm 2,6 km/h (1 Bft) W 259 ° 0 min 0,000 mm 0,0 UV-I 0 W/m² 0,0 °C 1,8 °C 4,8 km/h (1 Bft)
30.10.2017 04:41 1,8 °C 1,8 °C 88 % 1020,3 hPa 0,0 mm 1,4 km/h (1 Bft) W 259 ° 0 min 0,000 mm 0,0 UV-I 0 W/m² 0,0 °C 1,8 °C 3,2 km/h (1 Bft)
30.10.2017 04:42 1,8 °C 1,8 °C 88 % 1020,4 hPa 0,0 mm 1,5 km/h (1 Bft) W 259 ° 0 min 0,000 mm 0,0 UV-I 0 W/m² 0,0 °C 1,8 °C 1,6 km/h (1 Bft)
30.10.2017 04:43 1,7 °C 1,8 °C 88 % 1020,4 hPa 0,0 mm 1,3 km/h (1 Bft) W 259 ° 0 min 0,000 mm 0,0 UV-I 0 W/m² -0,1 °C 1,7 °C 3,2 km/h (1 Bft)
30.10.2017 04:44 1,7 °C 1,7 °C 89 % 1020,4 hPa 0,0 mm 1,4 km/h (1 Bft) W 259 ° 0 min 0,000 mm 0,0 UV-I 0 W/m² 0,1 °C 1,7 °C 3,2 km/h (1 Bft)
30.10.2017 04:45 1,7 °C 1,7 °C 88 % 1020,4 hPa 0,0 mm 1,1 km/h (1 Bft) W 259 ° 0 min 0,000 mm 0,0 UV-I 0 W/m² -0,1 °C 1,7 °C 3,2 km/h (1 Bft)
30.10.2017 04:46 1,7 °C 1,7 °C 89 % 1020,4 hPa 0,0 mm 2,2 km/h (1 Bft) SW 222 ° 0 min 0,000 mm 0,0 UV-I 0 W/m² 0,1 °C 1,7 °C 3,2 km/h (1 Bft)
30.10.2017 04:47 1,7 °C 1,7 °C 89 % 1020,4 hPa 0,0 mm 0,8 km/h (0 Bft) SW 222 ° 0 min 0,000 mm 0,0 UV-I 0 W/m² 0,1 °C 1,7 °C 1,6 km/h (1 Bft)
30.10.2017 04:48 1,7 °C 1,7 °C 89 % 1020,4 hPa 0,0 mm 2,2 km/h (1 Bft) SW 222 ° 0 min 0,000 mm 0,0 UV-I 0 W/m² 0,1 °C 1,7 °C 3,2 km/h (1 Bft)
30.10.2017 04:49 1,7 °C 1,7 °C 89 % 1020,4 hPa 0,0 mm 1,7 km/h (1 Bft) SW 222 ° 0 min 0,000 mm 0,0 UV-I 0 W/m² 0,1 °C 1,7 °C 3,2 km/h (1 Bft)
30.10.2017 04:50 1,6 °C 1,7 °C 89 % 1020,5 hPa 0,0 mm 0,9 km/h (0 Bft) SW 222 ° 0 min 0,000 mm 0,0 UV-I 0 W/m² -0,0 °C 1,6 °C 1,6 km/h (1 Bft)
30.10.2017 04:51 1,7 °C 1,7 °C 89 % 1020,5 hPa 0,0 mm 2,3 km/h (1 Bft) W-SW 257 ° 0 min 0,000 mm 0,0 UV-I 0 W/m² 0,1 °C 1,7 °C 4,8 km/h (1 Bft)
30.10.2017 04:52 1,6 °C 1,7 °C 89 % 1020,6 hPa 0,0 mm 2,1 km/h (1 Bft) W-SW 257 ° 0 min 0,000 mm 0,0 UV-I 0 W/m² -0,0 °C 1,6 °C 3,2 km/h (1 Bft)
30.10.2017 04:53 1,6 °C 1,7 °C 89 % 1020,6 hPa 0,0 mm 1,1 km/h (1 Bft) W-SW 257 ° 0 min 0,000 mm 0,0 UV-I 0 W/m² -0,0 °C 1,6 °C 3,2 km/h (1 Bft)
30.10.2017 04:54 1,6 °C 1,6 °C 89 % 1020,6 hPa 0,0 mm 1,2 km/h (1 Bft) W-SW 257 ° 0 min 0,000 mm 0,0 UV-I 0 W/m² -0,0 °C 1,6 °C 1,6 km/h (1 Bft)
30.10.2017 04:55 1,6 °C 1,6 °C 89 % 1020,6 hPa 0,0 mm 1,2 km/h (1 Bft) W-SW 257 ° 0 min 0,000 mm 0,0 UV-I 0 W/m² -0,0 °C 1,6 °C 3,2 km/h (1 Bft)
30.10.2017 04:56 1,6 °C 1,6 °C 89 % 1020,6 hPa 0,0 mm 0,8 km/h (0 Bft) W-SW 257 ° 0 min 0,000 mm 0,0 UV-I 0 W/m² -0,0 °C 1,6 °C 3,2 km/h (1 Bft)
30.10.2017 04:57 1,5 °C 1,6 °C 89 % 1020,6 hPa 0,0 mm 0,3 km/h (0 Bft) W-SW 257 ° 0 min 0,000 mm 0,0 UV-I 0 W/m² -0,1 °C 1,5 °C 1,6 km/h (1 Bft)
30.10.2017 04:58 1,4 °C 1,5 °C 89 % 1020,7 hPa 0,0 mm 1,2 km/h (1 Bft) W-SW 257 ° 0 min 0,000 mm 0,0 UV-I 0 W/m² -0,2 °C 1,4 °C 3,2 km/h (1 Bft)
30.10.2017 04:59 1,4 °C 1,4 °C 89 % 1020,7 hPa 0,0 mm 0,1 km/h (0 Bft) W-SW 257 ° 0 min 0,000 mm 0,0 UV-I 0 W/m² -0,2 °C 1,4 °C 1,6 km/h (1 Bft)
30.10.2017 05:00 1,4 °C 1,4 °C 90 % 1020,6 hPa 0,0 mm 0,0 km/h (0 Bft) W-SW 257 ° 0 min 0,000 mm 0,0 UV-I 0 W/m² -0,1 °C 1,4 °C 0,0 km/h (0 Bft)
30.10.2017 05:01 1,3 °C 1,4 °C 90 % 1020,7 hPa 0,0 mm 0,0 km/h (0 Bft) W-SW 257 ° 0 min 0,000 mm 0,0 UV-I 0 W/m² -0,2 °C 1,3 °C 0,0 km/h (0 Bft)
30.10.2017 05:02 1,4 °C 1,4 °C 90 % 1020,6 hPa 0,0 mm 0,0 km/h (0 Bft) W-SW 257 ° 0 min 0,000 mm 0,0 UV-I 0 W/m² -0,1 °C 1,4 °C 0,0 km/h (0 Bft)
30.10.2017 05:03 1,4 °C 1,4 °C 90 % 1020,6 hPa 0,0 mm 3,2 km/h (1 Bft) SW 214 ° 0 min 0,000 mm 0,0 UV-I 0 W/m² -0,1 °C 1,4 °C 4,8 km/h (1 Bft)
30.10.2017 05:04 1,4 °C 1,4 °C 90 % 1020,6 hPa 0,0 mm 2,9 km/h (1 Bft) S-SW 210 ° 0 min 0,000 mm 0,0 UV-I 0 W/m² -0,1 °C 1,4 °C 4,8 km/h (1 Bft)
30.10.2017 05:05 1,4 °C 1,4 °C 90 % 1020,6 hPa 0,0 mm 2,6 km/h (1 Bft) S-SW 210 ° 0 min 0,000 mm 0,0 UV-I 0 W/m² -0,1 °C 1,4 °C 4,8 km/h (1 Bft)
30.10.2017 05:06 1,5 °C 1,5 °C 90 % 1020,7 hPa 0,0 mm 3,3 km/h (1 Bft) S-SW 210 ° 0 min 0,000 mm 0,0 UV-I 0 W/m² 0,0 °C 1,5 °C 4,8 km/h (1 Bft)
30.10.2017 05:07 1,5 °C 1,6 °C 89 % 1020,6 hPa 0,0 mm 4,2 km/h (1 Bft) SW 215 ° 0 min 0,000 mm 0,0 UV-I 0 W/m² -0,1 °C 1,5 °C 6,4 km/h (2 Bft)
30.10.2017 05:08 1,6 °C 1,6 °C 89 % 1020,6 hPa 0,0 mm 4,0 km/h (1 Bft) S-SW 207 ° 0 min 0,000 mm 0,0 UV-I 0 W/m² -0,0 °C 1,6 °C 6,4 km/h (2 Bft)
30.10.2017 05:09 1,6 °C 1,6 °C 89 % 1020,7 hPa 0,0 mm 4,7 km/h (1 Bft) SW 219 ° 0 min 0,000 mm 0,0 UV-I 0 W/m² -0,0 °C 0,4 °C 8,0 km/h (2 Bft)
30.10.2017 05:10 1,6 °C 1,6 °C 89 % 1020,7 hPa 0,0 mm 3,8 km/h (1 Bft) SW 227 ° 0 min 0,000 mm 0,0 UV-I 0 W/m² -0,0 °C 1,6 °C 8,0 km/h (2 Bft)
30.10.2017 05:11 1,6 °C 1,6 °C 89 % 1020,7 hPa 0,0 mm 2,5 km/h (1 Bft) SW 227 ° 0 min 0,000 mm 0,0 UV-I 0 W/m² -0,0 °C 1,6 °C 4,8 km/h (1 Bft)
30.10.2017 05:12 1,6 °C 1,7 °C 89 % 1020,7 hPa 0,0 mm 2,1 km/h (1 Bft) SW 227 ° 0 min 0,000 mm 0,0 UV-I 0 W/m² -0,0 °C 1,6 °C 3,2 km/h (1 Bft)
30.10.2017 05:13 1,7 °C 1,7 °C 89 % 1020,7 hPa 0,0 mm 3,3 km/h (1 Bft) SW 217 ° 0 min 0,000 mm 0,0 UV-I 0 W/m² 0,1 °C 1,7 °C 6,4 km/h (2 Bft)
30.10.2017 05:14 1,7 °C 1,7 °C 89 % 1020,8 hPa 0,0 mm 1,9 km/h (1 Bft) SW 217 ° 0 min 0,000 mm 0,0 UV-I 0 W/m² 0,1 °C 1,7 °C 3,2 km/h (1 Bft)
30.10.2017 05:15 1,7 °C 1,7 °C 89 % 1020,8 hPa 0,0 mm 3,8 km/h (1 Bft) SW 217 ° 0 min 0,000 mm 0,0 UV-I 0 W/m² 0,1 °C 1,7 °C 4,8 km/h (1 Bft)
30.10.2017 05:16 1,7 °C 1,7 °C 89 % 1020,8 hPa 0,0 mm 3,9 km/h (1 Bft) S-SW 210 ° 0 min 0,000 mm 0,0 UV-I 0 W/m² 0,1 °C 1,7 °C 4,8 km/h (1 Bft)
30.10.2017 05:17 1,7 °C 1,7 °C 89 % 1020,8 hPa 0,0 mm 4,4 km/h (1 Bft) S-SW 213 ° 0 min 0,000 mm 0,0 UV-I 0 W/m² 0,1 °C 1,7 °C 6,4 km/h (2 Bft)
30.10.2017 05:18 1,7 °C 1,8 °C 89 % 1020,8 hPa 0,0 mm 2,8 km/h (1 Bft) W-SW 241 ° 0 min 0,000 mm 0,0 UV-I 0 W/m² 0,1 °C 1,7 °C 4,8 km/h (1 Bft)
30.10.2017 05:19 1,8 °C 1,8 °C 89 % 1020,8 hPa 0,0 mm 2,4 km/h (1 Bft) W-SW 241 ° 0 min 0,000 mm 0,0 UV-I 0 W/m² 0,2 °C 1,8 °C 3,2 km/h (1 Bft)
30.10.2017 05:20 1,8 °C 1,8 °C 88 % 1020,8 hPa 0,0 mm 1,2 km/h (1 Bft) W-SW 241 ° 0 min 0,000 mm 0,0 UV-I 0 W/m² 0,0 °C 1,8 °C 3,2 km/h (1 Bft)
30.10.2017 05:21 1,8 °C 1,8 °C 88 % 1020,7 hPa 0,0 mm 1,5 km/h (1 Bft) W-SW 241 ° 0 min 0,000 mm 0,0 UV-I 0 W/m² 0,0 °C 1,8 °C 3,2 km/h (1 Bft)
30.10.2017 05:22 1,8 °C 1,8 °C 88 % 1020,8 hPa 0,0 mm 3,4 km/h (1 Bft) SW 231 ° 0 min 0,000 mm 0,0 UV-I 0 W/m² 0,0 °C 1,8 °C 4,8 km/h (1 Bft)
30.10.2017 05:23 1,7 °C 1,8 °C 88 % 1020,8 hPa 0,0 mm 2,5 km/h (1 Bft) SW 231 ° 0 min 0,000 mm 0,0 UV-I 0 W/m² -0,1 °C 1,7 °C 3,2 km/h (1 Bft)
30.10.2017 05:24 1,7 °C 1,7 °C 88 % 1020,7 hPa 0,0 mm 4,2 km/h (1 Bft) S-SW 211 ° 0 min 0,000 mm 0,0 UV-I 0 W/m² -0,1 °C 1,7 °C 8,0 km/h (2 Bft)
30.10.2017 05:25 1,7 °C 1,7 °C 88 % 1020,7 hPa 0,0 mm 4,8 km/h (1 Bft) SW 219 ° 0 min 0,000 mm 0,0 UV-I 0 W/m² -0,1 °C 0,4 °C 6,4 km/h (2 Bft)
30.10.2017 05:26 1,7 °C 1,7 °C 88 % 1020,8 hPa 0,0 mm 4,5 km/h (1 Bft) S-SW 209 ° 0 min 0,000 mm 0,0 UV-I 0 W/m² -0,1 °C 1,7 °C 6,4 km/h (2 Bft)
30.10.2017 05:27 1,7 °C 1,7 °C 88 % 1020,8 hPa 0,0 mm 3,4 km/h (1 Bft) S-SW 209 ° 0 min 0,000 mm 0,0 UV-I 0 W/m² -0,1 °C 1,7 °C 4,8 km/h (1 Bft)
30.10.2017 05:28 1,7 °C 1,7 °C 88 % 1020,8 hPa 0,0 mm 3,3 km/h (1 Bft) S-SW 208 ° 0 min 0,000 mm 0,0 UV-I 0 W/m² -0,1 °C 1,7 °C 4,8 km/h (1 Bft)
30.10.2017 05:29 1,7 °C 1,7 °C 88 % 1020,8 hPa 0,0 mm 2,1 km/h (1 Bft) S-SW 208 ° 0 min 0,000 mm 0,0 UV-I 0 W/m² -0,1 °C 1,7 °C 3,2 km/h (1 Bft)
30.10.2017 05:30 1,7 °C 1,7 °C 88 % 1020,8 hPa 0,0 mm 2,6 km/h (1 Bft) S-SW 208 ° 0 min 0,000 mm 0,0 UV-I 0 W/m² -0,1 °C 1,7 °C 3,2 km/h (1 Bft)
30.10.2017 05:31 1,7 °C 1,7 °C 88 % 1020,8 hPa 0,0 mm 3,8 km/h (1 Bft) SW 216 ° 0 min 0,000 mm 0,0 UV-I 0 W/m² -0,1 °C 1,7 °C 4,8 km/h (1 Bft)
30.10.2017 05:32 1,7 °C 1,7 °C 88 % 1020,9 hPa 0,0 mm 3,8 km/h (1 Bft) SW 231 ° 0 min 0,000 mm 0,0 UV-I 0 W/m² -0,1 °C 1,7 °C 6,4 km/h (2 Bft)
30.10.2017 05:33 1,7 °C 1,7 °C 88 % 1020,9 hPa 0,0 mm 2,7 km/h (1 Bft) SW 231 ° 0 min 0,000 mm 0,0 UV-I 0 W/m² -0,1 °C 1,7 °C 3,2 km/h (1 Bft)
30.10.2017 05:34 1,7 °C 1,7 °C 88 % 1020,9 hPa 0,0 mm 3,2 km/h (1 Bft) SW 222 ° 0 min 0,000 mm 0,0 UV-I 0 W/m² -0,1 °C 1,7 °C 4,8 km/h (1 Bft)
30.10.2017 05:35 1,7 °C 1,7 °C 88 % 1020,9 hPa 0,0 mm 3,1 km/h (1 Bft) SW 217 ° 0 min 0,000 mm 0,0 UV-I 0 W/m² -0,1 °C 1,7 °C 4,8 km/h (1 Bft)
30.10.2017 05:36 1,7 °C 1,7 °C 88 % 1020,9 hPa 0,0 mm 1,2 km/h (1 Bft) SW 217 ° 0 min 0,000 mm 0,0 UV-I 0 W/m² -0,1 °C 1,7 °C 3,2 km/h (1 Bft)
30.10.2017 05:37 1,7 °C 1,7 °C 88 % 1020,9 hPa 0,0 mm 2,1 km/h (1 Bft) SW 217 ° 0 min 0,000 mm 0,0 UV-I 0 W/m² -0,1 °C 1,7 °C 3,2 km/h (1 Bft)
30.10.2017 05:38 1,7 °C 1,7 °C 88 % 1020,9 hPa 0,0 mm 0,7 km/h (0 Bft) SW 217 ° 0 min 0,000 mm 0,0 UV-I 0 W/m² -0,1 °C 1,7 °C 1,6 km/h (1 Bft)
30.10.2017 05:39 1,7 °C 1,7 °C 88 % 1020,9 hPa 0,0 mm 0,8 km/h (0 Bft) SW 217 ° 0 min 0,000 mm 0,0 UV-I 0 W/m² -0,1 °C 1,7 °C 1,6 km/h (1 Bft)
30.10.2017 05:40 1,7 °C 1,7 °C 88 % 1021,0 hPa 0,0 mm 1,0 km/h (0 Bft) SW 217 ° 0 min 0,000 mm 0,0 UV-I 0 W/m² -0,1 °C 1,7 °C 3,2 km/h (1 Bft)
30.10.2017 05:41 1,7 °C 1,7 °C 88 % 1021,0 hPa 0,0 mm 0,7 km/h (0 Bft) SW 217 ° 0 min 0,000 mm 0,0 UV-I 0 W/m² -0,1 °C 1,7 °C 1,6 km/h (1 Bft)
30.10.2017 05:42 1,7 °C 1,7 °C 88 % 1020,9 hPa 0,0 mm 0,0 km/h (0 Bft) SW 217 ° 0 min 0,000 mm 0,0 UV-I 0 W/m² -0,1 °C 1,7 °C 0,0 km/h (0 Bft)
30.10.2017 05:43 1,7 °C 1,7 °C 88 % 1020,9 hPa 0,0 mm 0,1 km/h (0 Bft) SW 217 ° 0 min 0,000 mm 0,0 UV-I 0 W/m² -0,1 °C 1,7 °C 1,6 km/h (1 Bft)
30.10.2017 05:44 1,7 °C 1,7 °C 88 % 1020,9 hPa 0,0 mm 1,0 km/h (0 Bft) SW 217 ° 0 min 0,000 mm 0,0 UV-I 0 W/m² -0,1 °C 1,7 °C 3,2 km/h (1 Bft)
30.10.2017 05:45 1,7 °C 1,7 °C 88 % 1021,0 hPa 0,0 mm 2,1 km/h (1 Bft) W-SW 249 ° 0 min 0,000 mm 0,0 UV-I 0 W/m² -0,1 °C 1,7 °C 3,2 km/h (1 Bft)
30.10.2017 05:46 1,7 °C 1,7 °C 88 % 1021,0 hPa 0,0 mm 3,0 km/h (1 Bft) SW 234 ° 0 min 0,000 mm 0,0 UV-I 0 W/m² -0,1 °C 1,7 °C 6,4 km/h (2 Bft)
30.10.2017 05:47 1,7 °C 1,7 °C 88 % 1021,0 hPa 0,0 mm 1,7 km/h (1 Bft) SW 234 ° 0 min 0,000 mm 0,0 UV-I 0 W/m² -0,1 °C 1,7 °C 3,2 km/h (1 Bft)
30.10.2017 05:48 1,7 °C 1,7 °C 88 % 1021,0 hPa 0,0 mm 5,1 km/h (1 Bft) W 265 ° 0 min 0,000 mm 0,0 UV-I 0 W/m² -0,1 °C 0,3 °C 9,7 km/h (2 Bft)
30.10.2017 05:49 1,7 °C 1,7 °C 88 % 1021,0 hPa 0,0 mm 3,2 km/h (1 Bft) W 264 ° 0 min 0,000 mm 0,0 UV-I 0 W/m² -0,1 °C 1,7 °C 4,8 km/h (1 Bft)
30.10.2017 05:50 1,7 °C 1,7 °C 88 % 1021,0 hPa 0,0 mm 2,8 km/h (1 Bft) W 264 ° 0 min 0,000 mm 0,0 UV-I 0 W/m² -0,1 °C 1,7 °C 3,2 km/h (1 Bft)
30.10.2017 05:51 1,7 °C 1,7 °C 88 % 1020,9 hPa 0,0 mm 2,3 km/h (1 Bft) W-SW 258 ° 0 min 0,000 mm 0,0 UV-I 0 W/m² -0,1 °C 1,7 °C 3,2 km/h (1 Bft)
30.10.2017 05:52 1,7 °C 1,7 °C 88 % 1020,9 hPa 0,0 mm 1,9 km/h (1 Bft) W-SW 258 ° 0 min 0,000 mm 0,0 UV-I 0 W/m² -0,1 °C 1,7 °C 3,2 km/h (1 Bft)
30.10.2017 05:53 1,7 °C 1,7 °C 88 % 1020,9 hPa 0,0 mm 2,1 km/h (1 Bft) W-SW 257 ° 0 min 0,000 mm 0,0 UV-I 0 W/m² -0,1 °C 1,7 °C 3,2 km/h (1 Bft)
30.10.2017 05:54 1,7 °C 1,7 °C 88 % 1020,9 hPa 0,0 mm 1,3 km/h (1 Bft) W-SW 257 ° 0 min 0,000 mm 0,0 UV-I 0 W/m² -0,1 °C 1,7 °C 3,2 km/h (1 Bft)
30.10.2017 05:55 1,7 °C 1,7 °C 88 % 1020,9 hPa 0,0 mm 3,6 km/h (1 Bft) W 263 ° 0 min 0,000 mm 0,0 UV-I 0 W/m² -0,1 °C 1,7 °C 4,8 km/h (1 Bft)
30.10.2017 05:56 1,6 °C 1,7 °C 88 % 1021,0 hPa 0,0 mm 2,9 km/h (1 Bft) W-SW 238 ° 0 min 0,000 mm 0,0 UV-I 0 W/m² -0,2 °C 1,6 °C 4,8 km/h (1 Bft)
30.10.2017 05:57 1,6 °C 1,7 °C 88 % 1021,0 hPa 0,0 mm 1,7 km/h (1 Bft) W-SW 248 ° 0 min 0,000 mm 0,0 UV-I 0 W/m² -0,2 °C 1,6 °C 3,2 km/h (1 Bft)
30.10.2017 05:58 1,6 °C 1,6 °C 88 % 1020,9 hPa 0,0 mm 2,5 km/h (1 Bft) W-SW 248 ° 0 min 0,000 mm 0,0 UV-I 0 W/m² -0,2 °C 1,6 °C 3,2 km/h (1 Bft)
30.10.2017 05:59 1,6 °C 1,6 °C 88 % 1020,9 hPa 0,0 mm 0,7 km/h (0 Bft) W-SW 248 ° 0 min 0,000 mm 0,0 UV-I 0 W/m² -0,2 °C 1,6 °C 3,2 km/h (1 Bft)
30.10.2017 06:00 1,6 °C 1,6 °C 88 % 1020,9 hPa 0,0 mm 1,4 km/h (1 Bft) W-SW 248 ° 0 min 0,000 mm 0,0 UV-I 0 W/m² -0,2 °C 1,6 °C 3,2 km/h (1 Bft)
30.10.2017 06:01 1,6 °C 1,6 °C 88 % 1021,0 hPa 0,0 mm 3,0 km/h (1 Bft) W-SW 242 ° 0 min 0,000 mm 0,0 UV-I 0 W/m² -0,2 °C 1,6 °C 6,4 km/h (2 Bft)
30.10.2017 06:02 1,5 °C 1,6 °C 88 % 1021,0 hPa 0,0 mm 3,1 km/h (1 Bft) W-SW 254 ° 0 min 0,000 mm 0,0 UV-I 0 W/m² -0,3 °C 1,5 °C 4,8 km/h (1 Bft)
30.10.2017 06:03 1,5 °C 1,5 °C 88 % 1021,0 hPa 0,0 mm 2,0 km/h (1 Bft) W-SW 254 ° 0 min 0,000 mm 0,0 UV-I 0 W/m² -0,3 °C 1,5 °C 3,2 km/h (1 Bft)
30.10.2017 06:04 1,4 °C 1,5 °C 88 % 1021,1 hPa 0,0 mm 2,2 km/h (1 Bft) W-SW 254 ° 0 min 0,000 mm 0,0 UV-I 0 W/m² -0,4 °C 1,4 °C 3,2 km/h (1 Bft)
30.10.2017 06:05 1,4 °C 1,4 °C 89 % 1021,1 hPa 0,0 mm 2,7 km/h (1 Bft) SW 232 ° 0 min 0,000 mm 0,0 UV-I 0 W/m² -0,2 °C 1,4 °C 4,8 km/h (1 Bft)
30.10.2017 06:06 1,4 °C 1,4 °C 89 % 1021,1 hPa 0,0 mm 3,2 km/h (1 Bft) SW 232 ° 0 min 0,000 mm 0,0 UV-I 0 W/m² -0,2 °C 1,4 °C 4,8 km/h (1 Bft)
30.10.2017 06:07 1,4 °C 1,4 °C 89 % 1021,1 hPa 0,0 mm 2,8 km/h (1 Bft) SW 229 ° 0 min 0,000 mm 0,0 UV-I 0 W/m² -0,2 °C 1,4 °C 4,8 km/h (1 Bft)
30.10.2017 06:08 1,4 °C 1,4 °C 89 % 1021,0 hPa 0,0 mm 3,3 km/h (1 Bft) SW 217 ° 0 min 0,000 mm 0,0 UV-I 0 W/m² -0,2 °C 1,4 °C 4,8 km/h (1 Bft)
30.10.2017 06:09 1,4 °C 1,4 °C 89 % 1021,0 hPa 0,0 mm 2,8 km/h (1 Bft) SW 217 ° 0 min 0,000 mm 0,0 UV-I 0 W/m² -0,2 °C 1,4 °C 4,8 km/h (1 Bft)
30.10.2017 06:10 1,4 °C 1,4 °C 89 % 1020,9 hPa 0,0 mm 4,4 km/h (1 Bft) SW 217 ° 0 min 0,000 mm 0,0 UV-I 0 W/m² -0,2 °C 1,4 °C 4,8 km/h (1 Bft)
30.10.2017 06:11 1,4 °C 1,5 °C 89 % 1021,0 hPa 0,0 mm 3,6 km/h (1 Bft) SW 215 ° 0 min 0,000 mm 0,0 UV-I 0 W/m² -0,2 °C 1,4 °C 4,8 km/h (1 Bft)
30.10.2017 06:12 1,5 °C 1,5 °C 89 % 1021,0 hPa 0,0 mm 2,9 km/h (1 Bft) S-SW 211 ° 0 min 0,000 mm 0,0 UV-I 0 W/m² -0,1 °C 1,5 °C 4,8 km/h (1 Bft)
30.10.2017 06:13 1,5 °C 1,5 °C 89 % 1021,0 hPa 0,0 mm 3,9 km/h (1 Bft) S-SW 211 ° 0 min 0,000 mm 0,0 UV-I 0 W/m² -0,1 °C 1,5 °C 4,8 km/h (1 Bft)
30.10.2017 06:14 1,5 °C 1,5 °C 89 % 1021,1 hPa 0,0 mm 3,7 km/h (1 Bft) S-SW 206 ° 0 min 0,000 mm 0,0 UV-I 0 W/m² -0,1 °C 1,5 °C 4,8 km/h (1 Bft)
30.10.2017 06:15 1,5 °C 1,6 °C 89 % 1021,1 hPa 0,0 mm 3,1 km/h (1 Bft) SW 223 ° 0 min 0,000 mm 0,0 UV-I 0 W/m² -0,1 °C 1,5 °C 6,4 km/h (2 Bft)
30.10.2017 06:16 1,6 °C 1,6 °C 88 % 1021,1 hPa 0,0 mm 3,0 km/h (1 Bft) SW 223 ° 0 min 0,000 mm 0,0 UV-I 0 W/m² -0,2 °C 1,6 °C 4,8 km/h (1 Bft)
30.10.2017 06:17 1,6 °C 1,6 °C 88 % 1021,1 hPa 0,0 mm 4,8 km/h (1 Bft) S-SW 197 ° 0 min 0,000 mm 0,0 UV-I 0 W/m² -0,2 °C 0,3 °C 8,0 km/h (2 Bft)
30.10.2017 06:18 1,6 °C 1,6 °C 88 % 1021,1 hPa 0,0 mm 3,9 km/h (1 Bft) SW 220 ° 0 min 0,000 mm 0,0 UV-I 0 W/m² -0,2 °C 1,6 °C 4,8 km/h (1 Bft)
30.10.2017 06:19 1,6 °C 1,6 °C 88 % 1021,1 hPa 0,0 mm 6,1 km/h (2 Bft) W-SW 257 ° 0 min 0,000 mm 0,0 UV-I 0 W/m² -0,2 °C -0,2 °C 8,0 km/h (2 Bft)
30.10.2017 06:20 1,6 °C 1,6 °C 88 % 1021,1 hPa 0,0 mm 5,7 km/h (1 Bft) SW 215 ° 0 min 0,000 mm 0,0 UV-I 0 W/m² -0,2 °C -0,1 °C 8,0 km/h (2 Bft)
30.10.2017 06:21 1,6 °C 1,6 °C 88 % 1021,1 hPa 0,0 mm 5,9 km/h (2 Bft) W-SW 243 ° 0 min 0,000 mm 0,0 UV-I 0 W/m² -0,2 °C -0,1 °C 6,4 km/h (2 Bft)
30.10.2017 06:22 1,6 °C 1,6 °C 88 % 1021,1 hPa 0,0 mm 5,2 km/h (1 Bft) SW 225 ° 0 min 0,000 mm 0,0 UV-I 0 W/m² -0,2 °C 0,1 °C 8,0 km/h (2 Bft)
30.10.2017 06:23 1,6 °C 1,6 °C 88 % 1021,1 hPa 0,0 mm 3,6 km/h (1 Bft) SW 215 ° 0 min 0,000 mm 0,0 UV-I 0 W/m² -0,2 °C 1,6 °C 4,8 km/h (1 Bft)
30.10.2017 06:24 1,6 °C 1,6 °C 88 % 1021,1 hPa 0,0 mm 2,2 km/h (1 Bft) SW 215 ° 0 min 0,000 mm 0,0 UV-I 0 W/m² -0,2 °C 1,6 °C 4,8 km/h (1 Bft)
30.10.2017 06:25 1,6 °C 1,6 °C 88 % 1021,1 hPa 0,0 mm 2,4 km/h (1 Bft) SW 221 ° 0 min 0,000 mm 0,0 UV-I 0 W/m² -0,2 °C 1,6 °C 3,2 km/h (1 Bft)
30.10.2017 06:26 1,6 °C 1,6 °C 88 % 1021,2 hPa 0,0 mm 1,9 km/h (1 Bft) SW 221 ° 0 min 0,000 mm 0,0 UV-I 0 W/m² -0,2 °C 1,6 °C 4,8 km/h (1 Bft)
30.10.2017 06:27 1,6 °C 1,6 °C 88 % 1021,2 hPa 0,0 mm 1,4 km/h (1 Bft) SW 221 ° 0 min 0,000 mm 0,0 UV-I 0 W/m² -0,2 °C 1,6 °C 3,2 km/h (1 Bft)
30.10.2017 06:28 1,6 °C 1,6 °C 88 % 1021,2 hPa 0,0 mm 1,1 km/h (1 Bft) SW 221 ° 0 min 0,000 mm 0,0 UV-I 0 W/m² -0,2 °C 1,6 °C 3,2 km/h (1 Bft)
30.10.2017 06:29 1,6 °C 1,6 °C 88 % 1021,2 hPa 0,0 mm 1,4 km/h (1 Bft) SW 221 ° 0 min 0,000 mm 0,0 UV-I 0 W/m² -0,2 °C 1,6 °C 3,2 km/h (1 Bft)
30.10.2017 06:30 1,5 °C 1,6 °C 88 % 1021,3 hPa 0,0 mm 2,1 km/h (1 Bft) SW 221 ° 0 min 0,000 mm 0,0 UV-I 0 W/m² -0,3 °C 1,5 °C 3,2 km/h (1 Bft)
30.10.2017 06:31 1,6 °C 1,6 °C 88 % 1021,3 hPa 0,0 mm 1,8 km/h (1 Bft) SW 215 ° 0 min 0,000 mm 0,0 UV-I 0 W/m² -0,2 °C 1,6 °C 3,2 km/h (1 Bft)
30.10.2017 06:32 1,6 °C 1,6 °C 88 % 1021,3 hPa 0,0 mm 0,3 km/h (0 Bft) SW 215 ° 0 min 0,000 mm 0,0 UV-I 0 W/m² -0,2 °C 1,6 °C 1,6 km/h (1 Bft)
30.10.2017 06:33 1,6 °C 1,6 °C 88 % 1021,3 hPa 0,0 mm 0,1 km/h (0 Bft) SW 215 ° 0 min 0,000 mm 0,0 UV-I 0 W/m² -0,2 °C 1,6 °C 1,6 km/h (1 Bft)
30.10.2017 06:34 1,5 °C 1,6 °C 88 % 1021,3 hPa 0,0 mm 0,0 km/h (0 Bft) SW 215 ° 0 min 0,000 mm 0,0 UV-I 0 W/m² -0,3 °C 1,5 °C 0,0 km/h (0 Bft)
30.10.2017 06:35 1,5 °C 1,6 °C 88 % 1021,3 hPa 0,0 mm 0,4 km/h (0 Bft) SW 215 ° 0 min 0,000 mm 0,0 UV-I 0 W/m² -0,3 °C 1,5 °C 1,6 km/h (1 Bft)
30.10.2017 06:36 1,4 °C 1,5 °C 88 % 1021,3 hPa 0,0 mm 0,0 km/h (0 Bft) SW 215 ° 0 min 0,000 mm 0,0 UV-I 0 W/m² -0,4 °C 1,4 °C 0,0 km/h (0 Bft)
30.10.2017 06:37 1,4 °C 1,4 °C 88 % 1021,4 hPa 0,0 mm 2,4 km/h (1 Bft) W-SW 251 ° 0 min 0,000 mm 0,0 UV-I 0 W/m² -0,4 °C 1,4 °C 4,8 km/h (1 Bft)
30.10.2017 06:38 1,4 °C 1,4 °C 88 % 1021,4 hPa 0,0 mm 2,1 km/h (1 Bft) W-SW 251 ° 0 min 0,000 mm 0,0 UV-I 0 W/m² -0,4 °C 1,4 °C 3,2 km/h (1 Bft)
30.10.2017 06:39 1,3 °C 1,4 °C 88 % 1021,5 hPa 0,0 mm 3,2 km/h (1 Bft) W-SW 251 ° 0 min 0,000 mm 0,0 UV-I 0 W/m² -0,5 °C 1,3 °C 4,8 km/h (1 Bft)
30.10.2017 06:40 1,3 °C 1,3 °C 88 % 1021,5 hPa 0,0 mm 1,9 km/h (1 Bft) W-SW 251 ° 0 min 0,000 mm 0,0 UV-I 0 W/m² -0,5 °C 1,3 °C 3,2 km/h (1 Bft)
30.10.2017 06:41 1,3 °C 1,3 °C 88 % 1021,5 hPa 0,0 mm 1,8 km/h (1 Bft) W-SW 251 ° 0 min 0,000 mm 0,0 UV-I 0 W/m² -0,5 °C 1,3 °C 3,2 km/h (1 Bft)
30.10.2017 06:42 1,3 °C 1,3 °C 89 % 1021,5 hPa 0,0 mm 2,7 km/h (1 Bft) W 269 ° 0 min 0,000 mm 0,0 UV-I 0 W/m² -0,3 °C 1,3 °C 4,8 km/h (1 Bft)
30.10.2017 06:43 1,2 °C 1,3 °C 89 % 1021,5 hPa 0,0 mm 2,1 km/h (1 Bft) W 269 ° 0 min 0,000 mm 0,0 UV-I 0 W/m² -0,4 °C 1,2 °C 3,2 km/h (1 Bft)
30.10.2017 06:44 1,2 °C 1,2 °C 89 % 1021,5 hPa 0,0 mm 2,8 km/h (1 Bft) W-SW 254 ° 0 min 0,000 mm 0,0 UV-I 0 W/m² -0,4 °C 1,2 °C 4,8 km/h (1 Bft)
30.10.2017 06:45 1,2 °C 1,2 °C 89 % 1021,5 hPa 0,0 mm 5,5 km/h (1 Bft) W 265 ° 0 min 0,000 mm 0,0 UV-I 0 W/m² -0,4 °C -0,4 °C 9,7 km/h (2 Bft)
30.10.2017 06:46 1,2 °C 1,2 °C 89 % 1021,5 hPa 0,0 mm 3,9 km/h (1 Bft) W 260 ° 0 min 0,000 mm 0,0 UV-I 0 W/m² -0,4 °C 1,2 °C 6,4 km/h (2 Bft)
30.10.2017 06:47 1,2 °C 1,2 °C 89 % 1021,5 hPa 0,0 mm 3,3 km/h (1 Bft) W-SW 244 ° 0 min 0,000 mm 0,0 UV-I 0 W/m² -0,4 °C 1,2 °C 6,4 km/h (2 Bft)
30.10.2017 06:48 1,2 °C 1,3 °C 89 % 1021,5 hPa 0,0 mm 3,0 km/h (1 Bft) W-SW 254 ° 0 min 0,000 mm 0,0 UV-I 0 W/m² -0,4 °C 1,2 °C 6,4 km/h (2 Bft)
30.10.2017 06:49 1,2 °C 1,3 °C 89 % 1021,5 hPa 0,0 mm 2,8 km/h (1 Bft) W-SW 257 ° 0 min 0,000 mm 0,0 UV-I 0 W/m² -0,4 °C 1,2 °C 4,8 km/h (1 Bft)
30.10.2017 06:50 1,2 °C 1,2 °C 89 % 1021,5 hPa 0,0 mm 4,7 km/h (1 Bft) W 261 ° 0 min 0,000 mm 0,0 UV-I 0 W/m² -0,4 °C -0,1 °C 6,4 km/h (2 Bft)
30.10.2017 06:51 1,2 °C 1,2 °C 89 % 1021,6 hPa 0,0 mm 3,6 km/h (1 Bft) W-SW 251 ° 0 min 0,000 mm 0,0 UV-I 0 W/m² -0,4 °C 1,2 °C 6,4 km/h (2 Bft)
30.10.2017 06:52 1,2 °C 1,2 °C 89 % 1021,5 hPa 0,0 mm 1,1 km/h (1 Bft) W-SW 250 ° 0 min 0,000 mm 0,0 UV-I 0 W/m² -0,4 °C 1,2 °C 3,2 km/h (1 Bft)
30.10.2017 06:53 1,2 °C 1,2 °C 89 % 1021,5 hPa 0,0 mm 7,4 km/h (2 Bft) W 261 ° 0 min 0,000 mm 0,0 UV-I 0 W/m² -0,4 °C -1,1 °C 11,3 km/h (2 Bft)
30.10.2017 06:54 1,2 °C 1,2 °C 89 % 1021,6 hPa 0,0 mm 3,5 km/h (1 Bft) W-SW 255 ° 0 min 0,000 mm 0,0 UV-I 0 W/m² -0,4 °C 1,2 °C 6,4 km/h (2 Bft)
30.10.2017 06:55 1,2 °C 1,2 °C 89 % 1021,6 hPa 0,0 mm 5,8 km/h (2 Bft) W 265 ° 0 min 0,000 mm 0,0 UV-I 0 W/m² -0,4 °C -0,6 °C 9,7 km/h (2 Bft)
30.10.2017 06:56 1,2 °C 1,2 °C 89 % 1021,6 hPa 0,0 mm 3,3 km/h (1 Bft) W-NW 288 ° 0 min 0,000 mm 0,0 UV-I 0 W/m² -0,4 °C 1,2 °C 6,4 km/h (2 Bft)
30.10.2017 06:57 1,2 °C 1,2 °C 89 % 1021,6 hPa 0,0 mm 4,3 km/h (1 Bft) W-SW 247 ° 0 min 0,000 mm 0,0 UV-I 0 W/m² -0,4 °C 1,2 °C 9,7 km/h (2 Bft)
30.10.2017 06:58 1,2 °C 1,2 °C 89 % 1021,7 hPa 0,0 mm 8,1 km/h (2 Bft) W-SW 254 ° 0 min 0,000 mm 0,0 UV-I 0 W/m² -0,4 °C -1,4 °C 12,9 km/h (3 Bft)
30.10.2017 06:59 1,2 °C 1,2 °C 89 % 1021,7 hPa 0,0 mm 7,8 km/h (2 Bft) W-SW 250 ° 0 min 0,000 mm 0,0 UV-I 5 W/m² -0,4 °C -1,3 °C 11,3 km/h (2 Bft)
30.10.2017 07:00 1,2 °C 1,2 °C 89 % 1021,7 hPa 0,0 mm 4,9 km/h (1 Bft) W-SW 245 ° 0 min 0,000 mm 0,0 UV-I 5 W/m² -0,4 °C -0,2 °C 9,7 km/h (2 Bft)
30.10.2017 07:01 1,2 °C 1,2 °C 90 % 1021,8 hPa 0,0 mm 6,4 km/h (2 Bft) SW 236 ° 0 min 0,000 mm 0,0 UV-I 5 W/m² -0,3 °C -0,8 °C 12,9 km/h (3 Bft)
30.10.2017 07:02 1,2 °C 1,2 °C 90 % 1021,8 hPa 0,0 mm 3,7 km/h (1 Bft) W-SW 242 ° 0 min 0,000 mm 0,0 UV-I 5 W/m² -0,3 °C 1,2 °C 6,4 km/h (2 Bft)
30.10.2017 07:03 1,2 °C 1,2 °C 90 % 1021,9 hPa 0,0 mm 4,8 km/h (1 Bft) W-SW 252 ° 0 min 0,000 mm 0,0 UV-I 5 W/m² -0,3 °C -0,1 °C 6,4 km/h (2 Bft)
30.10.2017 07:04 1,2 °C 1,3 °C 90 % 1021,8 hPa 0,0 mm 3,3 km/h (1 Bft) W 259 ° 0 min 0,000 mm 0,0 UV-I 5 W/m² -0,3 °C 1,2 °C 6,4 km/h (2 Bft)
30.10.2017 07:05 1,3 °C 1,3 °C 90 % 1021,8 hPa 0,0 mm 3,5 km/h (1 Bft) W-SW 248 ° 0 min 0,000 mm 0,0 UV-I 5 W/m² -0,2 °C 1,3 °C 4,8 km/h (1 Bft)
30.10.2017 07:06 1,3 °C 1,3 °C 90 % 1021,8 hPa 0,0 mm 4,8 km/h (1 Bft) W-SW 244 ° 0 min 0,000 mm 0,0 UV-I 7 W/m² -0,2 °C -0,0 °C 11,3 km/h (2 Bft)
30.10.2017 07:07 1,3 °C 1,3 °C 90 % 1021,8 hPa 0,0 mm 3,8 km/h (1 Bft) W-SW 257 ° 0 min 0,000 mm 0,0 UV-I 7 W/m² -0,2 °C 1,3 °C 6,4 km/h (2 Bft)
30.10.2017 07:08 1,3 °C 1,3 °C 90 % 1021,9 hPa 0,0 mm 4,2 km/h (1 Bft) W-SW 253 ° 0 min 0,000 mm 0,0 UV-I 7 W/m² -0,2 °C 1,3 °C 6,4 km/h (2 Bft)
30.10.2017 07:09 1,3 °C 1,3 °C 90 % 1021,9 hPa 0,0 mm 4,5 km/h (1 Bft) W 265 ° 0 min 0,000 mm 0,0 UV-I 7 W/m² -0,2 °C 1,3 °C 9,7 km/h (2 Bft)
30.10.2017 07:10 1,3 °C 1,3 °C 90 % 1021,9 hPa 0,0 mm 7,4 km/h (2 Bft) W-SW 254 ° 0 min 0,000 mm 0,0 UV-I 7 W/m² -0,2 °C -1,0 °C 12,9 km/h (3 Bft)
30.10.2017 07:11 1,3 °C 1,3 °C 90 % 1021,9 hPa 0,0 mm 9,0 km/h (2 Bft) W-SW 250 ° 0 min 0,000 mm 0,0 UV-I 9 W/m² -0,2 °C -1,5 °C 12,9 km/h (3 Bft)
30.10.2017 07:12 1,3 °C 1,3 °C 90 % 1022,0 hPa 0,0 mm 6,3 km/h (2 Bft) W-SW 256 ° 0 min 0,000 mm 0,0 UV-I 9 W/m² -0,2 °C -0,6 °C 9,7 km/h (2 Bft)
30.10.2017 07:13 1,3 °C 1,3 °C 90 % 1022,0 hPa 0,0 mm 4,1 km/h (1 Bft) W-SW 249 ° 0 min 0,000 mm 0,0 UV-I 11 W/m² -0,2 °C 1,3 °C 8,0 km/h (2 Bft)
30.10.2017 07:14 1,3 °C 1,3 °C 90 % 1022,0 hPa 0,0 mm 5,0 km/h (1 Bft) W 260 ° 0 min 0,000 mm 0,0 UV-I 11 W/m² -0,2 °C -0,1 °C 6,4 km/h (2 Bft)
30.10.2017 07:15 1,3 °C 1,3 °C 90 % 1022,0 hPa 0,0 mm 6,2 km/h (2 Bft) W-NW 282 ° 0 min 0,000 mm 0,0 UV-I 11 W/m² -0,2 °C -0,6 °C 9,7 km/h (2 Bft)
30.10.2017 07:16 1,3 °C 1,3 °C 90 % 1022,0 hPa 0,0 mm 8,3 km/h (2 Bft) W-SW 250 ° 0 min 0,000 mm 0,0 UV-I 12 W/m² -0,2 °C -1,3 °C 11,3 km/h (2 Bft)
30.10.2017 07:17 1,3 °C 1,3 °C 90 % 1022,1 hPa 0,0 mm 6,0 km/h (2 Bft) W-SW 245 ° 0 min 0,000 mm 0,0 UV-I 14 W/m² -0,2 °C -0,5 °C 9,7 km/h (2 Bft)
30.10.2017 07:18 1,3 °C 1,3 °C 90 % 1022,1 hPa 0,0 mm 4,4 km/h (1 Bft) W 265 ° 0 min 0,000 mm 0,0 UV-I 14 W/m² -0,2 °C 1,3 °C 6,4 km/h (2 Bft)
30.10.2017 07:19 1,3 °C 1,3 °C 90 % 1022,1 hPa 0,0 mm 6,0 km/h (2 Bft) W-SW 247 ° 0 min 0,000 mm 0,0 UV-I 16 W/m² -0,2 °C -0,5 °C 11,3 km/h (2 Bft)
30.10.2017 07:20 1,3 °C 1,3 °C 90 % 1022,2 hPa 0,0 mm 3,6 km/h (1 Bft) W 263 ° 0 min 0,000 mm 0,0 UV-I 16 W/m² -0,2 °C 1,3 °C 6,4 km/h (2 Bft)
30.10.2017 07:21 1,3 °C 1,3 °C 90 % 1022,2 hPa 0,0 mm 6,9 km/h (2 Bft) W-SW 258 ° 0 min 0,000 mm 0,0 UV-I 16 W/m² -0,2 °C -0,9 °C 12,9 km/h (3 Bft)
30.10.2017 07:22 1,4 °C 1,4 °C 90 % 1022,2 hPa 0,0 mm 8,4 km/h (2 Bft) W-SW 246 ° 0 min 0,000 mm 0,0 UV-I 16 W/m² -0,1 °C -1,2 °C 12,9 km/h (3 Bft)
30.10.2017 07:23 1,4 °C 1,4 °C 90 % 1022,2 hPa 0,0 mm 7,6 km/h (2 Bft) W 261 ° 0 min 0,000 mm 0,0 UV-I 18 W/m² -0,1 °C -1,0 °C 11,3 km/h (2 Bft)
30.10.2017 07:24 1,4 °C 1,4 °C 90 % 1022,2 hPa 0,0 mm 3,8 km/h (1 Bft) W 267 ° 0 min 0,000 mm 0,0 UV-I 19 W/m² -0,1 °C 1,4 °C 6,4 km/h (2 Bft)
30.10.2017 07:25 1,4 °C 1,4 °C 90 % 1022,2 hPa 0,0 mm 5,0 km/h (1 Bft) W 279 ° 0 min 0,000 mm 0,0 UV-I 19 W/m² -0,1 °C -0,0 °C 6,4 km/h (2 Bft)
30.10.2017 07:26 1,4 °C 1,4 °C 90 % 1022,3 hPa 0,0 mm 3,8 km/h (1 Bft) W 259 ° 0 min 0,000 mm 0,0 UV-I 19 W/m² -0,1 °C 1,4 °C 9,7 km/h (2 Bft)
30.10.2017 07:27 1,4 °C 1,4 °C 90 % 1022,4 hPa 0,0 mm 4,9 km/h (1 Bft) SW 234 ° 0 min 0,000 mm 0,0 UV-I 21 W/m² -0,1 °C 0,0 °C 6,4 km/h (2 Bft)
30.10.2017 07:28 1,4 °C 1,4 °C 90 % 1022,4 hPa 0,0 mm 2,3 km/h (1 Bft) W 261 ° 0 min 0,000 mm 0,0 UV-I 21 W/m² -0,1 °C 1,4 °C 4,8 km/h (1 Bft)
30.10.2017 07:29 1,4 °C 1,4 °C 90 % 1022,4 hPa 0,0 mm 3,1 km/h (1 Bft) W-SW 244 ° 0 min 0,000 mm 0,0 UV-I 21 W/m² -0,1 °C 1,4 °C 4,8 km/h (1 Bft)
30.10.2017 07:30 1,4 °C 1,5 °C 90 % 1022,4 hPa 0,0 mm 5,6 km/h (1 Bft) W 261 ° 0 min 0,000 mm 0,0 UV-I 23 W/m² -0,1 °C -0,3 °C 14,5 km/h (3 Bft)
30.10.2017 07:31 1,5 °C 1,5 °C 90 % 1022,4 hPa 0,0 mm 11,1 km/h (2 Bft) W-SW 241 ° 0 min 0,000 mm 0,0 UV-I 23 W/m² 0,0 °C -1,8 °C 16,1 km/h (3 Bft)
30.10.2017 07:32 1,5 °C 1,5 °C 90 % 1022,3 hPa 0,0 mm 5,5 km/h (1 Bft) W-SW 249 ° 0 min 0,000 mm 0,0 UV-I 25 W/m² 0,0 °C -0,1 °C 11,3 km/h (2 Bft)
30.10.2017 07:33 1,5 °C 1,5 °C 90 % 1022,4 hPa 0,0 mm 5,1 km/h (1 Bft) W-SW 252 ° 0 min 0,000 mm 0,0 UV-I 26 W/m² 0,0 °C 0,1 °C 9,7 km/h (2 Bft)
30.10.2017 07:34 1,5 °C 1,5 °C 90 % 1022,4 hPa 0,0 mm 5,8 km/h (2 Bft) W-SW 257 ° 0 min 0,000 mm 0,0 UV-I 26 W/m² 0,0 °C -0,2 °C 12,9 km/h (3 Bft)
30.10.2017 07:35 1,5 °C 1,5 °C 90 % 1022,4 hPa 0,0 mm 10,9 km/h (2 Bft) W-SW 242 ° 0 min 0,000 mm 0,0 UV-I 26 W/m² 0,0 °C -1,7 °C 12,9 km/h (3 Bft)
30.10.2017 07:36 1,5 °C 1,6 °C 90 % 1022,4 hPa 0,0 mm 7,6 km/h (2 Bft) W 271 ° 0 min 0,000 mm 0,0 UV-I 28 W/m² 0,0 °C -0,9 °C 11,3 km/h (2 Bft)
30.10.2017 07:37 1,6 °C 1,6 °C 90 % 1022,4 hPa 0,0 mm 5,3 km/h (1 Bft) W 265 ° 0 min 0,000 mm 0,0 UV-I 30 W/m² 0,1 °C 0,1 °C 6,4 km/h (2 Bft)
30.10.2017 07:38 1,5 °C 1,6 °C 90 % 1022,4 hPa 0,0 mm 6,0 km/h (2 Bft) W-SW 237 ° 0 min 0,000 mm 0,0 UV-I 30 W/m² 0,0 °C -0,3 °C 11,3 km/h (2 Bft)
30.10.2017 07:39 1,6 °C 1,6 °C 90 % 1022,4 hPa 0,0 mm 5,7 km/h (1 Bft) W 265 ° 0 min 0,000 mm 0,0 UV-I 30 W/m² 0,1 °C -0,1 °C 6,4 km/h (2 Bft)
30.10.2017 07:40 1,6 °C 1,6 °C 90 % 1022,4 hPa 0,0 mm 7,5 km/h (2 Bft) W 260 ° 0 min 0,000 mm 0,0 UV-I 30 W/m² 0,1 °C -0,7 °C 11,3 km/h (2 Bft)
30.10.2017 07:41 1,6 °C 1,6 °C 90 % 1022,4 hPa 0,0 mm 8,8 km/h (2 Bft) W 278 ° 0 min 0,000 mm 0,0 UV-I 30 W/m² 0,1 °C -1,1 °C 14,5 km/h (3 Bft)
30.10.2017 07:42 1,5 °C 1,6 °C 90 % 1022,5 hPa 0,0 mm 7,2 km/h (2 Bft) W 265 ° 0 min 0,000 mm 0,0 UV-I 30 W/m² 0,0 °C -0,7 °C 11,3 km/h (2 Bft)
30.10.2017 07:43 1,6 °C 1,6 °C 90 % 1022,5 hPa 0,0 mm 6,2 km/h (2 Bft) W 271 ° 0 min 0,000 mm 0,0 UV-I 30 W/m² 0,1 °C -0,3 °C 12,9 km/h (3 Bft)
30.10.2017 07:44 1,6 °C 1,6 °C 90 % 1022,5 hPa 0,0 mm 10,9 km/h (2 Bft) W 260 ° 0 min 0,000 mm 0,0 UV-I 32 W/m² 0,1 °C -1,6 °C 14,5 km/h (3 Bft)
30.10.2017 07:45 1,6 °C 1,6 °C 90 % 1022,6 hPa 0,0 mm 8,9 km/h (2 Bft) W-NW 289 ° 0 min 0,000 mm 0,0 UV-I 32 W/m² 0,1 °C -1,1 °C 14,5 km/h (3 Bft)
30.10.2017 07:46 1,6 °C 1,6 °C 90 % 1022,5 hPa 0,0 mm 7,8 km/h (2 Bft) W 269 ° 0 min 0,000 mm 0,0 UV-I 33 W/m² 0,1 °C -0,8 °C 11,3 km/h (2 Bft)
30.10.2017 07:47 1,6 °C 1,6 °C 90 % 1022,5 hPa 0,0 mm 6,6 km/h (2 Bft) W 270 ° 0 min 0,000 mm 0,0 UV-I 35 W/m² 0,1 °C -0,4 °C 9,7 km/h (2 Bft)
30.10.2017 07:48 1,5 °C 1,6 °C 90 % 1022,6 hPa 0,0 mm 6,1 km/h (2 Bft) W 266 ° 0 min 0,000 mm 0,0 UV-I 37 W/m² 0,0 °C -0,3 °C 12,9 km/h (3 Bft)
30.10.2017 07:49 1,6 °C 1,6 °C 90 % 1022,5 hPa 0,0 mm 8,3 km/h (2 Bft) W-SW 240 ° 0 min 0,000 mm 0,0 UV-I 39 W/m² 0,1 °C -0,9 °C 12,9 km/h (3 Bft)
30.10.2017 07:50 1,6 °C 1,6 °C 90 % 1022,6 hPa 0,0 mm 6,0 km/h (2 Bft) W-SW 244 ° 0 min 0,000 mm 0,0 UV-I 39 W/m² 0,1 °C -0,2 °C 9,7 km/h (2 Bft)
30.10.2017 07:51 1,6 °C 1,6 °C 90 % 1022,6 hPa 0,0 mm 6,1 km/h (2 Bft) W 262 ° 0 min 0,000 mm 0,0 UV-I 40 W/m² 0,1 °C -0,2 °C 9,7 km/h (2 Bft)
30.10.2017 07:52 1,6 °C 1,6 °C 90 % 1022,5 hPa 0,0 mm 8,8 km/h (2 Bft) W 263 ° 0 min 0,000 mm 0,0 UV-I 42 W/m² 0,1 °C -1,1 °C 16,1 km/h (3 Bft)
30.10.2017 07:53 1,6 °C 1,6 °C 90 % 1022,5 hPa 0,0 mm 7,6 km/h (2 Bft) W-SW 241 ° 0 min 0,000 mm 0,0 UV-I 42 W/m² 0,1 °C -0,7 °C 11,3 km/h (2 Bft)
30.10.2017 07:54 1,6 °C 1,7 °C 90 % 1022,5 hPa 0,0 mm 6,3 km/h (2 Bft) S-SW 212 ° 0 min 0,000 mm 0,0 UV-I 44 W/m² 0,1 °C -0,3 °C 9,7 km/h (2 Bft)
30.10.2017 07:55 1,7 °C 1,7 °C 90 % 1022,6 hPa 0,0 mm 9,2 km/h (2 Bft) W-SW 239 ° 0 min 0,000 mm 0,0 UV-I 44 W/m² 0,2 °C -1,1 °C 14,5 km/h (3 Bft)
30.10.2017 07:56 1,6 °C 1,7 °C 90 % 1022,7 hPa 0,0 mm 10,0 km/h (2 Bft) W-SW 251 ° 0 min 0,000 mm 0,0 UV-I 46 W/m² 0,1 °C -1,4 °C 14,5 km/h (3 Bft)
30.10.2017 07:57 1,7 °C 1,7 °C 90 % 1022,6 hPa 0,0 mm 10,3 km/h (2 Bft) W 279 ° 0 min 0,000 mm 0,0 UV-I 47 W/m² 0,2 °C -1,4 °C 14,5 km/h (3 Bft)
30.10.2017 07:58 1,7 °C 1,7 °C 90 % 1022,7 hPa 0,0 mm 8,0 km/h (2 Bft) SW 227 ° 0 min 0,000 mm 0,0 UV-I 49 W/m² 0,2 °C -0,7 °C 11,3 km/h (2 Bft)
30.10.2017 07:59 1,7 °C 1,7 °C 90 % 1022,7 hPa 0,0 mm 9,0 km/h (2 Bft) W-SW 247 ° 0 min 0,000 mm 0,0 UV-I 51 W/m² 0,2 °C -1,0 °C 14,5 km/h (3 Bft)
30.10.2017 08:00 1,7 °C 1,7 °C 90 % 1022,7 hPa 0,0 mm 6,1 km/h (2 Bft) W 263 ° 0 min 0,000 mm 0,0 UV-I 53 W/m² 0,2 °C -0,1 °C 11,3 km/h (2 Bft)
30.10.2017 08:01 1,7 °C 1,7 °C 90 % 1022,7 hPa 0,0 mm 10,4 km/h (2 Bft) W 267 ° 0 min 0,026 mm 0,0 UV-I 53 W/m² 0,2 °C -1,4 °C 11,3 km/h (2 Bft)
30.10.2017 08:02 1,7 °C 1,7 °C 90 % 1022,7 hPa 0,0 mm 6,4 km/h (2 Bft) W 273 ° 0 min 0,000 mm 0,0 UV-I 54 W/m² 0,2 °C -0,2 °C 9,7 km/h (2 Bft)
30.10.2017 08:03 1,7 °C 1,7 °C 90 % 1022,7 hPa 0,0 mm 6,2 km/h (2 Bft) W 264 ° 0 min 0,000 mm 0,0 UV-I 54 W/m² 0,2 °C -0,1 °C 11,3 km/h (2 Bft)
30.10.2017 08:04 1,7 °C 1,7 °C 90 % 1022,7 hPa 0,0 mm 5,3 km/h (1 Bft) W-SW 258 ° 0 min 0,000 mm 0,0 UV-I 53 W/m² 0,2 °C 0,2 °C 9,7 km/h (2 Bft)
30.10.2017 08:05 1,7 °C 1,8 °C 90 % 1022,7 hPa 0,0 mm 9,1 km/h (2 Bft) SW 236 ° 0 min 0,000 mm 0,0 UV-I 53 W/m² 0,2 °C -1,1 °C 14,5 km/h (3 Bft)
30.10.2017 08:06 1,7 °C 1,7 °C 90 % 1022,7 hPa 0,0 mm 9,4 km/h (2 Bft) SW 234 ° 0 min 0,000 mm 0,0 UV-I 53 W/m² 0,2 °C -1,1 °C 14,5 km/h (3 Bft)
30.10.2017 08:07 1,7 °C 1,8 °C 90 % 1022,7 hPa 0,0 mm 8,9 km/h (2 Bft) W 270 ° 0 min 0,000 mm 0,0 UV-I 54 W/m² 0,2 °C -1,0 °C 16,1 km/h (3 Bft)
30.10.2017 08:08 1,7 °C 1,8 °C 90 % 1022,7 hPa 0,0 mm 6,4 km/h (2 Bft) W 267 ° 0 min 0,000 mm 0,0 UV-I 56 W/m² 0,2 °C -0,2 °C 12,9 km/h (3 Bft)
30.10.2017 08:09 1,8 °C 1,8 °C 90 % 1022,7 hPa 0,0 mm 6,1 km/h (2 Bft) W-SW 244 ° 0 min 0,000 mm 0,0 UV-I 60 W/m² 0,3 °C 0,0 °C 11,3 km/h (2 Bft)
30.10.2017 08:10 1,8 °C 1,8 °C 89 % 1022,7 hPa 0,0 mm 9,8 km/h (2 Bft) W-SW 254 ° 0 min 0,000 mm 0,0 UV-I 63 W/m² 0,2 °C -1,1 °C 16,1 km/h (3 Bft)
30.10.2017 08:11 1,8 °C 1,8 °C 89 % 1022,8 hPa 0,0 mm 5,2 km/h (1 Bft) W-SW 246 ° 0 min 0,000 mm 0,0 UV-I 63 W/m² 0,2 °C 0,4 °C 8,0 km/h (2 Bft)
30.10.2017 08:12 1,8 °C 1,8 °C 89 % 1022,9 hPa 0,0 mm 10,9 km/h (2 Bft) W 263 ° 0 min 0,000 mm 0,0 UV-I 65 W/m² 0,2 °C -1,4 °C 16,1 km/h (3 Bft)
30.10.2017 08:13 1,8 °C 1,8 °C 90 % 1022,8 hPa 0,0 mm 8,9 km/h (2 Bft) W-SW 239 ° 0 min 0,000 mm 0,0 UV-I 65 W/m² 0,3 °C -0,9 °C 14,5 km/h (3 Bft)
30.10.2017 08:14 1,8 °C 1,8 °C 90 % 1022,9 hPa 0,0 mm 6,8 km/h (2 Bft) SW 219 ° 0 min 0,000 mm 0,0 UV-I 69 W/m² 0,3 °C -0,2 °C 11,3 km/h (2 Bft)
30.10.2017 08:15 1,9 °C 1,9 °C 90 % 1022,9 hPa 0,0 mm 4,4 km/h (1 Bft) W-SW 253 ° 0 min 0,000 mm 0,0 UV-I 72 W/m² 0,4 °C 1,9 °C 9,7 km/h (2 Bft)
30.10.2017 08:16 1,9 °C 1,9 °C 90 % 1022,9 hPa 0,0 mm 10,8 km/h (2 Bft) W 263 ° 0 min 0,000 mm 0,0 UV-I 79 W/m² 0,4 °C -1,2 °C 12,9 km/h (3 Bft)
30.10.2017 08:17 1,9 °C 1,9 °C 90 % 1022,9 hPa 0,0 mm 8,9 km/h (2 Bft) W 264 ° 0 min 0,000 mm 0,0 UV-I 81 W/m² 0,4 °C -0,8 °C 14,5 km/h (3 Bft)
30.10.2017 08:18 1,9 °C 1,9 °C 89 % 1022,9 hPa 0,0 mm 6,4 km/h (2 Bft) W-SW 244 ° 0 min 0,000 mm 0,0 UV-I 84 W/m² 0,3 °C 0,0 °C 11,3 km/h (2 Bft)
30.10.2017 08:19 1,9 °C 1,9 °C 89 % 1022,9 hPa 0,0 mm 5,9 km/h (2 Bft) SW 236 ° 0 min 0,000 mm 0,5 UV-I 84 W/m² 0,3 °C 0,2 °C 6,4 km/h (2 Bft)
30.10.2017 08:20 1,9 °C 1,9 °C 90 % 1022,9 hPa 0,0 mm 9,1 km/h (2 Bft) SW 232 ° 0 min 0,000 mm 0,5 UV-I 86 W/m² 0,4 °C -0,8 °C 11,3 km/h (2 Bft)
30.10.2017 08:21 1,9 °C 2,0 °C 89 % 1022,9 hPa 0,0 mm 10,0 km/h (2 Bft) W-SW 241 ° 0 min 0,000 mm 0,5 UV-I 86 W/m² 0,3 °C -1,0 °C 16,1 km/h (3 Bft)
30.10.2017 08:22 2,0 °C 2,0 °C 89 % 1022,9 hPa 0,0 mm 8,0 km/h (2 Bft) W-SW 258 ° 0 min 0,000 mm 0,5 UV-I 88 W/m² 0,4 °C -0,4 °C 11,3 km/h (2 Bft)
30.10.2017 08:23 2,1 °C 2,1 °C 89 % 1022,9 hPa 0,0 mm 6,4 km/h (2 Bft) W 277 ° 0 min 0,000 mm 0,5 UV-I 88 W/m² 0,5 °C 0,2 °C 12,9 km/h (3 Bft)
30.10.2017 08:24 2,1 °C 2,1 °C 89 % 1022,9 hPa 0,0 mm 11,5 km/h (2 Bft) W 264 ° 0 min 0,000 mm 0,5 UV-I 88 W/m² 0,5 °C -1,2 °C 16,1 km/h (3 Bft)
30.10.2017 08:25 2,2 °C 2,2 °C 89 % 1023,0 hPa 0,0 mm 8,1 km/h (2 Bft) W 269 ° 0 min 0,000 mm 0,5 UV-I 86 W/m² 0,6 °C -0,2 °C 11,3 km/h (2 Bft)
30.10.2017 08:26 2,2 °C 2,2 °C 89 % 1022,9 hPa 0,0 mm 5,6 km/h (1 Bft) W 261 ° 0 min 0,000 mm 0,5 UV-I 84 W/m² 0,6 °C 0,7 °C 9,7 km/h (2 Bft)
30.10.2017 08:27 2,2 °C 2,2 °C 89 % 1023,0 hPa 0,0 mm 9,3 km/h (2 Bft) W-SW 240 ° 0 min 0,000 mm 0,5 UV-I 86 W/m² 0,6 °C -0,5 °C 12,9 km/h (3 Bft)
30.10.2017 08:28 2,2 °C 2,2 °C 89 % 1023,0 hPa 0,0 mm 10,3 km/h (2 Bft) W-SW 247 ° 0 min 0,000 mm 0,5 UV-I 88 W/m² 0,6 °C -0,8 °C 14,5 km/h (3 Bft)
30.10.2017 08:29 2,3 °C 2,3 °C 89 % 1022,9 hPa 0,0 mm 6,8 km/h (2 Bft) W 279 ° 0 min 0,000 mm 0,5 UV-I 88 W/m² 0,7 °C 0,3 °C 11,3 km/h (2 Bft)
30.10.2017 08:30 2,3 °C 2,3 °C 88 % 1023,0 hPa 0,0 mm 5,7 km/h (1 Bft) W-SW 257 ° 0 min 0,000 mm 0,5 UV-I 90 W/m² 0,5 °C 0,7 °C 11,3 km/h (2 Bft)
30.10.2017 08:31 2,3 °C 2,3 °C 88 % 1022,9 hPa 0,0 mm 6,8 km/h (2 Bft) W 269 ° 0 min 0,000 mm 0,5 UV-I 91 W/m² 0,5 °C 0,3 °C 11,3 km/h (2 Bft)
30.10.2017 08:32 2,3 °C 2,3 °C 88 % 1023,0 hPa 0,0 mm 10,8 km/h (2 Bft) W 262 ° 0 min 0,000 mm 0,5 UV-I 93 W/m² 0,5 °C -0,8 °C 16,1 km/h (3 Bft)
30.10.2017 08:33 2,4 °C 2,4 °C 88 % 1023,0 hPa 0,0 mm 7,7 km/h (2 Bft) W 263 ° 0 min 0,000 mm 0,5 UV-I 98 W/m² 0,6 °C 0,2 °C 12,9 km/h (3 Bft)
30.10.2017 08:34 2,4 °C 2,4 °C 88 % 1023,0 hPa 0,0 mm 8,4 km/h (2 Bft) W-SW 252 ° 0 min 0,000 mm 0,6 UV-I 100 W/m² 0,6 °C -0,0 °C 12,9 km/h (3 Bft)
30.10.2017 08:35 2,5 °C 2,5 °C 88 % 1023,0 hPa 0,0 mm 8,7 km/h (2 Bft) W 269 ° 0 min 0,000 mm 0,6 UV-I 100 W/m² 0,7 °C 0,0 °C 14,5 km/h (3 Bft)
30.10.2017 08:36 2,4 °C 2,5 °C 87 % 1023,0 hPa 0,0 mm 12,2 km/h (2 Bft) W 269 ° 0 min 0,000 mm 0,6 UV-I 100 W/m² 0,5 °C -0,9 °C 16,1 km/h (3 Bft)
30.10.2017 08:37 2,5 °C 2,6 °C 88 % 1023,0 hPa 0,0 mm 11,1 km/h (2 Bft) W 262 ° 0 min 0,000 mm 0,6 UV-I 102 W/m² 0,7 °C -0,6 °C 14,5 km/h (3 Bft)
30.10.2017 08:38 2,6 °C 2,6 °C 88 % 1023,0 hPa 0,0 mm 7,0 km/h (2 Bft) W-NW 282 ° 0 min 0,000 mm 0,6 UV-I 105 W/m² 0,8 °C 0,6 °C 11,3 km/h (2 Bft)
30.10.2017 08:39 2,6 °C 2,6 °C 88 % 1023,0 hPa 0,0 mm 5,1 km/h (1 Bft) S 188 ° 0 min 0,000 mm 0,6 UV-I 107 W/m² 0,8 °C 1,3 °C 6,4 km/h (2 Bft)
30.10.2017 08:40 2,6 °C 2,6 °C 87 % 1023,0 hPa 0,0 mm 4,0 km/h (1 Bft) W-SW 238 ° 0 min 0,000 mm 0,6 UV-I 109 W/m² 0,7 °C 2,6 °C 6,4 km/h (2 Bft)
30.10.2017 08:41 2,7 °C 2,7 °C 87 % 1023,0 hPa 0,0 mm 7,7 km/h (2 Bft) W-SW 252 ° 0 min 0,000 mm 0,6 UV-I 113 W/m² 0,8 °C 0,5 °C 12,9 km/h (3 Bft)
30.10.2017 08:42 2,7 °C 2,7 °C 87 % 1023,0 hPa 0,0 mm 8,4 km/h (2 Bft) W 267 ° 0 min 0,000 mm 0,6 UV-I 114 W/m² 0,8 °C 0,3 °C 11,3 km/h (2 Bft)
30.10.2017 08:43 2,7 °C 2,7 °C 87 % 1023,0 hPa 0,0 mm 8,7 km/h (2 Bft) W 271 ° 0 min 0,000 mm 0,6 UV-I 114 W/m² 0,8 °C 0,2 °C 14,5 km/h (3 Bft)
30.10.2017 08:44 2,7 °C 2,7 °C 87 % 1023,0 hPa 0,0 mm 10,8 km/h (2 Bft) W-SW 244 ° 0 min 0,000 mm 0,6 UV-I 113 W/m² 0,8 °C -0,3 °C 14,5 km/h (3 Bft)
30.10.2017 08:45 2,7 °C 2,7 °C 87 % 1023,0 hPa 0,0 mm 6,8 km/h (2 Bft) W-SW 247 ° 0 min 0,000 mm 0,6 UV-I 113 W/m² 0,8 °C 0,8 °C 11,3 km/h (2 Bft)
30.10.2017 08:46 2,8 °C 2,8 °C 86 % 1023,0 hPa 0,0 mm 7,3 km/h (2 Bft) W 260 ° 0 min 0,000 mm 0,6 UV-I 111 W/m² 0,7 °C 0,8 °C 11,3 km/h (2 Bft)
30.10.2017 08:47 2,8 °C 2,8 °C 86 % 1023,0 hPa 0,0 mm 4,4 km/h (1 Bft) W-SW 246 ° 0 min 0,000 mm 0,7 UV-I 111 W/m² 0,7 °C 2,8 °C 8,0 km/h (2 Bft)
30.10.2017 08:48 2,8 °C 2,8 °C 86 % 1023,0 hPa 0,0 mm 11,4 km/h (2 Bft) W 280 ° 0 min 0,000 mm 0,7 UV-I 113 W/m² 0,7 °C -0,3 °C 16,1 km/h (3 Bft)
30.10.2017 08:49 2,8 °C 2,8 °C 86 % 1023,0 hPa 0,0 mm 10,3 km/h (2 Bft) W 273 ° 0 min 0,000 mm 0,7 UV-I 111 W/m² 0,7 °C -0,0 °C 14,5 km/h (3 Bft)
30.10.2017 08:50 2,8 °C 2,8 °C 86 % 1023,0 hPa 0,0 mm 6,9 km/h (2 Bft) W 271 ° 0 min 0,000 mm 0,7 UV-I 113 W/m² 0,7 °C 0,9 °C 11,3 km/h (2 Bft)
30.10.2017 08:51 2,9 °C 2,9 °C 87 % 1023,0 hPa 0,0 mm 5,1 km/h (1 Bft) W-SW 249 ° 0 min 0,000 mm 0,7 UV-I 120 W/m² 1,0 °C 1,7 °C 6,4 km/h (2 Bft)
30.10.2017 08:52 2,9 °C 2,9 °C 86 % 1023,1 hPa 0,0 mm 9,8 km/h (2 Bft) SW 222 ° 0 min 0,000 mm 0,7 UV-I 121 W/m² 0,8 °C 0,2 °C 12,9 km/h (3 Bft)
30.10.2017 08:53 2,9 °C 2,9 °C 86 % 1023,1 hPa 0,0 mm 4,9 km/h (1 Bft) W 264 ° 0 min 0,000 mm 0,7 UV-I 123 W/m² 0,8 °C 1,7 °C 6,4 km/h (2 Bft)
30.10.2017 08:54 2,9 °C 2,9 °C 86 % 1023,1 hPa 0,0 mm 7,0 km/h (2 Bft) W-SW 251 ° 0 min 0,000 mm 0,7 UV-I 125 W/m² 0,8 °C 1,0 °C 16,1 km/h (3 Bft)
30.10.2017 08:55 3,0 °C 3,0 °C 86 % 1023,1 hPa 0,0 mm 7,8 km/h (2 Bft) W-NW 284 ° 0 min 0,000 mm 0,7 UV-I 125 W/m² 0,9 °C 0,8 °C 14,5 km/h (3 Bft)
30.10.2017 08:56 3,0 °C 3,0 °C 85 % 1023,1 hPa 0,0 mm 9,6 km/h (2 Bft) W-SW 245 ° 0 min 0,000 mm 0,7 UV-I 134 W/m² 0,7 °C 0,4 °C 14,5 km/h (3 Bft)
30.10.2017 08:57 3,0 °C 3,0 °C 85 % 1023,1 hPa 0,0 mm 5,3 km/h (1 Bft) W 276 ° 0 min 0,000 mm 0,7 UV-I 135 W/m² 0,7 °C 1,7 °C 12,9 km/h (3 Bft)
30.10.2017 08:58 3,1 °C 3,1 °C 85 % 1023,1 hPa 0,0 mm 6,6 km/h (2 Bft) W-SW 254 ° 0 min 0,000 mm 0,7 UV-I 137 W/m² 0,8 °C 1,3 °C 11,3 km/h (2 Bft)
30.10.2017 08:59 3,1 °C 3,1 °C 85 % 1023,1 hPa 0,0 mm 7,2 km/h (2 Bft) SW 235 ° 0 min 0,000 mm 0,7 UV-I 137 W/m² 0,8 °C 1,1 °C 12,9 km/h (3 Bft)
30.10.2017 09:00 3,1 °C 3,1 °C 85 % 1023,1 hPa 0,0 mm 7,5 km/h (2 Bft) W-SW 246 ° 0 min 0,000 mm 0,7 UV-I 139 W/m² 0,8 °C 1,0 °C 12,9 km/h (3 Bft)
30.10.2017 09:01 3,1 °C 3,1 °C 84 % 1023,1 hPa 0,0 mm 8,1 km/h (2 Bft) W 261 ° 0 min 0,051 mm 0,7 UV-I 139 W/m² 0,7 °C 0,9 °C 14,5 km/h (3 Bft)
30.10.2017 09:02 3,1 °C 3,1 °C 84 % 1023,1 hPa 0,0 mm 5,4 km/h (1 Bft) W 263 ° 0 min 0,000 mm 0,7 UV-I 139 W/m² 0,7 °C 1,8 °C 9,7 km/h (2 Bft)
30.10.2017 09:03 3,1 °C 3,1 °C 84 % 1023,1 hPa 0,0 mm 3,4 km/h (1 Bft) W 269 ° 0 min 0,000 mm 0,7 UV-I 134 W/m² 0,7 °C 3,1 °C 6,4 km/h (2 Bft)
30.10.2017 09:05 3,2 °C 3,2 °C 84 % 1023,1 hPa 0,0 mm 5,2 km/h (1 Bft) SW 221 ° 0 min 0,000 mm 0,7 UV-I 125 W/m² 0,8 °C 2,0 °C 9,7 km/h (2 Bft)
30.10.2017 09:06 3,2 °C 3,2 °C 84 % 1023,1 hPa 0,0 mm 6,0 km/h (2 Bft) W-SW 245 ° 0 min 0,000 mm 0,7 UV-I 123 W/m² 0,8 °C 1,7 °C 9,7 km/h (2 Bft)
30.10.2017 09:07 3,2 °C 3,2 °C 84 % 1023,2 hPa 0,0 mm 4,0 km/h (1 Bft) W-SW 256 ° 0 min 0,000 mm 0,7 UV-I 121 W/m² 0,8 °C 3,2 °C 4,8 km/h (1 Bft)
30.10.2017 09:08 3,2 °C 3,2 °C 84 % 1023,2 hPa 0,0 mm 6,1 km/h (2 Bft) W-SW 248 ° 0 min 0,000 mm 0,7 UV-I 125 W/m² 0,8 °C 1,6 °C 11,3 km/h (2 Bft)
30.10.2017 09:09 3,2 °C 3,2 °C 85 % 1023,2 hPa 0,0 mm 5,0 km/h (1 Bft) SW 223 ° 0 min 0,000 mm 0,7 UV-I 127 W/m² 0,9 °C 2,0 °C 6,4 km/h (2 Bft)
30.10.2017 09:10 3,3 °C 3,3 °C 84 % 1023,1 hPa 0,0 mm 8,2 km/h (2 Bft) W-SW 247 ° 0 min 0,000 mm 0,7 UV-I 123 W/m² 0,9 °C 1,1 °C 12,9 km/h (3 Bft)
30.10.2017 09:11 3,3 °C 3,3 °C 85 % 1023,1 hPa 0,0 mm 6,1 km/h (2 Bft) W-SW 247 ° 0 min 0,000 mm 0,7 UV-I 121 W/m² 1,0 °C 1,7 °C 11,3 km/h (2 Bft)
30.10.2017 09:12 3,3 °C 3,3 °C 85 % 1023,1 hPa 0,0 mm 7,3 km/h (2 Bft) W 264 ° 0 min 0,000 mm 0,7 UV-I 118 W/m² 1,0 °C 1,3 °C 9,7 km/h (2 Bft)
30.10.2017 09:13 3,3 °C 3,3 °C 84 % 1023,1 hPa 0,0 mm 3,9 km/h (1 Bft) W-SW 254 ° 0 min 0,000 mm 0,7 UV-I 116 W/m² 0,9 °C 3,3 °C 6,4 km/h (2 Bft)
30.10.2017 09:14 3,3 °C 3,3 °C 84 % 1023,2 hPa 0,0 mm 5,4 km/h (1 Bft) W 273 ° 0 min 0,000 mm 0,7 UV-I 109 W/m² 0,9 °C 2,0 °C 11,3 km/h (2 Bft)
30.10.2017 09:15 3,3 °C 3,3 °C 85 % 1023,1 hPa 0,0 mm 7,8 km/h (2 Bft) S 190 ° 0 min 0,000 mm 0,7 UV-I 109 W/m² 1,0 °C 1,2 °C 16,1 km/h (3 Bft)
30.10.2017 09:16 3,3 °C 3,3 °C 84 % 1023,1 hPa 0,0 mm 8,1 km/h (2 Bft) W-SW 238 ° 0 min 0,000 mm 0,7 UV-I 109 W/m² 0,9 °C 1,1 °C 17,7 km/h (3 Bft)
30.10.2017 09:17 3,3 °C 3,3 °C 84 % 1023,1 hPa 0,0 mm 6,7 km/h (2 Bft) W 259 ° 0 min 0,000 mm 0,7 UV-I 113 W/m² 0,9 °C 1,5 °C 14,5 km/h (3 Bft)
30.10.2017 09:18 3,3 °C 3,3 °C 84 % 1023,1 hPa 0,0 mm 5,8 km/h (2 Bft) W 271 ° 0 min 0,000 mm 0,7 UV-I 113 W/m² 0,9 °C 1,8 °C 8,0 km/h (2 Bft)
30.10.2017 09:19 3,3 °C 3,3 °C 84 % 1023,1 hPa 0,0 mm 9,5 km/h (2 Bft) S-SW 201 ° 0 min 0,000 mm 0,7 UV-I 114 W/m² 0,9 °C 0,7 °C 16,1 km/h (3 Bft)
30.10.2017 09:20 3,3 °C 3,3 °C 83 % 1023,2 hPa 0,0 mm 5,2 km/h (1 Bft) W 274 ° 0 min 0,000 mm 0,7 UV-I 116 W/m² 0,7 °C 2,1 °C 12,9 km/h (3 Bft)
30.10.2017 09:21 3,3 °C 3,3 °C 84 % 1023,1 hPa 0,0 mm 5,2 km/h (1 Bft) W 271 ° 0 min 0,000 mm 0,7 UV-I 118 W/m² 0,9 °C 2,1 °C 9,7 km/h (2 Bft)
30.10.2017 09:22 3,3 °C 3,3 °C 84 % 1023,2 hPa 0,0 mm 8,4 km/h (2 Bft) W 265 ° 0 min 0,000 mm 0,7 UV-I 120 W/m² 0,9 °C 1,0 °C 14,5 km/h (3 Bft)
30.10.2017 09:23 3,3 °C 3,3 °C 83 % 1023,2 hPa 0,0 mm 12,2 km/h (2 Bft) W 269 ° 0 min 0,000 mm 0,7 UV-I 120 W/m² 0,7 °C 0,2 °C 14,5 km/h (3 Bft)
30.10.2017 09:24 3,3 °C 3,3 °C 84 % 1023,2 hPa 0,0 mm 5,8 km/h (2 Bft) W-SW 242 ° 0 min 0,000 mm 0,7 UV-I 118 W/m² 0,9 °C 1,8 °C 11,3 km/h (2 Bft)
30.10.2017 09:25 3,3 °C 3,3 °C 83 % 1023,2 hPa 0,0 mm 8,5 km/h (2 Bft) W-SW 248 ° 0 min 0,000 mm 0,7 UV-I 116 W/m² 0,7 °C 1,0 °C 14,5 km/h (3 Bft)
30.10.2017 09:26 3,3 °C 3,3 °C 84 % 1023,3 hPa 0,0 mm 8,7 km/h (2 Bft) W 267 ° 0 min 0,000 mm 0,7 UV-I 109 W/m² 0,9 °C 0,9 °C 12,9 km/h (3 Bft)
30.10.2017 09:27 3,3 °C 3,3 °C 83 % 1023,3 hPa 0,0 mm 8,6 km/h (2 Bft) W-SW 254 ° 0 min 0,000 mm 0,7 UV-I 109 W/m² 0,7 °C 1,0 °C 16,1 km/h (3 Bft)
30.10.2017 09:28 3,3 °C 3,3 °C 84 % 1023,2 hPa 0,0 mm 10,0 km/h (2 Bft) W 277 ° 0 min 0,000 mm 0,7 UV-I 107 W/m² 0,9 °C 0,6 °C 14,5 km/h (3 Bft)
30.10.2017 09:29 3,3 °C 3,3 °C 84 % 1023,2 hPa 0,0 mm 11,2 km/h (2 Bft) W-SW 238 ° 0 min 0,000 mm 0,7 UV-I 105 W/m² 0,9 °C 0,4 °C 14,5 km/h (3 Bft)
30.10.2017 09:30 3,3 °C 3,3 °C 84 % 1023,3 hPa 0,0 mm 9,9 km/h (2 Bft) SW 233 ° 0 min 0,000 mm 0,7 UV-I 104 W/m² 0,9 °C 0,7 °C 16,1 km/h (3 Bft)
30.10.2017 09:31 3,3 °C 3,3 °C 84 % 1023,3 hPa 0,0 mm 12,1 km/h (2 Bft) W 275 ° 0 min 0,000 mm 0,7 UV-I 104 W/m² 0,9 °C 0,2 °C 17,7 km/h (3 Bft)
30.10.2017 09:32 3,3 °C 3,3 °C 83 % 1023,4 hPa 0,0 mm 14,0 km/h (3 Bft) W-SW 251 ° 0 min 0,000 mm 0,7 UV-I 107 W/m² 0,7 °C -0,2 °C 16,1 km/h (3 Bft)
30.10.2017 09:33 3,3 °C 3,3 °C 84 % 1023,4 hPa 0,0 mm 9,5 km/h (2 Bft) W 265 ° 0 min 0,000 mm 0,7 UV-I 107 W/m² 0,9 °C 0,7 °C 12,9 km/h (3 Bft)
30.10.2017 09:34 3,3 °C 3,3 °C 83 % 1023,4 hPa 0,0 mm 9,8 km/h (2 Bft) W 260 ° 0 min 0,000 mm 0,7 UV-I 105 W/m² 0,7 °C 0,7 °C 12,9 km/h (3 Bft)
30.10.2017 09:35 3,3 °C 3,3 °C 84 % 1023,4 hPa 0,0 mm 6,4 km/h (2 Bft) W-SW 258 ° 0 min 0,000 mm 0,7 UV-I 105 W/m² 0,9 °C 1,6 °C 11,3 km/h (2 Bft)
30.10.2017 09:36 3,3 °C 3,3 °C 83 % 1023,3 hPa 0,0 mm 8,0 km/h (2 Bft) W-SW 257 ° 0 min 0,000 mm 0,7 UV-I 104 W/m² 0,7 °C 1,1 °C 12,9 km/h (3 Bft)
30.10.2017 09:37 3,3 °C 3,3 °C 83 % 1023,3 hPa 0,0 mm 5,3 km/h (1 Bft) W-SW 246 ° 0 min 0,000 mm 0,8 UV-I 102 W/m² 0,7 °C 2,0 °C 6,4 km/h (2 Bft)
30.10.2017 09:38 3,3 °C 3,3 °C 84 % 1023,4 hPa 0,0 mm 5,2 km/h (1 Bft) W 265 ° 0 min 0,000 mm 0,8 UV-I 100 W/m² 0,9 °C 2,1 °C 6,4 km/h (2 Bft)
30.10.2017 09:39 3,3 °C 3,3 °C 84 % 1023,4 hPa 0,0 mm 9,1 km/h (2 Bft) W-NW 282 ° 0 min 0,000 mm 0,8 UV-I 102 W/m² 0,9 °C 0,8 °C 14,5 km/h (3 Bft)
30.10.2017 09:40 3,3 °C 3,3 °C 83 % 1023,3 hPa 0,0 mm 7,2 km/h (2 Bft) W-NW 283 ° 0 min 0,000 mm 0,8 UV-I 107 W/m² 0,7 °C 1,4 °C 12,9 km/h (3 Bft)
30.10.2017 09:41 3,3 °C 3,3 °C 83 % 1023,3 hPa 0,0 mm 5,0 km/h (1 Bft) W-SW 252 ° 0 min 0,000 mm 0,8 UV-I 114 W/m² 0,7 °C 2,2 °C 8,0 km/h (2 Bft)
30.10.2017 09:42 3,3 °C 3,3 °C 84 % 1023,4 hPa 0,0 mm 7,0 km/h (2 Bft) W 273 ° 0 min 0,000 mm 0,8 UV-I 118 W/m² 0,9 °C 1,4 °C 11,3 km/h (2 Bft)
30.10.2017 09:43 3,4 °C 3,4 °C 84 % 1023,4 hPa 0,0 mm 6,1 km/h (2 Bft) W-SW 248 ° 0 min 0,000 mm 0,8 UV-I 116 W/m² 1,0 °C 1,8 °C 8,0 km/h (2 Bft)
30.10.2017 09:44 3,4 °C 3,4 °C 83 % 1023,4 hPa 0,0 mm 5,2 km/h (1 Bft) W 261 ° 0 min 0,000 mm 0,8 UV-I 121 W/m² 0,8 °C 2,2 °C 9,7 km/h (2 Bft)
30.10.2017 09:45 3,3 °C 3,4 °C 83 % 1023,4 hPa 0,0 mm 7,8 km/h (2 Bft) W 281 ° 0 min 0,000 mm 0,9 UV-I 127 W/m² 0,7 °C 1,2 °C 14,5 km/h (3 Bft)
30.10.2017 09:46 3,4 °C 3,4 °C 83 % 1023,5 hPa 0,0 mm 10,4 km/h (2 Bft) W-NW 291 ° 0 min 0,000 mm 0,9 UV-I 134 W/m² 0,8 °C 0,7 °C 16,1 km/h (3 Bft)
30.10.2017 09:47 3,4 °C 3,4 °C 83 % 1023,4 hPa 0,0 mm 7,4 km/h (2 Bft) W-SW 247 ° 0 min 0,000 mm 0,9 UV-I 137 W/m² 0,8 °C 1,4 °C 11,3 km/h (2 Bft)
30.10.2017 09:48 3,4 °C 3,4 °C 83 % 1023,4 hPa 0,0 mm 6,1 km/h (2 Bft) W 259 ° 0 min 0,000 mm 0,9 UV-I 137 W/m² 0,8 °C 1,8 °C 9,7 km/h (2 Bft)
30.10.2017 09:49 3,4 °C 3,4 °C 83 % 1023,4 hPa 0,0 mm 4,5 km/h (1 Bft) W 276 ° 0 min 0,000 mm 0,9 UV-I 135 W/m² 0,8 °C 3,4 °C 6,4 km/h (2 Bft)
30.10.2017 09:50 3,4 °C 3,4 °C 84 % 1023,4 hPa 0,0 mm 6,5 km/h (2 Bft) W 273 ° 0 min 0,000 mm 0,9 UV-I 134 W/m² 1,0 °C 1,7 °C 9,7 km/h (2 Bft)
30.10.2017 09:51 3,4 °C 3,4 °C 83 % 1023,4 hPa 0,0 mm 6,1 km/h (2 Bft) W 271 ° 0 min 0,000 mm 0,9 UV-I 128 W/m² 0,8 °C 1,8 °C 11,3 km/h (2 Bft)
30.10.2017 09:52 3,6 °C 3,6 °C 85 % 1023,5 hPa 0,0 mm 7,7 km/h (2 Bft) W-NW 295 ° 0 min 0,000 mm 0,8 UV-I 121 W/m² 1,3 °C 1,6 °C 11,3 km/h (2 Bft)
30.10.2017 09:53 3,6 °C 3,6 °C 83 % 1023,5 hPa 0,0 mm 6,9 km/h (2 Bft) W-NW 300 ° 0 min 0,000 mm 0,8 UV-I 118 W/m² 1,0 °C 1,8 °C 11,3 km/h (2 Bft)
30.10.2017 09:54 3,6 °C 3,6 °C 82 % 1023,4 hPa 0,0 mm 8,2 km/h (2 Bft) W-NW 292 ° 0 min 0,000 mm 0,8 UV-I 118 W/m² 0,8 °C 1,4 °C 14,5 km/h (3 Bft)
30.10.2017 09:55 3,6 °C 3,6 °C 83 % 1023,5 hPa 0,0 mm 8,2 km/h (2 Bft) NW 324 ° 0 min 0,000 mm 0,8 UV-I 116 W/m² 1,0 °C 1,4 °C 11,3 km/h (2 Bft)
30.10.2017 09:56 3,5 °C 3,6 °C 82 % 1023,5 hPa 0,0 mm 8,4 km/h (2 Bft) W-NW 288 ° 0 min 0,000 mm 0,8 UV-I 113 W/m² 0,7 °C 1,3 °C 12,9 km/h (3 Bft)
30.10.2017 09:57 3,5 °C 3,6 °C 82 % 1023,5 hPa 0,0 mm 4,6 km/h (1 Bft) W-SW 251 ° 0 min 0,000 mm 0,7 UV-I 107 W/m² 0,7 °C 2,6 °C 8,0 km/h (2 Bft)
30.10.2017 09:58 3,5 °C 3,5 °C 82 % 1023,6 hPa 0,0 mm 5,7 km/h (1 Bft) W-NW 300 ° 0 min 0,000 mm 0,7 UV-I 102 W/m² 0,7 °C 2,1 °C 8,0 km/h (2 Bft)
30.10.2017 09:59 3,5 °C 3,5 °C 83 % 1023,6 hPa 0,0 mm 7,1 km/h (2 Bft) NW 314 ° 0 min 0,000 mm 0,7 UV-I 95 W/m² 0,9 °C 1,6 °C 11,3 km/h (2 Bft)
30.10.2017 10:00 3,5 °C 3,5 °C 83 % 1023,6 hPa 0,0 mm 6,1 km/h (2 Bft) W-NW 297 ° 0 min 0,000 mm 0,6 UV-I 90 W/m² 0,9 °C 2,0 °C 8,0 km/h (2 Bft)
30.10.2017 10:01 3,5 °C 3,6 °C 83 % 1023,6 hPa 0,0 mm 8,4 km/h (2 Bft) NW 319 ° 0 min 0,050 mm 0,6 UV-I 95 W/m² 0,9 °C 1,3 °C 14,5 km/h (3 Bft)
30.10.2017 10:02 3,4 °C 3,5 °C 82 % 1023,6 hPa 0,0 mm 9,8 km/h (2 Bft) W 278 ° 0 min 0,000 mm 0,7 UV-I 100 W/m² 0,6 °C 0,8 °C 14,5 km/h (3 Bft)
30.10.2017 10:03 3,4 °C 3,4 °C 82 % 1023,6 hPa 0,0 mm 3,5 km/h (1 Bft) NW 323 ° 0 min 0,000 mm 0,7 UV-I 98 W/m² 0,6 °C 3,4 °C 8,0 km/h (2 Bft)
30.10.2017 10:04 3,3 °C 3,4 °C 83 % 1023,6 hPa 0,0 mm 10,0 km/h (2 Bft) NW 318 ° 0 min 0,000 mm 0,7 UV-I 93 W/m² 0,7 °C 0,6 °C 14,5 km/h (3 Bft)
30.10.2017 10:05 3,4 °C 3,4 °C 83 % 1023,7 hPa 0,0 mm 6,5 km/h (2 Bft) W-NW 292 ° 0 min 0,000 mm 0,8 UV-I 91 W/m² 0,8 °C 1,7 °C 11,3 km/h (2 Bft)
30.10.2017 10:06 3,3 °C 3,4 °C 83 % 1023,7 hPa 0,0 mm 7,6 km/h (2 Bft) W 277 ° 0 min 0,000 mm 0,8 UV-I 93 W/m² 0,7 °C 1,3 °C 11,3 km/h (2 Bft)
30.10.2017 10:07 3,3 °C 3,3 °C 83 % 1023,7 hPa 0,0 mm 5,7 km/h (1 Bft) W 271 ° 0 min 0,000 mm 0,9 UV-I 88 W/m² 0,7 °C 1,9 °C 14,5 km/h (3 Bft)
30.10.2017 10:08 3,3 °C 3,3 °C 83 % 1023,7 hPa 0,0 mm 10,5 km/h (2 Bft) W-NW 283 ° 0 min 0,000 mm 1,0 UV-I 90 W/m² 0,7 °C 0,5 °C 14,5 km/h (3 Bft)
30.10.2017 10:09 3,3 °C 3,3 °C 83 % 1023,7 hPa 0,0 mm 7,9 km/h (2 Bft) W 265 ° 0 min 0,000 mm 1,0 UV-I 91 W/m² 0,7 °C 1,2 °C 12,9 km/h (3 Bft)
30.10.2017 10:10 3,2 °C 3,3 °C 83 % 1023,7 hPa 0,0 mm 8,2 km/h (2 Bft) W 278 ° 0 min 0,000 mm 1,0 UV-I 91 W/m² 0,6 °C 1,0 °C 14,5 km/h (3 Bft)
30.10.2017 10:11 3,1 °C 3,2 °C 82 % 1023,7 hPa 0,0 mm 5,4 km/h (1 Bft) W-NW 292 ° 0 min 0,000 mm 1,1 UV-I 93 W/m² 0,3 °C 1,8 °C 6,4 km/h (2 Bft)
30.10.2017 10:12 3,1 °C 3,1 °C 83 % 1023,8 hPa 0,0 mm 8,2 km/h (2 Bft) W-NW 296 ° 0 min 0,000 mm 1,1 UV-I 93 W/m² 0,5 °C 0,8 °C 11,3 km/h (2 Bft)
30.10.2017 10:13 3,0 °C 3,1 °C 82 % 1023,8 hPa 0,0 mm 8,6 km/h (2 Bft) NW 310 ° 0 min 0,000 mm 1,1 UV-I 95 W/m² 0,2 °C 0,6 °C 12,9 km/h (3 Bft)
30.10.2017 10:14 2,9 °C 3,0 °C 82 % 1023,8 hPa 0,0 mm 7,5 km/h (2 Bft) W-NW 290 ° 0 min 0,000 mm 1,2 UV-I 98 W/m² 0,1 °C 0,8 °C 11,3 km/h (2 Bft)
30.10.2017 10:15 2,9 °C 2,9 °C 83 % 1023,8 hPa 0,0 mm 10,1 km/h (2 Bft) NW 312 ° 0 min 0,000 mm 1,2 UV-I 102 W/m² 0,3 °C 0,1 °C 16,1 km/h (3 Bft)
30.10.2017 10:16 2,8 °C 2,9 °C 83 % 1023,9 hPa 0,0 mm 10,1 km/h (2 Bft) W-NW 290 ° 0 min 0,000 mm 1,2 UV-I 107 W/m² 0,2 °C 0,0 °C 14,5 km/h (3 Bft)
30.10.2017 10:17 2,8 °C 2,9 °C 83 % 1023,9 hPa 0,0 mm 9,1 km/h (2 Bft) W-NW 292 ° 0 min 0,000 mm 1,3 UV-I 113 W/m² 0,2 °C 0,3 °C 14,5 km/h (3 Bft)
30.10.2017 10:18 2,8 °C 2,8 °C 84 % 1023,9 hPa 0,0 mm 12,9 km/h (3 Bft) W 281 ° 0 min 0,000 mm 1,3 UV-I 118 W/m² 0,4 °C -0,6 °C 17,7 km/h (3 Bft)
30.10.2017 10:19 2,8 °C 2,8 °C 84 % 1023,8 hPa 0,0 mm 11,3 km/h (2 Bft) W 276 ° 0 min 0,000 mm 1,3 UV-I 130 W/m² 0,4 °C -0,3 °C 14,5 km/h (3 Bft)
30.10.2017 10:20 2,8 °C 2,8 °C 83 % 1023,8 hPa 0,0 mm 7,1 km/h (2 Bft) NW 306 ° 0 min 0,000 mm 1,4 UV-I 139 W/m² 0,2 °C 0,8 °C 12,9 km/h (3 Bft)
30.10.2017 10:21 2,8 °C 2,8 °C 83 % 1023,9 hPa 0,0 mm 10,2 km/h (2 Bft) W-NW 299 ° 0 min 0,000 mm 1,4 UV-I 148 W/m² 0,2 °C -0,0 °C 12,9 km/h (3 Bft)
30.10.2017 10:22 2,8 °C 2,8 °C 84 % 1023,9 hPa 0,0 mm 13,9 km/h (3 Bft) W 271 ° 0 min 0,000 mm 1,4 UV-I 155 W/m² 0,4 °C -0,8 °C 17,7 km/h (3 Bft)
30.10.2017 10:23 2,8 °C 2,8 °C 83 % 1023,9 hPa 0,0 mm 10,8 km/h (2 Bft) NW 315 ° 0 min 0,000 mm 1,4 UV-I 163 W/m² 0,2 °C -0,2 °C 16,1 km/h (3 Bft)
30.10.2017 10:24 2,8 °C 2,8 °C 83 % 1023,9 hPa 0,0 mm 9,0 km/h (2 Bft) W 269 ° 0 min 0,000 mm 1,5 UV-I 174 W/m² 0,2 °C 0,3 °C 12,9 km/h (3 Bft)
30.10.2017 10:25 2,8 °C 2,8 °C 84 % 1023,9 hPa 0,0 mm 13,2 km/h (3 Bft) W 274 ° 0 min 0,000 mm 1,5 UV-I 197 W/m² 0,4 °C -0,6 °C 19,3 km/h (3 Bft)
30.10.2017 10:26 2,9 °C 2,9 °C 84 % 1023,9 hPa 0,0 mm 11,3 km/h (2 Bft) W-SW 255 ° 0 min 0,000 mm 1,5 UV-I 200 W/m² 0,5 °C -0,1 °C 16,1 km/h (3 Bft)
30.10.2017 10:27 2,9 °C 2,9 °C 84 % 1023,9 hPa 0,0 mm 9,6 km/h (2 Bft) W-NW 282 ° 0 min 0,000 mm 1,5 UV-I 199 W/m² 0,5 °C 0,2 °C 14,5 km/h (3 Bft)
30.10.2017 10:28 2,9 °C 2,9 °C 83 % 1023,9 hPa 0,0 mm 8,9 km/h (2 Bft) NW 317 ° 0 min 0,000 mm 1,5 UV-I 195 W/m² 0,3 °C 0,4 °C 16,1 km/h (3 Bft)
30.10.2017 10:29 3,0 °C 3,0 °C 83 % 1023,9 hPa 0,0 mm 7,2 km/h (2 Bft) W 263 ° 0 min 0,000 mm 1,5 UV-I 193 W/m² 0,4 °C 1,0 °C 16,1 km/h (3 Bft)
30.10.2017 10:30 3,1 °C 3,1 °C 84 % 1023,9 hPa 0,0 mm 12,3 km/h (3 Bft) W-SW 255 ° 0 min 0,000 mm 1,5 UV-I 195 W/m² 0,7 °C -0,1 °C 17,7 km/h (3 Bft)
30.10.2017 10:31 3,1 °C 3,1 °C 84 % 1023,9 hPa 0,0 mm 12,5 km/h (3 Bft) W 265 ° 0 min 0,000 mm 1,5 UV-I 197 W/m² 0,7 °C -0,1 °C 16,1 km/h (3 Bft)
30.10.2017 10:32 3,2 °C 3,2 °C 84 % 1024,0 hPa 0,0 mm 7,3 km/h (2 Bft) W-NW 286 ° 0 min 0,000 mm 1,5 UV-I 200 W/m² 0,8 °C 1,2 °C 12,9 km/h (3 Bft)
30.10.2017 10:33 3,2 °C 3,2 °C 85 % 1024,0 hPa 0,0 mm 7,1 km/h (2 Bft) W 279 ° 0 min 0,000 mm 1,5 UV-I 202 W/m² 0,9 °C 1,3 °C 9,7 km/h (2 Bft)
30.10.2017 10:34 3,3 °C 3,3 °C 84 % 1024,0 hPa 0,0 mm 7,8 km/h (2 Bft) W 281 ° 0 min 0,000 mm 1,5 UV-I 204 W/m² 0,9 °C 1,2 °C 11,3 km/h (2 Bft)
30.10.2017 10:35 3,3 °C 3,3 °C 84 % 1024,0 hPa 0,0 mm 5,1 km/h (1 Bft) W 266 ° 0 min 0,000 mm 1,5 UV-I 204 W/m² 0,9 °C 2,1 °C 14,5 km/h (3 Bft)
30.10.2017 10:36 3,4 °C 3,4 °C 84 % 1024,1 hPa 0,0 mm 6,9 km/h (2 Bft) W-NW 289 ° 0 min 0,000 mm 1,5 UV-I 179 W/m² 1,0 °C 1,6 °C 14,5 km/h (3 Bft)
30.10.2017 10:37 3,4 °C 3,4 °C 84 % 1024,0 hPa 0,0 mm 9,8 km/h (2 Bft) W 261 ° 0 min 0,000 mm 1,4 UV-I 169 W/m² 1,0 °C 0,8 °C 17,7 km/h (3 Bft)
30.10.2017 10:38 3,4 °C 3,4 °C 84 % 1024,0 hPa 0,0 mm 13,5 km/h (3 Bft) W-SW 252 ° 0 min 0,000 mm 1,4 UV-I 179 W/m² 1,0 °C 0,0 °C 17,7 km/h (3 Bft)
30.10.2017 10:39 3,4 °C 3,4 °C 84 % 1024,1 hPa 0,0 mm 10,6 km/h (2 Bft) W 271 ° 0 min 0,000 mm 1,4 UV-I 181 W/m² 1,0 °C 0,6 °C 16,1 km/h (3 Bft)
30.10.2017 10:40 3,4 °C 3,4 °C 83 % 1024,0 hPa 0,0 mm 11,0 km/h (2 Bft) W-NW 297 ° 0 min 0,000 mm 1,4 UV-I 181 W/m² 0,8 °C 0,5 °C 16,1 km/h (3 Bft)
30.10.2017 10:41 3,4 °C 3,4 °C 83 % 1024,1 hPa 0,0 mm 9,7 km/h (2 Bft) W-NW 299 ° 0 min 0,000 mm 1,4 UV-I 162 W/m² 0,8 °C 0,8 °C 16,1 km/h (3 Bft)
30.10.2017 10:42 3,4 °C 3,4 °C 83 % 1024,1 hPa 0,0 mm 11,7 km/h (2 Bft) W 273 ° 0 min 0,000 mm 1,4 UV-I 176 W/m² 0,8 °C 0,4 °C 16,1 km/h (3 Bft)
30.10.2017 10:43 3,4 °C 3,4 °C 83 % 1024,2 hPa 0,0 mm 9,8 km/h (2 Bft) W-NW 299 ° 0 min 0,000 mm 1,5 UV-I 183 W/m² 0,8 °C 0,8 °C 14,5 km/h (3 Bft)
30.10.2017 10:44 3,4 °C 3,4 °C 83 % 1024,1 hPa 0,0 mm 5,6 km/h (1 Bft) W 259 ° 0 min 0,000 mm 1,5 UV-I 188 W/m² 0,8 °C 2,0 °C 9,7 km/h (2 Bft)
30.10.2017 10:45 3,4 °C 3,4 °C 83 % 1024,1 hPa 0,0 mm 8,2 km/h (2 Bft) NW 319 ° 0 min 0,000 mm 1,5 UV-I 192 W/m² 0,8 °C 1,2 °C 14,5 km/h (3 Bft)
30.10.2017 10:46 3,4 °C 3,4 °C 83 % 1024,1 hPa 0,0 mm 6,2 km/h (2 Bft) W-NW 282 ° 0 min 0,000 mm 1,5 UV-I 192 W/m² 0,8 °C 1,8 °C 12,9 km/h (3 Bft)
30.10.2017 10:47 3,4 °C 3,4 °C 83 % 1024,1 hPa 0,0 mm 3,4 km/h (1 Bft) W 263 ° 0 min 0,000 mm 1,5 UV-I 190 W/m² 0,8 °C 3,4 °C 6,4 km/h (2 Bft)
30.10.2017 10:48 3,6 °C 3,6 °C 84 % 1024,1 hPa 0,0 mm 6,0 km/h (2 Bft) W 278 ° 0 min 0,000 mm 1,5 UV-I 190 W/m² 1,2 °C 2,1 °C 11,3 km/h (2 Bft)
30.10.2017 10:49 3,5 °C 3,6 °C 84 % 1024,1 hPa 0,0 mm 7,8 km/h (2 Bft) W-NW 290 ° 0 min 0,000 mm 1,5 UV-I 193 W/m² 1,1 °C 1,4 °C 11,3 km/h (2 Bft)
30.10.2017 10:50 3,5 °C 3,5 °C 82 % 1024,1 hPa 0,0 mm 9,1 km/h (2 Bft) W-NW 294 ° 0 min 0,000 mm 1,5 UV-I 181 W/m² 0,7 °C 1,1 °C 11,3 km/h (2 Bft)
30.10.2017 10:51 3,4 °C 3,5 °C 83 % 1024,1 hPa 0,0 mm 5,6 km/h (1 Bft) W-NW 294 ° 0 min 0,000 mm 1,5 UV-I 178 W/m² 0,8 °C 2,0 °C 8,0 km/h (2 Bft)
30.10.2017 10:52 3,5 °C 3,5 °C 83 % 1024,1 hPa 0,0 mm 6,7 km/h (2 Bft) W-SW 254 ° 0 min 0,000 mm 1,5 UV-I 165 W/m² 0,9 °C 1,8 °C 12,9 km/h (3 Bft)
30.10.2017 10:53 3,5 °C 3,5 °C 83 % 1024,1 hPa 0,0 mm 9,9 km/h (2 Bft) W-NW 286 ° 0 min 0,000 mm 1,5 UV-I 169 W/m² 0,9 °C 0,9 °C 14,5 km/h (3 Bft)
30.10.2017 10:54 3,5 °C 3,6 °C 83 % 1024,1 hPa 0,0 mm 7,4 km/h (2 Bft) W-NW 298 ° 0 min 0,000 mm 1,5 UV-I 165 W/m² 0,9 °C 1,5 °C 11,3 km/h (2 Bft)
30.10.2017 10:55 3,5 °C 3,5 °C 82 % 1024,0 hPa 0,0 mm 7,6 km/h (2 Bft) W-NW 297 ° 0 min 0,000 mm 1,5 UV-I 163 W/m² 0,7 °C 1,5 °C 14,5 km/h (3 Bft)
30.10.2017 10:56 3,5 °C 3,5 °C 82 % 1024,2 hPa 0,0 mm 9,0 km/h (2 Bft) W-NW 292 ° 0 min 0,000 mm 1,5 UV-I 160 W/m² 0,7 °C 1,1 °C 16,1 km/h (3 Bft)
30.10.2017 10:57 3,5 °C 3,5 °C 82 % 1024,1 hPa 0,0 mm 10,2 km/h (2 Bft) W-NW 296 ° 0 min 0,000 mm 1,5 UV-I 160 W/m² 0,7 °C 0,8 °C 12,9 km/h (3 Bft)
30.10.2017 10:58 3,4 °C 3,5 °C 82 % 1024,1 hPa 0,0 mm 7,5 km/h (2 Bft) W-NW 287 ° 0 min 0,000 mm 1,5 UV-I 156 W/m² 0,6 °C 1,4 °C 11,3 km/h (2 Bft)
30.10.2017 10:59 3,5 °C 3,5 °C 83 % 1024,1 hPa 0,0 mm 5,3 km/h (1 Bft) W 273 ° 0 min 0,000 mm 1,5 UV-I 158 W/m² 0,9 °C 2,3 °C 9,7 km/h (2 Bft)
30.10.2017 11:00 3,5 °C 3,5 °C 82 % 1024,1 hPa 0,0 mm 6,6 km/h (2 Bft) W-SW 238 ° 0 min 0,077 mm 1,5 UV-I 156 W/m² 0,7 °C 1,8 °C 11,3 km/h (2 Bft)
30.10.2017 11:01 3,5 °C 3,5 °C 82 % 1024,1 hPa 0,0 mm 6,6 km/h (2 Bft) W-NW 292 ° 0 min 0,000 mm 1,5 UV-I 160 W/m² 0,7 °C 1,8 °C 11,3 km/h (2 Bft)
30.10.2017 11:02 3,6 °C 3,6 °C 82 % 1024,1 hPa 0,0 mm 8,0 km/h (2 Bft) W-NW 292 ° 0 min 0,000 mm 1,5 UV-I 169 W/m² 0,8 °C 1,5 °C 14,5 km/h (3 Bft)
30.10.2017 11:04 3,6 °C 3,6 °C 83 % 1024,1 hPa 0,0 mm 6,4 km/h (2 Bft) W 273 ° 0 min 0,000 mm 1,6 UV-I 183 W/m² 1,0 °C 2,0 °C 12,9 km/h (3 Bft)
30.10.2017 11:05 3,6 °C 3,6 °C 83 % 1024,1 hPa 0,0 mm 6,0 km/h (2 Bft) W-NW 297 ° 0 min 0,000 mm 1,6 UV-I 179 W/m² 1,0 °C 2,1 °C 12,9 km/h (3 Bft)
30.10.2017 11:06 3,7 °C 3,7 °C 82 % 1024,1 hPa 0,0 mm 6,0 km/h (2 Bft) W 280 ° 0 min 0,000 mm 1,5 UV-I 181 W/m² 0,9 °C 2,2 °C 9,7 km/h (2 Bft)
30.10.2017 11:07 3,8 °C 3,8 °C 83 % 1024,2 hPa 0,0 mm 6,2 km/h (2 Bft) W-SW 254 ° 0 min 0,000 mm 1,6 UV-I 193 W/m² 1,2 °C 2,3 °C 11,3 km/h (2 Bft)
30.10.2017 11:08 3,8 °C 3,8 °C 84 % 1024,2 hPa 0,0 mm 3,8 km/h (1 Bft) W 275 ° 0 min 0,000 mm 1,6 UV-I 211 W/m² 1,4 °C 3,8 °C 6,4 km/h (2 Bft)
30.10.2017 11:09 3,8 °C 3,8 °C 83 % 1024,2 hPa 0,0 mm 5,8 km/h (2 Bft) W-NW 285 ° 0 min 0,000 mm 1,6 UV-I 230 W/m² 1,2 °C 2,4 °C 9,7 km/h (2 Bft)
30.10.2017 11:10 3,8 °C 3,8 °C 82 % 1024,2 hPa 0,0 mm 7,5 km/h (2 Bft) W 264 ° 0 min 0,000 mm 1,5 UV-I 236 W/m² 1,0 °C 1,9 °C 12,9 km/h (3 Bft)
30.10.2017 11:11 3,8 °C 3,8 °C 82 % 1024,2 hPa 0,0 mm 9,3 km/h (2 Bft) W-SW 254 ° 0 min 0,000 mm 1,5 UV-I 214 W/m² 1,0 °C 1,4 °C 11,3 km/h (2 Bft)
30.10.2017 11:12 3,8 °C 3,9 °C 82 % 1024,2 hPa 0,0 mm 7,9 km/h (2 Bft) NW 311 ° 0 min 0,000 mm 1,3 UV-I 200 W/m² 1,0 °C 1,8 °C 12,9 km/h (3 Bft)
30.10.2017 11:13 3,8 °C 3,9 °C 82 % 1024,2 hPa 0,0 mm 7,2 km/h (2 Bft) W 259 ° 0 min 0,000 mm 1,2 UV-I 190 W/m² 1,0 °C 2,0 °C 11,3 km/h (2 Bft)
30.10.2017 11:14 3,9 °C 3,9 °C 82 % 1024,2 hPa 0,0 mm 6,9 km/h (2 Bft) W 266 ° 0 min 0,000 mm 1,2 UV-I 179 W/m² 1,1 °C 2,2 °C 11,3 km/h (2 Bft)
30.10.2017 11:15 3,9 °C 3,9 °C 82 % 1024,2 hPa 0,0 mm 5,2 km/h (1 Bft) W 262 ° 0 min 0,000 mm 1,1 UV-I 167 W/m² 1,1 °C 2,8 °C 11,3 km/h (2 Bft)
30.10.2017 11:16 3,9 °C 3,9 °C 81 % 1024,2 hPa 0,0 mm 10,2 km/h (2 Bft) W 273 ° 0 min 0,000 mm 0,9 UV-I 149 W/m² 0,9 °C 1,3 °C 12,9 km/h (3 Bft)
30.10.2017 11:17 3,9 °C 3,9 °C 81 % 1024,2 hPa 0,0 mm 6,5 km/h (2 Bft) NW 304 ° 0 min 0,000 mm 0,8 UV-I 120 W/m² 0,9 °C 2,3 °C 9,7 km/h (2 Bft)
30.10.2017 11:18 3,9 °C 3,9 °C 80 % 1024,2 hPa 0,0 mm 4,9 km/h (1 Bft) W 279 ° 0 min 0,000 mm 0,7 UV-I 109 W/m² 0,8 °C 2,9 °C 8,0 km/h (2 Bft)
30.10.2017 11:19 3,9 °C 3,9 °C 81 % 1024,2 hPa 0,0 mm 6,8 km/h (2 Bft) W 267 ° 0 min 0,000 mm 0,6 UV-I 102 W/m² 0,9 °C 2,2 °C 11,3 km/h (2 Bft)
30.10.2017 11:20 3,9 °C 3,9 °C 81 % 1024,3 hPa 0,0 mm 9,7 km/h (2 Bft) W-SW 254 ° 0 min 0,000 mm 0,6 UV-I 98 W/m² 0,9 °C 1,4 °C 14,5 km/h (3 Bft)
30.10.2017 11:21 3,9 °C 3,9 °C 81 % 1024,3 hPa 0,0 mm 7,6 km/h (2 Bft) W 268 ° 0 min 0,000 mm 0,6 UV-I 93 W/m² 0,9 °C 2,0 °C 11,3 km/h (2 Bft)
30.10.2017 11:22 3,8 °C 3,9 °C 80 % 1024,2 hPa 0,0 mm 7,1 km/h (2 Bft) W 272 ° 0 min 0,000 mm 0,5 UV-I 86 W/m² 0,7 °C 2,0 °C 9,7 km/h (2 Bft)
30.10.2017 11:23 3,8 °C 3,8 °C 80 % 1024,2 hPa 0,0 mm 5,0 km/h (1 Bft) W-NW 288 ° 0 min 0,000 mm 0,5 UV-I 81 W/m² 0,7 °C 2,7 °C 8,0 km/h (2 Bft)
30.10.2017 11:24 3,8 °C 3,8 °C 81 % 1024,2 hPa 0,0 mm 5,0 km/h (1 Bft) NW 311 ° 0 min 0,000 mm 0,5 UV-I 83 W/m² 0,8 °C 2,7 °C 8,0 km/h (2 Bft)
30.10.2017 11:25 3,8 °C 3,8 °C 82 % 1024,2 hPa 0,0 mm 7,8 km/h (2 Bft) W 261 ° 0 min 0,000 mm 0,5 UV-I 88 W/m² 1,0 °C 1,8 °C 11,3 km/h (2 Bft)
30.10.2017 11:26 3,7 °C 3,8 °C 82 % 1024,3 hPa 0,0 mm 6,0 km/h (2 Bft) W-NW 292 ° 0 min 0,000 mm 0,5 UV-I 91 W/m² 0,9 °C 2,2 °C 9,7 km/h (2 Bft)
30.10.2017 11:27 3,7 °C 3,7 °C 81 % 1024,3 hPa 0,0 mm 8,0 km/h (2 Bft) W 276 ° 0 min 0,000 mm 0,5 UV-I 91 W/m² 0,7 °C 1,6 °C 12,9 km/h (3 Bft)
30.10.2017 11:28 3,7 °C 3,7 °C 81 % 1024,3 hPa 0,0 mm 10,1 km/h (2 Bft) W-SW 240 ° 0 min 0,000 mm 0,6 UV-I 100 W/m² 0,7 °C 1,1 °C 16,1 km/h (3 Bft)
30.10.2017 11:29 3,7 °C 3,7 °C 80 % 1024,3 hPa 0,0 mm 9,4 km/h (2 Bft) W-NW 296 ° 0 min 0,000 mm 0,6 UV-I 104 W/m² 0,6 °C 1,2 °C 16,1 km/h (3 Bft)
30.10.2017 11:30 3,7 °C 3,7 °C 81 % 1024,3 hPa 0,0 mm 10,2 km/h (2 Bft) W-NW 289 ° 0 min 0,000 mm 0,6 UV-I 98 W/m² 0,7 °C 1,1 °C 12,9 km/h (3 Bft)
30.10.2017 11:31 3,7 °C 3,7 °C 81 % 1024,3 hPa 0,0 mm 7,3 km/h (2 Bft) W-NW 287 ° 0 min 0,000 mm 0,6 UV-I 93 W/m² 0,7 °C 1,8 °C 11,3 km/h (2 Bft)
30.10.2017 11:32 3,7 °C 3,7 °C 82 % 1024,3 hPa 0,0 mm 5,2 km/h (1 Bft) NW 315 ° 0 min 0,000 mm 0,5 UV-I 84 W/m² 0,9 °C 2,5 °C 8,0 km/h (2 Bft)
30.10.2017 11:33 3,7 °C 3,7 °C 81 % 1024,3 hPa 0,0 mm 6,6 km/h (2 Bft) NW 319 ° 0 min 0,000 mm 0,5 UV-I 79 W/m² 0,7 °C 2,0 °C 14,5 km/h (3 Bft)
30.10.2017 11:34 3,7 °C 3,7 °C 82 % 1024,3 hPa 0,0 mm 11,7 km/h (2 Bft) N-NW 338 ° 0 min 0,000 mm 0,5 UV-I 83 W/m² 0,9 °C 0,7 °C 17,7 km/h (3 Bft)
30.10.2017 11:35 3,6 °C 3,7 °C 81 % 1024,3 hPa 0,0 mm 10,2 km/h (2 Bft) NW 320 ° 0 min 0,000 mm 0,6 UV-I 111 W/m² 0,7 °C 0,9 °C 16,1 km/h (3 Bft)
30.10.2017 11:36 3,6 °C 3,6 °C 81 % 1024,3 hPa 0,0 mm 9,3 km/h (2 Bft) NW 325 ° 0 min 0,000 mm 0,9 UV-I 128 W/m² 0,7 °C 1,2 °C 14,5 km/h (3 Bft)
30.10.2017 11:37 3,6 °C 3,6 °C 82 % 1024,3 hPa 0,0 mm 10,9 km/h (2 Bft) NW 324 ° 0 min 0,000 mm 1,0 UV-I 144 W/m² 0,8 °C 0,8 °C 14,5 km/h (3 Bft)
30.10.2017 11:38 3,6 °C 3,6 °C 82 % 1024,3 hPa 0,0 mm 9,3 km/h (2 Bft) W-NW 298 ° 0 min 0,000 mm 1,1 UV-I 158 W/m² 0,8 °C 1,2 °C 16,1 km/h (3 Bft)
30.10.2017 11:39 3,6 °C 3,6 °C 82 % 1024,3 hPa 0,0 mm 12,1 km/h (2 Bft) NW 317 ° 0 min 0,000 mm 1,2 UV-I 171 W/m² 0,8 °C 0,5 °C 14,5 km/h (3 Bft)
30.10.2017 11:40 3,6 °C 3,6 °C 82 % 1024,3 hPa 0,0 mm 7,1 km/h (2 Bft) NW 310 ° 0 min 0,000 mm 1,3 UV-I 185 W/m² 0,8 °C 1,8 °C 14,5 km/h (3 Bft)
30.10.2017 11:41 3,6 °C 3,6 °C 82 % 1024,3 hPa 0,0 mm 6,7 km/h (2 Bft) NW 323 ° 0 min 0,000 mm 1,3 UV-I 188 W/m² 0,8 °C 1,9 °C 11,3 km/h (2 Bft)
30.10.2017 11:42 3,7 °C 3,7 °C 83 % 1024,3 hPa 0,0 mm 7,4 km/h (2 Bft) W-NW 298 ° 0 min 0,000 mm 1,4 UV-I 186 W/m² 1,1 °C 1,8 °C 12,9 km/h (3 Bft)
30.10.2017 11:43 3,7 °C 3,7 °C 82 % 1024,3 hPa 0,0 mm 6,2 km/h (2 Bft) W 271 ° 0 min 0,000 mm 1,4 UV-I 178 W/m² 0,9 °C 2,2 °C 12,9 km/h (3 Bft)
30.10.2017 11:44 3,7 °C 3,7 °C 82 % 1024,3 hPa 0,0 mm 6,2 km/h (2 Bft) NW 325 ° 0 min 0,000 mm 1,4 UV-I 165 W/m² 0,9 °C 2,2 °C 11,3 km/h (2 Bft)
30.10.2017 11:45 3,7 °C 3,7 °C 81 % 1024,3 hPa 0,0 mm 8,1 km/h (2 Bft) W-NW 301 ° 0 min 0,000 mm 1,4 UV-I 156 W/m² 0,7 °C 1,6 °C 12,9 km/h (3 Bft)
30.10.2017 11:46 3,7 °C 3,8 °C 82 % 1024,4 hPa 0,0 mm 5,2 km/h (1 Bft) W 281 ° 0 min 0,000 mm 1,4 UV-I 158 W/m² 0,9 °C 2,5 °C 9,7 km/h (2 Bft)
30.10.2017 11:47 3,7 °C 3,7 °C 81 % 1024,3 hPa 0,0 mm 5,7 km/h (1 Bft) W-NW 298 ° 0 min 0,000 mm 1,4 UV-I 171 W/m² 0,7 °C 2,3 °C 11,3 km/h (2 Bft)
30.10.2017 11:48 3,7 °C 3,7 °C 81 % 1024,3 hPa 0,0 mm 5,6 km/h (1 Bft) NW 309 ° 0 min 0,000 mm 1,5 UV-I 171 W/m² 0,7 °C 2,4 °C 12,9 km/h (3 Bft)
30.10.2017 11:49 3,7 °C 3,7 °C 81 % 1024,3 hPa 0,0 mm 5,8 km/h (2 Bft) W 275 ° 0 min 0,000 mm 1,6 UV-I 204 W/m² 0,7 °C 2,3 °C 11,3 km/h (2 Bft)
30.10.2017 11:50 3,7 °C 3,7 °C 82 % 1024,3 hPa 0,0 mm 7,0 km/h (2 Bft) NW 306 ° 0 min 0,000 mm 1,6 UV-I 213 W/m² 0,9 °C 1,9 °C 11,3 km/h (2 Bft)
30.10.2017 11:51 3,8 °C 3,8 °C 82 % 1024,3 hPa 0,0 mm 8,3 km/h (2 Bft) W-NW 288 ° 0 min 0,000 mm 1,7 UV-I 218 W/m² 1,0 °C 1,6 °C 12,9 km/h (3 Bft)
30.10.2017 11:52 3,9 °C 3,9 °C 82 % 1024,3 hPa 0,0 mm 4,7 km/h (1 Bft) W-NW 296 ° 0 min 0,000 mm 1,7 UV-I 229 W/m² 1,1 °C 3,0 °C 6,4 km/h (2 Bft)
30.10.2017 11:53 3,9 °C 3,9 °C 83 % 1024,2 hPa 0,0 mm 4,5 km/h (1 Bft) W 275 ° 0 min 0,000 mm 1,7 UV-I 236 W/m² 1,3 °C 3,9 °C 9,7 km/h (2 Bft)
30.10.2017 11:54 4,1 °C 4,1 °C 83 % 1024,2 hPa 0,0 mm 6,6 km/h (2 Bft) W-NW 301 ° 0 min 0,000 mm 1,7 UV-I 239 W/m² 1,5 °C 2,5 °C 12,9 km/h (3 Bft)
30.10.2017 11:55 4,1 °C 4,1 °C 82 % 1024,2 hPa 0,0 mm 10,8 km/h (2 Bft) W 267 ° 0 min 0,000 mm 1,7 UV-I 243 W/m² 1,3 °C 1,4 °C 16,1 km/h (3 Bft)
30.10.2017 11:56 4,2 °C 4,2 °C 81 % 1024,2 hPa 0,0 mm 11,7 km/h (2 Bft) NW 304 ° 0 min 0,000 mm 1,6 UV-I 248 W/m² 1,2 °C 1,3 °C 17,7 km/h (3 Bft)
30.10.2017 11:57 4,2 °C 4,2 °C 80 % 1024,2 hPa 0,0 mm 7,9 km/h (2 Bft) W 273 ° 0 min 0,000 mm 1,6 UV-I 257 W/m² 1,1 °C 2,2 °C 12,9 km/h (3 Bft)
30.10.2017 11:58 4,2 °C 4,2 °C 80 % 1024,2 hPa 0,0 mm 8,8 km/h (2 Bft) W-NW 303 ° 0 min 0,000 mm 1,7 UV-I 255 W/m² 1,1 °C 2,0 °C 12,9 km/h (3 Bft)
30.10.2017 11:59 4,2 °C 4,2 °C 79 % 1024,2 hPa 0,0 mm 9,0 km/h (2 Bft) W 261 ° 0 min 0,000 mm 1,7 UV-I 255 W/m² 0,9 °C 1,9 °C 14,5 km/h (3 Bft)
30.10.2017 12:00 4,3 °C 4,3 °C 79 % 1024,2 hPa 0,0 mm 7,2 km/h (2 Bft) W 262 ° 0 min 0,000 mm 1,6 UV-I 255 W/m² 1,0 °C 2,5 °C 12,9 km/h (3 Bft)
30.10.2017 12:01 4,3 °C 4,3 °C 80 % 1024,2 hPa 0,0 mm 8,6 km/h (2 Bft) W-NW 300 ° 0 min 0,076 mm 1,7 UV-I 258 W/m² 1,2 °C 2,2 °C 12,9 km/h (3 Bft)
30.10.2017 12:02 4,4 °C 4,4 °C 79 % 1024,2 hPa 0,0 mm 8,5 km/h (2 Bft) W-NW 296 ° 0 min 0,000 mm 1,7 UV-I 264 W/m² 1,1 °C 2,3 °C 12,9 km/h (3 Bft)
30.10.2017 12:03 4,4 °C 4,4 °C 78 % 1024,2 hPa 0,0 mm 13,6 km/h (3 Bft) W-NW 288 ° 0 min 0,000 mm 1,7 UV-I 253 W/m² 0,9 °C 1,2 °C 19,3 km/h (3 Bft)
30.10.2017 12:05 4,6 °C 4,6 °C 78 % 1024,2 hPa 0,0 mm 8,7 km/h (2 Bft) W-NW 286 ° 0 min 0,000 mm 1,6 UV-I 230 W/m² 1,1 °C 2,5 °C 14,5 km/h (3 Bft)
30.10.2017 12:06 4,6 °C 4,6 °C 78 % 1024,1 hPa 0,0 mm 12,3 km/h (3 Bft) W 275 ° 0 min 0,000 mm 1,5 UV-I 230 W/m² 1,1 °C 1,7 °C 19,3 km/h (3 Bft)
30.10.2017 12:07 4,7 °C 4,7 °C 78 % 1024,1 hPa 0,0 mm 12,8 km/h (3 Bft) W-NW 286 ° 0 min 0,000 mm 1,5 UV-I 185 W/m² 1,2 °C 1,7 °C 16,1 km/h (3 Bft)
30.10.2017 12:08 4,7 °C 4,7 °C 76 % 1024,2 hPa 0,0 mm 10,5 km/h (2 Bft) W 271 ° 0 min 0,000 mm 1,4 UV-I 172 W/m² 0,8 °C 2,2 °C 12,9 km/h (3 Bft)
30.10.2017 12:09 4,6 °C 4,7 °C 76 % 1024,2 hPa 0,0 mm 8,4 km/h (2 Bft) W 277 ° 0 min 0,000 mm 1,4 UV-I 167 W/m² 0,7 °C 2,6 °C 14,5 km/h (3 Bft)
30.10.2017 12:10 4,6 °C 4,6 °C 76 % 1024,1 hPa 0,0 mm 5,2 km/h (1 Bft) NW 306 ° 0 min 0,000 mm 1,4 UV-I 158 W/m² 0,7 °C 3,6 °C 8,0 km/h (2 Bft)
30.10.2017 12:11 4,5 °C 4,6 °C 76 % 1024,1 hPa 0,0 mm 7,4 km/h (2 Bft) NW 313 ° 0 min 0,000 mm 1,2 UV-I 155 W/m² 0,6 °C 2,7 °C 14,5 km/h (3 Bft)
30.10.2017 12:12 4,4 °C 4,5 °C 75 % 1024,2 hPa 0,0 mm 11,4 km/h (2 Bft) W-NW 288 ° 0 min 0,000 mm 1,2 UV-I 148 W/m² 0,4 °C 1,6 °C 16,1 km/h (3 Bft)
30.10.2017 12:13 4,4 °C 4,4 °C 75 % 1024,2 hPa 0,0 mm 6,0 km/h (2 Bft) W 280 ° 0 min 0,000 mm 1,1 UV-I 141 W/m² 0,4 °C 3,0 °C 14,5 km/h (3 Bft)
30.10.2017 12:14 4,4 °C 4,4 °C 76 % 1024,3 hPa 0,0 mm 14,2 km/h (3 Bft) W-SW 254 ° 0 min 0,000 mm 1,0 UV-I 135 W/m² 0,5 °C 1,1 °C 20,9 km/h (4 Bft)
30.10.2017 12:15 4,3 °C 4,4 °C 76 % 1024,2 hPa 0,0 mm 6,9 km/h (2 Bft) NW 322 ° 0 min 0,000 mm 1,0 UV-I 130 W/m² 0,5 °C 2,6 °C 11,3 km/h (2 Bft)
30.10.2017 12:16 4,3 °C 4,3 °C 77 % 1024,2 hPa 0,0 mm 5,0 km/h (1 Bft) NW 312 ° 0 min 0,000 mm 0,9 UV-I 121 W/m² 0,6 °C 3,3 °C 9,7 km/h (2 Bft)
30.10.2017 12:17 4,3 °C 4,3 °C 78 % 1024,2 hPa 0,0 mm 5,5 km/h (1 Bft) W-NW 285 ° 0 min 0,000 mm 0,8 UV-I 116 W/m² 0,8 °C 3,1 °C 11,3 km/h (2 Bft)
30.10.2017 12:18 4,2 °C 4,3 °C 77 % 1024,2 hPa 0,0 mm 8,2 km/h (2 Bft) W-NW 295 ° 0 min 0,000 mm 0,8 UV-I 114 W/m² 0,5 °C 2,1 °C 12,9 km/h (3 Bft)
30.10.2017 12:19 4,2 °C 4,2 °C 78 % 1024,2 hPa 0,0 mm 4,5 km/h (1 Bft) NW 306 ° 0 min 0,000 mm 0,8 UV-I 111 W/m² 0,7 °C 4,2 °C 6,4 km/h (2 Bft)
30.10.2017 12:20 4,2 °C 4,2 °C 79 % 1024,2 hPa 0,0 mm 7,6 km/h (2 Bft) W 267 ° 0 min 0,000 mm 0,8 UV-I 107 W/m² 0,9 °C 2,3 °C 12,9 km/h (3 Bft)
30.10.2017 12:21 4,1 °C 4,2 °C 79 % 1024,2 hPa 0,0 mm 13,5 km/h (3 Bft) W-SW 253 ° 0 min 0,000 mm 0,8 UV-I 109 W/m² 0,8 °C 0,9 °C 16,1 km/h (3 Bft)
30.10.2017 12:22 4,1 °C 4,2 °C 78 % 1024,3 hPa 0,0 mm 10,4 km/h (2 Bft) W-NW 296 ° 0 min 0,000 mm 0,9 UV-I 128 W/m² 0,6 °C 1,5 °C 17,7 km/h (3 Bft)
30.10.2017 12:23 4,1 °C 4,1 °C 78 % 1024,3 hPa 0,0 mm 7,6 km/h (2 Bft) W 275 ° 0 min 0,000 mm 1,0 UV-I 128 W/m² 0,6 °C 2,2 °C 11,3 km/h (2 Bft)
30.10.2017 12:24 4,0 °C 4,1 °C 78 % 1024,4 hPa 0,0 mm 8,2 km/h (2 Bft) W 261 ° 0 min 0,000 mm 1,0 UV-I 137 W/m² 0,5 °C 1,9 °C 16,1 km/h (3 Bft)
30.10.2017 12:25 4,0 °C 4,0 °C 78 % 1024,3 hPa 0,0 mm 12,8 km/h (3 Bft) W 277 ° 0 min 0,000 mm 1,0 UV-I 146 W/m² 0,5 °C 0,9 °C 17,7 km/h (3 Bft)
30.10.2017 12:26 3,9 °C 4,0 °C 78 % 1024,3 hPa 0,0 mm 7,4 km/h (2 Bft) W 279 ° 0 min 0,000 mm 1,0 UV-I 146 W/m² 0,4 °C 2,0 °C 12,9 km/h (3 Bft)
30.10.2017 12:27 3,9 °C 3,9 °C 78 % 1024,3 hPa 0,0 mm 6,8 km/h (2 Bft) W-NW 302 ° 0 min 0,000 mm 1,0 UV-I 149 W/m² 0,4 °C 2,2 °C 9,7 km/h (2 Bft)
30.10.2017 12:29 3,9 °C 3,9 °C 78 % 1024,3 hPa 0,0 mm 3,5 km/h (1 Bft) W-NW 292 ° 0 min 0,000 mm 1,3 UV-I 193 W/m² 0,4 °C 3,9 °C 6,4 km/h (2 Bft)
30.10.2017 12:30 3,9 °C 3,9 °C 78 % 1024,3 hPa 0,0 mm 7,1 km/h (2 Bft) W-NW 291 ° 0 min 0,000 mm 1,4 UV-I 220 W/m² 0,4 °C 2,1 °C 12,9 km/h (3 Bft)
30.10.2017 12:31 4,0 °C 4,0 °C 79 % 1024,3 hPa 0,0 mm 8,1 km/h (2 Bft) W 280 ° 0 min 0,000 mm 1,6 UV-I 243 W/m² 0,7 °C 1,9 °C 12,9 km/h (3 Bft)
30.10.2017 12:32 4,1 °C 4,1 °C 80 % 1024,3 hPa 0,0 mm 8,4 km/h (2 Bft) W 271 ° 0 min 0,000 mm 1,7 UV-I 251 W/m² 1,0 °C 2,0 °C 12,9 km/h (3 Bft)
30.10.2017 12:34 4,2 °C 4,2 °C 80 % 1024,3 hPa 0,0 mm 9,5 km/h (2 Bft) W 265 ° 0 min 0,000 mm 1,7 UV-I 246 W/m² 1,1 °C 1,8 °C 12,9 km/h (3 Bft)
30.10.2017 12:35 4,3 °C 4,3 °C 79 % 1024,2 hPa 0,0 mm 6,0 km/h (2 Bft) W-NW 284 ° 0 min 0,000 mm 1,7 UV-I 221 W/m² 1,0 °C 2,9 °C 9,7 km/h (2 Bft)
30.10.2017 12:36 4,4 °C 4,4 °C 79 % 1024,2 hPa 0,0 mm 7,9 km/h (2 Bft) W 266 ° 0 min 0,000 mm 1,7 UV-I 221 W/m² 1,1 °C 2,5 °C 14,5 km/h (3 Bft)
30.10.2017 12:37 4,5 °C 4,5 °C 79 % 1024,3 hPa 0,0 mm 6,8 km/h (2 Bft) W-NW 288 ° 0 min 0,000 mm 1,8 UV-I 230 W/m² 1,2 °C 2,9 °C 11,3 km/h (2 Bft)
30.10.2017 12:38 4,5 °C 4,5 °C 77 % 1024,2 hPa 0,0 mm 5,8 km/h (2 Bft) NW 317 ° 0 min 0,000 mm 1,8 UV-I 237 W/m² 0,8 °C 3,2 °C 11,3 km/h (2 Bft)
30.10.2017 12:39 4,6 °C 4,6 °C 78 % 1024,2 hPa 0,0 mm 5,7 km/h (1 Bft) W-NW 287 ° 0 min 0,000 mm 1,7 UV-I 236 W/m² 1,1 °C 3,4 °C 9,7 km/h (2 Bft)
30.10.2017 12:40 4,6 °C 4,6 °C 77 % 1024,3 hPa 0,0 mm 7,4 km/h (2 Bft) W-NW 292 ° 0 min 0,000 mm 1,8 UV-I 236 W/m² 0,9 °C 2,8 °C 12,9 km/h (3 Bft)
30.10.2017 12:41 4,6 °C 4,6 °C 76 % 1024,2 hPa 0,0 mm 8,7 km/h (2 Bft) W 275 ° 0 min 0,000 mm 1,7 UV-I 225 W/m² 0,7 °C 2,5 °C 12,9 km/h (3 Bft)
30.10.2017 12:42 4,6 °C 4,6 °C 77 % 1024,3 hPa 0,0 mm 4,0 km/h (1 Bft) W 272 ° 0 min 0,000 mm 1,6 UV-I 225 W/m² 0,9 °C 4,6 °C 6,4 km/h (2 Bft)
30.10.2017 12:43 4,6 °C 4,6 °C 78 % 1024,3 hPa 0,0 mm 5,8 km/h (2 Bft) W 271 ° 0 min 0,000 mm 1,6 UV-I 167 W/m² 1,1 °C 3,3 °C 11,3 km/h (2 Bft)
30.10.2017 12:44 4,6 °C 4,7 °C 77 % 1024,3 hPa 0,0 mm 10,7 km/h (2 Bft) W-SW 256 ° 0 min 0,000 mm 1,5 UV-I 151 W/m² 0,9 °C 2,0 °C 14,5 km/h (3 Bft)
30.10.2017 12:45 4,6 °C 4,6 °C 77 % 1024,3 hPa 0,0 mm 9,2 km/h (2 Bft) W-SW 251 ° 0 min 0,000 mm 1,4 UV-I 137 W/m² 0,9 °C 2,4 °C 14,5 km/h (3 Bft)
30.10.2017 12:46 4,6 °C 4,6 °C 78 % 1024,3 hPa 0,0 mm 11,4 km/h (2 Bft) W-NW 284 ° 0 min 0,000 mm 1,4 UV-I 137 W/m² 1,1 °C 1,9 °C 14,5 km/h (3 Bft)
30.10.2017 12:47 4,5 °C 4,6 °C 77 % 1024,3 hPa 0,0 mm 11,8 km/h (2 Bft) SW 231 ° 0 min 0,000 mm 1,4 UV-I 139 W/m² 0,8 °C 1,7 °C 17,7 km/h (3 Bft)
30.10.2017 12:49 4,4 °C 4,6 °C 76 % 1024,3 hPa 0,0 mm 11,8 km/h (2 Bft) NW 306 ° 0 min 0,000 mm 1,4 UV-I 142 W/m² 0,5 °C 1,6 °C 17,7 km/h (3 Bft)
30.10.2017 12:50 4,4 °C 4,4 °C 77 % 1024,3 hPa 0,0 mm 7,2 km/h (2 Bft) W-NW 301 ° 0 min 0,000 mm 1,4 UV-I 141 W/m² 0,7 °C 2,7 °C 11,3 km/h (2 Bft)
30.10.2017 12:51 4,4 °C 4,4 °C 77 % 1024,3 hPa 0,0 mm 10,9 km/h (2 Bft) W-SW 253 ° 0 min 0,000 mm 1,4 UV-I 139 W/m² 0,7 °C 1,7 °C 14,5 km/h (3 Bft)
30.10.2017 12:52 4,4 °C 4,4 °C 77 % 1024,3 hPa 0,0 mm 10,0 km/h (2 Bft) W 271 ° 0 min 0,000 mm 1,4 UV-I 135 W/m² 0,7 °C 1,9 °C 14,5 km/h (3 Bft)
30.10.2017 12:53 4,3 °C 4,4 °C 77 % 1024,3 hPa 0,0 mm 8,4 km/h (2 Bft) W-NW 295 ° 0 min 0,000 mm 1,4 UV-I 132 W/m² 0,6 °C 2,2 °C 14,5 km/h (3 Bft)
30.10.2017 12:54 4,3 °C 4,3 °C 78 % 1024,3 hPa 0,0 mm 7,0 km/h (2 Bft) W 266 ° 0 min 0,000 mm 1,4 UV-I 132 W/m² 0,8 °C 2,6 °C 12,9 km/h (3 Bft)
30.10.2017 12:55 4,4 °C 4,4 °C 78 % 1024,3 hPa 0,0 mm 5,5 km/h (1 Bft) W-SW 254 ° 0 min 0,000 mm 1,4 UV-I 137 W/m² 0,9 °C 3,2 °C 6,4 km/h (2 Bft)
30.10.2017 12:56 4,3 °C 4,4 °C 76 % 1024,3 hPa 0,0 mm 5,9 km/h (2 Bft) W-NW 288 ° 0 min 0,000 mm 1,5 UV-I 146 W/m² 0,5 °C 3,0 °C 11,3 km/h (2 Bft)
30.10.2017 12:57 4,3 °C 4,3 °C 77 % 1024,2 hPa 0,0 mm 8,2 km/h (2 Bft) W-SW 250 ° 0 min 0,000 mm 1,5 UV-I 134 W/m² 0,6 °C 2,3 °C 12,9 km/h (3 Bft)
30.10.2017 12:58 4,3 °C 4,3 °C 78 % 1024,3 hPa 0,0 mm 6,0 km/h (2 Bft) W-SW 248 ° 0 min 0,000 mm 1,5 UV-I 123 W/m² 0,8 °C 2,9 °C 11,3 km/h (2 Bft)
30.10.2017 12:59 4,3 °C 4,3 °C 77 % 1024,2 hPa 0,0 mm 9,1 km/h (2 Bft) NW 304 ° 0 min 0,000 mm 1,4 UV-I 116 W/m² 0,6 °C 2,0 °C 12,9 km/h (3 Bft)
30.10.2017 13:00 4,3 °C 4,3 °C 76 % 1024,2 hPa 0,0 mm 7,0 km/h (2 Bft) W 274 ° 0 min 0,000 mm 1,4 UV-I 116 W/m² 0,5 °C 2,6 °C 11,3 km/h (2 Bft)
30.10.2017 13:01 4,3 °C 4,3 °C 76 % 1024,3 hPa 0,0 mm 5,4 km/h (1 Bft) NW 322 ° 0 min 0,076 mm 1,4 UV-I 107 W/m² 0,5 °C 3,1 °C 9,7 km/h (2 Bft)
30.10.2017 13:02 4,2 °C 4,3 °C 76 % 1024,3 hPa 0,0 mm 5,0 km/h (1 Bft) W-NW 286 ° 0 min 0,000 mm 1,5 UV-I 111 W/m² 0,4 °C 3,2 °C 6,4 km/h (2 Bft)
30.10.2017 13:04 4,2 °C 4,3 °C 76 % 1024,4 hPa 0,0 mm 4,4 km/h (1 Bft) W-NW 284 ° 0 min 0,000 mm 1,5 UV-I 125 W/m² 0,4 °C 4,2 °C 8,0 km/h (2 Bft)
30.10.2017 13:05 4,2 °C 4,2 °C 77 % 1024,4 hPa 0,0 mm 3,1 km/h (1 Bft) W 277 ° 0 min 0,000 mm 1,5 UV-I 127 W/m² 0,5 °C 4,2 °C 4,8 km/h (1 Bft)
30.10.2017 13:06 4,2 °C 4,3 °C 77 % 1024,4 hPa 0,0 mm 4,2 km/h (1 Bft) W-NW 284 ° 0 min 0,000 mm 1,5 UV-I 137 W/m² 0,5 °C 4,2 °C 6,4 km/h (2 Bft)
30.10.2017 13:07 4,3 °C 4,3 °C 76 % 1024,3 hPa 0,0 mm 4,5 km/h (1 Bft) W-NW 284 ° 0 min 0,000 mm 1,7 UV-I 202 W/m² 0,5 °C 4,3 °C 6,4 km/h (2 Bft)
30.10.2017 13:08 4,3 °C 4,3 °C 76 % 1024,4 hPa 0,0 mm 4,1 km/h (1 Bft) NW 306 ° 0 min 0,000 mm 1,5 UV-I 158 W/m² 0,5 °C 4,3 °C 6,4 km/h (2 Bft)
30.10.2017 13:09 4,3 °C 4,3 °C 76 % 1024,4 hPa 0,0 mm 5,6 km/h (1 Bft) W 271 ° 0 min 0,000 mm 1,6 UV-I 155 W/m² 0,5 °C 3,1 °C 8,0 km/h (2 Bft)
30.10.2017 13:10 4,4 °C 4,4 °C 77 % 1024,4 hPa 0,0 mm 6,8 km/h (2 Bft) W-NW 288 ° 0 min 0,000 mm 1,5 UV-I 149 W/m² 0,7 °C 2,8 °C 12,9 km/h (3 Bft)
30.10.2017 13:11 4,5 °C 4,5 °C 76 % 1024,5 hPa 0,0 mm 5,8 km/h (2 Bft) W-NW 302 ° 0 min 0,000 mm 1,6 UV-I 149 W/m² 0,6 °C 3,2 °C 8,0 km/h (2 Bft)
30.10.2017 13:12 4,6 °C 4,6 °C 76 % 1024,5 hPa 0,0 mm 9,9 km/h (2 Bft) W 260 ° 0 min 0,000 mm 1,5 UV-I 149 W/m² 0,7 °C 2,2 °C 14,5 km/h (3 Bft)
30.10.2017 13:13 4,6 °C 4,6 °C 74 % 1024,5 hPa 0,0 mm 10,3 km/h (2 Bft) W-NW 296 ° 0 min 0,000 mm 1,6 UV-I 223 W/m² 0,4 °C 2,1 °C 14,5 km/h (3 Bft)
30.10.2017 13:14 4,6 °C 4,6 °C 74 % 1024,6 hPa 0,0 mm 10,2 km/h (2 Bft) W-SW 252 ° 0 min 0,000 mm 1,6 UV-I 207 W/m² 0,4 °C 2,1 °C 14,5 km/h (3 Bft)
30.10.2017 13:15 4,6 °C 4,6 °C 75 % 1024,5 hPa 0,0 mm 6,1 km/h (2 Bft) W-SW 254 ° 0 min 0,000 mm 1,5 UV-I 204 W/m² 0,6 °C 3,2 °C 11,3 km/h (2 Bft)
30.10.2017 13:16 4,6 °C 4,6 °C 74 % 1024,5 hPa 0,0 mm 7,3 km/h (2 Bft) W-SW 257 ° 0 min 0,000 mm 1,7 UV-I 223 W/m² 0,4 °C 2,9 °C 11,3 km/h (2 Bft)
30.10.2017 13:17 4,6 °C 4,6 °C 75 % 1024,5 hPa 0,0 mm 10,6 km/h (2 Bft) W-SW 256 ° 0 min 0,000 mm 1,6 UV-I 216 W/m² 0,6 °C 2,1 °C 14,5 km/h (3 Bft)
30.10.2017 13:18 4,6 °C 4,6 °C 74 % 1024,5 hPa 0,0 mm 11,5 km/h (2 Bft) W 262 ° 0 min 0,000 mm 1,5 UV-I 216 W/m² 0,4 °C 1,9 °C 16,1 km/h (3 Bft)
30.10.2017 13:19 4,6 °C 4,6 °C 74 % 1024,4 hPa 0,0 mm 8,0 km/h (2 Bft) W-NW 294 ° 0 min 0,000 mm 1,4 UV-I 185 W/m² 0,4 °C 2,7 °C 12,9 km/h (3 Bft)
30.10.2017 13:20 4,6 °C 4,6 °C 74 % 1024,4 hPa 0,0 mm 4,6 km/h (1 Bft) W-SW 251 ° 0 min 0,000 mm 1,4 UV-I 179 W/m² 0,4 °C 3,8 °C 6,4 km/h (2 Bft)
30.10.2017 13:21 4,6 °C 4,6 °C 75 % 1024,4 hPa 0,0 mm 4,2 km/h (1 Bft) W 267 ° 0 min 0,000 mm 1,4 UV-I 186 W/m² 0,6 °C 4,6 °C 6,4 km/h (2 Bft)
30.10.2017 13:22 4,6 °C 4,6 °C 74 % 1024,4 hPa 0,0 mm 6,6 km/h (2 Bft) W 274 ° 0 min 0,000 mm 1,4 UV-I 188 W/m² 0,4 °C 3,1 °C 14,5 km/h (3 Bft)
30.10.2017 13:24 4,6 °C 4,7 °C 74 % 1024,4 hPa 0,0 mm 5,8 km/h (2 Bft) W-NW 297 ° 0 min 0,000 mm 1,4 UV-I 178 W/m² 0,4 °C 3,3 °C 12,9 km/h (3 Bft)
30.10.2017 13:25 4,6 °C 4,6 °C 75 % 1024,4 hPa 0,0 mm 4,4 km/h (1 Bft) W-NW 297 ° 0 min 0,000 mm 1,4 UV-I 179 W/m² 0,6 °C 4,6 °C 6,4 km/h (2 Bft)
30.10.2017 13:26 4,7 °C 4,7 °C 76 % 1024,4 hPa 0,0 mm 4,8 km/h (1 Bft) W-NW 287 ° 0 min 0,000 mm 1,5 UV-I 186 W/m² 0,8 °C 3,8 °C 6,4 km/h (2 Bft)
30.10.2017 13:27 4,7 °C 4,7 °C 75 % 1024,5 hPa 0,0 mm 4,6 km/h (1 Bft) W-NW 288 ° 0 min 0,000 mm 1,4 UV-I 185 W/m² 0,7 °C 3,9 °C 6,4 km/h (2 Bft)
30.10.2017 13:29 4,8 °C 4,8 °C 75 % 1024,6 hPa 0,0 mm 7,2 km/h (2 Bft) W 281 ° 0 min 0,000 mm 1,6 UV-I 269 W/m² 0,8 °C 3,1 °C 12,9 km/h (3 Bft)
30.10.2017 13:30 4,9 °C 4,9 °C 75 % 1024,6 hPa 0,0 mm 9,1 km/h (2 Bft) W 264 ° 0 min 0,000 mm 1,6 UV-I 234 W/m² 0,8 °C 2,7 °C 12,9 km/h (3 Bft)
30.10.2017 13:31 4,9 °C 4,9 °C 75 % 1024,6 hPa 0,0 mm 11,9 km/h (2 Bft) W-NW 300 ° 0 min 0,000 mm 1,3 UV-I 181 W/m² 0,8 °C 2,2 °C 20,9 km/h (4 Bft)
30.10.2017 13:32 4,9 °C 4,9 °C 75 % 1024,5 hPa 0,0 mm 6,1 km/h (2 Bft) W 279 ° 0 min 0,000 mm 1,3 UV-I 153 W/m² 0,8 °C 3,6 °C 9,7 km/h (2 Bft)
30.10.2017 13:34 4,8 °C 4,9 °C 73 % 1024,6 hPa 0,0 mm 8,3 km/h (2 Bft) NW 309 ° 0 min 0,000 mm 1,3 UV-I 142 W/m² 0,4 °C 2,8 °C 16,1 km/h (3 Bft)
30.10.2017 13:35 4,7 °C 4,8 °C 73 % 1024,6 hPa 0,0 mm 3,8 km/h (1 Bft) NW 308 ° 0 min 0,000 mm 1,3 UV-I 137 W/m² 0,3 °C 4,7 °C 4,8 km/h (1 Bft)
30.10.2017 13:36 4,7 °C 4,7 °C 75 % 1024,6 hPa 0,0 mm 8,0 km/h (2 Bft) NW 310 ° 0 min 0,000 mm 1,3 UV-I 137 W/m² 0,7 °C 2,8 °C 12,9 km/h (3 Bft)
30.10.2017 13:37 4,7 °C 4,7 °C 76 % 1024,6 hPa 0,0 mm 8,9 km/h (2 Bft) N-NW 330 ° 0 min 0,000 mm 1,4 UV-I 158 W/m² 0,8 °C 2,6 °C 14,5 km/h (3 Bft)
30.10.2017 13:39 4,7 °C 4,7 °C 76 % 1024,7 hPa 0,0 mm 9,2 km/h (2 Bft) NW 321 ° 0 min 0,000 mm 1,4 UV-I 186 W/m² 0,8 °C 2,5 °C 14,5 km/h (3 Bft)
30.10.2017 13:40 4,7 °C 4,7 °C 75 % 1024,7 hPa 0,0 mm 7,4 km/h (2 Bft) N-NW 336 ° 0 min 0,000 mm 1,3 UV-I 148 W/m² 0,7 °C 2,9 °C 14,5 km/h (3 Bft)
30.10.2017 13:41 4,6 °C 4,7 °C 75 % 1024,7 hPa 0,0 mm 5,9 km/h (2 Bft) W 266 ° 0 min 0,000 mm 1,3 UV-I 135 W/m² 0,6 °C 3,3 °C 9,7 km/h (2 Bft)
30.10.2017 13:42 4,6 °C 4,6 °C 75 % 1024,6 hPa 0,0 mm 7,0 km/h (2 Bft) W-NW 301 ° 0 min 0,000 mm 1,3 UV-I 127 W/m² 0,6 °C 2,9 °C 11,3 km/h (2 Bft)
30.10.2017 13:43 4,6 °C 4,6 °C 76 % 1024,6 hPa 0,0 mm 5,8 km/h (2 Bft) W 277 ° 0 min 0,000 mm 1,3 UV-I 100 W/m² 0,7 °C 3,3 °C 11,3 km/h (2 Bft)
30.10.2017 13:44 4,5 °C 4,6 °C 75 % 1024,6 hPa 0,0 mm 10,7 km/h (2 Bft) W-SW 248 ° 0 min 0,000 mm 1,2 UV-I 91 W/m² 0,5 °C 1,9 °C 19,3 km/h (3 Bft)
30.10.2017 13:45 4,4 °C 4,5 °C 75 % 1024,6 hPa 0,0 mm 13,7 km/h (3 Bft) W-NW 283 ° 0 min 0,000 mm 1,2 UV-I 90 W/m² 0,4 °C 1,2 °C 17,7 km/h (3 Bft)
30.10.2017 13:46 4,4 °C 4,4 °C 74 % 1024,6 hPa 0,0 mm 9,2 km/h (2 Bft) W-NW 288 ° 0 min 0,000 mm 1,2 UV-I 81 W/m² 0,2 °C 2,1 °C 12,9 km/h (3 Bft)
30.10.2017 13:47 4,3 °C 4,4 °C 74 % 1024,6 hPa 0,0 mm 7,3 km/h (2 Bft) W-NW 291 ° 0 min 0,000 mm 1,2 UV-I 79 W/m² 0,1 °C 2,5 °C 14,5 km/h (3 Bft)
30.10.2017 13:48 4,3 °C 4,3 °C 74 % 1024,6 hPa 0,0 mm 4,3 km/h (1 Bft) W 269 ° 0 min 0,000 mm 1,2 UV-I 128 W/m² 0,1 °C 4,3 °C 6,4 km/h (2 Bft)
30.10.2017 13:49 4,3 °C 4,3 °C 75 % 1024,6 hPa 0,0 mm 3,0 km/h (1 Bft) W 269 ° 0 min 0,000 mm 1,2 UV-I 86 W/m² 0,3 °C 4,3 °C 4,8 km/h (1 Bft)
30.10.2017 13:50 4,3 °C 4,3 °C 74 % 1024,6 hPa 0,0 mm 7,6 km/h (2 Bft) W 266 ° 1 min 0,000 mm 1,8 UV-I 371 W/m² 0,1 °C 2,4 °C 9,7 km/h (2 Bft)
30.10.2017 13:51 4,3 °C 4,3 °C 75 % 1024,6 hPa 0,0 mm 8,6 km/h (2 Bft) W 267 ° 1 min 0,000 mm 1,8 UV-I 329 W/m² 0,3 °C 2,2 °C 14,5 km/h (3 Bft)
30.10.2017 13:52 4,3 °C 4,3 °C 74 % 1024,6 hPa 0,0 mm 5,6 km/h (1 Bft) W-NW 292 ° 1 min 0,000 mm 1,2 UV-I 329 W/m² 0,1 °C 3,1 °C 6,4 km/h (2 Bft)
30.10.2017 13:53 4,3 °C 4,3 °C 74 % 1024,6 hPa 0,0 mm 5,0 km/h (1 Bft) W-NW 294 ° 0 min 0,000 mm 1,2 UV-I 72 W/m² 0,1 °C 3,3 °C 11,3 km/h (2 Bft)
30.10.2017 13:54 4,3 °C 4,3 °C 74 % 1024,6 hPa 0,0 mm 6,1 km/h (2 Bft) W-NW 294 ° 0 min 0,000 mm 1,2 UV-I 72 W/m² 0,1 °C 2,9 °C 11,3 km/h (2 Bft)
30.10.2017 13:55 4,3 °C 4,3 °C 74 % 1024,7 hPa 0,0 mm 4,0 km/h (1 Bft) W 260 ° 0 min 0,000 mm 1,2 UV-I 63 W/m² 0,1 °C 4,3 °C 4,8 km/h (1 Bft)
30.10.2017 13:56 4,3 °C 4,3 °C 74 % 1024,6 hPa 0,0 mm 8,2 km/h (2 Bft) W-SW 255 ° 0 min 0,000 mm 1,2 UV-I 51 W/m² 0,1 °C 2,3 °C 12,9 km/h (3 Bft)
30.10.2017 13:57 4,2 °C 4,3 °C 75 % 1024,6 hPa 0,0 mm 9,6 km/h (2 Bft) W 281 ° 0 min 0,000 mm 0,0 UV-I 47 W/m² 0,2 °C 1,8 °C 12,9 km/h (3 Bft)
30.10.2017 13:58 4,1 °C 4,2 °C 75 % 1024,7 hPa 0,0 mm 4,4 km/h (1 Bft) W-SW 242 ° 0 min 0,000 mm 0,0 UV-I 44 W/m² 0,1 °C 4,1 °C 6,4 km/h (2 Bft)
30.10.2017 13:59 4,0 °C 4,1 °C 75 % 1024,7 hPa 0,0 mm 5,3 km/h (1 Bft) W 262 ° 0 min 0,000 mm 0,0 UV-I 42 W/m² -0,0 °C 2,8 °C 9,7 km/h (2 Bft)
30.10.2017 14:00 4,0 °C 4,1 °C 75 % 1024,6 hPa 0,0 mm 6,5 km/h (2 Bft) W 274 ° 0 min 0,000 mm 0,0 UV-I 44 W/m² -0,0 °C 2,4 °C 9,7 km/h (2 Bft)
30.10.2017 14:01 3,9 °C 4,0 °C 75 % 1024,6 hPa 0,0 mm 4,5 km/h (1 Bft) W-NW 286 ° 0 min 0,076 mm 0,0 UV-I 62 W/m² -0,1 °C 3,9 °C 6,4 km/h (2 Bft)
30.10.2017 14:02 3,9 °C 4,0 °C 75 % 1024,7 hPa 0,0 mm 3,6 km/h (1 Bft) W 259 ° 0 min 0,000 mm 1,1 UV-I 70 W/m² -0,1 °C 3,9 °C 4,8 km/h (1 Bft)
30.10.2017 14:03 3,9 °C 3,9 °C 75 % 1024,7 hPa 0,0 mm 2,8 km/h (1 Bft) W 259 ° 0 min 0,000 mm 1,1 UV-I 77 W/m² -0,1 °C 3,9 °C 4,8 km/h (1 Bft)
30.10.2017 14:04 3,9 °C 3,9 °C 76 % 1024,7 hPa 0,0 mm 3,3 km/h (1 Bft) W-SW 257 ° 0 min 0,000 mm 1,1 UV-I 76 W/m² 0,1 °C 3,9 °C 4,8 km/h (1 Bft)
30.10.2017 14:05 3,9 °C 3,9 °C 76 % 1024,7 hPa 0,0 mm 1,7 km/h (1 Bft) W 267 ° 0 min 0,000 mm 1,0 UV-I 76 W/m² 0,1 °C 3,9 °C 3,2 km/h (1 Bft)
30.10.2017 14:06 3,9 °C 3,9 °C 76 % 1024,6 hPa 0,0 mm 5,3 km/h (1 Bft) SW 228 ° 0 min 0,000 mm 1,0 UV-I 81 W/m² 0,1 °C 2,7 °C 9,7 km/h (2 Bft)
30.10.2017 14:07 3,9 °C 3,9 °C 75 % 1024,7 hPa 0,0 mm 4,4 km/h (1 Bft) SW 233 ° 0 min 0,000 mm 1,0 UV-I 88 W/m² -0,1 °C 3,9 °C 8,0 km/h (2 Bft)
30.10.2017 14:09 4,0 °C 4,0 °C 76 % 1024,7 hPa 0,0 mm 4,2 km/h (1 Bft) W 264 ° 0 min 0,000 mm 1,0 UV-I 91 W/m² 0,2 °C 4,0 °C 9,7 km/h (2 Bft)
30.10.2017 14:10 4,1 °C 4,1 °C 78 % 1024,7 hPa 0,0 mm 6,8 km/h (2 Bft) W 273 ° 0 min 0,000 mm 1,0 UV-I 98 W/m² 0,6 °C 2,4 °C 9,7 km/h (2 Bft)
30.10.2017 14:11 4,1 °C 4,1 °C 76 % 1024,7 hPa 0,0 mm 6,7 km/h (2 Bft) W 277 ° 0 min 0,000 mm 1,0 UV-I 105 W/m² 0,3 °C 2,5 °C 11,3 km/h (2 Bft)
30.10.2017 14:12 4,2 °C 4,2 °C 77 % 1024,7 hPa 0,0 mm 4,1 km/h (1 Bft) W 263 ° 0 min 0,000 mm 1,1 UV-I 105 W/m² 0,5 °C 4,2 °C 4,8 km/h (1 Bft)
30.10.2017 14:13 4,2 °C 4,2 °C 76 % 1024,7 hPa 0,0 mm 1,7 km/h (1 Bft) W 265 ° 0 min 0,000 mm 1,1 UV-I 102 W/m² 0,4 °C 4,2 °C 3,2 km/h (1 Bft)
30.10.2017 14:14 4,2 °C 4,3 °C 76 % 1024,7 hPa 0,0 mm 0,7 km/h (0 Bft) W 265 ° 0 min 0,000 mm 1,0 UV-I 98 W/m² 0,4 °C 4,2 °C 1,6 km/h (1 Bft)
30.10.2017 14:15 4,3 °C 4,3 °C 76 % 1024,7 hPa 0,0 mm 1,3 km/h (1 Bft) W 265 ° 0 min 0,000 mm 1,0 UV-I 97 W/m² 0,5 °C 4,3 °C 3,2 km/h (1 Bft)
30.10.2017 14:16 4,3 °C 4,3 °C 75 % 1024,7 hPa 0,0 mm 2,2 km/h (1 Bft) W 265 ° 0 min 0,000 mm 1,0 UV-I 97 W/m² 0,3 °C 4,3 °C 4,8 km/h (1 Bft)
30.10.2017 14:17 4,3 °C 4,3 °C 76 % 1024,7 hPa 0,0 mm 0,5 km/h (0 Bft) W 265 ° 0 min 0,000 mm 1,0 UV-I 97 W/m² 0,5 °C 4,3 °C 1,6 km/h (1 Bft)
30.10.2017 14:18 4,4 °C 4,4 °C 75 % 1024,7 hPa 0,0 mm 1,8 km/h (1 Bft) W 265 ° 0 min 0,000 mm 1,0 UV-I 97 W/m² 0,4 °C 4,4 °C 3,2 km/h (1 Bft)
30.10.2017 14:19 4,4 °C 4,4 °C 74 % 1024,7 hPa 0,0 mm 2,5 km/h (1 Bft) W 265 ° 0 min 0,000 mm 1,0 UV-I 95 W/m² 0,2 °C 4,4 °C 3,2 km/h (1 Bft)
30.10.2017 14:20 4,4 °C 4,4 °C 74 % 1024,7 hPa 0,0 mm 5,5 km/h (1 Bft) SW 236 ° 0 min 0,000 mm 1,0 UV-I 98 W/m² 0,2 °C 3,2 °C 9,7 km/h (2 Bft)
30.10.2017 14:21 4,4 °C 4,4 °C 75 % 1024,8 hPa 0,0 mm 2,7 km/h (1 Bft) W 259 ° 0 min 0,000 mm 1,0 UV-I 104 W/m² 0,4 °C 4,4 °C 6,4 km/h (2 Bft)
30.10.2017 14:22 4,4 °C 4,4 °C 75 % 1024,7 hPa 0,0 mm 2,8 km/h (1 Bft) W 259 ° 0 min 0,000 mm 1,0 UV-I 105 W/m² 0,4 °C 4,4 °C 4,8 km/h (1 Bft)
30.10.2017 14:23 4,5 °C 4,5 °C 76 % 1024,8 hPa 0,0 mm 4,9 km/h (1 Bft) W 269 ° 0 min 0,000 mm 1,0 UV-I 107 W/m² 0,6 °C 3,6 °C 9,7 km/h (2 Bft)
30.10.2017 14:24 4,5 °C 4,5 °C 77 % 1024,7 hPa 0,0 mm 1,9 km/h (1 Bft) W 269 ° 0 min 0,000 mm 1,0 UV-I 105 W/m² 0,8 °C 4,5 °C 4,8 km/h (1 Bft)
30.10.2017 14:25 4,5 °C 4,6 °C 76 % 1024,8 hPa 0,0 mm 4,5 km/h (1 Bft) W-SW 254 ° 0 min 0,000 mm 1,0 UV-I 93 W/m² 0,6 °C 4,5 °C 6,4 km/h (2 Bft)
30.10.2017 14:26 4,6 °C 4,6 °C 72 % 1024,7 hPa 0,0 mm 8,6 km/h (2 Bft) W-SW 255 ° 0 min 0,000 mm 1,0 UV-I 91 W/m² -0,0 °C 2,5 °C 11,3 km/h (2 Bft)
30.10.2017 14:27 4,6 °C 4,6 °C 72 % 1024,7 hPa 0,0 mm 4,1 km/h (1 Bft) W 273 ° 0 min 0,000 mm 1,0 UV-I 97 W/m² -0,0 °C 4,6 °C 8,0 km/h (2 Bft)
30.10.2017 14:28 4,5 °C 4,6 °C 73 % 1024,7 hPa 0,0 mm 3,2 km/h (1 Bft) W 264 ° 0 min 0,000 mm 1,0 UV-I 93 W/m² 0,1 °C 4,5 °C 11,3 km/h (2 Bft)
30.10.2017 14:29 4,5 °C 4,5 °C 73 % 1024,7 hPa 0,0 mm 6,8 km/h (2 Bft) W-NW 301 ° 0 min 0,000 mm 1,0 UV-I 95 W/m² 0,1 °C 2,9 °C 12,9 km/h (3 Bft)
30.10.2017 14:30 4,5 °C 4,5 °C 72 % 1024,8 hPa 0,0 mm 3,4 km/h (1 Bft) W-SW 258 ° 0 min 0,000 mm 1,0 UV-I 116 W/m² -0,1 °C 4,5 °C 6,4 km/h (2 Bft)
30.10.2017 14:31 4,5 °C 4,5 °C 72 % 1024,8 hPa 0,0 mm 7,3 km/h (2 Bft) W 275 ° 0 min 0,000 mm 1,0 UV-I 135 W/m² -0,1 °C 2,7 °C 11,3 km/h (2 Bft)
30.10.2017 14:32 4,5 °C 4,5 °C 74 % 1024,8 hPa 0,0 mm 4,4 km/h (1 Bft) W 268 ° 0 min 0,000 mm 1,0 UV-I 128 W/m² 0,3 °C 4,5 °C 6,4 km/h (2 Bft)
30.10.2017 14:33 4,5 °C 4,5 °C 73 % 1024,9 hPa 0,0 mm 3,0 km/h (1 Bft) W-NW 290 ° 0 min 0,000 mm 1,0 UV-I 130 W/m² 0,1 °C 4,5 °C 6,4 km/h (2 Bft)
30.10.2017 14:34 4,5 °C 4,5 °C 74 % 1024,9 hPa 0,0 mm 2,8 km/h (1 Bft) W-NW 288 ° 0 min 0,000 mm 1,0 UV-I 132 W/m² 0,3 °C 4,5 °C 6,4 km/h (2 Bft)
30.10.2017 14:35 4,6 °C 4,6 °C 72 % 1024,9 hPa 0,0 mm 1,7 km/h (1 Bft) W-NW 288 ° 0 min 0,000 mm 1,0 UV-I 125 W/m² -0,0 °C 4,6 °C 4,8 km/h (1 Bft)
30.10.2017 14:36 4,6 °C 4,6 °C 72 % 1024,8 hPa 0,0 mm 3,7 km/h (1 Bft) W-NW 290 ° 0 min 0,000 mm 1,0 UV-I 118 W/m² -0,0 °C 4,6 °C 6,4 km/h (2 Bft)
30.10.2017 14:37 4,6 °C 4,6 °C 71 % 1024,8 hPa 0,0 mm 3,4 km/h (1 Bft) W-NW 290 ° 0 min 0,000 mm 1,0 UV-I 123 W/m² -0,2 °C 4,6 °C 6,4 km/h (2 Bft)
30.10.2017 14:38 4,6 °C 4,6 °C 71 % 1024,9 hPa 0,0 mm 1,5 km/h (1 Bft) W-NW 290 ° 0 min 0,000 mm 1,0 UV-I 153 W/m² -0,2 °C 4,6 °C 3,2 km/h (1 Bft)
30.10.2017 14:39 4,6 °C 4,6 °C 72 % 1024,8 hPa 0,0 mm 3,7 km/h (1 Bft) W 265 ° 0 min 0,000 mm 1,0 UV-I 128 W/m² -0,0 °C 4,6 °C 6,4 km/h (2 Bft)
30.10.2017 14:40 4,6 °C 4,6 °C 74 % 1024,8 hPa 0,0 mm 5,2 km/h (1 Bft) W 273 ° 0 min 0,000 mm 1,0 UV-I 128 W/m² 0,4 °C 3,6 °C 6,4 km/h (2 Bft)
30.10.2017 14:41 4,6 °C 4,6 °C 75 % 1024,9 hPa 0,0 mm 5,0 km/h (1 Bft) W 263 ° 0 min 0,000 mm 1,0 UV-I 127 W/m² 0,6 °C 3,6 °C 6,4 km/h (2 Bft)
30.10.2017 14:42 4,6 °C 4,6 °C 75 % 1024,9 hPa 0,0 mm 4,0 km/h (1 Bft) W 263 ° 0 min 0,000 mm 1,0 UV-I 118 W/m² 0,6 °C 4,6 °C 4,8 km/h (1 Bft)
30.10.2017 14:43 4,6 °C 4,6 °C 73 % 1024,9 hPa 0,0 mm 5,3 km/h (1 Bft) W-SW 248 ° 0 min 0,000 mm 1,0 UV-I 111 W/m² 0,2 °C 3,5 °C 8,0 km/h (2 Bft)
30.10.2017 14:44 4,6 °C 4,6 °C 73 % 1024,9 hPa 0,0 mm 3,5 km/h (1 Bft) W-SW 257 ° 0 min 0,000 mm 1,0 UV-I 104 W/m² 0,2 °C 4,6 °C 4,8 km/h (1 Bft)
30.10.2017 14:45 4,6 °C 4,6 °C 74 % 1024,9 hPa 0,0 mm 3,5 km/h (1 Bft) W 260 ° 0 min 0,000 mm 1,0 UV-I 97 W/m² 0,4 °C 4,6 °C 4,8 km/h (1 Bft)
30.10.2017 14:46 4,6 °C 4,6 °C 74 % 1024,8 hPa 0,0 mm 3,4 km/h (1 Bft) W 268 ° 0 min 0,000 mm 0,9 UV-I 91 W/m² 0,4 °C 4,6 °C 4,8 km/h (1 Bft)
30.10.2017 14:47 4,6 °C 4,6 °C 74 % 1024,8 hPa 0,0 mm 2,5 km/h (1 Bft) W-SW 248 ° 0 min 0,000 mm 0,9 UV-I 88 W/m² 0,4 °C 4,6 °C 3,2 km/h (1 Bft)
30.10.2017 14:48 4,5 °C 4,6 °C 74 % 1024,8 hPa 0,0 mm 4,4 km/h (1 Bft) W-SW 248 ° 0 min 0,000 mm 0,9 UV-I 81 W/m² 0,3 °C 4,5 °C 4,8 km/h (1 Bft)
30.10.2017 14:49 4,4 °C 4,5 °C 74 % 1024,8 hPa 0,0 mm 6,0 km/h (2 Bft) W 270 ° 0 min 0,000 mm 0,9 UV-I 90 W/m² 0,2 °C 3,0 °C 9,7 km/h (2 Bft)
30.10.2017 14:50 4,4 °C 4,5 °C 73 % 1024,9 hPa 0,0 mm 2,1 km/h (1 Bft) W-SW 248 ° 0 min 0,000 mm 0,9 UV-I 91 W/m² -0,0 °C 4,4 °C 4,8 km/h (1 Bft)
30.10.2017 14:51 4,4 °C 4,4 °C 72 % 1024,9 hPa 0,0 mm 3,2 km/h (1 Bft) SW 215 ° 0 min 0,000 mm 0,9 UV-I 100 W/m² -0,2 °C 4,4 °C 6,4 km/h (2 Bft)
30.10.2017 14:52 4,4 °C 4,4 °C 73 % 1024,9 hPa 0,0 mm 2,4 km/h (1 Bft) W-SW 258 ° 0 min 0,000 mm 0,9 UV-I 105 W/m² -0,0 °C 4,4 °C 3,2 km/h (1 Bft)
30.10.2017 14:53 4,4 °C 4,4 °C 75 % 1024,8 hPa 0,0 mm 4,4 km/h (1 Bft) W 265 ° 0 min 0,000 mm 1,0 UV-I 137 W/m² 0,4 °C 4,4 °C 9,7 km/h (2 Bft)
30.10.2017 14:54 4,4 °C 4,4 °C 74 % 1024,8 hPa 0,0 mm 5,9 km/h (2 Bft) W 270 ° 0 min 0,000 mm 0,9 UV-I 98 W/m² 0,2 °C 3,1 °C 9,7 km/h (2 Bft)
30.10.2017 14:55 4,4 °C 4,4 °C 75 % 1024,8 hPa 0,0 mm 3,4 km/h (1 Bft) W-NW 282 ° 0 min 0,000 mm 0,9 UV-I 100 W/m² 0,4 °C 4,4 °C 6,4 km/h (2 Bft)
30.10.2017 14:56 4,4 °C 4,4 °C 75 % 1024,8 hPa 0,0 mm 4,2 km/h (1 Bft) W-SW 247 ° 0 min 0,000 mm 0,8 UV-I 97 W/m² 0,4 °C 4,4 °C 6,4 km/h (2 Bft)
30.10.2017 14:57 4,4 °C 4,4 °C 74 % 1024,8 hPa 0,0 mm 5,8 km/h (2 Bft) W-SW 250 ° 0 min 0,000 mm 0,8 UV-I 98 W/m² 0,2 °C 3,1 °C 11,3 km/h (2 Bft)
30.10.2017 14:58 4,4 °C 4,4 °C 74 % 1024,8 hPa 0,0 mm 6,8 km/h (2 Bft) SW 234 ° 0 min 0,000 mm 0,8 UV-I 102 W/m² 0,2 °C 2,8 °C 9,7 km/h (2 Bft)
30.10.2017 14:59 4,4 °C 4,4 °C 72 % 1024,8 hPa 0,0 mm 7,9 km/h (2 Bft) W-SW 254 ° 0 min 0,000 mm 0,8 UV-I 107 W/m² -0,2 °C 2,5 °C 12,9 km/h (3 Bft)
30.10.2017 15:00 4,5 °C 4,5 °C 72 % 1024,9 hPa 0,0 mm 6,2 km/h (2 Bft) W-SW 256 ° 0 min 0,000 mm 0,8 UV-I 109 W/m² -0,1 °C 3,1 °C 9,7 km/h (2 Bft)
30.10.2017 15:01 4,5 °C 4,5 °C 73 % 1024,9 hPa 0,0 mm 5,7 km/h (1 Bft) W-SW 248 ° 0 min 0,051 mm 0,8 UV-I 111 W/m² 0,1 °C 3,3 °C 8,0 km/h (2 Bft)
30.10.2017 15:02 4,5 °C 4,5 °C 72 % 1024,9 hPa 0,0 mm 3,5 km/h (1 Bft) W 261 ° 0 min 0,000 mm 0,8 UV-I 109 W/m² -0,1 °C 4,5 °C 6,4 km/h (2 Bft)
30.10.2017 15:03 4,5 °C 4,5 °C 72 % 1024,9 hPa 0,0 mm 6,2 km/h (2 Bft) SW 236 ° 0 min 0,000 mm 0,8 UV-I 111 W/m² -0,1 °C 3,1 °C 11,3 km/h (2 Bft)
30.10.2017 15:04 4,6 °C 4,6 °C 72 % 1024,9 hPa 0,0 mm 4,6 km/h (1 Bft) W 264 ° 0 min 0,000 mm 0,8 UV-I 113 W/m² -0,0 °C 3,8 °C 6,4 km/h (2 Bft)
30.10.2017 15:05 4,6 °C 4,6 °C 72 % 1025,0 hPa 0,0 mm 6,2 km/h (2 Bft) W 260 ° 0 min 0,000 mm 0,8 UV-I 113 W/m² -0,0 °C 3,2 °C 11,3 km/h (2 Bft)
30.10.2017 15:06 4,6 °C 4,6 °C 72 % 1025,0 hPa 0,0 mm 8,8 km/h (2 Bft) W-SW 250 ° 0 min 0,000 mm 0,7 UV-I 109 W/m² -0,0 °C 2,5 °C 11,3 km/h (2 Bft)
30.10.2017 15:07 4,6 °C 4,6 °C 71 % 1025,1 hPa 0,0 mm 5,5 km/h (1 Bft) W 260 ° 0 min 0,000 mm 0,7 UV-I 107 W/m² -0,2 °C 3,4 °C 6,4 km/h (2 Bft)
30.10.2017 15:08 4,7 °C 4,7 °C 72 % 1025,0 hPa 0,0 mm 4,2 km/h (1 Bft) W-SW 254 ° 0 min 0,000 mm 0,7 UV-I 104 W/m² 0,1 °C 4,7 °C 6,4 km/h (2 Bft)
30.10.2017 15:09 4,7 °C 4,7 °C 72 % 1025,0 hPa 0,0 mm 4,0 km/h (1 Bft) W 271 ° 0 min 0,000 mm 0,7 UV-I 98 W/m² 0,1 °C 4,7 °C 9,7 km/h (2 Bft)
30.10.2017 15:10 4,7 °C 4,7 °C 72 % 1025,0 hPa 0,0 mm 3,9 km/h (1 Bft) W-SW 240 ° 0 min 0,000 mm 0,7 UV-I 97 W/m² 0,1 °C 4,7 °C 9,7 km/h (2 Bft)
30.10.2017 15:11 4,7 °C 4,7 °C 72 % 1025,0 hPa 0,0 mm 2,8 km/h (1 Bft) W-SW 250 ° 0 min 0,000 mm 0,6 UV-I 95 W/m² 0,1 °C 4,7 °C 4,8 km/h (1 Bft)
30.10.2017 15:12 4,7 °C 4,7 °C 72 % 1025,0 hPa 0,0 mm 3,9 km/h (1 Bft) W-SW 252 ° 0 min 0,000 mm 0,6 UV-I 93 W/m² 0,1 °C 4,7 °C 6,4 km/h (2 Bft)
30.10.2017 15:13 4,7 °C 4,7 °C 71 % 1025,0 hPa 0,0 mm 3,9 km/h (1 Bft) W-SW 239 ° 0 min 0,000 mm 0,6 UV-I 91 W/m² -0,1 °C 4,7 °C 6,4 km/h (2 Bft)
30.10.2017 15:14 4,7 °C 4,7 °C 72 % 1025,1 hPa 0,0 mm 4,6 km/h (1 Bft) W 263 ° 0 min 0,000 mm 0,6 UV-I 91 W/m² 0,1 °C 3,9 °C 6,4 km/h (2 Bft)
30.10.2017 15:15 4,7 °C 4,7 °C 73 % 1025,1 hPa 0,0 mm 3,2 km/h (1 Bft) W-SW 256 ° 0 min 0,000 mm 0,6 UV-I 107 W/m² 0,3 °C 4,7 °C 4,8 km/h (1 Bft)
30.10.2017 15:16 4,7 °C 4,7 °C 73 % 1025,0 hPa 0,0 mm 5,0 km/h (1 Bft) W-SW 252 ° 0 min 0,000 mm 0,5 UV-I 88 W/m² 0,3 °C 3,7 °C 6,4 km/h (2 Bft)
30.10.2017 15:17 4,7 °C 4,8 °C 72 % 1025,1 hPa 0,0 mm 3,7 km/h (1 Bft) W-SW 257 ° 0 min 0,000 mm 0,5 UV-I 86 W/m² 0,1 °C 4,7 °C 4,8 km/h (1 Bft)
30.10.2017 15:18 4,7 °C 4,8 °C 73 % 1025,0 hPa 0,0 mm 4,8 km/h (1 Bft) W 260 ° 0 min 0,000 mm 0,5 UV-I 88 W/m² 0,3 °C 3,8 °C 6,4 km/h (2 Bft)
30.10.2017 15:19 4,8 °C 4,8 °C 73 % 1025,1 hPa 0,0 mm 6,4 km/h (2 Bft) W 262 ° 0 min 0,000 mm 0,5 UV-I 91 W/m² 0,4 °C 3,4 °C 9,7 km/h (2 Bft)
30.10.2017 15:20 4,8 °C 4,8 °C 73 % 1025,1 hPa 0,0 mm 3,7 km/h (1 Bft) W-NW 291 ° 0 min 0,000 mm 0,5 UV-I 93 W/m² 0,4 °C 4,8 °C 4,8 km/h (1 Bft)
30.10.2017 15:21 4,8 °C 4,8 °C 72 % 1025,2 hPa 0,0 mm 4,2 km/h (1 Bft) W 275 ° 0 min 0,000 mm 0,5 UV-I 95 W/m² 0,2 °C 4,8 °C 8,0 km/h (2 Bft)
30.10.2017 15:22 4,8 °C 4,8 °C 71 % 1025,2 hPa 0,0 mm 4,7 km/h (1 Bft) W-SW 257 ° 0 min 0,000 mm 0,5 UV-I 95 W/m² -0,0 °C 4,0 °C 6,4 km/h (2 Bft)
30.10.2017 15:23 4,8 °C 4,8 °C 70 % 1025,2 hPa 0,0 mm 3,9 km/h (1 Bft) W-NW 283 ° 0 min 0,000 mm 0,5 UV-I 91 W/m² -0,2 °C 4,8 °C 6,4 km/h (2 Bft)
30.10.2017 15:24 4,7 °C 4,8 °C 69 % 1025,2 hPa 0,0 mm 4,2 km/h (1 Bft) NW 306 ° 0 min 0,000 mm 0,5 UV-I 79 W/m² -0,5 °C 4,7 °C 6,4 km/h (2 Bft)
30.10.2017 15:25 4,8 °C 4,8 °C 71 % 1025,2 hPa 0,0 mm 3,5 km/h (1 Bft) NW 309 ° 0 min 0,000 mm 0,5 UV-I 74 W/m² -0,0 °C 4,8 °C 6,4 km/h (2 Bft)
30.10.2017 15:26 4,8 °C 4,8 °C 71 % 1025,1 hPa 0,0 mm 5,6 km/h (1 Bft) NW 316 ° 0 min 0,000 mm 0,5 UV-I 67 W/m² -0,0 °C 3,6 °C 12,9 km/h (3 Bft)
30.10.2017 15:27 4,7 °C 4,8 °C 70 % 1025,1 hPa 0,0 mm 3,0 km/h (1 Bft) W-NW 291 ° 0 min 0,000 mm 0,5 UV-I 62 W/m² -0,3 °C 4,7 °C 4,8 km/h (1 Bft)
30.10.2017 15:28 4,7 °C 4,7 °C 70 % 1025,1 hPa 0,0 mm 4,3 km/h (1 Bft) W-NW 291 ° 0 min 0,000 mm 0,5 UV-I 58 W/m² -0,3 °C 4,7 °C 6,4 km/h (2 Bft)
30.10.2017 15:29 4,7 °C 4,7 °C 71 % 1025,1 hPa 0,0 mm 3,2 km/h (1 Bft) NW 304 ° 0 min 0,000 mm 0,5 UV-I 56 W/m² -0,1 °C 4,7 °C 4,8 km/h (1 Bft)
30.10.2017 15:30 4,7 °C 4,7 °C 71 % 1025,1 hPa 0,0 mm 3,4 km/h (1 Bft) W 279 ° 0 min 0,000 mm 0,0 UV-I 54 W/m² -0,1 °C 4,7 °C 6,4 km/h (2 Bft)
30.10.2017 15:31 4,7 °C 4,7 °C 71 % 1025,1 hPa 0,0 mm 4,0 km/h (1 Bft) W 278 ° 0 min 0,000 mm 0,0 UV-I 54 W/m² -0,1 °C 4,7 °C 4,8 km/h (1 Bft)
30.10.2017 15:32 4,7 °C 4,7 °C 71 % 1025,1 hPa 0,0 mm 0,9 km/h (0 Bft) W 279 ° 0 min 0,000 mm 0,0 UV-I 54 W/m² -0,1 °C 4,7 °C 3,2 km/h (1 Bft)
30.10.2017 15:33 4,6 °C 4,7 °C 73 % 1025,1 hPa 0,0 mm 3,7 km/h (1 Bft) W-NW 286 ° 0 min 0,000 mm 0,0 UV-I 54 W/m² 0,2 °C 4,6 °C 6,4 km/h (2 Bft)
30.10.2017 15:34 4,6 °C 4,6 °C 72 % 1025,1 hPa 0,0 mm 4,1 km/h (1 Bft) NW 316 ° 0 min 0,000 mm 0,0 UV-I 56 W/m² -0,0 °C 4,6 °C 6,4 km/h (2 Bft)
30.10.2017 15:35 4,6 °C 4,6 °C 71 % 1025,2 hPa 0,0 mm 4,8 km/h (1 Bft) W-NW 288 ° 0 min 0,000 mm 0,0 UV-I 62 W/m² -0,2 °C 3,7 °C 6,4 km/h (2 Bft)
30.10.2017 15:36 4,6 °C 4,6 °C 71 % 1025,2 hPa 0,0 mm 5,6 km/h (1 Bft) W-NW 286 ° 0 min 0,000 mm 0,0 UV-I 65 W/m² -0,2 °C 3,4 °C 11,3 km/h (2 Bft)
30.10.2017 15:37 4,6 °C 4,6 °C 71 % 1025,2 hPa 0,0 mm 4,8 km/h (1 Bft) W 278 ° 0 min 0,000 mm 0,0 UV-I 67 W/m² -0,2 °C 3,7 °C 6,4 km/h (2 Bft)
30.10.2017 15:38 4,6 °C 4,6 °C 71 % 1025,2 hPa 0,0 mm 6,0 km/h (2 Bft) W-SW 257 ° 0 min 0,000 mm 0,5 UV-I 69 W/m² -0,2 °C 3,3 °C 9,7 km/h (2 Bft)
30.10.2017 15:39 4,6 °C 4,6 °C 69 % 1025,2 hPa 0,0 mm 9,2 km/h (2 Bft) W-NW 299 ° 0 min 0,000 mm 0,5 UV-I 72 W/m² -0,6 °C 2,4 °C 12,9 km/h (3 Bft)
30.10.2017 15:40 4,6 °C 4,6 °C 69 % 1025,2 hPa 0,0 mm 2,9 km/h (1 Bft) NW 311 ° 0 min 0,000 mm 0,5 UV-I 74 W/m² -0,6 °C 4,6 °C 4,8 km/h (1 Bft)
30.10.2017 15:41 4,6 °C 4,6 °C 69 % 1025,2 hPa 0,0 mm 4,1 km/h (1 Bft) NW 304 ° 0 min 0,000 mm 0,5 UV-I 76 W/m² -0,6 °C 4,6 °C 6,4 km/h (2 Bft)
30.10.2017 15:42 4,6 °C 4,6 °C 69 % 1025,2 hPa 0,0 mm 5,8 km/h (2 Bft) W-NW 298 ° 0 min 0,000 mm 0,5 UV-I 74 W/m² -0,6 °C 3,3 °C 8,0 km/h (2 Bft)
30.10.2017 15:43 4,5 °C 4,6 °C 69 % 1025,2 hPa 0,0 mm 7,0 km/h (2 Bft) W-NW 303 ° 0 min 0,000 mm 0,5 UV-I 72 W/m² -0,7 °C 2,8 °C 11,3 km/h (2 Bft)
30.10.2017 15:44 4,5 °C 4,5 °C 69 % 1025,2 hPa 0,0 mm 3,8 km/h (1 Bft) NW 305 ° 0 min 0,000 mm 0,5 UV-I 70 W/m² -0,7 °C 4,5 °C 6,4 km/h (2 Bft)
30.10.2017 15:45 4,5 °C 4,5 °C 69 % 1025,2 hPa 0,0 mm 3,8 km/h (1 Bft) W-NW 284 ° 0 min 0,000 mm 0,5 UV-I 69 W/m² -0,7 °C 4,5 °C 6,4 km/h (2 Bft)
30.10.2017 15:46 4,4 °C 4,5 °C 70 % 1025,2 hPa 0,0 mm 5,9 km/h (2 Bft) W-NW 300 ° 0 min 0,000 mm 0,5 UV-I 69 W/m² -0,6 °C 3,1 °C 8,0 km/h (2 Bft)
30.10.2017 15:47 4,4 °C 4,5 °C 69 % 1025,2 hPa 0,0 mm 6,8 km/h (2 Bft) NW 304 ° 0 min 0,000 mm 0,5 UV-I 67 W/m² -0,8 °C 2,8 °C 11,3 km/h (2 Bft)
30.10.2017 15:48 4,4 °C 4,4 °C 69 % 1025,2 hPa 0,0 mm 6,3 km/h (2 Bft) W-NW 296 ° 0 min 0,000 mm 0,0 UV-I 65 W/m² -0,8 °C 2,9 °C 8,0 km/h (2 Bft)
30.10.2017 15:49 4,4 °C 4,4 °C 69 % 1025,2 hPa 0,0 mm 3,4 km/h (1 Bft) W-SW 257 ° 0 min 0,000 mm 0,0 UV-I 63 W/m² -0,8 °C 4,4 °C 4,8 km/h (1 Bft)
30.10.2017 15:50 4,4 °C 4,4 °C 69 % 1025,2 hPa 0,0 mm 6,4 km/h (2 Bft) W-NW 301 ° 0 min 0,000 mm 0,0 UV-I 62 W/m² -0,8 °C 2,9 °C 11,3 km/h (2 Bft)
30.10.2017 15:51 4,3 °C 4,4 °C 69 % 1025,2 hPa 0,0 mm 5,7 km/h (1 Bft) W 271 ° 0 min 0,000 mm 0,0 UV-I 58 W/m² -0,9 °C 3,0 °C 9,7 km/h (2 Bft)
30.10.2017 15:52 4,3 °C 4,3 °C 70 % 1025,2 hPa 0,0 mm 4,3 km/h (1 Bft) W-NW 298 ° 0 min 0,000 mm 0,0 UV-I 51 W/m² -0,7 °C 4,3 °C 9,7 km/h (2 Bft)
30.10.2017 15:53 4,3 °C 4,3 °C 71 % 1025,2 hPa 0,0 mm 3,2 km/h (1 Bft) W-NW 288 ° 0 min 0,000 mm 0,0 UV-I 47 W/m² -0,5 °C 4,3 °C 4,8 km/h (1 Bft)
30.10.2017 15:54 4,3 °C 4,3 °C 70 % 1025,2 hPa 0,0 mm 1,8 km/h (1 Bft) W-NW 288 ° 0 min 0,000 mm 0,0 UV-I 44 W/m² -0,7 °C 4,3 °C 3,2 km/h (1 Bft)
30.10.2017 15:55 4,3 °C 4,3 °C 70 % 1025,3 hPa 0,0 mm 6,8 km/h (2 Bft) W-NW 287 ° 0 min 0,000 mm 0,0 UV-I 42 W/m² -0,7 °C 2,7 °C 9,7 km/h (2 Bft)
30.10.2017 15:56 4,2 °C 4,3 °C 71 % 1025,3 hPa 0,0 mm 2,8 km/h (1 Bft) W-NW 287 ° 0 min 0,000 mm 0,0 UV-I 42 W/m² -0,6 °C 4,2 °C 4,8 km/h (1 Bft)
30.10.2017 15:57 4,2 °C 4,2 °C 71 % 1025,2 hPa 0,0 mm 2,9 km/h (1 Bft) W-NW 293 ° 0 min 0,000 mm 0,0 UV-I 44 W/m² -0,6 °C 4,2 °C 3,2 km/h (1 Bft)
30.10.2017 15:58 4,2 °C 4,2 °C 71 % 1025,3 hPa 0,0 mm 2,8 km/h (1 Bft) W-NW 300 ° 0 min 0,000 mm 0,0 UV-I 49 W/m² -0,6 °C 4,2 °C 4,8 km/h (1 Bft)
30.10.2017 15:59 4,2 °C 4,2 °C 71 % 1025,3 hPa 0,0 mm 2,8 km/h (1 Bft) W-NW 289 ° 0 min 0,000 mm 0,0 UV-I 49 W/m² -0,6 °C 4,2 °C 4,8 km/h (1 Bft)
30.10.2017 16:00 4,1 °C 4,2 °C 71 % 1025,3 hPa 0,0 mm 3,7 km/h (1 Bft) NW 310 ° 0 min 0,000 mm 0,0 UV-I 56 W/m² -0,7 °C 4,1 °C 6,4 km/h (2 Bft)
30.10.2017 16:01 4,1 °C 4,1 °C 71 % 1025,4 hPa 0,0 mm 1,8 km/h (1 Bft) NW 310 ° 0 min 0,051 mm 0,0 UV-I 56 W/m² -0,7 °C 4,1 °C 4,8 km/h (1 Bft)
30.10.2017 16:02 4,1 °C 4,1 °C 71 % 1025,4 hPa 0,0 mm 2,4 km/h (1 Bft) NW 308 ° 0 min 0,000 mm 0,0 UV-I 54 W/m² -0,7 °C 4,1 °C 4,8 km/h (1 Bft)
30.10.2017 16:03 4,1 °C 4,1 °C 71 % 1025,4 hPa 0,0 mm 2,2 km/h (1 Bft) NW 308 ° 0 min 0,000 mm 0,0 UV-I 53 W/m² -0,7 °C 4,1 °C 3,2 km/h (1 Bft)
30.10.2017 16:04 4,1 °C 4,1 °C 72 % 1025,4 hPa 0,0 mm 4,1 km/h (1 Bft) NW 308 ° 0 min 0,000 mm 0,0 UV-I 49 W/m² -0,5 °C 4,1 °C 6,4 km/h (2 Bft)
30.10.2017 16:05 4,1 °C 4,1 °C 72 % 1025,5 hPa 0,0 mm 2,1 km/h (1 Bft) W-NW 298 ° 0 min 0,000 mm 0,0 UV-I 49 W/m² -0,5 °C 4,1 °C 4,8 km/h (1 Bft)
30.10.2017 16:06 4,1 °C 4,1 °C 72 % 1025,5 hPa 0,0 mm 1,4 km/h (1 Bft) W-NW 302 ° 0 min 0,000 mm 0,0 UV-I 49 W/m² -0,5 °C 4,1 °C 4,8 km/h (1 Bft)
30.10.2017 16:07 4,1 °C 4,1 °C 72 % 1025,5 hPa 0,0 mm 0,9 km/h (0 Bft) W-NW 302 ° 0 min 0,000 mm 0,0 UV-I 46 W/m² -0,5 °C 4,1 °C 3,2 km/h (1 Bft)
30.10.2017 16:08 4,1 °C 4,1 °C 72 % 1025,5 hPa 0,0 mm 4,1 km/h (1 Bft) W-NW 296 ° 0 min 0,000 mm 0,0 UV-I 44 W/m² -0,5 °C 4,1 °C 4,8 km/h (1 Bft)
30.10.2017 16:09 4,1 °C 4,1 °C 73 % 1025,5 hPa 0,0 mm 2,3 km/h (1 Bft) W-NW 296 ° 0 min 0,000 mm 0,0 UV-I 42 W/m² -0,3 °C 4,1 °C 4,8 km/h (1 Bft)
30.10.2017 16:10 4,1 °C 4,1 °C 72 % 1025,5 hPa 0,0 mm 1,1 km/h (1 Bft) W-NW 296 ° 0 min 0,000 mm 0,0 UV-I 42 W/m² -0,5 °C 4,1 °C 1,6 km/h (1 Bft)
30.10.2017 16:11 4,1 °C 4,1 °C 73 % 1025,5 hPa 0,0 mm 0,2 km/h (0 Bft) W-NW 296 ° 0 min 0,000 mm 0,0 UV-I 42 W/m² -0,3 °C 4,1 °C 1,6 km/h (1 Bft)
30.10.2017 16:12 4,0 °C 4,1 °C 73 % 1025,5 hPa 0,0 mm 1,3 km/h (1 Bft) W-NW 296 ° 0 min 0,000 mm 0,0 UV-I 42 W/m² -0,4 °C 4,0 °C 3,2 km/h (1 Bft)
30.10.2017 16:13 4,0 °C 4,1 °C 73 % 1025,4 hPa 0,0 mm 1,3 km/h (1 Bft) W-NW 296 ° 0 min 0,000 mm 0,0 UV-I 40 W/m² -0,4 °C 4,0 °C 3,2 km/h (1 Bft)
30.10.2017 16:14 4,0 °C 4,0 °C 74 % 1025,5 hPa 0,0 mm 2,5 km/h (1 Bft) W-NW 296 ° 0 min 0,000 mm 0,0 UV-I 37 W/m² -0,2 °C 4,0 °C 3,2 km/h (1 Bft)
30.10.2017 16:15 3,9 °C 4,0 °C 74 % 1025,5 hPa 0,0 mm 1,1 km/h (1 Bft) W-NW 296 ° 0 min 0,000 mm 0,0 UV-I 35 W/m² -0,3 °C 3,9 °C 1,6 km/h (1 Bft)
30.10.2017 16:16 3,9 °C 3,9 °C 74 % 1025,5 hPa 0,0 mm 2,8 km/h (1 Bft) W-NW 296 ° 0 min 0,000 mm 0,0 UV-I 32 W/m² -0,3 °C 3,9 °C 3,2 km/h (1 Bft)
30.10.2017 16:17 3,8 °C 3,9 °C 74 % 1025,6 hPa 0,0 mm 1,1 km/h (1 Bft) W-NW 296 ° 0 min 0,000 mm 0,0 UV-I 32 W/m² -0,4 °C 3,8 °C 3,2 km/h (1 Bft)
30.10.2017 16:18 3,8 °C 3,9 °C 74 % 1025,6 hPa 0,0 mm 0,6 km/h (0 Bft) W-NW 296 ° 0 min 0,000 mm 0,0 UV-I 33 W/m² -0,4 °C 3,8 °C 1,6 km/h (1 Bft)
30.10.2017 16:19 3,8 °C 3,8 °C 74 % 1025,6 hPa 0,0 mm 1,1 km/h (1 Bft) W-NW 296 ° 0 min 0,000 mm 0,0 UV-I 33 W/m² -0,4 °C 3,8 °C 1,6 km/h (1 Bft)
30.10.2017 16:20 3,8 °C 3,8 °C 74 % 1025,6 hPa 0,0 mm 1,3 km/h (1 Bft) W-NW 296 ° 0 min 0,000 mm 0,0 UV-I 33 W/m² -0,4 °C 3,8 °C 3,2 km/h (1 Bft)
30.10.2017 16:21 3,8 °C 3,9 °C 75 % 1025,6 hPa 0,0 mm 0,5 km/h (0 Bft) W-NW 296 ° 0 min 0,000 mm 0,0 UV-I 33 W/m² -0,2 °C 3,8 °C 1,6 km/h (1 Bft)
30.10.2017 16:22 3,8 °C 3,8 °C 75 % 1025,6 hPa 0,0 mm 1,2 km/h (1 Bft) W-NW 296 ° 0 min 0,000 mm 0,0 UV-I 30 W/m² -0,2 °C 3,8 °C 1,6 km/h (1 Bft)
30.10.2017 16:23 3,8 °C 3,8 °C 75 % 1025,6 hPa 0,0 mm 1,1 km/h (1 Bft) W-NW 296 ° 0 min 0,000 mm 0,0 UV-I 30 W/m² -0,2 °C 3,8 °C 3,2 km/h (1 Bft)
30.10.2017 16:24 3,7 °C 3,8 °C 75 % 1025,6 hPa 0,0 mm 0,0 km/h (0 Bft) W-NW 296 ° 0 min 0,000 mm 0,0 UV-I 28 W/m² -0,3 °C 3,7 °C 0,0 km/h (0 Bft)
30.10.2017 16:25 3,7 °C 3,7 °C 75 % 1025,7 hPa 0,0 mm 0,0 km/h (0 Bft) W-NW 296 ° 0 min 0,000 mm 0,0 UV-I 28 W/m² -0,3 °C 3,7 °C 0,0 km/h (0 Bft)
30.10.2017 16:26 3,7 °C 3,7 °C 75 % 1025,7 hPa 0,0 mm 0,0 km/h (0 Bft) W-NW 296 ° 0 min 0,000 mm 0,0 UV-I 26 W/m² -0,3 °C 3,7 °C 0,0 km/h (0 Bft)
30.10.2017 16:27 3,6 °C 3,7 °C 75 % 1025,6 hPa 0,0 mm 0,0 km/h (0 Bft) W-NW 296 ° 0 min 0,000 mm 0,0 UV-I 25 W/m² -0,4 °C 3,6 °C 0,0 km/h (0 Bft)
30.10.2017 16:28 3,6 °C 3,7 °C 76 % 1025,6 hPa 0,0 mm 0,0 km/h (0 Bft) W-NW 296 ° 0 min 0,000 mm 0,0 UV-I 23 W/m² -0,2 °C 3,6 °C 0,0 km/h (0 Bft)
30.10.2017 16:29 3,6 °C 3,6 °C 75 % 1025,6 hPa 0,0 mm 0,2 km/h (0 Bft) W-NW 296 ° 0 min 0,000 mm 0,0 UV-I 25 W/m² -0,4 °C 3,6 °C 1,6 km/h (1 Bft)
30.10.2017 16:30 3,6 °C 3,6 °C 76 % 1025,6 hPa 0,0 mm 0,2 km/h (0 Bft) W-NW 296 ° 0 min 0,000 mm 0,0 UV-I 25 W/m² -0,2 °C 3,6 °C 1,6 km/h (1 Bft)
30.10.2017 16:31 3,6 °C 3,6 °C 76 % 1025,7 hPa 0,0 mm 0,2 km/h (0 Bft) W-NW 296 ° 0 min 0,000 mm 0,0 UV-I 25 W/m² -0,2 °C 3,6 °C 1,6 km/h (1 Bft)
30.10.2017 16:32 3,6 °C 3,6 °C 76 % 1025,7 hPa 0,0 mm 0,0 km/h (0 Bft) W-NW 296 ° 0 min 0,000 mm 0,0 UV-I 23 W/m² -0,2 °C 3,6 °C 0,0 km/h (0 Bft)
30.10.2017 16:33 3,6 °C 3,6 °C 76 % 1025,7 hPa 0,0 mm 0,2 km/h (0 Bft) W-NW 296 ° 0 min 0,000 mm 0,0 UV-I 19 W/m² -0,2 °C 3,6 °C 1,6 km/h (1 Bft)
30.10.2017 16:34 3,6 °C 3,6 °C 76 % 1025,7 hPa 0,0 mm 1,0 km/h (0 Bft) W-NW 296 ° 0 min 0,000 mm 0,0 UV-I 18 W/m² -0,2 °C 3,6 °C 1,6 km/h (1 Bft)
30.10.2017 16:35 3,6 °C 3,6 °C 76 % 1025,7 hPa 0,0 mm 1,6 km/h (1 Bft) W-NW 296 ° 0 min 0,000 mm 0,0 UV-I 18 W/m² -0,2 °C 3,6 °C 3,2 km/h (1 Bft)
30.10.2017 16:36 3,6 °C 3,6 °C 76 % 1025,7 hPa 0,0 mm 0,8 km/h (0 Bft) W-NW 296 ° 0 min 0,000 mm 0,0 UV-I 16 W/m² -0,2 °C 3,6 °C 3,2 km/h (1 Bft)
30.10.2017 16:37 3,6 °C 3,6 °C 76 % 1025,7 hPa 0,0 mm 2,7 km/h (1 Bft) W 267 ° 0 min 0,000 mm 0,0 UV-I 14 W/m² -0,2 °C 3,6 °C 4,8 km/h (1 Bft)
30.10.2017 16:38 3,6 °C 3,6 °C 76 % 1025,7 hPa 0,0 mm 2,3 km/h (1 Bft) W 267 ° 0 min 0,000 mm 0,0 UV-I 14 W/m² -0,2 °C 3,6 °C 4,8 km/h (1 Bft)
30.10.2017 16:39 3,5 °C 3,6 °C 76 % 1025,7 hPa 0,0 mm 0,8 km/h (0 Bft) W 267 ° 0 min 0,000 mm 0,0 UV-I 12 W/m² -0,3 °C 3,5 °C 3,2 km/h (1 Bft)
30.10.2017 16:40 3,5 °C 3,6 °C 76 % 1025,7 hPa 0,0 mm 0,4 km/h (0 Bft) W 267 ° 0 min 0,000 mm 0,0 UV-I 12 W/m² -0,3 °C 3,5 °C 1,6 km/h (1 Bft)
30.10.2017 16:41 3,5 °C 3,6 °C 77 % 1025,7 hPa 0,0 mm 1,5 km/h (1 Bft) W 267 ° 0 min 0,000 mm 0,0 UV-I 11 W/m² -0,1 °C 3,5 °C 3,2 km/h (1 Bft)
30.10.2017 16:42 3,5 °C 3,5 °C 76 % 1025,7 hPa 0,0 mm 1,6 km/h (1 Bft) W 267 ° 0 min 0,000 mm 0,0 UV-I 11 W/m² -0,3 °C 3,5 °C 3,2 km/h (1 Bft)
30.10.2017 16:43 3,5 °C 3,6 °C 76 % 1025,7 hPa 0,0 mm 3,9 km/h (1 Bft) W 265 ° 0 min 0,000 mm 0,0 UV-I 11 W/m² -0,3 °C 3,5 °C 4,8 km/h (1 Bft)
30.10.2017 16:44 3,6 °C 3,6 °C 77 % 1025,8 hPa 0,0 mm 2,1 km/h (1 Bft) W 265 ° 0 min 0,000 mm 0,0 UV-I 9 W/m² -0,0 °C 3,6 °C 3,2 km/h (1 Bft)
30.10.2017 16:45 3,6 °C 3,6 °C 76 % 1025,7 hPa 0,0 mm 1,6 km/h (1 Bft) W 265 ° 0 min 0,000 mm 0,0 UV-I 9 W/m² -0,2 °C 3,6 °C 3,2 km/h (1 Bft)
30.10.2017 16:46 3,6 °C 3,6 °C 76 % 1025,8 hPa 0,0 mm 1,4 km/h (1 Bft) W 265 ° 0 min 0,000 mm 0,0 UV-I 9 W/m² -0,2 °C 3,6 °C 1,6 km/h (1 Bft)
30.10.2017 16:47 3,6 °C 3,6 °C 77 % 1025,8 hPa 0,0 mm 0,0 km/h (0 Bft) W 265 ° 0 min 0,000 mm 0,0 UV-I 9 W/m² -0,0 °C 3,6 °C 0,0 km/h (0 Bft)
30.10.2017 16:48 3,6 °C 3,6 °C 76 % 1025,8 hPa 0,0 mm 0,3 km/h (0 Bft) W 265 ° 0 min 0,000 mm 0,0 UV-I 7 W/m² -0,2 °C 3,6 °C 1,6 km/h (1 Bft)
30.10.2017 16:49 3,6 °C 3,6 °C 77 % 1025,8 hPa 0,0 mm 0,7 km/h (0 Bft) W 265 ° 0 min 0,000 mm 0,0 UV-I 7 W/m² -0,0 °C 3,6 °C 3,2 km/h (1 Bft)
30.10.2017 16:50 3,6 °C 3,6 °C 77 % 1025,8 hPa 0,0 mm 3,0 km/h (1 Bft) W 265 ° 0 min 0,000 mm 0,0 UV-I 7 W/m² -0,0 °C 3,6 °C 4,8 km/h (1 Bft)
30.10.2017 16:51 3,6 °C 3,6 °C 77 % 1025,7 hPa 0,0 mm 1,2 km/h (1 Bft) W 265 ° 0 min 0,000 mm 0,0 UV-I 7 W/m² -0,0 °C 3,6 °C 4,8 km/h (1 Bft)
30.10.2017 16:52 3,5 °C 3,6 °C 77 % 1025,8 hPa 0,0 mm 2,7 km/h (1 Bft) W 265 ° 0 min 0,000 mm 0,0 UV-I 7 W/m² -0,1 °C 3,5 °C 3,2 km/h (1 Bft)
30.10.2017 16:53 3,6 °C 3,6 °C 77 % 1025,8 hPa 0,0 mm 0,6 km/h (0 Bft) W 265 ° 0 min 0,000 mm 0,0 UV-I 7 W/m² -0,0 °C 3,6 °C 3,2 km/h (1 Bft)
30.10.2017 16:54 3,6 °C 3,6 °C 77 % 1025,8 hPa 0,0 mm 0,0 km/h (0 Bft) W 265 ° 0 min 0,000 mm 0,0 UV-I 5 W/m² -0,0 °C 3,6 °C 0,0 km/h (0 Bft)
30.10.2017 16:55 3,6 °C 3,6 °C 77 % 1025,8 hPa 0,0 mm 0,1 km/h (0 Bft) W 265 ° 0 min 0,000 mm 0,0 UV-I 5 W/m² -0,0 °C 3,6 °C 1,6 km/h (1 Bft)
30.10.2017 16:56 3,5 °C 3,6 °C 77 % 1025,8 hPa 0,0 mm 1,6 km/h (1 Bft) W 265 ° 0 min 0,000 mm 0,0 UV-I 5 W/m² -0,1 °C 3,5 °C 3,2 km/h (1 Bft)
30.10.2017 16:57 3,5 °C 3,5 °C 78 % 1025,9 hPa 0,0 mm 1,3 km/h (1 Bft) W 265 ° 0 min 0,000 mm 0,0 UV-I 0 W/m² 0,0 °C 3,5 °C 3,2 km/h (1 Bft)
30.10.2017 16:58 3,5 °C 3,5 °C 78 % 1025,9 hPa 0,0 mm 1,6 km/h (1 Bft) W-SW 251 ° 0 min 0,000 mm 0,0 UV-I 0 W/m² 0,0 °C 3,5 °C 4,8 km/h (1 Bft)
30.10.2017 16:59 3,5 °C 3,5 °C 77 % 1025,9 hPa 0,0 mm 2,3 km/h (1 Bft) W-SW 243 ° 0 min 0,000 mm 0,0 UV-I 0 W/m² -0,1 °C 3,5 °C 4,8 km/h (1 Bft)
30.10.2017 17:00 3,5 °C 3,5 °C 77 % 1026,0 hPa 0,0 mm 1,7 km/h (1 Bft) W-SW 243 ° 0 min 0,000 mm 0,0 UV-I 0 W/m² -0,1 °C 3,5 °C 4,8 km/h (1 Bft)
30.10.2017 17:01 3,5 °C 3,5 °C 78 % 1025,9 hPa 0,0 mm 1,4 km/h (1 Bft) W-SW 243 ° 0 min 0,025 mm 0,0 UV-I 0 W/m² 0,0 °C 3,5 °C 3,2 km/h (1 Bft)
30.10.2017 17:02 3,5 °C 3,5 °C 77 % 1025,9 hPa 0,0 mm 1,6 km/h (1 Bft) W-SW 243 ° 0 min 0,000 mm 0,0 UV-I 0 W/m² -0,1 °C 3,5 °C 3,2 km/h (1 Bft)
30.10.2017 17:03 3,4 °C 3,5 °C 77 % 1025,9 hPa 0,0 mm 2,1 km/h (1 Bft) W-SW 243 ° 0 min 0,000 mm 0,0 UV-I 0 W/m² -0,2 °C 3,4 °C 3,2 km/h (1 Bft)
30.10.2017 17:04 3,4 °C 3,5 °C 77 % 1026,0 hPa 0,0 mm 1,8 km/h (1 Bft) W-SW 243 ° 0 min 0,000 mm 0,0 UV-I 0 W/m² -0,2 °C 3,4 °C 3,2 km/h (1 Bft)
30.10.2017 17:05 3,4 °C 3,5 °C 77 % 1026,0 hPa 0,0 mm 0,8 km/h (0 Bft) W-SW 243 ° 0 min 0,000 mm 0,0 UV-I 0 W/m² -0,2 °C 3,4 °C 1,6 km/h (1 Bft)
30.10.2017 17:06 3,4 °C 3,4 °C 77 % 1026,0 hPa 0,0 mm 0,3 km/h (0 Bft) W-SW 243 ° 0 min 0,000 mm 0,0 UV-I 0 W/m² -0,2 °C 3,4 °C 1,6 km/h (1 Bft)
30.10.2017 17:07 3,4 °C 3,4 °C 78 % 1026,0 hPa 0,0 mm 0,9 km/h (0 Bft) W-SW 243 ° 0 min 0,000 mm 0,0 UV-I 0 W/m² -0,1 °C 3,4 °C 1,6 km/h (1 Bft)
30.10.2017 17:08 3,4 °C 3,4 °C 78 % 1026,0 hPa 0,0 mm 0,8 km/h (0 Bft) W-SW 243 ° 0 min 0,000 mm 0,0 UV-I 0 W/m² -0,1 °C 3,4 °C 1,6 km/h (1 Bft)
30.10.2017 17:09 3,4 °C 3,4 °C 77 % 1025,9 hPa 0,0 mm 1,6 km/h (1 Bft) W-SW 243 ° 0 min 0,000 mm 0,0 UV-I 0 W/m² -0,2 °C 3,4 °C 3,2 km/h (1 Bft)
30.10.2017 17:10 3,4 °C 3,4 °C 78 % 1026,0 hPa 0,0 mm 1,1 km/h (1 Bft) W-SW 243 ° 0 min 0,000 mm 0,0 UV-I 0 W/m² -0,1 °C 3,4 °C 3,2 km/h (1 Bft)
30.10.2017 17:11 3,4 °C 3,4 °C 78 % 1026,0 hPa 0,0 mm 1,4 km/h (1 Bft) W-SW 243 ° 0 min 0,000 mm 0,0 UV-I 0 W/m² -0,1 °C 3,4 °C 3,2 km/h (1 Bft)
30.10.2017 17:12 3,4 °C 3,4 °C 78 % 1025,9 hPa 0,0 mm 2,0 km/h (1 Bft) W-SW 243 ° 0 min 0,000 mm 0,0 UV-I 0 W/m² -0,1 °C 3,4 °C 3,2 km/h (1 Bft)
30.10.2017 17:13 3,4 °C 3,4 °C 78 % 1026,0 hPa 0,0 mm 0,5 km/h (0 Bft) W-SW 243 ° 0 min 0,000 mm 0,0 UV-I 0 W/m² -0,1 °C 3,4 °C 1,6 km/h (1 Bft)
30.10.2017 17:14 3,4 °C 3,4 °C 77 % 1026,0 hPa 0,0 mm 1,0 km/h (0 Bft) W-SW 243 ° 0 min 0,000 mm 0,0 UV-I 0 W/m² -0,2 °C 3,4 °C 3,2 km/h (1 Bft)
30.10.2017 17:15 3,4 °C 3,4 °C 77 % 1026,0 hPa 0,0 mm 2,5 km/h (1 Bft) W-SW 243 ° 0 min 0,000 mm 0,0 UV-I 0 W/m² -0,2 °C 3,4 °C 4,8 km/h (1 Bft)
30.10.2017 17:16 3,4 °C 3,4 °C 77 % 1026,0 hPa 0,0 mm 0,8 km/h (0 Bft) W-SW 243 ° 0 min 0,000 mm 0,0 UV-I 0 W/m² -0,2 °C 3,4 °C 1,6 km/h (1 Bft)
30.10.2017 17:17 3,4 °C 3,4 °C 77 % 1026,1 hPa 0,0 mm 0,0 km/h (0 Bft) W-SW 243 ° 0 min 0,000 mm 0,0 UV-I 0 W/m² -0,2 °C 3,4 °C 0,0 km/h (0 Bft)
30.10.2017 17:18 3,4 °C 3,4 °C 78 % 1026,1 hPa 0,0 mm 0,0 km/h (0 Bft) W-SW 243 ° 0 min 0,000 mm 0,0 UV-I 0 W/m² -0,1 °C 3,4 °C 0,0 km/h (0 Bft)
30.10.2017 17:19 3,4 °C 3,4 °C 77 % 1026,1 hPa 0,0 mm 0,0 km/h (0 Bft) W-SW 243 ° 0 min 0,000 mm 0,0 UV-I 0 W/m² -0,2 °C 3,4 °C 0,0 km/h (0 Bft)
30.10.2017 17:20 3,4 °C 3,4 °C 78 % 1026,1 hPa 0,0 mm 0,0 km/h (0 Bft) W-SW 243 ° 0 min 0,000 mm 0,0 UV-I 0 W/m² -0,1 °C 3,4 °C 0,0 km/h (0 Bft)
30.10.2017 17:21 3,3 °C 3,4 °C 79 % 1026,2 hPa 0,0 mm 0,0 km/h (0 Bft) W-SW 243 ° 0 min 0,000 mm 0,0 UV-I 0 W/m² 0,0 °C 3,3 °C 0,0 km/h (0 Bft)
30.10.2017 17:22 3,3 °C 3,3 °C 79 % 1026,2 hPa 0,0 mm 0,0 km/h (0 Bft) W-SW 243 ° 0 min 0,000 mm 0,0 UV-I 0 W/m² 0,0 °C 3,3 °C 0,0 km/h (0 Bft)
30.10.2017 17:23 3,3 °C 3,3 °C 78 % 1026,2 hPa 0,0 mm 0,0 km/h (0 Bft) W-SW 243 ° 0 min 0,000 mm 0,0 UV-I 0 W/m² -0,2 °C 3,3 °C 0,0 km/h (0 Bft)
30.10.2017 17:24 3,3 °C 3,3 °C 79 % 1026,2 hPa 0,0 mm 0,0 km/h (0 Bft) W-SW 243 ° 0 min 0,000 mm 0,0 UV-I 0 W/m² 0,0 °C 3,3 °C 0,0 km/h (0 Bft)
30.10.2017 17:25 3,3 °C 3,3 °C 78 % 1026,2 hPa 0,0 mm 1,9 km/h (1 Bft) W-SW 243 ° 0 min 0,000 mm 0,0 UV-I 0 W/m² -0,2 °C 3,3 °C 3,2 km/h (1 Bft)
30.10.2017 17:26 3,3 °C 3,3 °C 78 % 1026,2 hPa 0,0 mm 0,0 km/h (0 Bft) W-SW 243 ° 0 min 0,000 mm 0,0 UV-I 0 W/m² -0,2 °C 3,3 °C 0,0 km/h (0 Bft)
30.10.2017 17:27 3,3 °C 3,3 °C 78 % 1026,2 hPa 0,0 mm 2,0 km/h (1 Bft) W-SW 243 ° 0 min 0,000 mm 0,0 UV-I 0 W/m² -0,2 °C 3,3 °C 3,2 km/h (1 Bft)
30.10.2017 17:28 3,3 °C 3,4 °C 79 % 1026,2 hPa 0,0 mm 0,1 km/h (0 Bft) W-SW 243 ° 0 min 0,000 mm 0,0 UV-I 0 W/m² 0,0 °C 3,3 °C 1,6 km/h (1 Bft)
30.10.2017 17:29 3,3 °C 3,3 °C 78 % 1026,2 hPa 0,0 mm 0,4 km/h (0 Bft) W-SW 243 ° 0 min 0,000 mm 0,0 UV-I 0 W/m² -0,2 °C 3,3 °C 1,6 km/h (1 Bft)
30.10.2017 17:30 3,3 °C 3,3 °C 78 % 1026,3 hPa 0,0 mm 0,5 km/h (0 Bft) W-SW 243 ° 0 min 0,000 mm 0,0 UV-I 0 W/m² -0,2 °C 3,3 °C 1,6 km/h (1 Bft)
30.10.2017 17:31 3,3 °C 3,3 °C 78 % 1026,3 hPa 0,0 mm 1,8 km/h (1 Bft) W-SW 243 ° 0 min 0,000 mm 0,0 UV-I 0 W/m² -0,2 °C 3,3 °C 3,2 km/h (1 Bft)
30.10.2017 17:32 3,3 °C 3,3 °C 79 % 1026,3 hPa 0,0 mm 1,5 km/h (1 Bft) W-SW 243 ° 0 min 0,000 mm 0,0 UV-I 0 W/m² 0,0 °C 3,3 °C 3,2 km/h (1 Bft)
30.10.2017 17:33 3,3 °C 3,3 °C 79 % 1026,3 hPa 0,0 mm 1,5 km/h (1 Bft) W-SW 243 ° 0 min 0,000 mm 0,0 UV-I 0 W/m² 0,0 °C 3,3 °C 3,2 km/h (1 Bft)
30.10.2017 17:34 3,3 °C 3,3 °C 79 % 1026,3 hPa 0,0 mm 1,7 km/h (1 Bft) W-SW 243 ° 0 min 0,000 mm 0,0 UV-I 0 W/m² 0,0 °C 3,3 °C 3,2 km/h (1 Bft)
30.10.2017 17:35 3,3 °C 3,3 °C 79 % 1026,3 hPa 0,0 mm 1,0 km/h (0 Bft) W-SW 243 ° 0 min 0,000 mm 0,0 UV-I 0 W/m² 0,0 °C 3,3 °C 3,2 km/h (1 Bft)
30.10.2017 17:36 3,3 °C 3,3 °C 79 % 1026,3 hPa 0,0 mm 0,9 km/h (0 Bft) W-SW 242 ° 0 min 0,000 mm 0,0 UV-I 0 W/m² 0,0 °C 3,3 °C 3,2 km/h (1 Bft)
30.10.2017 17:37 3,3 °C 3,3 °C 79 % 1026,3 hPa 0,0 mm 4,1 km/h (1 Bft) W-SW 238 ° 0 min 0,000 mm 0,0 UV-I 0 W/m² 0,0 °C 3,3 °C 4,8 km/h (1 Bft)
30.10.2017 17:38 3,3 °C 3,3 °C 78 % 1026,3 hPa 0,0 mm 2,6 km/h (1 Bft) W-SW 238 ° 0 min 0,000 mm 0,0 UV-I 0 W/m² -0,2 °C 3,3 °C 3,2 km/h (1 Bft)
30.10.2017 17:39 3,3 °C 3,3 °C 79 % 1026,3 hPa 0,0 mm 2,5 km/h (1 Bft) W-SW 237 ° 0 min 0,000 mm 0,0 UV-I 0 W/m² 0,0 °C 3,3 °C 4,8 km/h (1 Bft)
30.10.2017 17:40 3,3 °C 3,3 °C 79 % 1026,4 hPa 0,0 mm 2,2 km/h (1 Bft) W-SW 237 ° 0 min 0,000 mm 0,0 UV-I 0 W/m² 0,0 °C 3,3 °C 3,2 km/h (1 Bft)
30.10.2017 17:41 3,3 °C 3,3 °C 79 % 1026,4 hPa 0,0 mm 2,4 km/h (1 Bft) W-SW 237 ° 0 min 0,000 mm 0,0 UV-I 0 W/m² 0,0 °C 3,3 °C 3,2 km/h (1 Bft)
30.10.2017 17:42 3,3 °C 3,3 °C 78 % 1026,4 hPa 0,0 mm 1,3 km/h (1 Bft) W-SW 237 ° 0 min 0,000 mm 0,0 UV-I 0 W/m² -0,2 °C 3,3 °C 1,6 km/h (1 Bft)
30.10.2017 17:43 3,3 °C 3,3 °C 79 % 1026,4 hPa 0,0 mm 1,3 km/h (1 Bft) W-SW 237 ° 0 min 0,000 mm 0,0 UV-I 0 W/m² 0,0 °C 3,3 °C 3,2 km/h (1 Bft)
30.10.2017 17:44 3,2 °C 3,3 °C 79 % 1026,4 hPa 0,0 mm 1,4 km/h (1 Bft) W-SW 237 ° 0 min 0,000 mm 0,0 UV-I 0 W/m² -0,1 °C 3,2 °C 3,2 km/h (1 Bft)
30.10.2017 17:45 3,2 °C 3,2 °C 79 % 1026,4 hPa 0,0 mm 0,0 km/h (0 Bft) W-SW 237 ° 0 min 0,000 mm 0,0 UV-I 0 W/m² -0,1 °C 3,2 °C 0,0 km/h (0 Bft)
30.10.2017 17:46 3,2 °C 3,2 °C 79 % 1026,4 hPa 0,0 mm 0,9 km/h (0 Bft) W-SW 237 ° 0 min 0,000 mm 0,0 UV-I 0 W/m² -0,1 °C 3,2 °C 1,6 km/h (1 Bft)
30.10.2017 17:47 3,2 °C 3,3 °C 79 % 1026,4 hPa 0,0 mm 0,0 km/h (0 Bft) W-SW 237 ° 0 min 0,000 mm 0,0 UV-I 0 W/m² -0,1 °C 3,2 °C 0,0 km/h (0 Bft)
30.10.2017 17:48 3,3 °C 3,3 °C 78 % 1026,4 hPa 0,0 mm 0,0 km/h (0 Bft) W-SW 237 ° 0 min 0,000 mm 0,0 UV-I 0 W/m² -0,2 °C 3,3 °C 0,0 km/h (0 Bft)
30.10.2017 17:49 3,2 °C 3,3 °C 79 % 1026,4 hPa 0,0 mm 0,0 km/h (0 Bft) W-SW 237 ° 0 min 0,000 mm 0,0 UV-I 0 W/m² -0,1 °C 3,2 °C 0,0 km/h (0 Bft)
30.10.2017 17:50 3,3 °C 3,3 °C 79 % 1026,4 hPa 0,0 mm 0,0 km/h (0 Bft) W-SW 237 ° 0 min 0,000 mm 0,0 UV-I 0 W/m² 0,0 °C 3,3 °C 0,0 km/h (0 Bft)
30.10.2017 17:51 3,2 °C 3,3 °C 79 % 1026,4 hPa 0,0 mm 0,0 km/h (0 Bft) W-SW 237 ° 0 min 0,000 mm 0,0 UV-I 0 W/m² -0,1 °C 3,2 °C 0,0 km/h (0 Bft)
30.10.2017 17:52 3,2 °C 3,2 °C 79 % 1026,5 hPa 0,0 mm 0,0 km/h (0 Bft) W-SW 237 ° 0 min 0,000 mm 0,0 UV-I 0 W/m² -0,1 °C 3,2 °C 0,0 km/h (0 Bft)
30.10.2017 17:53 3,2 °C 3,2 °C 79 % 1026,5 hPa 0,0 mm 0,0 km/h (0 Bft) W-SW 237 ° 0 min 0,000 mm 0,0 UV-I 0 W/m² -0,1 °C 3,2 °C 0,0 km/h (0 Bft)
30.10.2017 17:54 3,2 °C 3,2 °C 80 % 1026,5 hPa 0,0 mm 0,0 km/h (0 Bft) W-SW 237 ° 0 min 0,000 mm 0,0 UV-I 0 W/m² 0,1 °C 3,2 °C 0,0 km/h (0 Bft)
30.10.2017 17:55 3,1 °C 3,2 °C 81 % 1026,5 hPa 0,0 mm 0,0 km/h (0 Bft) W-SW 238 ° 0 min 0,000 mm 0,0 UV-I 0 W/m² 0,2 °C 3,1 °C 0,0 km/h (0 Bft)
30.10.2017 17:56 3,1 °C 3,1 °C 82 % 1026,5 hPa 0,0 mm 0,0 km/h (0 Bft) W-SW 238 ° 0 min 0,000 mm 0,0 UV-I 0 W/m² 0,3 °C 3,1 °C 0,0 km/h (0 Bft)
30.10.2017 17:57 3,0 °C 3,1 °C 83 % 1026,5 hPa 0,0 mm 0,0 km/h (0 Bft) W-SW 237 ° 0 min 0,000 mm 0,0 UV-I 0 W/m² 0,4 °C 3,0 °C 0,0 km/h (0 Bft)
30.10.2017 17:58 2,9 °C 3,0 °C 83 % 1026,6 hPa 0,0 mm 0,0 km/h (0 Bft) W-SW 237 ° 0 min 0,000 mm 0,0 UV-I 0 W/m² 0,3 °C 2,9 °C 0,0 km/h (0 Bft)
30.10.2017 17:59 2,8 °C 2,9 °C 84 % 1026,6 hPa 0,0 mm 0,0 km/h (0 Bft) W-SW 237 ° 0 min 0,000 mm 0,0 UV-I 0 W/m² 0,4 °C 2,8 °C 0,0 km/h (0 Bft)
30.10.2017 18:00 2,8 °C 2,8 °C 84 % 1026,6 hPa 0,0 mm 0,0 km/h (0 Bft) W-SW 237 ° 0 min 0,000 mm 0,0 UV-I 0 W/m² 0,4 °C 2,8 °C 0,0 km/h (0 Bft)
30.10.2017 18:01 2,8 °C 2,8 °C 84 % 1026,7 hPa 0,0 mm 0,0 km/h (0 Bft) W-SW 237 ° 0 min 0,000 mm 0,0 UV-I 0 W/m² 0,4 °C 2,8 °C 0,0 km/h (0 Bft)
30.10.2017 18:02 2,7 °C 2,8 °C 84 % 1026,7 hPa 0,0 mm 0,0 km/h (0 Bft) W-SW 238 ° 0 min 0,000 mm 0,0 UV-I 0 W/m² 0,3 °C 2,7 °C 0,0 km/h (0 Bft)
30.10.2017 18:03 2,7 °C 2,8 °C 84 % 1026,7 hPa 0,0 mm 0,1 km/h (0 Bft) W-SW 238 ° 0 min 0,000 mm 0,0 UV-I 0 W/m² 0,3 °C 2,7 °C 1,6 km/h (1 Bft)
30.10.2017 18:04 2,7 °C 2,7 °C 83 % 1026,7 hPa 0,0 mm 0,0 km/h (0 Bft) W-SW 238 ° 0 min 0,000 mm 0,0 UV-I 0 W/m² 0,1 °C 2,7 °C 0,0 km/h (0 Bft)
30.10.2017 18:05 2,8 °C 2,8 °C 82 % 1026,7 hPa 0,0 mm 0,0 km/h (0 Bft) W-SW 238 ° 0 min 0,000 mm 0,0 UV-I 0 W/m² 0,0 °C 2,8 °C 0,0 km/h (0 Bft)
30.10.2017 18:06 2,8 °C 2,8 °C 82 % 1026,8 hPa 0,0 mm 0,0 km/h (0 Bft) W-SW 238 ° 0 min 0,000 mm 0,0 UV-I 0 W/m² 0,0 °C 2,8 °C 0,0 km/h (0 Bft)
30.10.2017 18:07 2,8 °C 2,8 °C 81 % 1026,7 hPa 0,0 mm 0,0 km/h (0 Bft) W-SW 237 ° 0 min 0,000 mm 0,0 UV-I 0 W/m² -0,1 °C 2,8 °C 0,0 km/h (0 Bft)
30.10.2017 18:08 2,9 °C 2,9 °C 81 % 1026,7 hPa 0,0 mm 0,3 km/h (0 Bft) W-SW 237 ° 0 min 0,000 mm 0,0 UV-I 0 W/m² -0,0 °C 2,9 °C 1,6 km/h (1 Bft)
30.10.2017 18:09 2,9 °C 2,9 °C 81 % 1026,8 hPa 0,0 mm 0,1 km/h (0 Bft) W-SW 237 ° 0 min 0,000 mm 0,0 UV-I 0 W/m² -0,0 °C 2,9 °C 1,6 km/h (1 Bft)
30.10.2017 18:10 2,9 °C 2,9 °C 81 % 1026,8 hPa 0,0 mm 0,0 km/h (0 Bft) W-SW 238 ° 0 min 0,000 mm 0,0 UV-I 0 W/m² -0,0 °C 2,9 °C 0,0 km/h (0 Bft)
30.10.2017 18:11 2,9 °C 2,9 °C 81 % 1026,8 hPa 0,0 mm 1,4 km/h (1 Bft) W-SW 238 ° 0 min 0,000 mm 0,0 UV-I 0 W/m² -0,0 °C 2,9 °C 3,2 km/h (1 Bft)
30.10.2017 18:12 2,9 °C 2,9 °C 81 % 1026,8 hPa 0,0 mm 0,0 km/h (0 Bft) W-SW 238 ° 0 min 0,000 mm 0,0 UV-I 0 W/m² -0,0 °C 2,9 °C 0,0 km/h (0 Bft)
30.10.2017 18:13 2,9 °C 2,9 °C 81 % 1026,8 hPa 0,0 mm 0,0 km/h (0 Bft) W-SW 238 ° 0 min 0,000 mm 0,0 UV-I 0 W/m² -0,0 °C 2,9 °C 0,0 km/h (0 Bft)
30.10.2017 18:14 2,9 °C 2,9 °C 81 % 1026,9 hPa 0,0 mm 0,0 km/h (0 Bft) W-SW 238 ° 0 min 0,000 mm 0,0 UV-I 0 W/m² -0,0 °C 2,9 °C 0,0 km/h (0 Bft)
30.10.2017 18:15 2,9 °C 3,0 °C 81 % 1026,8 hPa 0,0 mm 0,0 km/h (0 Bft) W-SW 237 ° 0 min 0,000 mm 0,0 UV-I 0 W/m² -0,0 °C 2,9 °C 0,0 km/h (0 Bft)
30.10.2017 18:16 3,0 °C 3,0 °C 81 % 1026,9 hPa 0,0 mm 0,0 km/h (0 Bft) W-SW 238 ° 0 min 0,000 mm 0,0 UV-I 0 W/m² 0,1 °C 3,0 °C 0,0 km/h (0 Bft)
30.10.2017 18:17 3,0 °C 3,0 °C 82 % 1026,9 hPa 0,0 mm 0,0 km/h (0 Bft) W-SW 237 ° 0 min 0,000 mm 0,0 UV-I 0 W/m² 0,2 °C 3,0 °C 0,0 km/h (0 Bft)
30.10.2017 18:18 3,0 °C 3,0 °C 81 % 1026,9 hPa 0,0 mm 0,0 km/h (0 Bft) W-SW 237 ° 0 min 0,000 mm 0,0 UV-I 0 W/m² 0,1 °C 3,0 °C 0,0 km/h (0 Bft)
30.10.2017 18:19 3,0 °C 3,0 °C 81 % 1026,9 hPa 0,0 mm 1,3 km/h (1 Bft) W-SW 238 ° 0 min 0,000 mm 0,0 UV-I 0 W/m² 0,1 °C 3,0 °C 3,2 km/h (1 Bft)
30.10.2017 18:20 3,1 °C 3,1 °C 81 % 1026,9 hPa 0,0 mm 1,1 km/h (1 Bft) W-SW 238 ° 0 min 0,000 mm 0,0 UV-I 0 W/m² 0,2 °C 3,1 °C 1,6 km/h (1 Bft)
30.10.2017 18:21 3,1 °C 3,1 °C 81 % 1026,9 hPa 0,0 mm 0,2 km/h (0 Bft) W-SW 238 ° 0 min 0,000 mm 0,0 UV-I 0 W/m² 0,2 °C 3,1 °C 1,6 km/h (1 Bft)
30.10.2017 18:22 3,1 °C 3,1 °C 81 % 1026,9 hPa 0,0 mm 0,3 km/h (0 Bft) W-SW 238 ° 0 min 0,000 mm 0,0 UV-I 0 W/m² 0,2 °C 3,1 °C 1,6 km/h (1 Bft)
30.10.2017 18:23 3,1 °C 3,1 °C 81 % 1026,9 hPa 0,0 mm 1,3 km/h (1 Bft) W-SW 237 ° 0 min 0,000 mm 0,0 UV-I 0 W/m² 0,2 °C 3,1 °C 3,2 km/h (1 Bft)
30.10.2017 18:24 3,1 °C 3,1 °C 81 % 1026,9 hPa 0,0 mm 2,0 km/h (1 Bft) W-SW 237 ° 0 min 0,000 mm 0,0 UV-I 0 W/m² 0,2 °C 3,1 °C 3,2 km/h (1 Bft)
30.10.2017 18:25 3,1 °C 3,1 °C 81 % 1027,0 hPa 0,0 mm 2,4 km/h (1 Bft) W-SW 237 ° 0 min 0,000 mm 0,0 UV-I 0 W/m² 0,2 °C 3,1 °C 3,2 km/h (1 Bft)
30.10.2017 18:26 3,1 °C 3,1 °C 81 % 1027,0 hPa 0,0 mm 2,0 km/h (1 Bft) W-SW 237 ° 0 min 0,000 mm 0,0 UV-I 0 W/m² 0,2 °C 3,1 °C 3,2 km/h (1 Bft)
30.10.2017 18:27 3,1 °C 3,1 °C 80 % 1027,0 hPa 0,0 mm 3,5 km/h (1 Bft) SW 232 ° 0 min 0,000 mm 0,0 UV-I 0 W/m² -0,0 °C 3,1 °C 4,8 km/h (1 Bft)
30.10.2017 18:28 3,1 °C 3,1 °C 80 % 1027,0 hPa 0,0 mm 4,6 km/h (1 Bft) SW 232 ° 0 min 0,000 mm 0,0 UV-I 0 W/m² -0,0 °C 2,1 °C 4,8 km/h (1 Bft)
30.10.2017 18:29 3,1 °C 3,1 °C 80 % 1027,0 hPa 0,0 mm 2,6 km/h (1 Bft) SW 232 ° 0 min 0,000 mm 0,0 UV-I 0 W/m² -0,0 °C 3,1 °C 3,2 km/h (1 Bft)
30.10.2017 18:30 3,2 °C 3,2 °C 80 % 1027,0 hPa 0,0 mm 2,3 km/h (1 Bft) SW 232 ° 0 min 0,000 mm 0,0 UV-I 0 W/m² 0,1 °C 3,2 °C 4,8 km/h (1 Bft)
30.10.2017 18:31 3,2 °C 3,2 °C 80 % 1027,0 hPa 0,0 mm 2,1 km/h (1 Bft) SW 232 ° 0 min 0,000 mm 0,0 UV-I 0 W/m² 0,1 °C 3,2 °C 4,8 km/h (1 Bft)
30.10.2017 18:32 3,1 °C 3,2 °C 80 % 1027,0 hPa 0,0 mm 2,7 km/h (1 Bft) SW 232 ° 0 min 0,000 mm 0,0 UV-I 0 W/m² -0,0 °C 3,1 °C 4,8 km/h (1 Bft)
30.10.2017 18:33 3,2 °C 3,2 °C 79 % 1027,0 hPa 0,0 mm 1,1 km/h (1 Bft) SW 232 ° 0 min 0,000 mm 0,0 UV-I 0 W/m² -0,1 °C 3,2 °C 3,2 km/h (1 Bft)
30.10.2017 18:34 3,2 °C 3,2 °C 81 % 1027,1 hPa 0,0 mm 1,9 km/h (1 Bft) SW 232 ° 0 min 0,000 mm 0,0 UV-I 0 W/m² 0,3 °C 3,2 °C 3,2 km/h (1 Bft)
30.10.2017 18:35 3,1 °C 3,2 °C 81 % 1027,0 hPa 0,0 mm 0,7 km/h (0 Bft) SW 232 ° 0 min 0,000 mm 0,0 UV-I 0 W/m² 0,2 °C 3,1 °C 1,6 km/h (1 Bft)
30.10.2017 18:36 3,2 °C 3,2 °C 81 % 1027,1 hPa 0,0 mm 2,1 km/h (1 Bft) SW 232 ° 0 min 0,000 mm 0,0 UV-I 0 W/m² 0,3 °C 3,2 °C 3,2 km/h (1 Bft)
30.10.2017 18:37 3,1 °C 3,2 °C 81 % 1027,1 hPa 0,0 mm 0,0 km/h (0 Bft) SW 232 ° 0 min 0,000 mm 0,0 UV-I 0 W/m² 0,2 °C 3,1 °C 0,0 km/h (0 Bft)
30.10.2017 18:38 3,1 °C 3,2 °C 81 % 1027,1 hPa 0,0 mm 0,0 km/h (0 Bft) SW 232 ° 0 min 0,000 mm 0,0 UV-I 0 W/m² 0,2 °C 3,1 °C 0,0 km/h (0 Bft)
30.10.2017 18:39 3,1 °C 3,1 °C 81 % 1027,1 hPa 0,0 mm 0,1 km/h (0 Bft) SW 232 ° 0 min 0,000 mm 0,0 UV-I 0 W/m² 0,2 °C 3,1 °C 1,6 km/h (1 Bft)
30.10.2017 18:40 3,1 °C 3,1 °C 82 % 1027,2 hPa 0,0 mm 0,0 km/h (0 Bft) SW 232 ° 0 min 0,000 mm 0,0 UV-I 0 W/m² 0,3 °C 3,1 °C 0,0 km/h (0 Bft)
30.10.2017 18:41 3,0 °C 3,1 °C 83 % 1027,2 hPa 0,0 mm 0,0 km/h (0 Bft) SW 232 ° 0 min 0,000 mm 0,0 UV-I 0 W/m² 0,4 °C 3,0 °C 0,0 km/h (0 Bft)
30.10.2017 18:42 3,0 °C 3,1 °C 83 % 1027,2 hPa 0,0 mm 0,0 km/h (0 Bft) SW 232 ° 0 min 0,000 mm 0,0 UV-I 0 W/m² 0,4 °C 3,0 °C 0,0 km/h (0 Bft)
30.10.2017 18:43 2,9 °C 3,0 °C 83 % 1027,3 hPa 0,0 mm 0,0 km/h (0 Bft) SW 232 ° 0 min 0,000 mm 0,0 UV-I 0 W/m² 0,3 °C 2,9 °C 0,0 km/h (0 Bft)
30.10.2017 18:44 2,9 °C 2,9 °C 82 % 1027,3 hPa 0,0 mm 0,0 km/h (0 Bft) SW 232 ° 0 min 0,000 mm 0,0 UV-I 0 W/m² 0,1 °C 2,9 °C 0,0 km/h (0 Bft)
30.10.2017 18:45 2,9 °C 2,9 °C 81 % 1027,3 hPa 0,0 mm 0,0 km/h (0 Bft) SW 232 ° 0 min 0,000 mm 0,0 UV-I 0 W/m² -0,0 °C 2,9 °C 0,0 km/h (0 Bft)
30.10.2017 18:46 2,9 °C 2,9 °C 80 % 1027,3 hPa 0,0 mm 0,0 km/h (0 Bft) SW 232 ° 0 min 0,000 mm 0,0 UV-I 0 W/m² -0,2 °C 2,9 °C 0,0 km/h (0 Bft)
30.10.2017 18:47 2,9 °C 3,0 °C 80 % 1027,3 hPa 0,0 mm 0,0 km/h (0 Bft) SW 232 ° 0 min 0,000 mm 0,0 UV-I 0 W/m² -0,2 °C 2,9 °C 0,0 km/h (0 Bft)
30.10.2017 18:48 2,9 °C 3,0 °C 81 % 1027,3 hPa 0,0 mm 0,0 km/h (0 Bft) SW 232 ° 0 min 0,000 mm 0,0 UV-I 0 W/m² -0,0 °C 2,9 °C 0,0 km/h (0 Bft)
30.10.2017 18:49 2,9 °C 2,9 °C 81 % 1027,3 hPa 0,0 mm 0,0 km/h (0 Bft) SW 232 ° 0 min 0,000 mm 0,0 UV-I 0 W/m² -0,0 °C 2,9 °C 0,0 km/h (0 Bft)
30.10.2017 18:50 2,9 °C 2,9 °C 81 % 1027,3 hPa 0,0 mm 0,0 km/h (0 Bft) SW 232 ° 0 min 0,000 mm 0,0 UV-I 0 W/m² -0,0 °C 2,9 °C 0,0 km/h (0 Bft)
30.10.2017 18:51 2,9 °C 2,9 °C 81 % 1027,3 hPa 0,0 mm 0,4 km/h (0 Bft) SW 232 ° 0 min 0,000 mm 0,0 UV-I 0 W/m² -0,0 °C 2,9 °C 3,2 km/h (1 Bft)
30.10.2017 18:52 2,9 °C 2,9 °C 81 % 1027,3 hPa 0,0 mm 3,1 km/h (1 Bft) SW 232 ° 0 min 0,000 mm 0,0 UV-I 0 W/m² -0,0 °C 2,9 °C 4,8 km/h (1 Bft)
30.10.2017 18:53 2,9 °C 3,0 °C 80 % 1027,3 hPa 0,0 mm 2,1 km/h (1 Bft) SW 229 ° 0 min 0,000 mm 0,0 UV-I 0 W/m² -0,2 °C 2,9 °C 4,8 km/h (1 Bft)
30.10.2017 18:54 3,0 °C 3,0 °C 80 % 1027,3 hPa 0,0 mm 2,6 km/h (1 Bft) SW 229 ° 0 min 0,000 mm 0,0 UV-I 0 W/m² -0,1 °C 3,0 °C 4,8 km/h (1 Bft)
30.10.2017 18:55 3,0 °C 3,0 °C 80 % 1027,3 hPa 0,0 mm 4,4 km/h (1 Bft) SW 222 ° 0 min 0,000 mm 0,0 UV-I 0 W/m² -0,1 °C 3,0 °C 6,4 km/h (2 Bft)
30.10.2017 18:56 3,0 °C 3,0 °C 81 % 1027,3 hPa 0,0 mm 2,0 km/h (1 Bft) SW 222 ° 0 min 0,000 mm 0,0 UV-I 0 W/m² 0,1 °C 3,0 °C 3,2 km/h (1 Bft)
30.10.2017 18:57 3,0 °C 3,1 °C 81 % 1027,4 hPa 0,0 mm 1,4 km/h (1 Bft) SW 222 ° 0 min 0,000 mm 0,0 UV-I 0 W/m² 0,1 °C 3,0 °C 3,2 km/h (1 Bft)
30.10.2017 18:58 3,0 °C 3,1 °C 81 % 1027,4 hPa 0,0 mm 2,3 km/h (1 Bft) SW 222 ° 0 min 0,000 mm 0,0 UV-I 0 W/m² 0,1 °C 3,0 °C 3,2 km/h (1 Bft)
30.10.2017 18:59 3,0 °C 3,0 °C 81 % 1027,4 hPa 0,0 mm 1,6 km/h (1 Bft) SW 222 ° 0 min 0,000 mm 0,0 UV-I 0 W/m² 0,1 °C 3,0 °C 3,2 km/h (1 Bft)
30.10.2017 19:00 2,9 °C 3,0 °C 81 % 1027,4 hPa 0,0 mm 0,2 km/h (0 Bft) SW 222 ° 0 min 0,000 mm 0,0 UV-I 0 W/m² -0,0 °C 2,9 °C 1,6 km/h (1 Bft)
30.10.2017 19:01 2,9 °C 3,0 °C 82 % 1027,4 hPa 0,0 mm 0,0 km/h (0 Bft) SW 222 ° 0 min 0,000 mm 0,0 UV-I 0 W/m² 0,1 °C 2,9 °C 0,0 km/h (0 Bft)
30.10.2017 19:02 2,9 °C 2,9 °C 83 % 1027,4 hPa 0,0 mm 0,0 km/h (0 Bft) SW 222 ° 0 min 0,000 mm 0,0 UV-I 0 W/m² 0,3 °C 2,9 °C 0,0 km/h (0 Bft)
30.10.2017 19:03 2,8 °C 2,9 °C 83 % 1027,5 hPa 0,0 mm 0,0 km/h (0 Bft) SW 222 ° 0 min 0,000 mm 0,0 UV-I 0 W/m² 0,2 °C 2,8 °C 0,0 km/h (0 Bft)
30.10.2017 19:04 2,8 °C 2,8 °C 83 % 1027,4 hPa 0,0 mm 0,1 km/h (0 Bft) SW 222 ° 0 min 0,000 mm 0,0 UV-I 0 W/m² 0,2 °C 2,8 °C 1,6 km/h (1 Bft)
30.10.2017 19:05 2,7 °C 2,8 °C 83 % 1027,5 hPa 0,0 mm 1,8 km/h (1 Bft) SW 222 ° 0 min 0,000 mm 0,0 UV-I 0 W/m² 0,1 °C 2,7 °C 4,8 km/h (1 Bft)
30.10.2017 19:06 2,7 °C 2,7 °C 82 % 1027,5 hPa 0,0 mm 4,1 km/h (1 Bft) SW 221 ° 0 min 0,000 mm 0,0 UV-I 0 W/m² -0,1 °C 2,7 °C 4,8 km/h (1 Bft)
30.10.2017 19:07 2,8 °C 2,8 °C 82 % 1027,5 hPa 0,0 mm 3,2 km/h (1 Bft) SW 221 ° 0 min 0,000 mm 0,0 UV-I 0 W/m² 0,0 °C 2,8 °C 4,8 km/h (1 Bft)
30.10.2017 19:08 2,8 °C 2,8 °C 81 % 1027,5 hPa 0,0 mm 2,4 km/h (1 Bft) SW 221 ° 0 min 0,000 mm 0,0 UV-I 0 W/m² -0,1 °C 2,8 °C 4,8 km/h (1 Bft)
30.10.2017 19:09 2,8 °C 2,8 °C 81 % 1027,4 hPa 0,0 mm 1,9 km/h (1 Bft) SW 221 ° 0 min 0,000 mm 0,0 UV-I 0 W/m² -0,1 °C 2,8 °C 3,2 km/h (1 Bft)
30.10.2017 19:10 2,9 °C 2,9 °C 81 % 1027,5 hPa 0,0 mm 1,9 km/h (1 Bft) SW 221 ° 0 min 0,000 mm 0,0 UV-I 0 W/m² -0,0 °C 2,9 °C 3,2 km/h (1 Bft)
30.10.2017 19:11 2,9 °C 2,9 °C 81 % 1027,5 hPa 0,0 mm 0,5 km/h (0 Bft) SW 221 ° 0 min 0,000 mm 0,0 UV-I 0 W/m² -0,0 °C 2,9 °C 1,6 km/h (1 Bft)
30.10.2017 19:12 2,9 °C 2,9 °C 81 % 1027,5 hPa 0,0 mm 2,9 km/h (1 Bft) SW 221 ° 0 min 0,000 mm 0,0 UV-I 0 W/m² -0,0 °C 2,9 °C 4,8 km/h (1 Bft)
30.10.2017 19:13 2,9 °C 2,9 °C 81 % 1027,5 hPa 0,0 mm 2,8 km/h (1 Bft) S-SW 212 ° 0 min 0,000 mm 0,0 UV-I 0 W/m² -0,0 °C 2,9 °C 4,8 km/h (1 Bft)
30.10.2017 19:14 2,9 °C 2,9 °C 81 % 1027,4 hPa 0,0 mm 3,9 km/h (1 Bft) S-SW 212 ° 0 min 0,000 mm 0,0 UV-I 0 W/m² -0,0 °C 2,9 °C 4,8 km/h (1 Bft)
30.10.2017 19:15 2,9 °C 2,9 °C 80 % 1027,5 hPa 0,0 mm 3,0 km/h (1 Bft) S-SW 212 ° 0 min 0,000 mm 0,0 UV-I 0 W/m² -0,2 °C 2,9 °C 4,8 km/h (1 Bft)
30.10.2017 19:16 2,9 °C 2,9 °C 81 % 1027,5 hPa 0,0 mm 3,3 km/h (1 Bft) S-SW 211 ° 0 min 0,000 mm 0,0 UV-I 0 W/m² -0,0 °C 2,9 °C 4,8 km/h (1 Bft)
30.10.2017 19:17 2,9 °C 2,9 °C 80 % 1027,5 hPa 0,0 mm 3,1 km/h (1 Bft) S-SW 208 ° 0 min 0,000 mm 0,0 UV-I 0 W/m² -0,2 °C 2,9 °C 4,8 km/h (1 Bft)
30.10.2017 19:18 2,9 °C 2,9 °C 80 % 1027,5 hPa 0,0 mm 4,9 km/h (1 Bft) S-SW 205 ° 0 min 0,000 mm 0,0 UV-I 0 W/m² -0,2 °C 1,7 °C 6,4 km/h (2 Bft)
30.10.2017 19:19 2,9 °C 2,9 °C 81 % 1027,5 hPa 0,0 mm 4,1 km/h (1 Bft) S-SW 205 ° 0 min 0,000 mm 0,0 UV-I 0 W/m² -0,0 °C 2,9 °C 6,4 km/h (2 Bft)
30.10.2017 19:20 2,9 °C 2,9 °C 80 % 1027,5 hPa 0,0 mm 2,8 km/h (1 Bft) S-SW 205 ° 0 min 0,000 mm 0,0 UV-I 0 W/m² -0,2 °C 2,9 °C 3,2 km/h (1 Bft)
30.10.2017 19:21 2,9 °C 2,9 °C 81 % 1027,5 hPa 0,0 mm 1,8 km/h (1 Bft) S-SW 205 ° 0 min 0,000 mm 0,0 UV-I 0 W/m² -0,0 °C 2,9 °C 3,2 km/h (1 Bft)
30.10.2017 19:22 2,9 °C 2,9 °C 81 % 1027,5 hPa 0,0 mm 3,4 km/h (1 Bft) S-SW 205 ° 0 min 0,000 mm 0,0 UV-I 0 W/m² -0,0 °C 2,9 °C 4,8 km/h (1 Bft)
30.10.2017 19:23 2,9 °C 2,9 °C 82 % 1027,5 hPa 0,0 mm 2,0 km/h (1 Bft) S-SW 205 ° 0 min 0,000 mm 0,0 UV-I 0 W/m² 0,1 °C 2,9 °C 4,8 km/h (1 Bft)
30.10.2017 19:24 2,8 °C 2,9 °C 82 % 1027,5 hPa 0,0 mm 1,1 km/h (1 Bft) S-SW 205 ° 0 min 0,000 mm 0,0 UV-I 0 W/m² 0,0 °C 2,8 °C 3,2 km/h (1 Bft)
30.10.2017 19:25 2,8 °C 2,8 °C 82 % 1027,5 hPa 0,0 mm 0,2 km/h (0 Bft) S-SW 205 ° 0 min 0,000 mm 0,0 UV-I 0 W/m² 0,0 °C 2,8 °C 1,6 km/h (1 Bft)
30.10.2017 19:26 2,8 °C 2,8 °C 82 % 1027,5 hPa 0,0 mm 1,2 km/h (1 Bft) S-SW 205 ° 0 min 0,000 mm 0,0 UV-I 0 W/m² 0,0 °C 2,8 °C 3,2 km/h (1 Bft)
30.10.2017 19:27 2,7 °C 2,8 °C 82 % 1027,5 hPa 0,0 mm 1,5 km/h (1 Bft) S-SW 205 ° 0 min 0,000 mm 0,0 UV-I 0 W/m² -0,1 °C 2,7 °C 3,2 km/h (1 Bft)
30.10.2017 19:28 2,7 °C 2,7 °C 83 % 1027,5 hPa 0,0 mm 1,1 km/h (1 Bft) S-SW 205 ° 0 min 0,000 mm 0,0 UV-I 0 W/m² 0,1 °C 2,7 °C 3,2 km/h (1 Bft)
30.10.2017 19:29 2,7 °C 2,7 °C 83 % 1027,5 hPa 0,0 mm 1,7 km/h (1 Bft) S-SW 205 ° 0 min 0,000 mm 0,0 UV-I 0 W/m² 0,1 °C 2,7 °C 3,2 km/h (1 Bft)
30.10.2017 19:30 2,7 °C 2,7 °C 84 % 1027,5 hPa 0,0 mm 0,2 km/h (0 Bft) S-SW 205 ° 0 min 0,000 mm 0,0 UV-I 0 W/m² 0,3 °C 2,7 °C 1,6 km/h (1 Bft)
30.10.2017 19:31 2,6 °C 2,7 °C 84 % 1027,5 hPa 0,0 mm 0,0 km/h (0 Bft) S-SW 205 ° 0 min 0,000 mm 0,0 UV-I 0 W/m² 0,2 °C 2,6 °C 0,0 km/h (0 Bft)
30.10.2017 19:32 2,6 °C 2,6 °C 84 % 1027,6 hPa 0,0 mm 0,0 km/h (0 Bft) S-SW 205 ° 0 min 0,000 mm 0,0 UV-I 0 W/m² 0,2 °C 2,6 °C 0,0 km/h (0 Bft)
30.10.2017 19:33 2,5 °C 2,6 °C 83 % 1027,6 hPa 0,0 mm 0,9 km/h (0 Bft) S-SW 205 ° 0 min 0,000 mm 0,0 UV-I 0 W/m² -0,1 °C 2,5 °C 3,2 km/h (1 Bft)
30.10.2017 19:34 2,5 °C 2,6 °C 83 % 1027,6 hPa 0,0 mm 3,8 km/h (1 Bft) S-SW 205 ° 0 min 0,000 mm 0,0 UV-I 0 W/m² -0,1 °C 2,5 °C 6,4 km/h (2 Bft)
30.10.2017 19:35 2,5 °C 2,5 °C 83 % 1027,6 hPa 0,0 mm 4,2 km/h (1 Bft) S-SW 205 ° 0 min 0,000 mm 0,0 UV-I 0 W/m² -0,1 °C 2,5 °C 6,4 km/h (2 Bft)
30.10.2017 19:36 2,5 °C 2,5 °C 83 % 1027,6 hPa 0,0 mm 1,0 km/h (0 Bft) S-SW 205 ° 0 min 0,000 mm 0,0 UV-I 0 W/m² -0,1 °C 2,5 °C 3,2 km/h (1 Bft)
30.10.2017 19:37 2,4 °C 2,5 °C 83 % 1027,6 hPa 0,0 mm 0,0 km/h (0 Bft) S-SW 205 ° 0 min 0,000 mm 0,0 UV-I 0 W/m² -0,2 °C 2,4 °C 0,0 km/h (0 Bft)
30.10.2017 19:38 2,4 °C 2,5 °C 83 % 1027,7 hPa 0,0 mm 0,0 km/h (0 Bft) S-SW 205 ° 0 min 0,000 mm 0,0 UV-I 0 W/m² -0,2 °C 2,4 °C 0,0 km/h (0 Bft)
30.10.2017 19:39 2,4 °C 2,4 °C 83 % 1027,7 hPa 0,0 mm 0,0 km/h (0 Bft) S-SW 205 ° 0 min 0,000 mm 0,0 UV-I 0 W/m² -0,2 °C 2,4 °C 0,0 km/h (0 Bft)
30.10.2017 19:40 2,4 °C 2,4 °C 83 % 1027,8 hPa 0,0 mm 0,0 km/h (0 Bft) S-SW 205 ° 0 min 0,000 mm 0,0 UV-I 0 W/m² -0,2 °C 2,4 °C 0,0 km/h (0 Bft)
30.10.2017 19:41 2,4 °C 2,4 °C 83 % 1027,7 hPa 0,0 mm 0,3 km/h (0 Bft) S-SW 205 ° 0 min 0,000 mm 0,0 UV-I 0 W/m² -0,2 °C 2,4 °C 1,6 km/h (1 Bft)
30.10.2017 19:42 2,4 °C 2,4 °C 83 % 1027,8 hPa 0,0 mm 1,1 km/h (1 Bft) S-SW 205 ° 0 min 0,000 mm 0,0 UV-I 0 W/m² -0,2 °C 2,4 °C 1,6 km/h (1 Bft)
30.10.2017 19:43 2,3 °C 2,4 °C 83 % 1027,8 hPa 0,0 mm 3,5 km/h (1 Bft) S-SW 205 ° 0 min 0,000 mm 0,0 UV-I 0 W/m² -0,3 °C 2,3 °C 4,8 km/h (1 Bft)
30.10.2017 19:44 2,3 °C 2,3 °C 83 % 1027,8 hPa 0,0 mm 0,5 km/h (0 Bft) S-SW 205 ° 0 min 0,000 mm 0,0 UV-I 0 W/m² -0,3 °C 2,3 °C 3,2 km/h (1 Bft)
30.10.2017 19:45 2,3 °C 2,3 °C 83 % 1027,8 hPa 0,0 mm 2,6 km/h (1 Bft) S-SW 205 ° 0 min 0,000 mm 0,0 UV-I 0 W/m² -0,3 °C 2,3 °C 4,8 km/h (1 Bft)
30.10.2017 19:46 2,3 °C 2,3 °C 83 % 1027,8 hPa 0,0 mm 3,1 km/h (1 Bft) S-SW 198 ° 0 min 0,000 mm 0,0 UV-I 0 W/m² -0,3 °C 2,3 °C 4,8 km/h (1 Bft)
30.10.2017 19:47 2,2 °C 2,3 °C 83 % 1027,8 hPa 0,0 mm 2,5 km/h (1 Bft) S-SW 198 ° 0 min 0,000 mm 0,0 UV-I 0 W/m² -0,4 °C 2,2 °C 4,8 km/h (1 Bft)
30.10.2017 19:48 2,2 °C 2,2 °C 83 % 1027,8 hPa 0,0 mm 3,0 km/h (1 Bft) S-SW 198 ° 0 min 0,000 mm 0,0 UV-I 0 W/m² -0,4 °C 2,2 °C 4,8 km/h (1 Bft)
30.10.2017 19:49 2,2 °C 2,3 °C 83 % 1027,8 hPa 0,0 mm 2,5 km/h (1 Bft) S-SW 198 ° 0 min 0,000 mm 0,0 UV-I 0 W/m² -0,4 °C 2,2 °C 3,2 km/h (1 Bft)
30.10.2017 19:50 2,2 °C 2,3 °C 84 % 1027,8 hPa 0,0 mm 1,8 km/h (1 Bft) S-SW 198 ° 0 min 0,000 mm 0,0 UV-I 0 W/m² -0,2 °C 2,2 °C 3,2 km/h (1 Bft)
30.10.2017 19:51 2,2 °C 2,2 °C 84 % 1027,8 hPa 0,0 mm 0,1 km/h (0 Bft) S-SW 198 ° 0 min 0,000 mm 0,0 UV-I 0 W/m² -0,2 °C 2,2 °C 1,6 km/h (1 Bft)
30.10.2017 19:52 2,2 °C 2,3 °C 84 % 1027,8 hPa 0,0 mm 0,0 km/h (0 Bft) S-SW 198 ° 0 min 0,000 mm 0,0 UV-I 0 W/m² -0,2 °C 2,2 °C 0,0 km/h (0 Bft)
30.10.2017 19:53 2,2 °C 2,3 °C 84 % 1027,8 hPa 0,0 mm 0,0 km/h (0 Bft) S-SW 198 ° 0 min 0,000 mm 0,0 UV-I 0 W/m² -0,2 °C 2,2 °C 0,0 km/h (0 Bft)
30.10.2017 19:54 2,2 °C 2,3 °C 84 % 1027,8 hPa 0,0 mm 0,0 km/h (0 Bft) S-SW 198 ° 0 min 0,000 mm 0,0 UV-I 0 W/m² -0,2 °C 2,2 °C 0,0 km/h (0 Bft)
30.10.2017 19:55 2,3 °C 2,3 °C 85 % 1027,8 hPa 0,0 mm 0,0 km/h (0 Bft) S-SW 198 ° 0 min 0,000 mm 0,0 UV-I 0 W/m² 0,0 °C 2,3 °C 0,0 km/h (0 Bft)
30.10.2017 19:56 2,3 °C 2,3 °C 85 % 1027,8 hPa 0,0 mm 0,0 km/h (0 Bft) S-SW 198 ° 0 min 0,000 mm 0,0 UV-I 0 W/m² 0,0 °C 2,3 °C 0,0 km/h (0 Bft)
30.10.2017 19:57 2,2 °C 2,3 °C 85 % 1027,8 hPa 0,0 mm 0,0 km/h (0 Bft) S-SW 198 ° 0 min 0,000 mm 0,0 UV-I 0 W/m² -0,1 °C 2,2 °C 0,0 km/h (0 Bft)
30.10.2017 19:58 2,3 °C 2,3 °C 85 % 1027,8 hPa 0,0 mm 0,0 km/h (0 Bft) S-SW 198 ° 0 min 0,000 mm 0,0 UV-I 0 W/m² 0,0 °C 2,3 °C 0,0 km/h (0 Bft)
30.10.2017 19:59 2,2 °C 2,3 °C 85 % 1027,8 hPa 0,0 mm 0,0 km/h (0 Bft) S-SW 198 ° 0 min 0,000 mm 0,0 UV-I 0 W/m² -0,1 °C 2,2 °C 0,0 km/h (0 Bft)
30.10.2017 20:00 2,2 °C 2,3 °C 85 % 1027,8 hPa 0,0 mm 0,0 km/h (0 Bft) S-SW 198 ° 0 min 0,000 mm 0,0 UV-I 0 W/m² -0,1 °C 2,2 °C 0,0 km/h (0 Bft)
30.10.2017 20:01 2,2 °C 2,2 °C 85 % 1027,8 hPa 0,0 mm 0,0 km/h (0 Bft) S-SW 198 ° 0 min 0,000 mm 0,0 UV-I 0 W/m² -0,1 °C 2,2 °C 0,0 km/h (0 Bft)
30.10.2017 20:02 2,1 °C 2,2 °C 85 % 1027,8 hPa 0,0 mm 0,0 km/h (0 Bft) S-SW 198 ° 0 min 0,000 mm 0,0 UV-I 0 W/m² -0,2 °C 2,1 °C 0,0 km/h (0 Bft)
30.10.2017 20:04 2,0 °C 2,1 °C 86 % 1027,8 hPa 0,0 mm 0,0 km/h (0 Bft) S-SW 198 ° 0 min 0,000 mm 0,0 UV-I 0 W/m² -0,1 °C 2,0 °C 0,0 km/h (0 Bft)
30.10.2017 20:05 2,1 °C 2,1 °C 85 % 1027,8 hPa 0,0 mm 0,0 km/h (0 Bft) S-SW 201 ° 0 min 0,000 mm 0,0 UV-I 0 W/m² -0,2 °C 2,1 °C 0,0 km/h (0 Bft)
30.10.2017 20:06 2,0 °C 2,1 °C 85 % 1027,8 hPa 0,0 mm 1,6 km/h (1 Bft) SW 227 ° 0 min 0,000 mm 0,0 UV-I 0 W/m² -0,3 °C 2,0 °C 4,8 km/h (1 Bft)
30.10.2017 20:07 2,1 °C 2,1 °C 85 % 1027,8 hPa 0,0 mm 0,0 km/h (0 Bft) SW 227 ° 0 min 0,000 mm 0,0 UV-I 0 W/m² -0,2 °C 2,1 °C 0,0 km/h (0 Bft)
30.10.2017 20:08 2,0 °C 2,1 °C 86 % 1027,9 hPa 0,0 mm 0,0 km/h (0 Bft) SW 227 ° 0 min 0,000 mm 0,0 UV-I 0 W/m² -0,1 °C 2,0 °C 0,0 km/h (0 Bft)
30.10.2017 20:09 2,1 °C 2,1 °C 86 % 1027,9 hPa 0,0 mm 0,2 km/h (0 Bft) SW 227 ° 0 min 0,000 mm 0,0 UV-I 0 W/m² 0,0 °C 2,1 °C 1,6 km/h (1 Bft)
30.10.2017 20:10 2,1 °C 2,1 °C 85 % 1027,8 hPa 0,0 mm 0,5 km/h (0 Bft) SW 227 ° 0 min 0,000 mm 0,0 UV-I 0 W/m² -0,2 °C 2,1 °C 1,6 km/h (1 Bft)
30.10.2017 20:11 2,0 °C 2,1 °C 86 % 1027,9 hPa 0,0 mm 0,0 km/h (0 Bft) SW 227 ° 0 min 0,000 mm 0,0 UV-I 0 W/m² -0,1 °C 2,0 °C 0,0 km/h (0 Bft)
30.10.2017 20:12 2,0 °C 2,0 °C 86 % 1027,8 hPa 0,0 mm 0,0 km/h (0 Bft) SW 227 ° 0 min 0,000 mm 0,0 UV-I 0 W/m² -0,1 °C 2,0 °C 0,0 km/h (0 Bft)
30.10.2017 20:13 2,0 °C 2,0 °C 86 % 1027,8 hPa 0,0 mm 0,0 km/h (0 Bft) SW 227 ° 0 min 0,000 mm 0,0 UV-I 0 W/m² -0,1 °C 2,0 °C 0,0 km/h (0 Bft)
30.10.2017 20:14 1,9 °C 2,0 °C 86 % 1027,8 hPa 0,0 mm 0,3 km/h (0 Bft) SW 227 ° 0 min 0,000 mm 0,0 UV-I 0 W/m² -0,2 °C 1,9 °C 1,6 km/h (1 Bft)
30.10.2017 20:15 1,9 °C 1,9 °C 86 % 1027,8 hPa 0,0 mm 0,5 km/h (0 Bft) SW 215 ° 0 min 0,000 mm 0,0 UV-I 0 W/m² -0,2 °C 1,9 °C 3,2 km/h (1 Bft)
30.10.2017 20:16 1,9 °C 1,9 °C 86 % 1027,9 hPa 0,0 mm 1,0 km/h (0 Bft) SW 216 ° 0 min 0,000 mm 0,0 UV-I 0 W/m² -0,2 °C 1,9 °C 3,2 km/h (1 Bft)
30.10.2017 20:17 1,9 °C 1,9 °C 86 % 1027,9 hPa 0,0 mm 0,0 km/h (0 Bft) SW 216 ° 0 min 0,000 mm 0,0 UV-I 0 W/m² -0,2 °C 1,9 °C 0,0 km/h (0 Bft)
30.10.2017 20:18 1,9 °C 1,9 °C 86 % 1027,9 hPa 0,0 mm 0,0 km/h (0 Bft) SW 215 ° 0 min 0,000 mm 0,0 UV-I 0 W/m² -0,2 °C 1,9 °C 0,0 km/h (0 Bft)
30.10.2017 20:19 1,9 °C 1,9 °C 86 % 1027,9 hPa 0,0 mm 0,0 km/h (0 Bft) SW 215 ° 0 min 0,000 mm 0,0 UV-I 0 W/m² -0,2 °C 1,9 °C 0,0 km/h (0 Bft)
30.10.2017 20:20 1,9 °C 1,9 °C 86 % 1027,9 hPa 0,0 mm 0,0 km/h (0 Bft) SW 215 ° 0 min 0,000 mm 0,0 UV-I 0 W/m² -0,2 °C 1,9 °C 0,0 km/h (0 Bft)
30.10.2017 20:21 1,9 °C 1,9 °C 86 % 1027,9 hPa 0,0 mm 0,0 km/h (0 Bft) SW 215 ° 0 min 0,000 mm 0,0 UV-I 0 W/m² -0,2 °C 1,9 °C 0,0 km/h (0 Bft)
30.10.2017 20:22 1,9 °C 1,9 °C 87 % 1028,0 hPa 0,0 mm 0,0 km/h (0 Bft) SW 215 ° 0 min 0,000 mm 0,0 UV-I 0 W/m² -0,0 °C 1,9 °C 0,0 km/h (0 Bft)
30.10.2017 20:23 1,9 °C 1,9 °C 87 % 1028,0 hPa 0,0 mm 0,0 km/h (0 Bft) SW 215 ° 0 min 0,000 mm 0,0 UV-I 0 W/m² -0,0 °C 1,9 °C 0,0 km/h (0 Bft)
30.10.2017 20:24 1,9 °C 1,9 °C 87 % 1028,0 hPa 0,0 mm 0,0 km/h (0 Bft) SW 216 ° 0 min 0,000 mm 0,0 UV-I 0 W/m² -0,0 °C 1,9 °C 0,0 km/h (0 Bft)
30.10.2017 20:25 1,9 °C 1,9 °C 87 % 1028,0 hPa 0,0 mm 0,0 km/h (0 Bft) SW 215 ° 0 min 0,000 mm 0,0 UV-I 0 W/m² -0,0 °C 1,9 °C 0,0 km/h (0 Bft)
30.10.2017 20:26 1,9 °C 1,9 °C 87 % 1028,0 hPa 0,0 mm 0,0 km/h (0 Bft) SW 215 ° 0 min 0,000 mm 0,0 UV-I 0 W/m² -0,0 °C 1,9 °C 0,0 km/h (0 Bft)
30.10.2017 20:27 1,9 °C 1,9 °C 87 % 1028,0 hPa 0,0 mm 0,0 km/h (0 Bft) SW 215 ° 0 min 0,000 mm 0,0 UV-I 0 W/m² -0,0 °C 1,9 °C 0,0 km/h (0 Bft)
30.10.2017 20:29 1,9 °C 1,9 °C 86 % 1028,0 hPa 0,0 mm 0,0 km/h (0 Bft) SW 215 ° 0 min 0,000 mm 0,0 UV-I 0 W/m² -0,2 °C 1,9 °C 0,0 km/h (0 Bft)
30.10.2017 20:30 1,9 °C 1,9 °C 86 % 1028,0 hPa 0,0 mm 0,0 km/h (0 Bft) SW 216 ° 0 min 0,000 mm 0,0 UV-I 0 W/m² -0,2 °C 1,9 °C 0,0 km/h (0 Bft)
30.10.2017 20:31 1,9 °C 1,9 °C 86 % 1028,1 hPa 0,0 mm 0,0 km/h (0 Bft) SW 215 ° 0 min 0,000 mm 0,0 UV-I 0 W/m² -0,2 °C 1,9 °C 0,0 km/h (0 Bft)
30.10.2017 20:32 1,8 °C 1,9 °C 86 % 1028,0 hPa 0,0 mm 0,0 km/h (0 Bft) SW 215 ° 0 min 0,000 mm 0,0 UV-I 0 W/m² -0,3 °C 1,8 °C 0,0 km/h (0 Bft)
30.10.2017 20:33 1,8 °C 1,8 °C 86 % 1028,1 hPa 0,0 mm 0,0 km/h (0 Bft) SW 215 ° 0 min 0,000 mm 0,0 UV-I 0 W/m² -0,3 °C 1,8 °C 0,0 km/h (0 Bft)
30.10.2017 20:34 1,8 °C 1,8 °C 86 % 1028,1 hPa 0,0 mm 0,0 km/h (0 Bft) SW 215 ° 0 min 0,000 mm 0,0 UV-I 0 W/m² -0,3 °C 1,8 °C 0,0 km/h (0 Bft)
30.10.2017 20:35 1,8 °C 1,8 °C 86 % 1028,1 hPa 0,0 mm 0,0 km/h (0 Bft) SW 215 ° 0 min 0,000 mm 0,0 UV-I 0 W/m² -0,3 °C 1,8 °C 0,0 km/h (0 Bft)
30.10.2017 20:36 1,8 °C 1,8 °C 86 % 1028,1 hPa 0,0 mm 0,0 km/h (0 Bft) SW 215 ° 0 min 0,000 mm 0,0 UV-I 0 W/m² -0,3 °C 1,8 °C 0,0 km/h (0 Bft)
30.10.2017 20:37 1,8 °C 1,8 °C 86 % 1028,1 hPa 0,0 mm 0,0 km/h (0 Bft) SW 215 ° 0 min 0,000 mm 0,0 UV-I 0 W/m² -0,3 °C 1,8 °C 0,0 km/h (0 Bft)
30.10.2017 20:38 1,7 °C 1,8 °C 86 % 1028,1 hPa 0,0 mm 0,0 km/h (0 Bft) SW 215 ° 0 min 0,000 mm 0,0 UV-I 0 W/m² -0,4 °C 1,7 °C 0,0 km/h (0 Bft)
30.10.2017 20:39 1,7 °C 1,7 °C 86 % 1028,2 hPa 0,0 mm 0,0 km/h (0 Bft) SW 216 ° 0 min 0,000 mm 0,0 UV-I 0 W/m² -0,4 °C 1,7 °C 0,0 km/h (0 Bft)
30.10.2017 20:40 1,7 °C 1,7 °C 87 % 1028,2 hPa 0,0 mm 0,0 km/h (0 Bft) SW 216 ° 0 min 0,000 mm 0,0 UV-I 0 W/m² -0,2 °C 1,7 °C 0,0 km/h (0 Bft)
30.10.2017 20:41 1,6 °C 1,7 °C 87 % 1028,2 hPa 0,0 mm 0,0 km/h (0 Bft) SW 215 ° 0 min 0,000 mm 0,0 UV-I 0 W/m² -0,3 °C 1,6 °C 0,0 km/h (0 Bft)
30.10.2017 20:42 1,7 °C 1,7 °C 87 % 1028,2 hPa 0,0 mm 0,0 km/h (0 Bft) SW 215 ° 0 min 0,000 mm 0,0 UV-I 0 W/m² -0,2 °C 1,7 °C 0,0 km/h (0 Bft)
30.10.2017 20:43 1,7 °C 1,7 °C 87 % 1028,2 hPa 0,0 mm 0,0 km/h (0 Bft) SW 215 ° 0 min 0,000 mm 0,0 UV-I 0 W/m² -0,2 °C 1,7 °C 0,0 km/h (0 Bft)
30.10.2017 20:44 1,7 °C 1,7 °C 87 % 1028,2 hPa 0,0 mm 0,0 km/h (0 Bft) SW 215 ° 0 min 0,000 mm 0,0 UV-I 0 W/m² -0,2 °C 1,7 °C 0,0 km/h (0 Bft)
30.10.2017 20:45 1,7 °C 1,7 °C 86 % 1028,2 hPa 0,0 mm 0,0 km/h (0 Bft) SW 215 ° 0 min 0,000 mm 0,0 UV-I 0 W/m² -0,4 °C 1,7 °C 0,0 km/h (0 Bft)
30.10.2017 20:46 1,7 °C 1,7 °C 86 % 1028,3 hPa 0,0 mm 0,0 km/h (0 Bft) SW 216 ° 0 min 0,000 mm 0,0 UV-I 0 W/m² -0,4 °C 1,7 °C 0,0 km/h (0 Bft)
30.10.2017 20:47 1,7 °C 1,7 °C 86 % 1028,3 hPa 0,0 mm 0,0 km/h (0 Bft) SW 216 ° 0 min 0,000 mm 0,0 UV-I 0 W/m² -0,4 °C 1,7 °C 0,0 km/h (0 Bft)
30.10.2017 20:48 1,7 °C 1,7 °C 87 % 1028,3 hPa 0,0 mm 0,0 km/h (0 Bft) SW 215 ° 0 min 0,000 mm 0,0 UV-I 0 W/m² -0,2 °C 1,7 °C 0,0 km/h (0 Bft)
30.10.2017 20:49 1,7 °C 1,7 °C 87 % 1028,2 hPa 0,0 mm 0,0 km/h (0 Bft) SW 216 ° 0 min 0,000 mm 0,0 UV-I 0 W/m² -0,2 °C 1,7 °C 0,0 km/h (0 Bft)
30.10.2017 20:50 1,7 °C 1,7 °C 87 % 1028,3 hPa 0,0 mm 0,0 km/h (0 Bft) SW 216 ° 0 min 0,000 mm 0,0 UV-I 0 W/m² -0,2 °C 1,7 °C 0,0 km/h (0 Bft)
30.10.2017 20:51 1,7 °C 1,7 °C 87 % 1028,3 hPa 0,0 mm 0,0 km/h (0 Bft) SW 216 ° 0 min 0,000 mm 0,0 UV-I 0 W/m² -0,2 °C 1,7 °C 0,0 km/h (0 Bft)
30.10.2017 20:52 1,7 °C 1,7 °C 87 % 1028,3 hPa 0,0 mm 0,0 km/h (0 Bft) SW 215 ° 0 min 0,000 mm 0,0 UV-I 0 W/m² -0,2 °C 1,7 °C 0,0 km/h (0 Bft)
30.10.2017 20:53 1,6 °C 1,7 °C 87 % 1028,3 hPa 0,0 mm 0,0 km/h (0 Bft) SW 216 ° 0 min 0,000 mm 0,0 UV-I 0 W/m² -0,3 °C 1,6 °C 0,0 km/h (0 Bft)
30.10.2017 20:54 1,7 °C 1,7 °C 87 % 1028,3 hPa 0,0 mm 0,0 km/h (0 Bft) SW 215 ° 0 min 0,000 mm 0,0 UV-I 0 W/m² -0,2 °C 1,7 °C 0,0 km/h (0 Bft)
30.10.2017 20:55 1,6 °C 1,7 °C 87 % 1028,3 hPa 0,0 mm 0,0 km/h (0 Bft) SW 216 ° 0 min 0,000 mm 0,0 UV-I 0 W/m² -0,3 °C 1,6 °C 0,0 km/h (0 Bft)
30.10.2017 20:56 1,6 °C 1,7 °C 87 % 1028,2 hPa 0,0 mm 0,0 km/h (0 Bft) SW 216 ° 0 min 0,000 mm 0,0 UV-I 0 W/m² -0,3 °C 1,6 °C 0,0 km/h (0 Bft)
30.10.2017 20:57 1,6 °C 1,7 °C 87 % 1028,2 hPa 0,0 mm 0,0 km/h (0 Bft) SW 216 ° 0 min 0,000 mm 0,0 UV-I 0 W/m² -0,3 °C 1,6 °C 0,0 km/h (0 Bft)
30.10.2017 20:58 1,6 °C 1,6 °C 87 % 1028,3 hPa 0,0 mm 0,0 km/h (0 Bft) SW 216 ° 0 min 0,000 mm 0,0 UV-I 0 W/m² -0,3 °C 1,6 °C 0,0 km/h (0 Bft)
30.10.2017 20:59 1,6 °C 1,6 °C 87 % 1028,2 hPa 0,0 mm 0,0 km/h (0 Bft) SW 216 ° 0 min 0,000 mm 0,0 UV-I 0 W/m² -0,3 °C 1,6 °C 0,0 km/h (0 Bft)
30.10.2017 21:00 1,5 °C 1,6 °C 87 % 1028,2 hPa 0,0 mm 0,0 km/h (0 Bft) SW 215 ° 0 min 0,000 mm 0,0 UV-I 0 W/m² -0,4 °C 1,5 °C 0,0 km/h (0 Bft)
30.10.2017 21:01 1,6 °C 1,6 °C 87 % 1028,3 hPa 0,0 mm 0,0 km/h (0 Bft) SW 215 ° 0 min 0,000 mm 0,0 UV-I 0 W/m² -0,3 °C 1,6 °C 0,0 km/h (0 Bft)
30.10.2017 21:02 1,6 °C 1,6 °C 88 % 1028,3 hPa 0,0 mm 0,0 km/h (0 Bft) SW 215 ° 0 min 0,000 mm 0,0 UV-I 0 W/m² -0,2 °C 1,6 °C 0,0 km/h (0 Bft)
30.10.2017 21:03 1,6 °C 1,6 °C 88 % 1028,2 hPa 0,0 mm 0,0 km/h (0 Bft) SW 215 ° 0 min 0,000 mm 0,0 UV-I 0 W/m² -0,2 °C 1,6 °C 0,0 km/h (0 Bft)
30.10.2017 21:04 1,5 °C 1,6 °C 88 % 1028,3 hPa 0,0 mm 0,3 km/h (0 Bft) SW 215 ° 0 min 0,000 mm 0,0 UV-I 0 W/m² -0,3 °C 1,5 °C 1,6 km/h (1 Bft)
30.10.2017 21:05 1,5 °C 1,5 °C 87 % 1028,3 hPa 0,0 mm 1,1 km/h (1 Bft) SW 216 ° 0 min 0,000 mm 0,0 UV-I 0 W/m² -0,4 °C 1,5 °C 3,2 km/h (1 Bft)
30.10.2017 21:06 1,5 °C 1,5 °C 88 % 1028,2 hPa 0,0 mm 0,9 km/h (0 Bft) SW 215 ° 0 min 0,000 mm 0,0 UV-I 0 W/m² -0,3 °C 1,5 °C 1,6 km/h (1 Bft)
30.10.2017 21:07 1,5 °C 1,5 °C 88 % 1028,2 hPa 0,0 mm 0,4 km/h (0 Bft) SW 215 ° 0 min 0,000 mm 0,0 UV-I 0 W/m² -0,3 °C 1,5 °C 1,6 km/h (1 Bft)
30.10.2017 21:08 1,5 °C 1,5 °C 88 % 1028,2 hPa 0,0 mm 0,0 km/h (0 Bft) SW 215 ° 0 min 0,000 mm 0,0 UV-I 0 W/m² -0,3 °C 1,5 °C 0,0 km/h (0 Bft)
30.10.2017 21:09 1,5 °C 1,6 °C 88 % 1028,2 hPa 0,0 mm 0,0 km/h (0 Bft) SW 216 ° 0 min 0,000 mm 0,0 UV-I 0 W/m² -0,3 °C 1,5 °C 0,0 km/h (0 Bft)
30.10.2017 21:10 1,5 °C 1,5 °C 87 % 1028,3 hPa 0,0 mm 0,1 km/h (0 Bft) SW 215 ° 0 min 0,000 mm 0,0 UV-I 0 W/m² -0,4 °C 1,5 °C 1,6 km/h (1 Bft)
30.10.2017 21:11 1,4 °C 1,5 °C 87 % 1028,2 hPa 0,0 mm 3,3 km/h (1 Bft) SW 216 ° 0 min 0,000 mm 0,0 UV-I 0 W/m² -0,5 °C 1,4 °C 4,8 km/h (1 Bft)
30.10.2017 21:12 1,4 °C 1,4 °C 88 % 1028,2 hPa 0,0 mm 4,0 km/h (1 Bft) SW 215 ° 0 min 0,000 mm 0,0 UV-I 0 W/m² -0,4 °C 1,4 °C 4,8 km/h (1 Bft)
30.10.2017 21:13 1,4 °C 1,4 °C 88 % 1028,2 hPa 0,0 mm 4,2 km/h (1 Bft) SW 215 ° 0 min 0,000 mm 0,0 UV-I 0 W/m² -0,4 °C 1,4 °C 4,8 km/h (1 Bft)
30.10.2017 21:14 1,4 °C 1,4 °C 87 % 1028,2 hPa 0,0 mm 3,8 km/h (1 Bft) SW 215 ° 0 min 0,000 mm 0,0 UV-I 0 W/m² -0,5 °C 1,4 °C 4,8 km/h (1 Bft)
30.10.2017 21:15 1,4 °C 1,4 °C 87 % 1028,2 hPa 0,0 mm 3,2 km/h (1 Bft) SW 215 ° 0 min 0,000 mm 0,0 UV-I 0 W/m² -0,5 °C 1,4 °C 3,2 km/h (1 Bft)
30.10.2017 21:16 1,4 °C 1,4 °C 87 % 1028,2 hPa 0,0 mm 2,7 km/h (1 Bft) SW 215 ° 0 min 0,000 mm 0,0 UV-I 0 W/m² -0,5 °C 1,4 °C 3,2 km/h (1 Bft)
30.10.2017 21:17 1,5 °C 1,5 °C 87 % 1028,2 hPa 0,0 mm 3,4 km/h (1 Bft) SW 215 ° 0 min 0,000 mm 0,0 UV-I 0 W/m² -0,4 °C 1,5 °C 4,8 km/h (1 Bft)
30.10.2017 21:18 1,4 °C 1,5 °C 87 % 1028,2 hPa 0,0 mm 3,5 km/h (1 Bft) SW 215 ° 0 min 0,000 mm 0,0 UV-I 0 W/m² -0,5 °C 1,4 °C 4,8 km/h (1 Bft)
30.10.2017 21:19 1,4 °C 1,4 °C 87 % 1028,2 hPa 0,0 mm 1,8 km/h (1 Bft) SW 215 ° 0 min 0,000 mm 0,0 UV-I 0 W/m² -0,5 °C 1,4 °C 3,2 km/h (1 Bft)
30.10.2017 21:20 1,3 °C 1,4 °C 87 % 1028,2 hPa 0,0 mm 0,1 km/h (0 Bft) SW 215 ° 0 min 0,000 mm 0,0 UV-I 0 W/m² -0,6 °C 1,3 °C 1,6 km/h (1 Bft)
30.10.2017 21:21 1,3 °C 1,3 °C 88 % 1028,2 hPa 0,0 mm 0,0 km/h (0 Bft) SW 215 ° 0 min 0,000 mm 0,0 UV-I 0 W/m² -0,5 °C 1,3 °C 0,0 km/h (0 Bft)
30.10.2017 21:22 1,3 °C 1,3 °C 88 % 1028,2 hPa 0,0 mm 0,0 km/h (0 Bft) SW 215 ° 0 min 0,000 mm 0,0 UV-I 0 W/m² -0,5 °C 1,3 °C 0,0 km/h (0 Bft)
30.10.2017 21:23 1,3 °C 1,3 °C 88 % 1028,2 hPa 0,0 mm 0,0 km/h (0 Bft) SW 215 ° 0 min 0,000 mm 0,0 UV-I 0 W/m² -0,5 °C 1,3 °C 0,0 km/h (0 Bft)
30.10.2017 21:24 1,3 °C 1,3 °C 88 % 1028,2 hPa 0,0 mm 0,0 km/h (0 Bft) SW 215 ° 0 min 0,000 mm 0,0 UV-I 0 W/m² -0,5 °C 1,3 °C 0,0 km/h (0 Bft)
30.10.2017 21:25 1,3 °C 1,3 °C 88 % 1028,1 hPa 0,0 mm 0,0 km/h (0 Bft) SW 215 ° 0 min 0,000 mm 0,0 UV-I 0 W/m² -0,5 °C 1,3 °C 0,0 km/h (0 Bft)
30.10.2017 21:26 1,2 °C 1,3 °C 88 % 1028,2 hPa 0,0 mm 0,0 km/h (0 Bft) SW 215 ° 0 min 0,000 mm 0,0 UV-I 0 W/m² -0,6 °C 1,2 °C 0,0 km/h (0 Bft)
30.10.2017 21:27 1,2 °C 1,3 °C 88 % 1028,1 hPa 0,0 mm 0,0 km/h (0 Bft) SW 215 ° 0 min 0,000 mm 0,0 UV-I 0 W/m² -0,6 °C 1,2 °C 0,0 km/h (0 Bft)
30.10.2017 21:29 1,2 °C 1,2 °C 88 % 1028,1 hPa 0,0 mm 0,0 km/h (0 Bft) SW 215 ° 0 min 0,000 mm 0,0 UV-I 0 W/m² -0,6 °C 1,2 °C 0,0 km/h (0 Bft)
30.10.2017 21:30 1,2 °C 1,2 °C 88 % 1028,1 hPa 0,0 mm 0,0 km/h (0 Bft) SW 215 ° 0 min 0,000 mm 0,0 UV-I 0 W/m² -0,6 °C 1,2 °C 0,0 km/h (0 Bft)
30.10.2017 21:31 1,1 °C 1,2 °C 88 % 1028,1 hPa 0,0 mm 0,0 km/h (0 Bft) SW 215 ° 0 min 0,000 mm 0,0 UV-I 0 W/m² -0,7 °C 1,1 °C 0,0 km/h (0 Bft)
30.10.2017 21:32 1,1 °C 1,2 °C 88 % 1028,1 hPa 0,0 mm 0,0 km/h (0 Bft) SW 215 ° 0 min 0,000 mm 0,0 UV-I 0 W/m² -0,7 °C 1,1 °C 0,0 km/h (0 Bft)
30.10.2017 21:33 1,2 °C 1,2 °C 89 % 1028,1 hPa 0,0 mm 0,0 km/h (0 Bft) SW 215 ° 0 min 0,000 mm 0,0 UV-I 0 W/m² -0,4 °C 1,2 °C 0,0 km/h (0 Bft)
30.10.2017 21:34 1,1 °C 1,2 °C 89 % 1028,1 hPa 0,0 mm 0,0 km/h (0 Bft) SW 215 ° 0 min 0,000 mm 0,0 UV-I 0 W/m² -0,5 °C 1,1 °C 0,0 km/h (0 Bft)
30.10.2017 21:35 1,1 °C 1,2 °C 88 % 1028,1 hPa 0,0 mm 0,0 km/h (0 Bft) SW 215 ° 0 min 0,000 mm 0,0 UV-I 0 W/m² -0,7 °C 1,1 °C 0,0 km/h (0 Bft)
30.10.2017 21:36 1,1 °C 1,1 °C 89 % 1028,1 hPa 0,0 mm 0,0 km/h (0 Bft) SW 215 ° 0 min 0,000 mm 0,0 UV-I 0 W/m² -0,5 °C 1,1 °C 0,0 km/h (0 Bft)
30.10.2017 21:37 1,0 °C 1,1 °C 89 % 1028,1 hPa 0,0 mm 0,0 km/h (0 Bft) SW 215 ° 0 min 0,000 mm 0,0 UV-I 0 W/m² -0,6 °C 1,0 °C 0,0 km/h (0 Bft)
30.10.2017 21:38 1,0 °C 1,1 °C 89 % 1028,1 hPa 0,0 mm 0,0 km/h (0 Bft) SW 215 ° 0 min 0,000 mm 0,0 UV-I 0 W/m² -0,6 °C 1,0 °C 0,0 km/h (0 Bft)
30.10.2017 21:39 1,0 °C 1,1 °C 89 % 1028,1 hPa 0,0 mm 0,0 km/h (0 Bft) SW 215 ° 0 min 0,000 mm 0,0 UV-I 0 W/m² -0,6 °C 1,0 °C 0,0 km/h (0 Bft)
30.10.2017 21:40 1,0 °C 1,0 °C 89 % 1028,0 hPa 0,0 mm 0,0 km/h (0 Bft) SW 215 ° 0 min 0,000 mm 0,0 UV-I 0 W/m² -0,6 °C 1,0 °C 0,0 km/h (0 Bft)
30.10.2017 21:41 1,0 °C 1,0 °C 89 % 1028,1 hPa 0,0 mm 0,0 km/h (0 Bft) SW 215 ° 0 min 0,000 mm 0,0 UV-I 0 W/m² -0,6 °C 1,0 °C 0,0 km/h (0 Bft)
30.10.2017 21:42 1,0 °C 1,0 °C 89 % 1028,0 hPa 0,0 mm 0,0 km/h (0 Bft) SW 215 ° 0 min 0,000 mm 0,0 UV-I 0 W/m² -0,6 °C 1,0 °C 0,0 km/h (0 Bft)
30.10.2017 21:43 1,0 °C 1,0 °C 89 % 1028,0 hPa 0,0 mm 0,0 km/h (0 Bft) SW 215 ° 0 min 0,000 mm 0,0 UV-I 0 W/m² -0,6 °C 1,0 °C 0,0 km/h (0 Bft)
30.10.2017 21:44 1,1 °C 1,1 °C 89 % 1028,0 hPa 0,0 mm 0,0 km/h (0 Bft) SW 216 ° 0 min 0,000 mm 0,0 UV-I 0 W/m² -0,5 °C 1,1 °C 0,0 km/h (0 Bft)
30.10.2017 21:45 1,1 °C 1,1 °C 89 % 1028,0 hPa 0,0 mm 0,0 km/h (0 Bft) SW 215 ° 0 min 0,000 mm 0,0 UV-I 0 W/m² -0,5 °C 1,1 °C 0,0 km/h (0 Bft)
30.10.2017 21:46 1,2 °C 1,2 °C 89 % 1028,0 hPa 0,0 mm 0,0 km/h (0 Bft) SW 215 ° 0 min 0,000 mm 0,0 UV-I 0 W/m² -0,4 °C 1,2 °C 0,0 km/h (0 Bft)
30.10.2017 21:47 1,2 °C 1,2 °C 89 % 1028,0 hPa 0,0 mm 0,0 km/h (0 Bft) SW 215 ° 0 min 0,000 mm 0,0 UV-I 0 W/m² -0,4 °C 1,2 °C 0,0 km/h (0 Bft)
30.10.2017 21:48 1,2 °C 1,2 °C 88 % 1028,0 hPa 0,0 mm 0,0 km/h (0 Bft) SW 215 ° 0 min 0,000 mm 0,0 UV-I 0 W/m² -0,6 °C 1,2 °C 0,0 km/h (0 Bft)
30.10.2017 21:49 1,2 °C 1,2 °C 88 % 1028,0 hPa 0,0 mm 0,0 km/h (0 Bft) SW 215 ° 0 min 0,000 mm 0,0 UV-I 0 W/m² -0,6 °C 1,2 °C 0,0 km/h (0 Bft)
30.10.2017 21:50 1,1 °C 1,2 °C 88 % 1028,0 hPa 0,0 mm 0,0 km/h (0 Bft) SW 215 ° 0 min 0,000 mm 0,0 UV-I 0 W/m² -0,7 °C 1,1 °C 0,0 km/h (0 Bft)
30.10.2017 21:51 1,1 °C 1,1 °C 87 % 1028,0 hPa 0,0 mm 0,0 km/h (0 Bft) SW 215 ° 0 min 0,000 mm 0,0 UV-I 0 W/m² -0,8 °C 1,1 °C 0,0 km/h (0 Bft)
30.10.2017 21:52 1,1 °C 1,1 °C 87 % 1028,0 hPa 0,0 mm 0,0 km/h (0 Bft) SW 215 ° 0 min 0,000 mm 0,0 UV-I 0 W/m² -0,8 °C 1,1 °C 0,0 km/h (0 Bft)
30.10.2017 21:53 1,1 °C 1,1 °C 87 % 1028,0 hPa 0,0 mm 0,0 km/h (0 Bft) SW 215 ° 0 min 0,000 mm 0,0 UV-I 0 W/m² -0,8 °C 1,1 °C 0,0 km/h (0 Bft)
30.10.2017 21:54 1,1 °C 1,1 °C 88 % 1028,0 hPa 0,0 mm 0,0 km/h (0 Bft) SW 215 ° 0 min 0,000 mm 0,0 UV-I 0 W/m² -0,7 °C 1,1 °C 0,0 km/h (0 Bft)
30.10.2017 21:55 1,1 °C 1,1 °C 88 % 1028,0 hPa 0,0 mm 0,0 km/h (0 Bft) SW 215 ° 0 min 0,000 mm 0,0 UV-I 0 W/m² -0,7 °C 1,1 °C 0,0 km/h (0 Bft)
30.10.2017 21:56 1,1 °C 1,1 °C 87 % 1028,0 hPa 0,0 mm 0,0 km/h (0 Bft) SW 215 ° 0 min 0,000 mm 0,0 UV-I 0 W/m² -0,8 °C 1,1 °C 0,0 km/h (0 Bft)
30.10.2017 21:57 1,0 °C 1,1 °C 86 % 1028,0 hPa 0,0 mm 0,0 km/h (0 Bft) SW 215 ° 0 min 0,000 mm 0,0 UV-I 0 W/m² -1,1 °C 1,0 °C 0,0 km/h (0 Bft)
30.10.2017 21:58 1,0 °C 1,0 °C 87 % 1028,0 hPa 0,0 mm 0,0 km/h (0 Bft) SW 215 ° 0 min 0,000 mm 0,0 UV-I 0 W/m² -0,9 °C 1,0 °C 0,0 km/h (0 Bft)
30.10.2017 21:59 0,9 °C 1,0 °C 87 % 1028,0 hPa 0,0 mm 0,0 km/h (0 Bft) SW 215 ° 0 min 0,000 mm 0,0 UV-I 0 W/m² -1,0 °C 0,9 °C 0,0 km/h (0 Bft)
30.10.2017 22:00 0,9 °C 0,9 °C 87 % 1028,0 hPa 0,0 mm 0,0 km/h (0 Bft) SW 215 ° 0 min 0,000 mm 0,0 UV-I 0 W/m² -1,0 °C 0,9 °C 0,0 km/h (0 Bft)
30.10.2017 22:01 0,9 °C 0,9 °C 87 % 1028,0 hPa 0,0 mm 0,0 km/h (0 Bft) SW 215 ° 0 min 0,000 mm 0,0 UV-I 0 W/m² -1,0 °C 0,9 °C 0,0 km/h (0 Bft)
30.10.2017 22:02 0,9 °C 0,9 °C 88 % 1028,0 hPa 0,0 mm 0,0 km/h (0 Bft) SW 215 ° 0 min 0,000 mm 0,0 UV-I 0 W/m² -0,9 °C 0,9 °C 0,0 km/h (0 Bft)
30.10.2017 22:03 1,0 °C 1,0 °C 88 % 1028,0 hPa 0,0 mm 0,0 km/h (0 Bft) SW 215 ° 0 min 0,000 mm 0,0 UV-I 0 W/m² -0,8 °C 1,0 °C 0,0 km/h (0 Bft)
30.10.2017 22:04 1,0 °C 1,1 °C 87 % 1028,0 hPa 0,0 mm 0,0 km/h (0 Bft) SW 215 ° 0 min 0,000 mm 0,0 UV-I 0 W/m² -0,9 °C 1,0 °C 0,0 km/h (0 Bft)
30.10.2017 22:05 1,1 °C 1,1 °C 87 % 1028,0 hPa 0,0 mm 0,0 km/h (0 Bft) SW 215 ° 0 min 0,000 mm 0,0 UV-I 0 W/m² -0,8 °C 1,1 °C 0,0 km/h (0 Bft)
30.10.2017 22:06 1,1 °C 1,1 °C 87 % 1028,0 hPa 0,0 mm 0,0 km/h (0 Bft) SW 215 ° 0 min 0,000 mm 0,0 UV-I 0 W/m² -0,8 °C 1,1 °C 0,0 km/h (0 Bft)
30.10.2017 22:07 1,0 °C 1,1 °C 87 % 1028,0 hPa 0,0 mm 0,0 km/h (0 Bft) SW 215 ° 0 min 0,000 mm 0,0 UV-I 0 W/m² -0,9 °C 1,0 °C 0,0 km/h (0 Bft)
30.10.2017 22:08 0,9 °C 1,0 °C 86 % 1028,1 hPa 0,0 mm 0,0 km/h (0 Bft) SW 215 ° 0 min 0,000 mm 0,0 UV-I 0 W/m² -1,2 °C 0,9 °C 0,0 km/h (0 Bft)
30.10.2017 22:09 0,8 °C 0,9 °C 87 % 1028,1 hPa 0,0 mm 0,0 km/h (0 Bft) SW 215 ° 0 min 0,000 mm 0,0 UV-I 0 W/m² -1,1 °C 0,8 °C 0,0 km/h (0 Bft)
30.10.2017 22:10 0,7 °C 0,8 °C 87 % 1028,2 hPa 0,0 mm 0,0 km/h (0 Bft) SW 215 ° 0 min 0,000 mm 0,0 UV-I 0 W/m² -1,2 °C 0,7 °C 0,0 km/h (0 Bft)
30.10.2017 22:11 0,7 °C 0,7 °C 87 % 1028,2 hPa 0,0 mm 0,0 km/h (0 Bft) SW 215 ° 0 min 0,000 mm 0,0 UV-I 0 W/m² -1,2 °C 0,7 °C 0,0 km/h (0 Bft)
30.10.2017 22:12 0,6 °C 0,7 °C 88 % 1028,2 hPa 0,0 mm 0,0 km/h (0 Bft) SW 215 ° 0 min 0,000 mm 0,0 UV-I 0 W/m² -1,2 °C 0,6 °C 0,0 km/h (0 Bft)
30.10.2017 22:13 0,6 °C 0,6 °C 88 % 1028,2 hPa 0,0 mm 0,0 km/h (0 Bft) SW 215 ° 0 min 0,000 mm 0,0 UV-I 0 W/m² -1,2 °C 0,6 °C 0,0 km/h (0 Bft)
30.10.2017 22:14 0,5 °C 0,6 °C 89 % 1028,2 hPa 0,0 mm 0,0 km/h (0 Bft) SW 215 ° 0 min 0,000 mm 0,0 UV-I 0 W/m² -1,1 °C 0,5 °C 0,0 km/h (0 Bft)
30.10.2017 22:15 0,5 °C 0,6 °C 89 % 1028,1 hPa 0,0 mm 0,0 km/h (0 Bft) SW 215 ° 0 min 0,000 mm 0,0 UV-I 0 W/m² -1,1 °C 0,5 °C 0,0 km/h (0 Bft)
30.10.2017 22:16 0,6 °C 0,6 °C 89 % 1028,2 hPa 0,0 mm 0,0 km/h (0 Bft) SW 215 ° 0 min 0,000 mm 0,0 UV-I 0 W/m² -1,0 °C 0,6 °C 0,0 km/h (0 Bft)
30.10.2017 22:17 0,5 °C 0,6 °C 89 % 1028,2 hPa 0,0 mm 0,0 km/h (0 Bft) SW 215 ° 0 min 0,000 mm 0,0 UV-I 0 W/m² -1,1 °C 0,5 °C 0,0 km/h (0 Bft)
30.10.2017 22:18 0,6 °C 0,6 °C 89 % 1028,2 hPa 0,0 mm 0,0 km/h (0 Bft) SW 215 ° 0 min 0,000 mm 0,0 UV-I 0 W/m² -1,0 °C 0,6 °C 0,0 km/h (0 Bft)
30.10.2017 22:19 0,6 °C 0,6 °C 90 % 1028,2 hPa 0,0 mm 0,0 km/h (0 Bft) SW 215 ° 0 min 0,000 mm 0,0 UV-I 0 W/m² -0,8 °C 0,6 °C 0,0 km/h (0 Bft)
30.10.2017 22:20 0,6 °C 0,6 °C 90 % 1028,1 hPa 0,0 mm 0,0 km/h (0 Bft) SW 215 ° 0 min 0,000 mm 0,0 UV-I 0 W/m² -0,8 °C 0,6 °C 0,0 km/h (0 Bft)
30.10.2017 22:21 0,6 °C 0,6 °C 90 % 1028,2 hPa 0,0 mm 0,0 km/h (0 Bft) SW 215 ° 0 min 0,000 mm 0,0 UV-I 0 W/m² -0,8 °C 0,6 °C 0,0 km/h (0 Bft)
30.10.2017 22:22 0,6 °C 0,6 °C 90 % 1028,2 hPa 0,0 mm 0,0 km/h (0 Bft) SW 215 ° 0 min 0,000 mm 0,0 UV-I 0 W/m² -0,8 °C 0,6 °C 0,0 km/h (0 Bft)
30.10.2017 22:23 0,6 °C 0,6 °C 90 % 1028,2 hPa 0,0 mm 0,0 km/h (0 Bft) SW 215 ° 0 min 0,000 mm 0,0 UV-I 0 W/m² -0,8 °C 0,6 °C 0,0 km/h (0 Bft)
30.10.2017 22:24 0,7 °C 0,7 °C 90 % 1028,2 hPa 0,0 mm 0,0 km/h (0 Bft) SW 215 ° 0 min 0,000 mm 0,0 UV-I 0 W/m² -0,7 °C 0,7 °C 0,0 km/h (0 Bft)
30.10.2017 22:25 0,7 °C 0,7 °C 90 % 1028,2 hPa 0,0 mm 0,0 km/h (0 Bft) SW 215 ° 0 min 0,000 mm 0,0 UV-I 0 W/m² -0,7 °C 0,7 °C 0,0 km/h (0 Bft)
30.10.2017 22:26 0,6 °C 0,7 °C 89 % 1028,2 hPa 0,0 mm 0,0 km/h (0 Bft) SW 215 ° 0 min 0,000 mm 0,0 UV-I 0 W/m² -1,0 °C 0,6 °C 0,0 km/h (0 Bft)
30.10.2017 22:27 0,6 °C 0,6 °C 89 % 1028,2 hPa 0,0 mm 0,0 km/h (0 Bft) SW 215 ° 0 min 0,000 mm 0,0 UV-I 0 W/m² -1,0 °C 0,6 °C 0,0 km/h (0 Bft)
30.10.2017 22:28 0,6 °C 0,6 °C 89 % 1028,2 hPa 0,0 mm 0,0 km/h (0 Bft) SW 215 ° 0 min 0,000 mm 0,0 UV-I 0 W/m² -1,0 °C 0,6 °C 0,0 km/h (0 Bft)
30.10.2017 22:29 0,6 °C 0,6 °C 89 % 1028,2 hPa 0,0 mm 0,0 km/h (0 Bft) SW 215 ° 0 min 0,000 mm 0,0 UV-I 0 W/m² -1,0 °C 0,6 °C 0,0 km/h (0 Bft)
30.10.2017 22:30 0,6 °C 0,6 °C 89 % 1028,2 hPa 0,0 mm 0,0 km/h (0 Bft) SW 215 ° 0 min 0,000 mm 0,0 UV-I 0 W/m² -1,0 °C 0,6 °C 0,0 km/h (0 Bft)
30.10.2017 22:31 0,5 °C 0,6 °C 89 % 1028,2 hPa 0,0 mm 0,0 km/h (0 Bft) SW 215 ° 0 min 0,000 mm 0,0 UV-I 0 W/m² -1,1 °C 0,5 °C 0,0 km/h (0 Bft)
30.10.2017 22:32 0,5 °C 0,5 °C 90 % 1028,2 hPa 0,0 mm 0,0 km/h (0 Bft) SW 215 ° 0 min 0,000 mm 0,0 UV-I 0 W/m² -0,9 °C 0,5 °C 0,0 km/h (0 Bft)
30.10.2017 22:33 0,4 °C 0,5 °C 90 % 1028,2 hPa 0,0 mm 0,0 km/h (0 Bft) SW 215 ° 0 min 0,000 mm 0,0 UV-I 0 W/m² -1,0 °C 0,4 °C 0,0 km/h (0 Bft)
30.10.2017 22:34 0,4 °C 0,4 °C 89 % 1028,2 hPa 0,0 mm 0,0 km/h (0 Bft) SW 215 ° 0 min 0,000 mm 0,0 UV-I 0 W/m² -1,2 °C 0,4 °C 0,0 km/h (0 Bft)
30.10.2017 22:35 0,4 °C 0,4 °C 90 % 1028,1 hPa 0,0 mm 0,0 km/h (0 Bft) SW 215 ° 0 min 0,000 mm 0,0 UV-I 0 W/m² -1,0 °C 0,4 °C 0,0 km/h (0 Bft)
30.10.2017 22:36 0,4 °C 0,4 °C 90 % 1028,2 hPa 0,0 mm 0,0 km/h (0 Bft) SW 215 ° 0 min 0,000 mm 0,0 UV-I 0 W/m² -1,0 °C 0,4 °C 0,0 km/h (0 Bft)
30.10.2017 22:37 0,4 °C 0,4 °C 89 % 1028,1 hPa 0,0 mm 0,0 km/h (0 Bft) SW 215 ° 0 min 0,000 mm 0,0 UV-I 0 W/m² -1,2 °C 0,4 °C 0,0 km/h (0 Bft)
30.10.2017 22:38 0,4 °C 0,5 °C 89 % 1028,2 hPa 0,0 mm 0,5 km/h (0 Bft) SW 215 ° 0 min 0,000 mm 0,0 UV-I 0 W/m² -1,2 °C 0,4 °C 3,2 km/h (1 Bft)
30.10.2017 22:39 0,6 °C 0,6 °C 89 % 1028,1 hPa 0,0 mm 0,9 km/h (0 Bft) SW 215 ° 0 min 0,000 mm 0,0 UV-I 0 W/m² -1,0 °C 0,6 °C 3,2 km/h (1 Bft)
30.10.2017 22:40 0,6 °C 0,6 °C 89 % 1028,1 hPa 0,0 mm 0,1 km/h (0 Bft) SW 215 ° 0 min 0,000 mm 0,0 UV-I 0 W/m² -1,0 °C 0,6 °C 1,6 km/h (1 Bft)
30.10.2017 22:41 0,5 °C 0,6 °C 89 % 1028,0 hPa 0,0 mm 0,0 km/h (0 Bft) SW 215 ° 0 min 0,000 mm 0,0 UV-I 0 W/m² -1,1 °C 0,5 °C 0,0 km/h (0 Bft)
30.10.2017 22:42 0,4 °C 0,5 °C 89 % 1028,1 hPa 0,0 mm 0,0 km/h (0 Bft) SW 215 ° 0 min 0,000 mm 0,0 UV-I 0 W/m² -1,2 °C 0,4 °C 0,0 km/h (0 Bft)
30.10.2017 22:43 0,4 °C 0,5 °C 89 % 1028,1 hPa 0,0 mm 0,0 km/h (0 Bft) SW 215 ° 0 min 0,000 mm 0,0 UV-I 0 W/m² -1,2 °C 0,4 °C 0,0 km/h (0 Bft)
30.10.2017 22:44 0,3 °C 0,4 °C 88 % 1028,1 hPa 0,0 mm 0,0 km/h (0 Bft) SW 215 ° 0 min 0,000 mm 0,0 UV-I 0 W/m² -1,4 °C 0,3 °C 0,0 km/h (0 Bft)
30.10.2017 22:45 0,1 °C 0,3 °C 88 % 1028,1 hPa 0,0 mm 0,0 km/h (0 Bft) SW 215 ° 0 min 0,000 mm 0,0 UV-I 0 W/m² -1,6 °C 0,1 °C 0,0 km/h (0 Bft)
30.10.2017 22:46 -0,1 °C 0,1 °C 88 % 1028,1 hPa 0,0 mm 0,0 km/h (0 Bft) SW 215 ° 0 min 0,000 mm 0,0 UV-I 0 W/m² -1,8 °C -0,1 °C 0,0 km/h (0 Bft)
30.10.2017 22:47 -0,1 °C -0,1 °C 89 % 1028,1 hPa 0,0 mm 0,0 km/h (0 Bft) SW 215 ° 0 min 0,000 mm 0,0 UV-I 0 W/m² -1,7 °C -0,1 °C 0,0 km/h (0 Bft)
30.10.2017 22:48 -0,2 °C -0,1 °C 89 % 1028,1 hPa 0,0 mm 0,0 km/h (0 Bft) SW 215 ° 0 min 0,000 mm 0,0 UV-I 0 W/m² -1,8 °C -0,2 °C 0,0 km/h (0 Bft)
30.10.2017 22:49 -0,2 °C -0,2 °C 89 % 1028,1 hPa 0,0 mm 0,0 km/h (0 Bft) SW 215 ° 0 min 0,000 mm 0,0 UV-I 0 W/m² -1,8 °C -0,2 °C 0,0 km/h (0 Bft)
30.10.2017 22:50 -0,3 °C -0,2 °C 90 % 1028,1 hPa 0,0 mm 0,0 km/h (0 Bft) SW 215 ° 0 min 0,000 mm 0,0 UV-I 0 W/m² -1,7 °C -0,3 °C 0,0 km/h (0 Bft)
30.10.2017 22:51 -0,3 °C -0,3 °C 90 % 1028,1 hPa 0,0 mm 0,0 km/h (0 Bft) SW 215 ° 0 min 0,000 mm 0,0 UV-I 0 W/m² -1,7 °C -0,3 °C 0,0 km/h (0 Bft)
30.10.2017 22:52 -0,3 °C -0,3 °C 90 % 1028,1 hPa 0,0 mm 0,0 km/h (0 Bft) SW 215 ° 0 min 0,000 mm 0,0 UV-I 0 W/m² -1,7 °C -0,3 °C 0,0 km/h (0 Bft)
30.10.2017 22:53 -0,4 °C -0,3 °C 89 % 1028,1 hPa 0,0 mm 0,0 km/h (0 Bft) SW 215 ° 0 min 0,000 mm 0,0 UV-I 0 W/m² -2,0 °C -0,4 °C 0,0 km/h (0 Bft)
30.10.2017 22:54 -0,5 °C -0,4 °C 89 % 1028,0 hPa 0,0 mm 0,0 km/h (0 Bft) SW 215 ° 0 min 0,000 mm 0,0 UV-I 0 W/m² -2,1 °C -0,5 °C 0,0 km/h (0 Bft)
30.10.2017 22:55 -0,6 °C -0,5 °C 90 % 1028,0 hPa 0,0 mm 0,0 km/h (0 Bft) SW 215 ° 0 min 0,000 mm 0,0 UV-I 0 W/m² -2,0 °C -0,6 °C 0,0 km/h (0 Bft)
30.10.2017 22:56 -0,6 °C -0,6 °C 90 % 1028,0 hPa 0,0 mm 0,0 km/h (0 Bft) SW 215 ° 0 min 0,000 mm 0,0 UV-I 0 W/m² -2,0 °C -0,6 °C 0,0 km/h (0 Bft)
30.10.2017 22:57 -0,6 °C -0,6 °C 90 % 1028,0 hPa 0,0 mm 0,0 km/h (0 Bft) SW 215 ° 0 min 0,000 mm 0,0 UV-I 0 W/m² -2,0 °C -0,6 °C 0,0 km/h (0 Bft)
30.10.2017 22:58 -0,6 °C -0,6 °C 90 % 1028,0 hPa 0,0 mm 0,0 km/h (0 Bft) SW 215 ° 0 min 0,000 mm 0,0 UV-I 0 W/m² -2,0 °C -0,6 °C 0,0 km/h (0 Bft)
30.10.2017 22:59 -0,6 °C -0,6 °C 91 % 1027,9 hPa 0,0 mm 0,0 km/h (0 Bft) SW 215 ° 0 min 0,000 mm 0,0 UV-I 0 W/m² -1,9 °C -0,6 °C 0,0 km/h (0 Bft)
30.10.2017 23:00 -0,7 °C -0,6 °C 91 % 1027,9 hPa 0,0 mm 0,0 km/h (0 Bft) SW 215 ° 0 min 0,000 mm 0,0 UV-I 0 W/m² -2,0 °C -0,7 °C 0,0 km/h (0 Bft)
30.10.2017 23:01 -0,7 °C -0,7 °C 91 % 1027,9 hPa 0,0 mm 0,0 km/h (0 Bft) SW 215 ° 0 min 0,000 mm 0,0 UV-I 0 W/m² -2,0 °C -0,7 °C 0,0 km/h (0 Bft)
30.10.2017 23:02 -0,6 °C -0,6 °C 91 % 1027,9 hPa 0,0 mm 0,0 km/h (0 Bft) SW 215 ° 0 min 0,000 mm 0,0 UV-I 0 W/m² -1,9 °C -0,6 °C 0,0 km/h (0 Bft)
30.10.2017 23:03 -0,6 °C -0,6 °C 91 % 1027,9 hPa 0,0 mm 0,0 km/h (0 Bft) SW 215 ° 0 min 0,000 mm 0,0 UV-I 0 W/m² -1,9 °C -0,6 °C 0,0 km/h (0 Bft)
30.10.2017 23:04 -0,5 °C -0,5 °C 91 % 1027,9 hPa 0,0 mm 0,0 km/h (0 Bft) SW 215 ° 0 min 0,000 mm 0,0 UV-I 0 W/m² -1,8 °C -0,5 °C 0,0 km/h (0 Bft)
30.10.2017 23:05 -0,4 °C -0,4 °C 91 % 1027,9 hPa 0,0 mm 0,0 km/h (0 Bft) SW 215 ° 0 min 0,000 mm 0,0 UV-I 0 W/m² -1,7 °C -0,4 °C 0,0 km/h (0 Bft)
30.10.2017 23:06 -0,4 °C -0,4 °C 91 % 1027,9 hPa 0,0 mm 0,0 km/h (0 Bft) SW 215 ° 0 min 0,000 mm 0,0 UV-I 0 W/m² -1,7 °C -0,4 °C 0,0 km/h (0 Bft)
30.10.2017 23:07 -0,4 °C -0,4 °C 91 % 1027,9 hPa 0,0 mm 0,0 km/h (0 Bft) SW 215 ° 0 min 0,000 mm 0,0 UV-I 0 W/m² -1,7 °C -0,4 °C 0,0 km/h (0 Bft)
30.10.2017 23:08 -0,4 °C -0,3 °C 91 % 1027,9 hPa 0,0 mm 0,0 km/h (0 Bft) SW 215 ° 0 min 0,000 mm 0,0 UV-I 0 W/m² -1,7 °C -0,4 °C 0,0 km/h (0 Bft)
30.10.2017 23:09 -0,5 °C -0,4 °C 91 % 1027,8 hPa 0,0 mm 0,0 km/h (0 Bft) SW 215 ° 0 min 0,000 mm 0,0 UV-I 0 W/m² -1,8 °C -0,5 °C 0,0 km/h (0 Bft)
30.10.2017 23:10 -0,5 °C -0,4 °C 91 % 1027,8 hPa 0,0 mm 0,0 km/h (0 Bft) SW 215 ° 0 min 0,000 mm 0,0 UV-I 0 W/m² -1,8 °C -0,5 °C 0,0 km/h (0 Bft)
30.10.2017 23:11 -0,5 °C -0,5 °C 91 % 1027,9 hPa 0,0 mm 0,0 km/h (0 Bft) SW 215 ° 0 min 0,000 mm 0,0 UV-I 0 W/m² -1,8 °C -0,5 °C 0,0 km/h (0 Bft)
30.10.2017 23:12 -0,6 °C -0,5 °C 91 % 1027,9 hPa 0,0 mm 0,0 km/h (0 Bft) SW 215 ° 0 min 0,000 mm 0,0 UV-I 0 W/m² -1,9 °C -0,6 °C 0,0 km/h (0 Bft)
30.10.2017 23:13 -0,7 °C -0,6 °C 90 % 1027,9 hPa 0,0 mm 0,0 km/h (0 Bft) SW 215 ° 0 min 0,000 mm 0,0 UV-I 0 W/m² -2,1 °C -0,7 °C 0,0 km/h (0 Bft)
30.10.2017 23:14 -0,8 °C -0,7 °C 90 % 1027,9 hPa 0,0 mm 0,0 km/h (0 Bft) SW 215 ° 0 min 0,000 mm 0,0 UV-I 0 W/m² -2,2 °C -0,8 °C 0,0 km/h (0 Bft)
30.10.2017 23:15 -0,8 °C -0,8 °C 90 % 1027,8 hPa 0,0 mm 0,0 km/h (0 Bft) SW 215 ° 0 min 0,000 mm 0,0 UV-I 0 W/m² -2,2 °C -0,8 °C 0,0 km/h (0 Bft)
30.10.2017 23:16 -0,8 °C -0,8 °C 91 % 1027,8 hPa 0,0 mm 0,0 km/h (0 Bft) SW 215 ° 0 min 0,000 mm 0,0 UV-I 0 W/m² -2,1 °C -0,8 °C 0,0 km/h (0 Bft)
30.10.2017 23:17 -0,8 °C -0,8 °C 91 % 1027,7 hPa 0,0 mm 0,0 km/h (0 Bft) SW 215 ° 0 min 0,000 mm 0,0 UV-I 0 W/m² -2,1 °C -0,8 °C 0,0 km/h (0 Bft)
30.10.2017 23:18 -0,8 °C -0,8 °C 91 % 1027,7 hPa 0,0 mm 0,0 km/h (0 Bft) SW 215 ° 0 min 0,000 mm 0,0 UV-I 0 W/m² -2,1 °C -0,8 °C 0,0 km/h (0 Bft)
30.10.2017 23:19 -0,7 °C -0,7 °C 91 % 1027,7 hPa 0,0 mm 0,0 km/h (0 Bft) SW 215 ° 0 min 0,000 mm 0,0 UV-I 0 W/m² -2,0 °C -0,7 °C 0,0 km/h (0 Bft)
30.10.2017 23:20 -0,8 °C -0,7 °C 91 % 1027,7 hPa 0,0 mm 0,0 km/h (0 Bft) SW 215 ° 0 min 0,000 mm 0,0 UV-I 0 W/m² -2,1 °C -0,8 °C 0,0 km/h (0 Bft)
30.10.2017 23:21 -0,8 °C -0,8 °C 91 % 1027,7 hPa 0,0 mm 0,0 km/h (0 Bft) SW 215 ° 0 min 0,000 mm 0,0 UV-I 0 W/m² -2,1 °C -0,8 °C 0,0 km/h (0 Bft)
30.10.2017 23:22 -0,8 °C -0,8 °C 91 % 1027,8 hPa 0,0 mm 0,0 km/h (0 Bft) SW 215 ° 0 min 0,000 mm 0,0 UV-I 0 W/m² -2,1 °C -0,8 °C 0,0 km/h (0 Bft)
30.10.2017 23:23 -0,8 °C -0,8 °C 91 % 1027,8 hPa 0,0 mm 0,0 km/h (0 Bft) SW 215 ° 0 min 0,000 mm 0,0 UV-I 0 W/m² -2,1 °C -0,8 °C 0,0 km/h (0 Bft)
30.10.2017 23:24 -0,8 °C -0,8 °C 91 % 1027,8 hPa 0,0 mm 0,0 km/h (0 Bft) SW 215 ° 0 min 0,000 mm 0,0 UV-I 0 W/m² -2,1 °C -0,8 °C 0,0 km/h (0 Bft)
30.10.2017 23:25 -0,8 °C -0,8 °C 91 % 1027,8 hPa 0,0 mm 0,0 km/h (0 Bft) SW 215 ° 0 min 0,000 mm 0,0 UV-I 0 W/m² -2,1 °C -0,8 °C 0,0 km/h (0 Bft)
30.10.2017 23:26 -0,8 °C -0,8 °C 91 % 1027,8 hPa 0,0 mm 0,0 km/h (0 Bft) SW 215 ° 0 min 0,000 mm 0,0 UV-I 0 W/m² -2,1 °C -0,8 °C 0,0 km/h (0 Bft)
30.10.2017 23:27 -0,8 °C -0,8 °C 92 % 1027,8 hPa 0,0 mm 0,0 km/h (0 Bft) SW 215 ° 0 min 0,000 mm 0,0 UV-I 0 W/m² -1,9 °C -0,8 °C 0,0 km/h (0 Bft)
30.10.2017 23:28 -0,8 °C -0,8 °C 91 % 1027,8 hPa 0,0 mm 0,0 km/h (0 Bft) SW 215 ° 0 min 0,000 mm 0,0 UV-I 0 W/m² -2,1 °C -0,8 °C 0,0 km/h (0 Bft)
30.10.2017 23:29 -0,8 °C -0,8 °C 91 % 1027,8 hPa 0,0 mm 0,0 km/h (0 Bft) SW 215 ° 0 min 0,000 mm 0,0 UV-I 0 W/m² -2,1 °C -0,8 °C 0,0 km/h (0 Bft)
30.10.2017 23:30 -0,8 °C -0,8 °C 91 % 1027,8 hPa 0,0 mm 0,0 km/h (0 Bft) SW 215 ° 0 min 0,000 mm 0,0 UV-I 0 W/m² -2,1 °C -0,8 °C 0,0 km/h (0 Bft)
30.10.2017 23:31 -0,9 °C -0,8 °C 91 % 1027,8 hPa 0,0 mm 0,0 km/h (0 Bft) SW 215 ° 0 min 0,000 mm 0,0 UV-I 0 W/m² -2,2 °C -0,9 °C 0,0 km/h (0 Bft)
30.10.2017 23:32 -0,9 °C -0,9 °C 91 % 1027,9 hPa 0,0 mm 0,0 km/h (0 Bft) SW 215 ° 0 min 0,000 mm 0,0 UV-I 0 W/m² -2,2 °C -0,9 °C 0,0 km/h (0 Bft)
30.10.2017 23:33 -1,0 °C -0,9 °C 91 % 1027,9 hPa 0,0 mm 0,0 km/h (0 Bft) SW 215 ° 0 min 0,000 mm 0,0 UV-I 0 W/m² -2,3 °C -1,0 °C 0,0 km/h (0 Bft)
30.10.2017 23:34 -0,9 °C -0,9 °C 91 % 1027,9 hPa 0,0 mm 0,0 km/h (0 Bft) SW 215 ° 0 min 0,000 mm 0,0 UV-I 0 W/m² -2,2 °C -0,9 °C 0,0 km/h (0 Bft)
30.10.2017 23:35 -1,0 °C -0,9 °C 91 % 1027,9 hPa 0,0 mm 0,0 km/h (0 Bft) SW 215 ° 0 min 0,000 mm 0,0 UV-I 0 W/m² -2,3 °C -1,0 °C 0,0 km/h (0 Bft)
30.10.2017 23:36 -1,0 °C -1,0 °C 91 % 1027,9 hPa 0,0 mm 0,0 km/h (0 Bft) SW 215 ° 0 min 0,000 mm 0,0 UV-I 0 W/m² -2,3 °C -1,0 °C 0,0 km/h (0 Bft)
30.10.2017 23:37 -1,0 °C -0,9 °C 91 % 1027,9 hPa 0,0 mm 0,0 km/h (0 Bft) SW 215 ° 0 min 0,000 mm 0,0 UV-I 0 W/m² -2,3 °C -1,0 °C 0,0 km/h (0 Bft)
30.10.2017 23:38 -0,9 °C -0,9 °C 91 % 1027,9 hPa 0,0 mm 0,0 km/h (0 Bft) SW 215 ° 0 min 0,000 mm 0,0 UV-I 0 W/m² -2,2 °C -0,9 °C 0,0 km/h (0 Bft)
30.10.2017 23:39 -0,9 °C -0,9 °C 92 % 1027,9 hPa 0,0 mm 0,0 km/h (0 Bft) SW 215 ° 0 min 0,000 mm 0,0 UV-I 0 W/m² -2,0 °C -0,9 °C 0,0 km/h (0 Bft)
30.10.2017 23:40 -0,9 °C -0,9 °C 92 % 1027,9 hPa 0,0 mm 0,0 km/h (0 Bft) SW 215 ° 0 min 0,000 mm 0,0 UV-I 0 W/m² -2,0 °C -0,9 °C 0,0 km/h (0 Bft)
30.10.2017 23:41 -0,8 °C -0,8 °C 92 % 1027,9 hPa 0,0 mm 0,0 km/h (0 Bft) SW 215 ° 0 min 0,000 mm 0,0 UV-I 0 W/m² -1,9 °C -0,8 °C 0,0 km/h (0 Bft)
30.10.2017 23:42 -0,8 °C -0,8 °C 92 % 1027,9 hPa 0,0 mm 0,0 km/h (0 Bft) SW 215 ° 0 min 0,000 mm 0,0 UV-I 0 W/m² -1,9 °C -0,8 °C 0,0 km/h (0 Bft)
30.10.2017 23:43 -0,8 °C -0,8 °C 92 % 1027,9 hPa 0,0 mm 0,0 km/h (0 Bft) SW 215 ° 0 min 0,000 mm 0,0 UV-I 0 W/m² -1,9 °C -0,8 °C 0,0 km/h (0 Bft)
30.10.2017 23:44 -0,9 °C -0,8 °C 91 % 1027,9 hPa 0,0 mm 0,0 km/h (0 Bft) SW 215 ° 0 min 0,000 mm 0,0 UV-I 0 W/m² -2,2 °C -0,9 °C 0,0 km/h (0 Bft)
30.10.2017 23:45 -0,9 °C -0,9 °C 91 % 1028,0 hPa 0,0 mm 0,0 km/h (0 Bft) SW 215 ° 0 min 0,000 mm 0,0 UV-I 0 W/m² -2,2 °C -0,9 °C 0,0 km/h (0 Bft)
30.10.2017 23:46 -0,9 °C -0,9 °C 91 % 1027,9 hPa 0,0 mm 0,0 km/h (0 Bft) SW 215 ° 0 min 0,000 mm 0,0 UV-I 0 W/m² -2,2 °C -0,9 °C 0,0 km/h (0 Bft)
30.10.2017 23:47 -1,0 °C -0,9 °C 91 % 1027,9 hPa 0,0 mm 0,0 km/h (0 Bft) SW 215 ° 0 min 0,000 mm 0,0 UV-I 0 W/m² -2,3 °C -1,0 °C 0,0 km/h (0 Bft)
30.10.2017 23:48 -1,1 °C -1,0 °C 91 % 1027,9 hPa 0,0 mm 0,0 km/h (0 Bft) SW 215 ° 0 min 0,000 mm 0,0 UV-I 0 W/m² -2,4 °C -1,1 °C 0,0 km/h (0 Bft)
30.10.2017 23:49 -1,1 °C -1,0 °C 91 % 1027,9 hPa 0,0 mm 0,0 km/h (0 Bft) SW 215 ° 0 min 0,000 mm 0,0 UV-I 0 W/m² -2,4 °C -1,1 °C 0,0 km/h (0 Bft)
30.10.2017 23:50 -1,1 °C -1,1 °C 91 % 1028,0 hPa 0,0 mm 0,0 km/h (0 Bft) SW 215 ° 0 min 0,000 mm 0,0 UV-I 0 W/m² -2,4 °C -1,1 °C 0,0 km/h (0 Bft)
30.10.2017 23:51 -1,1 °C -1,1 °C 91 % 1027,9 hPa 0,0 mm 0,0 km/h (0 Bft) SW 215 ° 0 min 0,000 mm 0,0 UV-I 0 W/m² -2,4 °C -1,1 °C 0,0 km/h (0 Bft)
30.10.2017 23:52 -1,1 °C -1,1 °C 91 % 1027,9 hPa 0,0 mm 0,0 km/h (0 Bft) SW 215 ° 0 min 0,000 mm 0,0 UV-I 0 W/m² -2,4 °C -1,1 °C 0,0 km/h (0 Bft)
30.10.2017 23:53 -1,1 °C -1,1 °C 91 % 1028,0 hPa 0,0 mm 0,0 km/h (0 Bft) SW 215 ° 0 min 0,000 mm 0,0 UV-I 0 W/m² -2,4 °C -1,1 °C 0,0 km/h (0 Bft)
30.10.2017 23:54 -1,1 °C -1,1 °C 91 % 1027,9 hPa 0,0 mm 0,0 km/h (0 Bft) SW 215 ° 0 min 0,000 mm 0,0 UV-I 0 W/m² -2,4 °C -1,1 °C 0,0 km/h (0 Bft)
30.10.2017 23:55 -1,1 °C -1,1 °C 91 % 1028,0 hPa 0,0 mm 0,0 km/h (0 Bft) SW 215 ° 0 min 0,000 mm 0,0 UV-I 0 W/m² -2,4 °C -1,1 °C 0,0 km/h (0 Bft)
30.10.2017 23:56 -1,2 °C -1,1 °C 91 % 1028,0 hPa 0,0 mm 0,0 km/h (0 Bft) SW 215 ° 0 min 0,000 mm 0,0 UV-I 0 W/m² -2,5 °C -1,2 °C 0,0 km/h (0 Bft)
30.10.2017 23:57 -1,2 °C -1,2 °C 91 % 1028,0 hPa 0,0 mm 0,0 km/h (0 Bft) SW 215 ° 0 min 0,000 mm 0,0 UV-I 0 W/m² -2,5 °C -1,2 °C 0,0 km/h (0 Bft)
30.10.2017 23:58 -1,2 °C -1,2 °C 92 % 1028,0 hPa 0,0 mm 0,0 km/h (0 Bft) SW 215 ° 0 min 0,000 mm 0,0 UV-I 0 W/m² -2,3 °C -1,2 °C 0,0 km/h (0 Bft)
30.10.2017 23:59 -1,2 °C -1,2 °C 91 % 1028,0 hPa 0,0 mm 0,0 km/h (0 Bft) SW 215 ° 0 min 0,000 mm 0,0 UV-I 0 W/m² -2,5 °C -1,2 °C 0,0 km/h (0 Bft)
_ Min-Zeit 23:59 23:59 15:51 00:01 - 23:59 - - - - - - 23:59 07:31 23:59
Minimum _ -1,3 °C -1,2 °C 69 % 1018,5 hPa - 0,0 km/h (0 Bft) - - - - - - -2,5 °C -1,8 °C 0,0 km/h (0 Bft)
_ Max-Zeit 13:32 13:34 23:58 21:10 23:59 12:14 - - 13:52 11:00 13:51 13:50 00:01 15:25 13:31
Maximum _ 4,9 °C 4,9 °C 92 % 1028,3 hPa 0,0 mm 14,2 km/h
W-SW (3 Bft)
- - 1 min 0,077 mm 1,8 UV-I 371 W/m² 1,5 °C 4,8 °C 20,9 km/h
NW (4 Bft)
Durchschnitt _ 2,6 °C 2,6 °C 84 % 1023,9 hPa #0,0 mm 4,1 km/h (1 Bft) W - #3 min. #0,584 mm 1,1 UV-I 45 W/m² 0,1 °C 1,8 °C 6,7 km/h (2 Bft)